<?xml version="1.0" encoding="UTF-8" standalone="no" ?>
<gpx xmlns="http://www.topografix.com/GPX/1/1" xmlns:xsi="http://www.w3.org/2001/XMLSchema-instance" xsi:schemaLocation="http://www.topografix.com/GPX/1/1 http://www.topografix.com/GPX/1/1/gpx.xsd" version="1.1" creator="VisuGPX - https://www.visugpx.com">
  <metadata>
    <name>Boucles autour du Puy Mary</name>
    <desc><![CDATA[Projets été 2020]]></desc>
  </metadata>
  <trk>
    <name><![CDATA[Autre juil. 14]]></name>
    <trkseg>
      <trkpt lat="45.07052" lon="2.57922">
        <ele>1223.9434814453</ele>
        <time>2020-07-14T19:12:29.000Z</time>
      </trkpt>
      <trkpt lat="45.07055" lon="2.57927">
        <ele>1223.4876708984</ele>
        <time>2020-07-14T19:12:29.002Z</time>
      </trkpt>
      <trkpt lat="45.07059" lon="2.57934">
        <ele>1222.8996582031</ele>
        <time>2020-07-14T19:12:29.006Z</time>
      </trkpt>
      <trkpt lat="45.07059" lon="2.57952">
        <ele>1223.1208496094</ele>
        <time>2020-07-14T19:12:29.014Z</time>
      </trkpt>
      <trkpt lat="45.07055" lon="2.57978">
        <ele>1224.2486572266</ele>
        <time>2020-07-14T19:12:29.028Z</time>
      </trkpt>
      <trkpt lat="45.07054" lon="2.58012">
        <ele>1226.2677001953</ele>
        <time>2020-07-14T19:12:29.050Z</time>
      </trkpt>
      <trkpt lat="45.07057" lon="2.58036">
        <ele>1228.8647460938</ele>
        <time>2020-07-14T19:12:29.078Z</time>
      </trkpt>
      <trkpt lat="45.07059" lon="2.58063">
        <ele>1232.0441894531</ele>
        <time>2020-07-14T19:12:29.112Z</time>
      </trkpt>
      <trkpt lat="45.07056" lon="2.58093">
        <ele>1236.6791992188</ele>
        <time>2020-07-14T19:12:29.154Z</time>
      </trkpt>
      <trkpt lat="45.07055" lon="2.58123">
        <ele>1240.8760986328</ele>
        <time>2020-07-14T19:12:29.203Z</time>
      </trkpt>
      <trkpt lat="45.07058" lon="2.58136">
        <ele>1242.0518798828</ele>
        <time>2020-07-14T19:12:29.255Z</time>
      </trkpt>
      <trkpt lat="45.07073" lon="2.58141">
        <ele>1240.0122070312</ele>
        <time>2020-07-14T19:12:29.312Z</time>
      </trkpt>
      <trkpt lat="45.0708" lon="2.58154">
        <ele>1240.4681396484</ele>
        <time>2020-07-14T19:12:29.373Z</time>
      </trkpt>
      <trkpt lat="45.0708" lon="2.58161">
        <ele>1241.3919677734</ele>
        <time>2020-07-14T19:12:29.436Z</time>
      </trkpt>
      <trkpt lat="45.07081" lon="2.58174">
        <ele>1242.8562011719</ele>
        <time>2020-07-14T19:12:29.502Z</time>
      </trkpt>
      <trkpt lat="45.07078" lon="2.58209">
        <ele>1247.5953369141</ele>
        <time>2020-07-14T19:12:29.576Z</time>
      </trkpt>
      <trkpt lat="45.07076" lon="2.58248">
        <ele>1252.6345214844</ele>
        <time>2020-07-14T19:12:29.659Z</time>
      </trkpt>
      <trkpt lat="45.07078" lon="2.58267">
        <ele>1254.1793212891</ele>
        <time>2020-07-14T19:12:29.747Z</time>
      </trkpt>
      <trkpt lat="45.07081" lon="2.58285">
        <ele>1255.3671875</ele>
        <time>2020-07-14T19:12:29.839Z</time>
      </trkpt>
      <trkpt lat="45.07082" lon="2.58309">
        <ele>1257.0467529297</ele>
        <time>2020-07-14T19:12:29.937Z</time>
      </trkpt>
      <trkpt lat="45.07083" lon="2.58333">
        <ele>1258.6185302734</ele>
        <time>2020-07-14T19:12:30.040Z</time>
      </trkpt>
      <trkpt lat="45.07083" lon="2.58354">
        <ele>1260.5927734375</ele>
        <time>2020-07-14T19:12:30.148Z</time>
      </trkpt>
      <trkpt lat="45.07083" lon="2.58387">
        <ele>1263.4685058594</ele>
        <time>2020-07-14T19:12:30.264Z</time>
      </trkpt>
      <trkpt lat="45.07084" lon="2.58404">
        <ele>1264.5603027344</ele>
        <time>2020-07-14T19:12:30.384Z</time>
      </trkpt>
      <trkpt lat="45.07083" lon="2.58419">
        <ele>1265.7387695312</ele>
        <time>2020-07-14T19:12:30.508Z</time>
      </trkpt>
      <trkpt lat="45.07082" lon="2.58441">
        <ele>1266.6627197266</ele>
        <time>2020-07-14T19:12:30.637Z</time>
      </trkpt>
      <trkpt lat="45.07081" lon="2.58457">
        <ele>1267.4288330078</ele>
        <time>2020-07-14T19:12:30.770Z</time>
      </trkpt>
      <trkpt lat="45.07077" lon="2.58479">
        <ele>1270.6202392578</ele>
        <time>2020-07-14T19:12:30.908Z</time>
      </trkpt>
      <trkpt lat="45.07077" lon="2.58509">
        <ele>1273.3142089844</ele>
        <time>2020-07-14T19:12:31.053Z</time>
      </trkpt>
      <trkpt lat="45.07079" lon="2.58533">
        <ele>1273.7701416016</ele>
        <time>2020-07-14T19:12:31.204Z</time>
      </trkpt>
      <trkpt lat="45.0707" lon="2.58538">
        <ele>1276.4669189453</ele>
        <time>2020-07-14T19:12:31.358Z</time>
      </trkpt>
      <trkpt lat="45.07054" lon="2.58538">
        <ele>1280.8822021484</ele>
        <time>2020-07-14T19:12:31.518Z</time>
      </trkpt>
      <trkpt lat="45.0705" lon="2.58541">
        <ele>1282.3099365234</ele>
        <time>2020-07-14T19:12:31.679Z</time>
      </trkpt>
      <trkpt lat="45.07049" lon="2.58547">
        <ele>1283.2337646484</ele>
        <time>2020-07-14T19:12:31.842Z</time>
      </trkpt>
      <trkpt lat="45.0705" lon="2.58567">
        <ele>1285.1174316406</ele>
        <time>2020-07-14T19:12:32.009Z</time>
      </trkpt>
      <trkpt lat="45.07049" lon="2.58591">
        <ele>1287.6887207031</ele>
        <time>2020-07-14T19:12:32.182Z</time>
      </trkpt>
      <trkpt lat="45.07048" lon="2.58615">
        <ele>1290.0042724609</ele>
        <time>2020-07-14T19:12:32.361Z</time>
      </trkpt>
      <trkpt lat="45.07042" lon="2.58652">
        <ele>1294.6677246094</ele>
        <time>2020-07-14T19:12:32.549Z</time>
      </trkpt>
      <trkpt lat="45.07042" lon="2.58662">
        <ele>1295.5075683594</ele>
        <time>2020-07-14T19:12:32.739Z</time>
      </trkpt>
      <trkpt lat="45.07044" lon="2.58715">
        <ele>1300.2188720703</ele>
        <time>2020-07-14T19:12:32.941Z</time>
      </trkpt>
      <trkpt lat="45.07046" lon="2.58752">
        <ele>1303.3178710938</ele>
        <time>2020-07-14T19:12:33.152Z</time>
      </trkpt>
      <trkpt lat="45.07047" lon="2.5878">
        <ele>1307.2690429688</ele>
        <time>2020-07-14T19:12:33.370Z</time>
      </trkpt>
      <trkpt lat="45.07049" lon="2.58805">
        <ele>1310.4604492188</ele>
        <time>2020-07-14T19:12:33.594Z</time>
      </trkpt>
      <trkpt lat="45.07049" lon="2.58834">
        <ele>1314.6357421875</ele>
        <time>2020-07-14T19:12:33.825Z</time>
      </trkpt>
      <trkpt lat="45.07049" lon="2.58862">
        <ele>1319.0340576172</ele>
        <time>2020-07-14T19:12:34.062Z</time>
      </trkpt>
      <trkpt lat="45.07055" lon="2.58913">
        <ele>1325.5129394531</ele>
        <time>2020-07-14T19:12:34.311Z</time>
      </trkpt>
      <trkpt lat="45.0706" lon="2.58965">
        <ele>1332.841796875</ele>
        <time>2020-07-14T19:12:34.573Z</time>
      </trkpt>
      <trkpt lat="45.07065" lon="2.59003">
        <ele>1337.9951171875</ele>
        <time>2020-07-14T19:12:34.844Z</time>
      </trkpt>
      <trkpt lat="45.07071" lon="2.59058">
        <ele>1344.4111328125</ele>
        <time>2020-07-14T19:12:35.128Z</time>
      </trkpt>
      <trkpt lat="45.07072" lon="2.59119">
        <ele>1351.3869628906</ele>
        <time>2020-07-14T19:12:35.427Z</time>
      </trkpt>
      <trkpt lat="45.07074" lon="2.59156">
        <ele>1354.6024169922</ele>
        <time>2020-07-14T19:12:35.734Z</time>
      </trkpt>
      <trkpt lat="45.07074" lon="2.5919">
        <ele>1356.5579833984</ele>
        <time>2020-07-14T19:12:36.049Z</time>
      </trkpt>
      <trkpt lat="45.07078" lon="2.5923">
        <ele>1358.6064453125</ele>
        <time>2020-07-14T19:12:36.374Z</time>
      </trkpt>
      <trkpt lat="45.07082" lon="2.59261">
        <ele>1360.3461914062</ele>
        <time>2020-07-14T19:12:36.706Z</time>
      </trkpt>
      <trkpt lat="45.07087" lon="2.59289">
        <ele>1361.6180419922</ele>
        <time>2020-07-14T19:12:37.045Z</time>
      </trkpt>
      <trkpt lat="45.07092" lon="2.59307">
        <ele>1362.1259765625</ele>
        <time>2020-07-14T19:12:37.389Z</time>
      </trkpt>
      <trkpt lat="45.07095" lon="2.5933">
        <ele>1363.6496582031</ele>
        <time>2020-07-14T19:12:37.738Z</time>
      </trkpt>
      <trkpt lat="45.07101" lon="2.59342">
        <ele>1363.6042480469</ele>
        <time>2020-07-14T19:12:38.091Z</time>
      </trkpt>
      <trkpt lat="45.07106" lon="2.59355">
        <ele>1364.0241699219</ele>
        <time>2020-07-14T19:12:38.447Z</time>
      </trkpt>
      <trkpt lat="45.07116" lon="2.59388">
        <ele>1365.7038574219</ele>
        <time>2020-07-14T19:12:38.812Z</time>
      </trkpt>
      <trkpt lat="45.07135" lon="2.59423">
        <ele>1366.9455566406</ele>
        <time>2020-07-14T19:12:39.187Z</time>
      </trkpt>
      <trkpt lat="45.07142" lon="2.59432">
        <ele>1368.3372802734</ele>
        <time>2020-07-14T19:12:39.565Z</time>
      </trkpt>
      <trkpt lat="45.07161" lon="2.59456">
        <ele>1371.7097167969</ele>
        <time>2020-07-14T19:12:39.952Z</time>
      </trkpt>
      <trkpt lat="45.07181" lon="2.59474">
        <ele>1373.7493896484</ele>
        <time>2020-07-14T19:12:40.347Z</time>
      </trkpt>
      <trkpt lat="45.07192" lon="2.5948">
        <ele>1373.7844238281</ele>
        <time>2020-07-14T19:12:40.746Z</time>
      </trkpt>
      <trkpt lat="45.07198" lon="2.59483">
        <ele>1373.6763916016</ele>
        <time>2020-07-14T19:12:41.147Z</time>
      </trkpt>
      <trkpt lat="45.07213" lon="2.59487">
        <ele>1372.9743652344</ele>
        <time>2020-07-14T19:12:41.553Z</time>
      </trkpt>
      <trkpt lat="45.07239" lon="2.5949">
        <ele>1373.8022460938</ele>
        <time>2020-07-14T19:12:41.968Z</time>
      </trkpt>
      <trkpt lat="45.07246" lon="2.5949">
        <ele>1373.8022460938</ele>
        <time>2020-07-14T19:12:42.385Z</time>
      </trkpt>
      <trkpt lat="45.0727" lon="2.59487">
        <ele>1372.9743652344</ele>
        <time>2020-07-14T19:12:42.810Z</time>
      </trkpt>
      <trkpt lat="45.07303" lon="2.59491">
        <ele>1373.0926513672</ele>
        <time>2020-07-14T19:12:43.246Z</time>
      </trkpt>
      <trkpt lat="45.07337" lon="2.59496">
        <ele>1372.6127929688</ele>
        <time>2020-07-14T19:12:43.693Z</time>
      </trkpt>
      <trkpt lat="45.07355" lon="2.59504">
        <ele>1373.6812744141</ele>
        <time>2020-07-14T19:12:44.147Z</time>
      </trkpt>
      <trkpt lat="45.07374" lon="2.59515">
        <ele>1374.3891601562</ele>
        <time>2020-07-14T19:12:44.608Z</time>
      </trkpt>
      <trkpt lat="45.07382" lon="2.59525">
        <ele>1374.6955566406</ele>
        <time>2020-07-14T19:12:45.072Z</time>
      </trkpt>
      <trkpt lat="45.07393" lon="2.59544">
        <ele>1375.5114746094</ele>
        <time>2020-07-14T19:12:45.542Z</time>
      </trkpt>
      <trkpt lat="45.074" lon="2.59551">
        <ele>1375.1755371094</ele>
        <time>2020-07-14T19:12:46.015Z</time>
      </trkpt>
      <trkpt lat="45.07412" lon="2.59561">
        <ele>1374.263671875</ele>
        <time>2020-07-14T19:12:46.492Z</time>
      </trkpt>
      <trkpt lat="45.07422" lon="2.59577">
        <ele>1374.7916259766</ele>
        <time>2020-07-14T19:12:46.974Z</time>
      </trkpt>
      <trkpt lat="45.07431" lon="2.59595">
        <ele>1375.1468505859</ele>
        <time>2020-07-14T19:12:47.462Z</time>
      </trkpt>
      <trkpt lat="45.07437" lon="2.59617">
        <ele>1375.9627685547</ele>
        <time>2020-07-14T19:12:47.955Z</time>
      </trkpt>
      <trkpt lat="45.07441" lon="2.59641">
        <ele>1377.4024658203</ele>
        <time>2020-07-14T19:12:48.454Z</time>
      </trkpt>
      <trkpt lat="45.0745" lon="2.59669">
        <ele>1377.8724365234</ele>
        <time>2020-07-14T19:12:48.960Z</time>
      </trkpt>
      <trkpt lat="45.07461" lon="2.59713">
        <ele>1377.26171875</ele>
        <time>2020-07-14T19:12:49.477Z</time>
      </trkpt>
      <trkpt lat="45.07469" lon="2.5976">
        <ele>1376.7369384766</ele>
        <time>2020-07-14T19:12:50.006Z</time>
      </trkpt>
      <trkpt lat="45.07475" lon="2.59787">
        <ele>1376.5085449219</ele>
        <time>2020-07-14T19:12:50.541Z</time>
      </trkpt>
      <trkpt lat="45.07485" lon="2.59838">
        <ele>1376.4597167969</ele>
        <time>2020-07-14T19:12:51.089Z</time>
      </trkpt>
      <trkpt lat="45.0749" lon="2.5988">
        <ele>1376.1434326172</ele>
        <time>2020-07-14T19:12:51.647Z</time>
      </trkpt>
      <trkpt lat="45.07491" lon="2.59916">
        <ele>1377.1273193359</ele>
        <time>2020-07-14T19:12:52.213Z</time>
      </trkpt>
      <trkpt lat="45.07493" lon="2.59966">
        <ele>1378.9326171875</ele>
        <time>2020-07-14T19:12:52.791Z</time>
      </trkpt>
      <trkpt lat="45.07497" lon="2.60001">
        <ele>1378.6685791016</ele>
        <time>2020-07-14T19:12:53.378Z</time>
      </trkpt>
      <trkpt lat="45.07497" lon="2.60023">
        <ele>1376.3815917969</ele>
        <time>2020-07-14T19:12:53.970Z</time>
      </trkpt>
      <trkpt lat="45.07495" lon="2.60041">
        <ele>1375.1793212891</ele>
        <time>2020-07-14T19:12:54.566Z</time>
      </trkpt>
      <trkpt lat="45.07489" lon="2.60059">
        <ele>1376.0432128906</ele>
        <time>2020-07-14T19:12:55.167Z</time>
      </trkpt>
      <trkpt lat="45.07485" lon="2.60071">
        <ele>1376.619140625</ele>
        <time>2020-07-14T19:12:55.771Z</time>
      </trkpt>
      <trkpt lat="45.07483" lon="2.60081">
        <ele>1376.6671142578</ele>
        <time>2020-07-14T19:12:56.377Z</time>
      </trkpt>
      <trkpt lat="45.07484" lon="2.60087">
        <ele>1375.6267089844</ele>
        <time>2020-07-14T19:12:56.985Z</time>
      </trkpt>
      <trkpt lat="45.07486" lon="2.60092">
        <ele>1373.7789306641</ele>
        <time>2020-07-14T19:12:57.594Z</time>
      </trkpt>
      <trkpt lat="45.0749" lon="2.601">
        <ele>1370.5634765625</ele>
        <time>2020-07-14T19:12:58.206Z</time>
      </trkpt>
      <trkpt lat="45.0749" lon="2.60106">
        <ele>1369.1237792969</ele>
        <time>2020-07-14T19:12:58.819Z</time>
      </trkpt>
      <trkpt lat="45.07486" lon="2.60106">
        <ele>1370.4195556641</ele>
        <time>2020-07-14T19:12:59.433Z</time>
      </trkpt>
      <trkpt lat="45.0749" lon="2.60105">
        <ele>1369.3636474609</ele>
        <time>2020-07-14T19:13:00.049Z</time>
      </trkpt>
      <trkpt lat="45.0749" lon="2.60109">
        <ele>1368.4038085938</ele>
        <time>2020-07-14T19:13:00.666Z</time>
      </trkpt>
      <trkpt lat="45.07488" lon="2.6012">
        <ele>1367.4417724609</ele>
        <time>2020-07-14T19:13:01.285Z</time>
      </trkpt>
      <trkpt lat="45.07486" lon="2.60137">
        <ele>1366.9738769531</ele>
        <time>2020-07-14T19:13:01.908Z</time>
      </trkpt>
      <trkpt lat="45.07486" lon="2.6015">
        <ele>1365.8820800781</ele>
        <time>2020-07-14T19:13:02.534Z</time>
      </trkpt>
      <trkpt lat="45.07485" lon="2.60196">
        <ele>1361.1453857422</ele>
        <time>2020-07-14T19:13:03.171Z</time>
      </trkpt>
      <trkpt lat="45.07479" lon="2.60227">
        <ele>1359.4896240234</ele>
        <time>2020-07-14T19:13:03.816Z</time>
      </trkpt>
      <trkpt lat="45.07475" lon="2.60237">
        <ele>1359.9215087891</ele>
        <time>2020-07-14T19:13:04.464Z</time>
      </trkpt>
      <trkpt lat="45.07472" lon="2.6025">
        <ele>1359.4536132812</ele>
        <time>2020-07-14T19:13:05.115Z</time>
      </trkpt>
      <trkpt lat="45.07471" lon="2.60263">
        <ele>1359.6749267578</ele>
        <time>2020-07-14T19:13:05.769Z</time>
      </trkpt>
      <trkpt lat="45.07471" lon="2.60283">
        <ele>1358.9583740234</ele>
        <time>2020-07-14T19:13:06.428Z</time>
      </trkpt>
      <trkpt lat="45.07473" lon="2.60311">
        <ele>1357.0866699219</ele>
        <time>2020-07-14T19:13:07.093Z</time>
      </trkpt>
      <trkpt lat="45.07478" lon="2.60331">
        <ele>1354.2071533203</ele>
        <time>2020-07-14T19:13:07.763Z</time>
      </trkpt>
      <trkpt lat="45.07482" lon="2.60349">
        <ele>1350.828125</ele>
        <time>2020-07-14T19:13:08.438Z</time>
      </trkpt>
      <trkpt lat="45.07484" lon="2.60361">
        <ele>1348.7619628906</ele>
        <time>2020-07-14T19:13:09.116Z</time>
      </trkpt>
      <trkpt lat="45.07483" lon="2.6039">
        <ele>1347.8621826172</ele>
        <time>2020-07-14T19:13:09.801Z</time>
      </trkpt>
      <trkpt lat="45.07486" lon="2.60425">
        <ele>1344.6275634766</ele>
        <time>2020-07-14T19:13:10.494Z</time>
      </trkpt>
      <trkpt lat="45.07488" lon="2.60465">
        <ele>1341.4626464844</ele>
        <time>2020-07-14T19:13:11.196Z</time>
      </trkpt>
      <trkpt lat="45.07486" lon="2.60507">
        <ele>1340.3918457031</ele>
        <time>2020-07-14T19:13:11.908Z</time>
      </trkpt>
      <trkpt lat="45.07484" lon="2.60548">
        <ele>1338.1530761719</ele>
        <time>2020-07-14T19:13:12.630Z</time>
      </trkpt>
      <trkpt lat="45.07476" lon="2.60604">
        <ele>1338.2446289062</ele>
        <time>2020-07-14T19:13:13.366Z</time>
      </trkpt>
      <trkpt lat="45.07472" lon="2.60623">
        <ele>1339.2884521484</ele>
        <time>2020-07-14T19:13:14.106Z</time>
      </trkpt>
      <trkpt lat="45.07471" lon="2.60634">
        <ele>1339.3244628906</ele>
        <time>2020-07-14T19:13:14.849Z</time>
      </trkpt>
      <trkpt lat="45.07471" lon="2.60646">
        <ele>1338.892578125</ele>
        <time>2020-07-14T19:13:15.595Z</time>
      </trkpt>
      <trkpt lat="45.07473" lon="2.60664">
        <ele>1337.380859375</ele>
        <time>2020-07-14T19:13:16.345Z</time>
      </trkpt>
      <trkpt lat="45.07478" lon="2.6068">
        <ele>1337.6940917969</ele>
        <time>2020-07-14T19:13:17.099Z</time>
      </trkpt>
      <trkpt lat="45.07489" lon="2.60704">
        <ele>1337.7476806641</ele>
        <time>2020-07-14T19:13:17.860Z</time>
      </trkpt>
      <trkpt lat="45.07502" lon="2.60726">
        <ele>1336.1760253906</ele>
        <time>2020-07-14T19:13:18.628Z</time>
      </trkpt>
      <trkpt lat="45.07517" lon="2.60759">
        <ele>1335.8811035156</ele>
        <time>2020-07-14T19:13:19.405Z</time>
      </trkpt>
      <trkpt lat="45.07533" lon="2.60786">
        <ele>1336.205078125</ele>
        <time>2020-07-14T19:13:20.190Z</time>
      </trkpt>
      <trkpt lat="45.07539" lon="2.60795">
        <ele>1336.0970458984</ele>
        <time>2020-07-14T19:13:20.978Z</time>
      </trkpt>
      <trkpt lat="45.07548" lon="2.60805">
        <ele>1333.8927001953</ele>
        <time>2020-07-14T19:13:21.770Z</time>
      </trkpt>
      <trkpt lat="45.07552" lon="2.60813">
        <ele>1333.1728515625</ele>
        <time>2020-07-14T19:13:22.564Z</time>
      </trkpt>
      <trkpt lat="45.07557" lon="2.60836">
        <ele>1334.7601318359</ele>
        <time>2020-07-14T19:13:23.364Z</time>
      </trkpt>
      <trkpt lat="45.07563" lon="2.60885">
        <ele>1330.3894042969</ele>
        <time>2020-07-14T19:13:24.176Z</time>
      </trkpt>
      <trkpt lat="45.07566" lon="2.60916">
        <ele>1327.6538085938</ele>
        <time>2020-07-14T19:13:24.995Z</time>
      </trkpt>
      <trkpt lat="45.07569" lon="2.60952">
        <ele>1326.5659179688</ele>
        <time>2020-07-14T19:13:25.823Z</time>
      </trkpt>
      <trkpt lat="45.07574" lon="2.60992">
        <ele>1321.1668701172</ele>
        <time>2020-07-14T19:13:26.660Z</time>
      </trkpt>
      <trkpt lat="45.0758" lon="2.61054">
        <ele>1323.6502685547</ele>
        <time>2020-07-14T19:13:27.512Z</time>
      </trkpt>
      <trkpt lat="45.07582" lon="2.61054">
        <ele>1323.3143310547</ele>
        <time>2020-07-14T19:13:28.365Z</time>
      </trkpt>
      <trkpt lat="45.0758" lon="2.61054">
        <ele>1323.6502685547</ele>
        <time>2020-07-14T19:13:29.218Z</time>
      </trkpt>
      <trkpt lat="45.07584" lon="2.61087">
        <ele>1321.3470458984</ele>
        <time>2020-07-14T19:13:30.079Z</time>
      </trkpt>
      <trkpt lat="45.07579" lon="2.61122">
        <ele>1326.7686767578</ele>
        <time>2020-07-14T19:13:30.949Z</time>
      </trkpt>
      <trkpt lat="45.07573" lon="2.61161">
        <ele>1330.7640380859</ele>
        <time>2020-07-14T19:13:31.828Z</time>
      </trkpt>
      <trkpt lat="45.07567" lon="2.61208">
        <ele>1337.2432861328</ele>
        <time>2020-07-14T19:13:32.718Z</time>
      </trkpt>
      <trkpt lat="45.07567" lon="2.61218">
        <ele>1338.3231201172</ele>
        <time>2020-07-14T19:13:33.611Z</time>
      </trkpt>
      <trkpt lat="45.07571" lon="2.61228">
        <ele>1339.0670166016</ele>
        <time>2020-07-14T19:13:34.506Z</time>
      </trkpt>
      <trkpt lat="45.07581" lon="2.61248">
        <ele>1340.3868408203</ele>
        <time>2020-07-14T19:13:35.407Z</time>
      </trkpt>
      <trkpt lat="45.07591" lon="2.61273">
        <ele>1342.7532958984</ele>
        <time>2020-07-14T19:13:36.315Z</time>
      </trkpt>
      <trkpt lat="45.07599" lon="2.61294">
        <ele>1344.8529052734</ele>
        <time>2020-07-14T19:13:37.229Z</time>
      </trkpt>
      <trkpt lat="45.07603" lon="2.61306">
        <ele>1346.1007080078</ele>
        <time>2020-07-14T19:13:38.146Z</time>
      </trkpt>
      <trkpt lat="45.0761" lon="2.61337">
        <ele>1349.9913330078</ele>
        <time>2020-07-14T19:13:39.070Z</time>
      </trkpt>
      <trkpt lat="45.07615" lon="2.61361">
        <ele>1355.2703857422</ele>
        <time>2020-07-14T19:13:40.000Z</time>
      </trkpt>
      <trkpt lat="45.07618" lon="2.61388">
        <ele>1361.4614257812</ele>
        <time>2020-07-14T19:13:40.937Z</time>
      </trkpt>
      <trkpt lat="45.07624" lon="2.6143">
        <ele>1370.6324462891</ele>
        <time>2020-07-14T19:13:41.884Z</time>
      </trkpt>
      <trkpt lat="45.0763" lon="2.61459">
        <ele>1376.1983642578</ele>
        <time>2020-07-14T19:13:42.838Z</time>
      </trkpt>
      <trkpt lat="45.07636" lon="2.61485">
        <ele>1380.4697265625</ele>
        <time>2020-07-14T19:13:43.799Z</time>
      </trkpt>
      <trkpt lat="45.07646" lon="2.61514">
        <ele>1385.1905517578</ele>
        <time>2020-07-14T19:13:44.767Z</time>
      </trkpt>
      <trkpt lat="45.07659" lon="2.61536">
        <ele>1388.0850830078</ele>
        <time>2020-07-14T19:13:45.742Z</time>
      </trkpt>
      <trkpt lat="45.07668" lon="2.61562">
        <ele>1391.9724121094</ele>
        <time>2020-07-14T19:13:46.724Z</time>
      </trkpt>
      <trkpt lat="45.07673" lon="2.61593">
        <ele>1398.1712646484</ele>
        <time>2020-07-14T19:13:47.713Z</time>
      </trkpt>
      <trkpt lat="45.07671" lon="2.61633">
        <ele>1409.0817871094</ele>
        <time>2020-07-14T19:13:48.712Z</time>
      </trkpt>
      <trkpt lat="45.07674" lon="2.6166">
        <ele>1411.9254150391</ele>
        <time>2020-07-14T19:13:49.717Z</time>
      </trkpt>
      <trkpt lat="45.07683" lon="2.61688">
        <ele>1416.1282958984</ele>
        <time>2020-07-14T19:13:50.729Z</time>
      </trkpt>
      <trkpt lat="45.07699" lon="2.61715">
        <ele>1420.603515625</ele>
        <time>2020-07-14T19:13:51.750Z</time>
      </trkpt>
      <trkpt lat="45.07718" lon="2.61739">
        <ele>1422.4659423828</ele>
        <time>2020-07-14T19:13:52.779Z</time>
      </trkpt>
      <trkpt lat="45.07738" lon="2.61763">
        <ele>1418.5928955078</ele>
        <time>2020-07-14T19:13:53.817Z</time>
      </trkpt>
      <trkpt lat="45.07738" lon="2.61784">
        <ele>1417.1842041016</ele>
        <time>2020-07-14T19:13:54.860Z</time>
      </trkpt>
      <trkpt lat="45.0773" lon="2.61812">
        <ele>1420.3996582031</ele>
        <time>2020-07-14T19:13:55.910Z</time>
      </trkpt>
      <trkpt lat="45.07717" lon="2.61844">
        <ele>1425.1823730469</ele>
        <time>2020-07-14T19:13:56.969Z</time>
      </trkpt>
      <trkpt lat="45.07707" lon="2.61868">
        <ele>1427.8403320312</ele>
        <time>2020-07-14T19:13:58.034Z</time>
      </trkpt>
      <trkpt lat="45.07697" lon="2.61897">
        <ele>1427.2404785156</ele>
        <time>2020-07-14T19:13:59.107Z</time>
      </trkpt>
      <trkpt lat="45.07688" lon="2.61929">
        <ele>1432.3596191406</ele>
        <time>2020-07-14T19:14:00.188Z</time>
      </trkpt>
      <trkpt lat="45.07683" lon="2.61958">
        <ele>1436.5588378906</ele>
        <time>2020-07-14T19:14:01.276Z</time>
      </trkpt>
      <trkpt lat="45.07674" lon="2.6199">
        <ele>1443.3969726562</ele>
        <time>2020-07-14T19:14:02.372Z</time>
      </trkpt>
      <trkpt lat="45.07668" lon="2.62018">
        <ele>1449.1083984375</ele>
        <time>2020-07-14T19:14:03.475Z</time>
      </trkpt>
      <trkpt lat="45.07667" lon="2.62052">
        <ele>1453.9232177734</ele>
        <time>2020-07-14T19:14:04.586Z</time>
      </trkpt>
      <trkpt lat="45.0766" lon="2.62072">
        <ele>1458.3985595703</ele>
        <time>2020-07-14T19:14:05.703Z</time>
      </trkpt>
      <trkpt lat="45.07644" lon="2.6209">
        <ele>1465.0278320312</ele>
        <time>2020-07-14T19:14:06.826Z</time>
      </trkpt>
      <trkpt lat="45.07646" lon="2.62142">
        <ele>1476.4259033203</ele>
        <time>2020-07-14T19:14:07.962Z</time>
      </trkpt>
      <trkpt lat="45.07652" lon="2.62187">
        <ele>1486.1947021484</ele>
        <time>2020-07-14T19:14:09.109Z</time>
      </trkpt>
      <trkpt lat="45.07653" lon="2.62226">
        <ele>1493.7904052734</ele>
        <time>2020-07-14T19:14:10.265Z</time>
      </trkpt>
      <trkpt lat="45.07667" lon="2.6226">
        <ele>1498.1572265625</ele>
        <time>2020-07-14T19:14:11.430Z</time>
      </trkpt>
      <trkpt lat="45.07693" lon="2.62297">
        <ele>1501.8286132812</ele>
        <time>2020-07-14T19:14:12.607Z</time>
      </trkpt>
      <trkpt lat="45.0771" lon="2.62331">
        <ele>1506.0264892578</ele>
        <time>2020-07-14T19:14:13.794Z</time>
      </trkpt>
      <trkpt lat="45.07715" lon="2.62362">
        <ele>1505.5887451172</ele>
        <time>2020-07-14T19:14:14.989Z</time>
      </trkpt>
      <trkpt lat="45.07731" lon="2.62403">
        <ele>1500.4295654297</ele>
        <time>2020-07-14T19:14:16.195Z</time>
      </trkpt>
      <trkpt lat="45.07747" lon="2.62438">
        <ele>1495.8197021484</ele>
        <time>2020-07-14T19:14:17.411Z</time>
      </trkpt>
      <trkpt lat="45.07755" lon="2.6246">
        <ele>1494.0679931641</ele>
        <time>2020-07-14T19:14:18.632Z</time>
      </trkpt>
      <trkpt lat="45.07752" lon="2.62494">
        <ele>1492.9146728516</ele>
        <time>2020-07-14T19:14:19.862Z</time>
      </trkpt>
      <trkpt lat="45.07747" lon="2.62525">
        <ele>1495.2415771484</ele>
        <time>2020-07-14T19:14:21.099Z</time>
      </trkpt>
      <trkpt lat="45.07752" lon="2.62555">
        <ele>1494.4923095703</ele>
        <time>2020-07-14T19:14:22.343Z</time>
      </trkpt>
      <trkpt lat="45.07759" lon="2.62596">
        <ele>1492.912109375</ele>
        <time>2020-07-14T19:14:23.597Z</time>
      </trkpt>
      <trkpt lat="45.07767" lon="2.62639">
        <ele>1498.8510742188</ele>
        <time>2020-07-14T19:14:24.862Z</time>
      </trkpt>
      <trkpt lat="45.0778" lon="2.6267">
        <ele>1500.609375</ele>
        <time>2020-07-14T19:14:26.135Z</time>
      </trkpt>
      <trkpt lat="45.07795" lon="2.62706">
        <ele>1507.2604980469</ele>
        <time>2020-07-14T19:14:27.418Z</time>
      </trkpt>
      <trkpt lat="45.07802" lon="2.62747">
        <ele>1512.0236816406</ele>
        <time>2020-07-14T19:14:28.711Z</time>
      </trkpt>
      <trkpt lat="45.07811" lon="2.62786">
        <ele>1514.7784423828</ele>
        <time>2020-07-14T19:14:30.014Z</time>
      </trkpt>
      <trkpt lat="45.07821" lon="2.6282">
        <ele>1515.5462646484</ele>
        <time>2020-07-14T19:14:31.325Z</time>
      </trkpt>
      <trkpt lat="45.07833" lon="2.62853">
        <ele>1517.3304443359</ele>
        <time>2020-07-14T19:14:32.645Z</time>
      </trkpt>
      <trkpt lat="45.07831" lon="2.6288">
        <ele>1523.6912841797</ele>
        <time>2020-07-14T19:14:33.972Z</time>
      </trkpt>
      <trkpt lat="45.07831" lon="2.62911">
        <ele>1527.0386962891</ele>
        <time>2020-07-14T19:14:35.306Z</time>
      </trkpt>
      <trkpt lat="45.07837" lon="2.62942">
        <ele>1531.4489746094</ele>
        <time>2020-07-14T19:14:36.648Z</time>
      </trkpt>
      <trkpt lat="45.07855" lon="2.6299">
        <ele>1536.3940429688</ele>
        <time>2020-07-14T19:14:38.002Z</time>
      </trkpt>
      <trkpt lat="45.07874" lon="2.63023">
        <ele>1537.7816162109</ele>
        <time>2020-07-14T19:14:39.366Z</time>
      </trkpt>
      <trkpt lat="45.07879" lon="2.63067">
        <ele>1541.9849853516</ele>
        <time>2020-07-14T19:14:40.741Z</time>
      </trkpt>
      <trkpt lat="45.07889" lon="2.63094">
        <ele>1544.056640625</ele>
        <time>2020-07-14T19:14:42.123Z</time>
      </trkpt>
      <trkpt lat="45.07906" lon="2.63131">
        <ele>1547.5871582031</ele>
        <time>2020-07-14T19:14:43.516Z</time>
      </trkpt>
      <trkpt lat="45.07918" lon="2.63145">
        <ele>1548.2110595703</ele>
        <time>2020-07-14T19:14:44.914Z</time>
      </trkpt>
      <trkpt lat="45.07931" lon="2.6317">
        <ele>1549.9395751953</ele>
        <time>2020-07-14T19:14:46.319Z</time>
      </trkpt>
      <trkpt lat="45.07933" lon="2.63203">
        <ele>1556.1545410156</ele>
        <time>2020-07-14T19:14:47.732Z</time>
      </trkpt>
      <trkpt lat="45.07946" lon="2.63229">
        <ele>1560.3658447266</ele>
        <time>2020-07-14T19:14:49.152Z</time>
      </trkpt>
      <trkpt lat="45.07957" lon="2.63257">
        <ele>1563.1439208984</ele>
        <time>2020-07-14T19:14:50.580Z</time>
      </trkpt>
      <trkpt lat="45.07972" lon="2.63278">
        <ele>1562.4244384766</ele>
        <time>2020-07-14T19:14:52.015Z</time>
      </trkpt>
      <trkpt lat="45.07989" lon="2.63295">
        <ele>1561.8125</ele>
        <time>2020-07-14T19:14:53.457Z</time>
      </trkpt>
      <trkpt lat="45.0801" lon="2.6332">
        <ele>1560.720703125</ele>
        <time>2020-07-14T19:14:54.908Z</time>
      </trkpt>
      <trkpt lat="45.08032" lon="2.63339">
        <ele>1560.1807861328</ele>
        <time>2020-07-14T19:14:56.368Z</time>
      </trkpt>
      <trkpt lat="45.08057" lon="2.63368">
        <ele>1556.0997314453</ele>
        <time>2020-07-14T19:14:57.839Z</time>
      </trkpt>
      <trkpt lat="45.08082" lon="2.6339">
        <ele>1550.3526611328</ele>
        <time>2020-07-14T19:14:59.319Z</time>
      </trkpt>
      <trkpt lat="45.08103" lon="2.63419">
        <ele>1544.6616210938</ele>
        <time>2020-07-14T19:15:00.809Z</time>
      </trkpt>
      <trkpt lat="45.08122" lon="2.63452">
        <ele>1546.0533447266</ele>
        <time>2020-07-14T19:15:02.309Z</time>
      </trkpt>
      <trkpt lat="45.08136" lon="2.63476">
        <ele>1544.7329101562</ele>
        <time>2020-07-14T19:15:03.817Z</time>
      </trkpt>
      <trkpt lat="45.08157" lon="2.63495">
        <ele>1538.9259033203</ele>
        <time>2020-07-14T19:15:05.333Z</time>
      </trkpt>
      <trkpt lat="45.08177" lon="2.63519">
        <ele>1536.384765625</ele>
        <time>2020-07-14T19:15:06.858Z</time>
      </trkpt>
      <trkpt lat="45.08188" lon="2.63555">
        <ele>1541.5318603516</ele>
        <time>2020-07-14T19:15:08.392Z</time>
      </trkpt>
      <trkpt lat="45.08189" lon="2.6358">
        <ele>1544.2828369141</ele>
        <time>2020-07-14T19:15:09.932Z</time>
      </trkpt>
      <trkpt lat="45.08183" lon="2.63613">
        <ele>1551.7380371094</ele>
        <time>2020-07-14T19:15:11.480Z</time>
      </trkpt>
      <trkpt lat="45.08187" lon="2.63646">
        <ele>1558.5888671875</ele>
        <time>2020-07-14T19:15:13.036Z</time>
      </trkpt>
      <trkpt lat="45.08193" lon="2.63682">
        <ele>1561.7016601562</ele>
        <time>2020-07-14T19:15:14.600Z</time>
      </trkpt>
      <trkpt lat="45.082" lon="2.63706">
        <ele>1566.6448974609</ele>
        <time>2020-07-14T19:15:16.171Z</time>
      </trkpt>
      <trkpt lat="45.08216" lon="2.63735">
        <ele>1570.5031738281</ele>
        <time>2020-07-14T19:15:17.750Z</time>
      </trkpt>
      <trkpt lat="45.08224" lon="2.63753">
        <ele>1571.2003173828</ele>
        <time>2020-07-14T19:15:19.334Z</time>
      </trkpt>
      <trkpt lat="45.08241" lon="2.63765">
        <ele>1568.0208740234</ele>
        <time>2020-07-14T19:15:20.925Z</time>
      </trkpt>
      <trkpt lat="45.0825" lon="2.63778">
        <ele>1567.8529052734</ele>
        <time>2020-07-14T19:15:22.520Z</time>
      </trkpt>
      <trkpt lat="45.08255" lon="2.63798">
        <ele>1570.5272216797</ele>
        <time>2020-07-14T19:15:24.120Z</time>
      </trkpt>
      <trkpt lat="45.08265" lon="2.63817">
        <ele>1568.4636230469</ele>
        <time>2020-07-14T19:15:25.726Z</time>
      </trkpt>
      <trkpt lat="45.08274" lon="2.63832">
        <ele>1566.8078613281</ele>
        <time>2020-07-14T19:15:27.336Z</time>
      </trkpt>
      <trkpt lat="45.0828" lon="2.63848">
        <ele>1567.7966308594</ele>
        <time>2020-07-14T19:15:28.950Z</time>
      </trkpt>
      <trkpt lat="45.08291" lon="2.63867">
        <ele>1569.8123779297</ele>
        <time>2020-07-14T19:15:30.570Z</time>
      </trkpt>
      <trkpt lat="45.08312" lon="2.63889">
        <ele>1563.5541992188</ele>
        <time>2020-07-14T19:15:32.199Z</time>
      </trkpt>
      <trkpt lat="45.08329" lon="2.63922">
        <ele>1559.4865722656</ele>
        <time>2020-07-14T19:15:33.838Z</time>
      </trkpt>
      <trkpt lat="45.08334" lon="2.6394">
        <ele>1558.8747558594</ele>
        <time>2020-07-14T19:15:35.481Z</time>
      </trkpt>
      <trkpt lat="45.08341" lon="2.6396">
        <ele>1557.5189208984</ele>
        <time>2020-07-14T19:15:37.129Z</time>
      </trkpt>
      <trkpt lat="45.08347" lon="2.63971">
        <ele>1555.7672119141</ele>
        <time>2020-07-14T19:15:38.781Z</time>
      </trkpt>
      <trkpt lat="45.08357" lon="2.63994">
        <ele>1551.9637451172</ele>
        <time>2020-07-14T19:15:40.439Z</time>
      </trkpt>
      <trkpt lat="45.08364" lon="2.64018">
        <ele>1550.267578125</ele>
        <time>2020-07-14T19:15:42.103Z</time>
      </trkpt>
      <trkpt lat="45.08373" lon="2.64042">
        <ele>1548.5759277344</ele>
        <time>2020-07-14T19:15:43.774Z</time>
      </trkpt>
      <trkpt lat="45.08381" lon="2.6406">
        <ele>1547.0910644531</ele>
        <time>2020-07-14T19:15:45.450Z</time>
      </trkpt>
      <trkpt lat="45.08388" lon="2.64073">
        <ele>1545.7713623047</ele>
        <time>2020-07-14T19:15:47.130Z</time>
      </trkpt>
      <trkpt lat="45.08392" lon="2.64089">
        <ele>1545.7302246094</ele>
        <time>2020-07-14T19:15:48.814Z</time>
      </trkpt>
      <trkpt lat="45.08396" lon="2.64101">
        <ele>1545.9700927734</ele>
        <time>2020-07-14T19:15:50.501Z</time>
      </trkpt>
      <trkpt lat="45.084" lon="2.64122">
        <ele>1545.9127197266</ele>
        <time>2020-07-14T19:15:52.193Z</time>
      </trkpt>
      <trkpt lat="45.08403" lon="2.64137">
        <ele>1545.5168457031</ele>
        <time>2020-07-14T19:15:53.888Z</time>
      </trkpt>
      <trkpt lat="45.0841" lon="2.64164">
        <ele>1544.4969482422</ele>
        <time>2020-07-14T19:15:55.590Z</time>
      </trkpt>
      <trkpt lat="45.08416" lon="2.64185">
        <ele>1545.3212890625</ele>
        <time>2020-07-14T19:15:57.298Z</time>
      </trkpt>
      <trkpt lat="45.08422" lon="2.64205">
        <ele>1546.5690917969</ele>
        <time>2020-07-14T19:15:59.011Z</time>
      </trkpt>
      <trkpt lat="45.08428" lon="2.64229">
        <ele>1546.884765625</ele>
        <time>2020-07-14T19:16:00.730Z</time>
      </trkpt>
      <trkpt lat="45.08432" lon="2.64244">
        <ele>1546.0689697266</ele>
        <time>2020-07-14T19:16:02.453Z</time>
      </trkpt>
      <trkpt lat="45.08429" lon="2.64267">
        <ele>1547.1420898438</ele>
        <time>2020-07-14T19:16:04.181Z</time>
      </trkpt>
      <trkpt lat="45.08432" lon="2.64292">
        <ele>1549.4696044922</ele>
        <time>2020-07-14T19:16:05.915Z</time>
      </trkpt>
      <trkpt lat="45.08435" lon="2.64313">
        <ele>1551.2651367188</ele>
        <time>2020-07-14T19:16:07.654Z</time>
      </trkpt>
      <trkpt lat="45.08437" lon="2.64329">
        <ele>1551.7449951172</ele>
        <time>2020-07-14T19:16:09.397Z</time>
      </trkpt>
      <trkpt lat="45.08439" lon="2.64362">
        <ele>1550.1110839844</ele>
        <time>2020-07-14T19:16:11.148Z</time>
      </trkpt>
      <trkpt lat="45.08439" lon="2.64367">
        <ele>1549.7510986328</ele>
        <time>2020-07-14T19:16:12.900Z</time>
      </trkpt>
      <trkpt lat="45.08439" lon="2.64382">
        <ele>1548.6713867188</ele>
        <time>2020-07-14T19:16:14.656Z</time>
      </trkpt>
      <trkpt lat="45.08439" lon="2.64395">
        <ele>1547.7354736328</ele>
        <time>2020-07-14T19:16:16.415Z</time>
      </trkpt>
      <trkpt lat="45.08442" lon="2.64401">
        <ele>1547.4475097656</ele>
        <time>2020-07-14T19:16:18.175Z</time>
      </trkpt>
      <trkpt lat="45.08454" lon="2.64398">
        <ele>1548.2393798828</ele>
        <time>2020-07-14T19:16:19.939Z</time>
      </trkpt>
      <trkpt lat="45.08466" lon="2.64396">
        <ele>1548.1391601562</ele>
        <time>2020-07-14T19:16:21.707Z</time>
      </trkpt>
      <trkpt lat="45.0848" lon="2.64392">
        <ele>1547.2513427734</ele>
        <time>2020-07-14T19:16:23.480Z</time>
      </trkpt>
      <trkpt lat="45.08494" lon="2.64392">
        <ele>1546.0755615234</ele>
        <time>2020-07-14T19:16:25.258Z</time>
      </trkpt>
      <trkpt lat="45.08511" lon="2.64394">
        <ele>1544.5037841797</ele>
        <time>2020-07-14T19:16:27.042Z</time>
      </trkpt>
      <trkpt lat="45.08523" lon="2.64398">
        <ele>1543.0612792969</ele>
        <time>2020-07-14T19:16:28.830Z</time>
      </trkpt>
      <trkpt lat="45.08536" lon="2.644">
        <ele>1540.1097412109</ele>
        <time>2020-07-14T19:16:30.622Z</time>
      </trkpt>
      <trkpt lat="45.0855" lon="2.64405">
        <ele>1538.3236083984</ele>
        <time>2020-07-14T19:16:32.419Z</time>
      </trkpt>
      <trkpt lat="45.08559" lon="2.64415">
        <ele>1538.515625</ele>
        <time>2020-07-14T19:16:34.220Z</time>
      </trkpt>
      <trkpt lat="45.08566" lon="2.64421">
        <ele>1537.6376953125</ele>
        <time>2020-07-14T19:16:36.023Z</time>
      </trkpt>
      <trkpt lat="45.08574" lon="2.64427">
        <ele>1534.830078125</ele>
        <time>2020-07-14T19:16:37.829Z</time>
      </trkpt>
      <trkpt lat="45.08588" lon="2.64437">
        <ele>1530.1029052734</ele>
        <time>2020-07-14T19:16:39.641Z</time>
      </trkpt>
      <trkpt lat="45.08602" lon="2.64442">
        <ele>1527.2353515625</ele>
        <time>2020-07-14T19:16:41.457Z</time>
      </trkpt>
      <trkpt lat="45.08615" lon="2.64448">
        <ele>1524.0678710938</ele>
        <time>2020-07-14T19:16:43.278Z</time>
      </trkpt>
      <trkpt lat="45.08624" lon="2.64452">
        <ele>1521.9322509766</ele>
        <time>2020-07-14T19:16:45.102Z</time>
      </trkpt>
      <trkpt lat="45.0863" lon="2.64453">
        <ele>1521.4661865234</ele>
        <time>2020-07-14T19:16:46.928Z</time>
      </trkpt>
      <trkpt lat="45.08639" lon="2.64453">
        <ele>1521.6821289062</ele>
        <time>2020-07-14T19:16:48.757Z</time>
      </trkpt>
      <trkpt lat="45.08648" lon="2.64453">
        <ele>1521.8980712891</ele>
        <time>2020-07-14T19:16:50.589Z</time>
      </trkpt>
      <trkpt lat="45.08656" lon="2.64451">
        <ele>1522.833984375</ele>
        <time>2020-07-14T19:16:52.424Z</time>
      </trkpt>
      <trkpt lat="45.08664" lon="2.6445">
        <ele>1524.1889648438</ele>
        <time>2020-07-14T19:16:54.262Z</time>
      </trkpt>
      <trkpt lat="45.08673" lon="2.64446">
        <ele>1527.4523925781</ele>
        <time>2020-07-14T19:16:56.103Z</time>
      </trkpt>
      <trkpt lat="45.08689" lon="2.64437">
        <ele>1534.1832275391</ele>
        <time>2020-07-14T19:16:57.949Z</time>
      </trkpt>
      <trkpt lat="45.08701" lon="2.64431">
        <ele>1538.8625488281</ele>
        <time>2020-07-14T19:16:59.800Z</time>
      </trkpt>
      <trkpt lat="45.08718" lon="2.64422">
        <ele>1546.9914550781</ele>
        <time>2020-07-14T19:17:01.657Z</time>
      </trkpt>
      <trkpt lat="45.08741" lon="2.6441">
        <ele>1554.1665039062</ele>
        <time>2020-07-14T19:17:03.522Z</time>
      </trkpt>
      <trkpt lat="45.08754" lon="2.64402">
        <ele>1557.3699951172</ele>
        <time>2020-07-14T19:17:05.392Z</time>
      </trkpt>
      <trkpt lat="45.08768" lon="2.64395">
        <ele>1560.8974609375</ele>
        <time>2020-07-14T19:17:07.267Z</time>
      </trkpt>
      <trkpt lat="45.08786" lon="2.64387">
        <ele>1566.6756591797</ele>
        <time>2020-07-14T19:17:09.148Z</time>
      </trkpt>
      <trkpt lat="45.08799" lon="2.64385">
        <ele>1571.0965576172</ele>
        <time>2020-07-14T19:17:11.033Z</time>
      </trkpt>
      <trkpt lat="45.08814" lon="2.64384">
        <ele>1576.4957275391</ele>
        <time>2020-07-14T19:17:12.923Z</time>
      </trkpt>
      <trkpt lat="45.08822" lon="2.64383">
        <ele>1579.3752441406</ele>
        <time>2020-07-14T19:17:14.816Z</time>
      </trkpt>
      <trkpt lat="45.08825" lon="2.64386">
        <ele>1580.4549560547</ele>
        <time>2020-07-14T19:17:16.710Z</time>
      </trkpt>
      <trkpt lat="45.08829" lon="2.64391">
        <ele>1581.8947753906</ele>
        <time>2020-07-14T19:17:18.606Z</time>
      </trkpt>
      <trkpt lat="45.08834" lon="2.64394">
        <ele>1583.6944580078</ele>
        <time>2020-07-14T19:17:20.504Z</time>
      </trkpt>
      <trkpt lat="45.08838" lon="2.64394">
        <ele>1585.1342773438</ele>
        <time>2020-07-14T19:17:22.403Z</time>
      </trkpt>
      <trkpt lat="45.08838" lon="2.64391">
        <ele>1585.1342773438</ele>
        <time>2020-07-14T19:17:24.303Z</time>
      </trkpt>
      <trkpt lat="45.08838" lon="2.64394">
        <ele>1585.1342773438</ele>
        <time>2020-07-14T19:17:26.203Z</time>
      </trkpt>
      <trkpt lat="45.08842" lon="2.64394">
        <ele>1586.5739746094</ele>
        <time>2020-07-14T19:17:28.105Z</time>
      </trkpt>
      <trkpt lat="45.08851" lon="2.64392">
        <ele>1589.7575683594</ele>
        <time>2020-07-14T19:17:30.010Z</time>
      </trkpt>
      <trkpt lat="45.08859" lon="2.64387">
        <ele>1592.1691894531</ele>
        <time>2020-07-14T19:17:31.918Z</time>
      </trkpt>
      <trkpt lat="45.08864" lon="2.64384">
        <ele>1593.6809082031</ele>
        <time>2020-07-14T19:17:33.828Z</time>
      </trkpt>
      <trkpt lat="45.0887" lon="2.64378">
        <ele>1595.4086914062</ele>
        <time>2020-07-14T19:17:35.740Z</time>
      </trkpt>
      <trkpt lat="45.08875" lon="2.64378">
        <ele>1597.0284423828</ele>
        <time>2020-07-14T19:17:37.654Z</time>
      </trkpt>
      <trkpt lat="45.08881" lon="2.64381">
        <ele>1598.0593261719</ele>
        <time>2020-07-14T19:17:39.570Z</time>
      </trkpt>
      <trkpt lat="45.08884" lon="2.64385">
        <ele>1598.4912109375</ele>
        <time>2020-07-14T19:17:41.487Z</time>
      </trkpt>
      <trkpt lat="45.08886" lon="2.64391">
        <ele>1598.8991699219</ele>
        <time>2020-07-14T19:17:43.406Z</time>
      </trkpt>
      <trkpt lat="45.08888" lon="2.64396">
        <ele>1599.2711181641</ele>
        <time>2020-07-14T19:17:45.326Z</time>
      </trkpt>
      <trkpt lat="45.08896" lon="2.644">
        <ele>1600.1829833984</ele>
        <time>2020-07-14T19:17:47.249Z</time>
      </trkpt>
      <trkpt lat="45.08909" lon="2.64407">
        <ele>1601.6827392578</ele>
        <time>2020-07-14T19:17:49.177Z</time>
      </trkpt>
      <trkpt lat="45.08916" lon="2.64411">
        <ele>1602.4985351562</ele>
        <time>2020-07-14T19:17:51.107Z</time>
      </trkpt>
      <trkpt lat="45.08923" lon="2.64413">
        <ele>1603.2424316406</ele>
        <time>2020-07-14T19:17:53.039Z</time>
      </trkpt>
      <trkpt lat="45.08934" lon="2.64412">
        <ele>1604.2623291016</ele>
        <time>2020-07-14T19:17:54.975Z</time>
      </trkpt>
      <trkpt lat="45.08946" lon="2.64412">
        <ele>1605.4140625</ele>
        <time>2020-07-14T19:17:56.915Z</time>
      </trkpt>
      <trkpt lat="45.08959" lon="2.6441">
        <ele>1607.7711181641</ele>
        <time>2020-07-14T19:17:58.860Z</time>
      </trkpt>
      <trkpt lat="45.08965" lon="2.64408">
        <ele>1608.6267089844</ele>
        <time>2020-07-14T19:18:00.807Z</time>
      </trkpt>
      <trkpt lat="45.08972" lon="2.64407">
        <ele>1609.3226318359</ele>
        <time>2020-07-14T19:18:02.756Z</time>
      </trkpt>
      <trkpt lat="45.08979" lon="2.64405">
        <ele>1610.1264648438</ele>
        <time>2020-07-14T19:18:04.707Z</time>
      </trkpt>
      <trkpt lat="45.08986" lon="2.64401">
        <ele>1611.1462402344</ele>
        <time>2020-07-14T19:18:06.661Z</time>
      </trkpt>
      <trkpt lat="45.08994" lon="2.64396">
        <ele>1612.3580322266</ele>
        <time>2020-07-14T19:18:08.618Z</time>
      </trkpt>
      <trkpt lat="45.09003" lon="2.64391">
        <ele>1613.6538085938</ele>
        <time>2020-07-14T19:18:10.578Z</time>
      </trkpt>
      <trkpt lat="45.0901" lon="2.64386">
        <ele>1614.7816162109</ele>
        <time>2020-07-14T19:18:12.541Z</time>
      </trkpt>
      <trkpt lat="45.09017" lon="2.6438">
        <ele>1618.7941894531</ele>
        <time>2020-07-14T19:18:14.506Z</time>
      </trkpt>
      <trkpt lat="45.09025" lon="2.64372">
        <ele>1623.7854003906</ele>
        <time>2020-07-14T19:18:16.475Z</time>
      </trkpt>
      <trkpt lat="45.0903" lon="2.64366">
        <ele>1627.2287597656</ele>
        <time>2020-07-14T19:18:18.446Z</time>
      </trkpt>
      <trkpt lat="45.09038" lon="2.64354">
        <ele>1633.5157470703</ele>
        <time>2020-07-14T19:18:20.421Z</time>
      </trkpt>
      <trkpt lat="45.0904" lon="2.6435">
        <ele>1635.4113769531</ele>
        <time>2020-07-14T19:18:22.397Z</time>
      </trkpt>
      <trkpt lat="45.09043" lon="2.64347">
        <ele>1637.2830810547</ele>
        <time>2020-07-14T19:18:24.374Z</time>
      </trkpt>
      <trkpt lat="45.09046" lon="2.64345">
        <ele>1637.99609375</ele>
        <time>2020-07-14T19:18:26.352Z</time>
      </trkpt>
      <trkpt lat="45.09053" lon="2.64339">
        <ele>1641.0333251953</ele>
        <time>2020-07-14T19:18:28.333Z</time>
      </trkpt>
      <trkpt lat="45.09061" lon="2.64335">
        <ele>1643.9609375</ele>
        <time>2020-07-14T19:18:30.317Z</time>
      </trkpt>
      <trkpt lat="45.09067" lon="2.64332">
        <ele>1644.8607177734</ele>
        <time>2020-07-14T19:18:32.303Z</time>
      </trkpt>
      <trkpt lat="45.0907" lon="2.64331">
        <ele>1645.3286132812</ele>
        <time>2020-07-14T19:18:34.290Z</time>
      </trkpt>
      <trkpt lat="45.09075" lon="2.64324">
        <ele>1645.9166259766</ele>
        <time>2020-07-14T19:18:36.279Z</time>
      </trkpt>
      <trkpt lat="45.09084" lon="2.64319">
        <ele>1647.2482910156</ele>
        <time>2020-07-14T19:18:38.271Z</time>
      </trkpt>
      <trkpt lat="45.09099" lon="2.64303">
        <ele>1650.3070068359</ele>
        <time>2020-07-14T19:18:40.270Z</time>
      </trkpt>
      <trkpt lat="45.09108" lon="2.64295">
        <ele>1655.2022705078</ele>
        <time>2020-07-14T19:18:42.272Z</time>
      </trkpt>
      <trkpt lat="45.09112" lon="2.6429">
        <ele>1657.6378173828</ele>
        <time>2020-07-14T19:18:44.276Z</time>
      </trkpt>
      <trkpt lat="45.09118" lon="2.64286">
        <ele>1660.6612548828</ele>
        <time>2020-07-14T19:18:46.282Z</time>
      </trkpt>
      <trkpt lat="45.09125" lon="2.64283">
        <ele>1663.8887939453</ele>
        <time>2020-07-14T19:18:48.291Z</time>
      </trkpt>
      <trkpt lat="45.09132" lon="2.64278">
        <ele>1666.8239746094</ele>
        <time>2020-07-14T19:18:50.302Z</time>
      </trkpt>
      <trkpt lat="45.09138" lon="2.64271">
        <ele>1669.6674804688</ele>
        <time>2020-07-14T19:18:52.316Z</time>
      </trkpt>
      <trkpt lat="45.09144" lon="2.64269">
        <ele>1671.5622558594</ele>
        <time>2020-07-14T19:18:54.332Z</time>
      </trkpt>
      <trkpt lat="45.0915" lon="2.64269">
        <ele>1672.7860107422</ele>
        <time>2020-07-14T19:18:56.350Z</time>
      </trkpt>
      <trkpt lat="45.09159" lon="2.64266">
        <ele>1674.9816894531</ele>
        <time>2020-07-14T19:18:58.371Z</time>
      </trkpt>
      <trkpt lat="45.09169" lon="2.64264">
        <ele>1677.2613525391</ele>
        <time>2020-07-14T19:19:00.395Z</time>
      </trkpt>
      <trkpt lat="45.09184" lon="2.64261">
        <ele>1680.6806640625</ele>
        <time>2020-07-14T19:19:02.424Z</time>
      </trkpt>
      <trkpt lat="45.09196" lon="2.64258">
        <ele>1683.48828125</ele>
        <time>2020-07-14T19:19:04.458Z</time>
      </trkpt>
      <trkpt lat="45.09207" lon="2.64258">
        <ele>1685.7319335938</ele>
        <time>2020-07-14T19:19:06.495Z</time>
      </trkpt>
      <trkpt lat="45.09218" lon="2.64258">
        <ele>1687.5526123047</ele>
        <time>2020-07-14T19:19:08.536Z</time>
      </trkpt>
      <trkpt lat="45.09226" lon="2.64259">
        <ele>1688.0445556641</ele>
        <time>2020-07-14T19:19:10.580Z</time>
      </trkpt>
      <trkpt lat="45.09238" lon="2.64258">
        <ele>1688.7524414062</ele>
        <time>2020-07-14T19:19:12.628Z</time>
      </trkpt>
      <trkpt lat="45.09249" lon="2.64259">
        <ele>1689.4243164062</ele>
        <time>2020-07-14T19:19:14.679Z</time>
      </trkpt>
      <trkpt lat="45.09252" lon="2.64259">
        <ele>1689.6043701172</ele>
        <time>2020-07-14T19:19:16.731Z</time>
      </trkpt>
      <trkpt lat="45.09262" lon="2.64262">
        <ele>1690.240234375</ele>
        <time>2020-07-14T19:19:18.787Z</time>
      </trkpt>
      <trkpt lat="45.09273" lon="2.64268">
        <ele>1690.9720458984</ele>
        <time>2020-07-14T19:19:20.847Z</time>
      </trkpt>
      <trkpt lat="45.09284" lon="2.64276">
        <ele>1691.7280273438</ele>
        <time>2020-07-14T19:19:22.911Z</time>
      </trkpt>
      <trkpt lat="45.09301" lon="2.64287">
        <ele>1693.2513427734</ele>
        <time>2020-07-14T19:19:24.981Z</time>
      </trkpt>
      <trkpt lat="45.09309" lon="2.64293">
        <ele>1694.1871337891</ele>
        <time>2020-07-14T19:19:27.054Z</time>
      </trkpt>
      <trkpt lat="45.0932" lon="2.64295">
        <ele>1695.3989257812</ele>
        <time>2020-07-14T19:19:29.131Z</time>
      </trkpt>
      <trkpt lat="45.09335" lon="2.64301">
        <ele>1697.0906982422</ele>
        <time>2020-07-14T19:19:31.213Z</time>
      </trkpt>
      <trkpt lat="45.09342" lon="2.64305">
        <ele>1697.89453125</ele>
        <time>2020-07-14T19:19:33.297Z</time>
      </trkpt>
      <trkpt lat="45.09352" lon="2.64311">
        <ele>1699.033203125</ele>
        <time>2020-07-14T19:19:35.385Z</time>
      </trkpt>
      <trkpt lat="45.0936" lon="2.64319">
        <ele>1699.9930419922</ele>
        <time>2020-07-14T19:19:37.476Z</time>
      </trkpt>
      <trkpt lat="45.09365" lon="2.64327">
        <ele>1700.6420898438</ele>
        <time>2020-07-14T19:19:39.570Z</time>
      </trkpt>
      <trkpt lat="45.0937" lon="2.64332">
        <ele>1701.2419433594</ele>
        <time>2020-07-14T19:19:41.666Z</time>
      </trkpt>
      <trkpt lat="45.09374" lon="2.64333">
        <ele>1701.6728515625</ele>
        <time>2020-07-14T19:19:43.763Z</time>
      </trkpt>
      <trkpt lat="45.09379" lon="2.64333">
        <ele>1701.9025878906</ele>
        <time>2020-07-14T19:19:45.862Z</time>
      </trkpt>
      <trkpt lat="45.09382" lon="2.64331">
        <ele>1701.9505615234</ele>
        <time>2020-07-14T19:19:47.962Z</time>
      </trkpt>
      <trkpt lat="45.09388" lon="2.64332">
        <ele>1702.646484375</ele>
        <time>2020-07-14T19:19:50.064Z</time>
      </trkpt>
      <trkpt lat="45.09401" lon="2.64337">
        <ele>1704.494140625</ele>
        <time>2020-07-14T19:19:52.170Z</time>
      </trkpt>
      <trkpt lat="45.09419" lon="2.64346">
        <ele>1707.3017578125</ele>
        <time>2020-07-14T19:19:54.283Z</time>
      </trkpt>
      <trkpt lat="45.09437" lon="2.64356">
        <ele>1710.2292480469</ele>
        <time>2020-07-14T19:19:56.402Z</time>
      </trkpt>
      <trkpt lat="45.09451" lon="2.64366">
        <ele>1712.7728271484</ele>
        <time>2020-07-14T19:19:58.526Z</time>
      </trkpt>
      <trkpt lat="45.0946" lon="2.64375">
        <ele>1714.7136230469</ele>
        <time>2020-07-14T19:20:00.654Z</time>
      </trkpt>
      <trkpt lat="45.09465" lon="2.64387">
        <ele>1716.3333740234</ele>
        <time>2020-07-14T19:20:02.785Z</time>
      </trkpt>
      <trkpt lat="45.09472" lon="2.64399">
        <ele>1718.0251464844</ele>
        <time>2020-07-14T19:20:04.920Z</time>
      </trkpt>
      <trkpt lat="45.0948" lon="2.64411">
        <ele>1719.7528076172</ele>
        <time>2020-07-14T19:20:07.059Z</time>
      </trkpt>
      <trkpt lat="45.09492" lon="2.6442">
        <ele>1721.1534423828</ele>
        <time>2020-07-14T19:20:09.203Z</time>
      </trkpt>
      <trkpt lat="45.095" lon="2.64429">
        <ele>1721.44140625</ele>
        <time>2020-07-14T19:20:11.350Z</time>
      </trkpt>
      <trkpt lat="45.09513" lon="2.64438">
        <ele>1721.9094238281</ele>
        <time>2020-07-14T19:20:13.502Z</time>
      </trkpt>
      <trkpt lat="45.09528" lon="2.64446">
        <ele>1722.4493408203</ele>
        <time>2020-07-14T19:20:15.659Z</time>
      </trkpt>
      <trkpt lat="45.09541" lon="2.64454">
        <ele>1722.9172363281</ele>
        <time>2020-07-14T19:20:17.821Z</time>
      </trkpt>
      <trkpt lat="45.09545" lon="2.64456">
        <ele>1722.7756347656</ele>
        <time>2020-07-14T19:20:19.984Z</time>
      </trkpt>
      <trkpt lat="45.09544" lon="2.64457">
        <ele>1722.9075927734</ele>
        <time>2020-07-14T19:20:22.148Z</time>
      </trkpt>
      <trkpt lat="45.09545" lon="2.64456">
        <ele>1722.7756347656</ele>
        <time>2020-07-14T19:20:24.312Z</time>
      </trkpt>
      <trkpt lat="45.09553" lon="2.6446">
        <ele>1721.7198486328</ele>
        <time>2020-07-14T19:20:26.479Z</time>
      </trkpt>
      <trkpt lat="45.09565" lon="2.64465">
        <ele>1720.1361083984</ele>
        <time>2020-07-14T19:20:28.650Z</time>
      </trkpt>
      <trkpt lat="45.09577" lon="2.64468">
        <ele>1718.5523681641</ele>
        <time>2020-07-14T19:20:30.825Z</time>
      </trkpt>
      <trkpt lat="45.09586" lon="2.6447">
        <ele>1717.3646240234</ele>
        <time>2020-07-14T19:20:33.003Z</time>
      </trkpt>
      <trkpt lat="45.09607" lon="2.64468">
        <ele>1713.7067871094</ele>
        <time>2020-07-14T19:20:35.188Z</time>
      </trkpt>
      <trkpt lat="45.0962" lon="2.64469">
        <ele>1711.2711181641</ele>
        <time>2020-07-14T19:20:37.378Z</time>
      </trkpt>
      <trkpt lat="45.09632" lon="2.6447">
        <ele>1708.1284179688</ele>
        <time>2020-07-14T19:20:39.572Z</time>
      </trkpt>
      <trkpt lat="45.09636" lon="2.64473">
        <ele>1706.8686523438</ele>
        <time>2020-07-14T19:20:41.767Z</time>
      </trkpt>
      <trkpt lat="45.09635" lon="2.64475">
        <ele>1707.3485107422</ele>
        <time>2020-07-14T19:20:43.963Z</time>
      </trkpt>
      <trkpt lat="45.09636" lon="2.64473">
        <ele>1706.8686523438</ele>
        <time>2020-07-14T19:20:46.159Z</time>
      </trkpt>
      <trkpt lat="45.09637" lon="2.64474">
        <ele>1706.5687255859</ele>
        <time>2020-07-14T19:20:48.356Z</time>
      </trkpt>
      <trkpt lat="45.09641" lon="2.6448">
        <ele>1705.4888916016</ele>
        <time>2020-07-14T19:20:50.555Z</time>
      </trkpt>
      <trkpt lat="45.09645" lon="2.64485">
        <ele>1704.3489990234</ele>
        <time>2020-07-14T19:20:52.755Z</time>
      </trkpt>
      <trkpt lat="45.09651" lon="2.64492">
        <ele>1702.609375</ele>
        <time>2020-07-14T19:20:54.958Z</time>
      </trkpt>
      <trkpt lat="45.09656" lon="2.645">
        <ele>1701.2895507812</ele>
        <time>2020-07-14T19:20:57.163Z</time>
      </trkpt>
      <trkpt lat="45.0966" lon="2.64505">
        <ele>1700.1497802734</ele>
        <time>2020-07-14T19:20:59.370Z</time>
      </trkpt>
      <trkpt lat="45.09666" lon="2.64506">
        <ele>1698.0500488281</ele>
        <time>2020-07-14T19:21:01.579Z</time>
      </trkpt>
      <trkpt lat="45.09669" lon="2.64511">
        <ele>1697.2702636719</ele>
        <time>2020-07-14T19:21:03.790Z</time>
      </trkpt>
      <trkpt lat="45.09671" lon="2.64516">
        <ele>1696.8503417969</ele>
        <time>2020-07-14T19:21:06.002Z</time>
      </trkpt>
      <trkpt lat="45.09672" lon="2.6452">
        <ele>1696.7303466797</ele>
        <time>2020-07-14T19:21:08.215Z</time>
      </trkpt>
      <trkpt lat="45.09675" lon="2.64523">
        <ele>1695.8304443359</ele>
        <time>2020-07-14T19:21:10.429Z</time>
      </trkpt>
      <trkpt lat="45.09683" lon="2.64531">
        <ele>1693.4309082031</ele>
        <time>2020-07-14T19:21:12.647Z</time>
      </trkpt>
      <trkpt lat="45.0969" lon="2.64537">
        <ele>1691.2712402344</ele>
        <time>2020-07-14T19:21:14.867Z</time>
      </trkpt>
      <trkpt lat="45.09699" lon="2.64549">
        <ele>1688.7517089844</ele>
        <time>2020-07-14T19:21:17.092Z</time>
      </trkpt>
      <trkpt lat="45.09707" lon="2.64554">
        <ele>1686.1721191406</ele>
        <time>2020-07-14T19:21:19.319Z</time>
      </trkpt>
      <trkpt lat="45.09716" lon="2.64558">
        <ele>1682.740234375</ele>
        <time>2020-07-14T19:21:21.550Z</time>
      </trkpt>
      <trkpt lat="45.09719" lon="2.64563">
        <ele>1681.7443847656</ele>
        <time>2020-07-14T19:21:23.782Z</time>
      </trkpt>
      <trkpt lat="45.09724" lon="2.64571">
        <ele>1680.0646972656</ele>
        <time>2020-07-14T19:21:26.017Z</time>
      </trkpt>
      <trkpt lat="45.09729" lon="2.64575">
        <ele>1678.1450195312</ele>
        <time>2020-07-14T19:21:28.254Z</time>
      </trkpt>
      <trkpt lat="45.09733" lon="2.64577">
        <ele>1676.5373535156</ele>
        <time>2020-07-14T19:21:30.492Z</time>
      </trkpt>
      <trkpt lat="45.09738" lon="2.64579">
        <ele>1674.4976806641</ele>
        <time>2020-07-14T19:21:32.732Z</time>
      </trkpt>
      <trkpt lat="45.09745" lon="2.64582">
        <ele>1671.6541748047</ele>
        <time>2020-07-14T19:21:34.974Z</time>
      </trkpt>
      <trkpt lat="45.09751" lon="2.64586">
        <ele>1669.3303222656</ele>
        <time>2020-07-14T19:21:37.218Z</time>
      </trkpt>
      <trkpt lat="45.09755" lon="2.6459">
        <ele>1668.3223876953</ele>
        <time>2020-07-14T19:21:39.464Z</time>
      </trkpt>
      <trkpt lat="45.09759" lon="2.64596">
        <ele>1667.6745605469</ele>
        <time>2020-07-14T19:21:41.712Z</time>
      </trkpt>
      <trkpt lat="45.09764" lon="2.64607">
        <ele>1667.4946289062</ele>
        <time>2020-07-14T19:21:43.963Z</time>
      </trkpt>
      <trkpt lat="45.0977" lon="2.64615">
        <ele>1666.3427734375</ele>
        <time>2020-07-14T19:21:46.217Z</time>
      </trkpt>
      <trkpt lat="45.09774" lon="2.64623">
        <ele>1666.0548095703</ele>
        <time>2020-07-14T19:21:48.473Z</time>
      </trkpt>
      <trkpt lat="45.0978" lon="2.64636">
        <ele>1665.8028564453</ele>
        <time>2020-07-14T19:21:50.733Z</time>
      </trkpt>
      <trkpt lat="45.09783" lon="2.64642">
        <ele>1665.5869140625</ele>
        <time>2020-07-14T19:21:52.994Z</time>
      </trkpt>
      <trkpt lat="45.09786" lon="2.64651">
        <ele>1665.9108886719</ele>
        <time>2020-07-14T19:21:55.258Z</time>
      </trkpt>
      <trkpt lat="45.0979" lon="2.64659">
        <ele>1665.6229248047</ele>
        <time>2020-07-14T19:21:57.524Z</time>
      </trkpt>
      <trkpt lat="45.09794" lon="2.64666">
        <ele>1665.1707763672</ele>
        <time>2020-07-14T19:21:59.792Z</time>
      </trkpt>
      <trkpt lat="45.09797" lon="2.64674">
        <ele>1665.1810302734</ele>
        <time>2020-07-14T19:22:02.062Z</time>
      </trkpt>
      <trkpt lat="45.098" lon="2.64682">
        <ele>1664.7010498047</ele>
        <time>2020-07-14T19:22:04.335Z</time>
      </trkpt>
      <trkpt lat="45.09805" lon="2.64695">
        <ele>1663.8852539062</ele>
        <time>2020-07-14T19:22:06.611Z</time>
      </trkpt>
      <trkpt lat="45.09811" lon="2.64708">
        <ele>1662.7813720703</ele>
        <time>2020-07-14T19:22:08.891Z</time>
      </trkpt>
      <trkpt lat="45.09815" lon="2.64718">
        <ele>1662.1094970703</ele>
        <time>2020-07-14T19:22:11.173Z</time>
      </trkpt>
      <trkpt lat="45.09823" lon="2.64729">
        <ele>1660.3338623047</ele>
        <time>2020-07-14T19:22:13.459Z</time>
      </trkpt>
      <trkpt lat="45.09826" lon="2.6474">
        <ele>1659.9979248047</ele>
        <time>2020-07-14T19:22:15.748Z</time>
      </trkpt>
      <trkpt lat="45.09829" lon="2.6475">
        <ele>1659.6140136719</ele>
        <time>2020-07-14T19:22:18.039Z</time>
      </trkpt>
      <trkpt lat="45.09832" lon="2.64765">
        <ele>1660.5229492188</ele>
        <time>2020-07-14T19:22:20.334Z</time>
      </trkpt>
      <trkpt lat="45.09836" lon="2.64775">
        <ele>1660.6909179688</ele>
        <time>2020-07-14T19:22:22.632Z</time>
      </trkpt>
      <trkpt lat="45.09839" lon="2.64781">
        <ele>1660.6188964844</ele>
        <time>2020-07-14T19:22:24.932Z</time>
      </trkpt>
      <trkpt lat="45.09842" lon="2.64785">
        <ele>1660.2829589844</ele>
        <time>2020-07-14T19:22:27.233Z</time>
      </trkpt>
      <trkpt lat="45.09843" lon="2.64792">
        <ele>1660.9188232422</ele>
        <time>2020-07-14T19:22:29.536Z</time>
      </trkpt>
      <trkpt lat="45.09844" lon="2.64796">
        <ele>1661.1588134766</ele>
        <time>2020-07-14T19:22:31.840Z</time>
      </trkpt>
      <trkpt lat="45.09848" lon="2.64802">
        <ele>1660.798828125</ele>
        <time>2020-07-14T19:22:34.146Z</time>
      </trkpt>
      <trkpt lat="45.09854" lon="2.64809">
        <ele>1659.9949951172</ele>
        <time>2020-07-14T19:22:36.454Z</time>
      </trkpt>
      <trkpt lat="45.0986" lon="2.6482">
        <ele>1659.529296875</ele>
        <time>2020-07-14T19:22:38.765Z</time>
      </trkpt>
      <trkpt lat="45.09869" lon="2.64831">
        <ele>1657.9575195312</ele>
        <time>2020-07-14T19:22:41.080Z</time>
      </trkpt>
      <trkpt lat="45.09876" lon="2.64842">
        <ele>1657.8664550781</ele>
        <time>2020-07-14T19:22:43.399Z</time>
      </trkpt>
      <trkpt lat="45.09882" lon="2.64851">
        <ele>1656.7745361328</ele>
        <time>2020-07-14T19:22:45.721Z</time>
      </trkpt>
      <trkpt lat="45.09885" lon="2.64858">
        <ele>1656.4385986328</ele>
        <time>2020-07-14T19:22:48.045Z</time>
      </trkpt>
      <trkpt lat="45.09886" lon="2.64862">
        <ele>1656.5465087891</ele>
        <time>2020-07-14T19:22:50.370Z</time>
      </trkpt>
      <trkpt lat="45.0989" lon="2.64868">
        <ele>1655.6586914062</ele>
        <time>2020-07-14T19:22:52.697Z</time>
      </trkpt>
      <trkpt lat="45.09894" lon="2.64879">
        <ele>1655.4306640625</ele>
        <time>2020-07-14T19:22:55.027Z</time>
      </trkpt>
      <trkpt lat="45.09897" lon="2.64886">
        <ele>1655.0947265625</ele>
        <time>2020-07-14T19:22:57.359Z</time>
      </trkpt>
      <trkpt lat="45.099" lon="2.64892">
        <ele>1654.6268310547</ele>
        <time>2020-07-14T19:22:59.692Z</time>
      </trkpt>
      <trkpt lat="45.09902" lon="2.64897">
        <ele>1654.4468994141</ele>
        <time>2020-07-14T19:23:02.027Z</time>
      </trkpt>
      <trkpt lat="45.09904" lon="2.6491">
        <ele>1655.3227539062</ele>
        <time>2020-07-14T19:23:04.365Z</time>
      </trkpt>
      <trkpt lat="45.09907" lon="2.64917">
        <ele>1654.9868164062</ele>
        <time>2020-07-14T19:23:06.705Z</time>
      </trkpt>
      <trkpt lat="45.09911" lon="2.64929">
        <ele>1654.8907470703</ele>
        <time>2020-07-14T19:23:09.048Z</time>
      </trkpt>
      <trkpt lat="45.09915" lon="2.64939">
        <ele>1654.5308837891</ele>
        <time>2020-07-14T19:23:11.394Z</time>
      </trkpt>
      <trkpt lat="45.09919" lon="2.64947">
        <ele>1653.9069824219</ele>
        <time>2020-07-14T19:23:13.742Z</time>
      </trkpt>
      <trkpt lat="45.09924" lon="2.64956">
        <ele>1652.9951171875</ele>
        <time>2020-07-14T19:23:16.093Z</time>
      </trkpt>
      <trkpt lat="45.09928" lon="2.64964">
        <ele>1652.3712158203</ele>
        <time>2020-07-14T19:23:18.446Z</time>
      </trkpt>
      <trkpt lat="45.09931" lon="2.6497">
        <ele>1651.9033203125</ele>
        <time>2020-07-14T19:23:20.801Z</time>
      </trkpt>
      <trkpt lat="45.09933" lon="2.64976">
        <ele>1651.7979736328</ele>
        <time>2020-07-14T19:23:23.157Z</time>
      </trkpt>
      <trkpt lat="45.09933" lon="2.64982">
        <ele>1651.9418945312</ele>
        <time>2020-07-14T19:23:25.515Z</time>
      </trkpt>
      <trkpt lat="45.09934" lon="2.64989">
        <ele>1651.7979736328</ele>
        <time>2020-07-14T19:23:27.874Z</time>
      </trkpt>
      <trkpt lat="45.09936" lon="2.64999">
        <ele>1651.4139404297</ele>
        <time>2020-07-14T19:23:30.236Z</time>
      </trkpt>
      <trkpt lat="45.09937" lon="2.65008">
        <ele>1652.1750488281</ele>
        <time>2020-07-14T19:23:32.600Z</time>
      </trkpt>
      <trkpt lat="45.09939" lon="2.65017">
        <ele>1653.1708984375</ele>
        <time>2020-07-14T19:23:34.966Z</time>
      </trkpt>
      <trkpt lat="45.09941" lon="2.65022">
        <ele>1653.4468994141</ele>
        <time>2020-07-14T19:23:37.334Z</time>
      </trkpt>
      <trkpt lat="45.09942" lon="2.65029">
        <ele>1654.3947753906</ele>
        <time>2020-07-14T19:23:39.703Z</time>
      </trkpt>
      <trkpt lat="45.09944" lon="2.65037">
        <ele>1655.2105712891</ele>
        <time>2020-07-14T19:23:42.074Z</time>
      </trkpt>
      <trkpt lat="45.09947" lon="2.65046">
        <ele>1655.89453125</ele>
        <time>2020-07-14T19:23:44.448Z</time>
      </trkpt>
      <trkpt lat="45.0995" lon="2.65053">
        <ele>1656.2183837891</ele>
        <time>2020-07-14T19:23:46.824Z</time>
      </trkpt>
      <trkpt lat="45.09952" lon="2.65057">
        <ele>1656.314453125</ele>
        <time>2020-07-14T19:23:49.201Z</time>
      </trkpt>
      <trkpt lat="45.09958" lon="2.65068">
        <ele>1656.4223632812</ele>
        <time>2020-07-14T19:23:51.581Z</time>
      </trkpt>
      <trkpt lat="45.09962" lon="2.65075">
        <ele>1655.9866943359</ele>
        <time>2020-07-14T19:23:53.963Z</time>
      </trkpt>
      <trkpt lat="45.09967" lon="2.65083">
        <ele>1654.7269287109</ele>
        <time>2020-07-14T19:23:56.348Z</time>
      </trkpt>
      <trkpt lat="45.09972" lon="2.65089">
        <ele>1653.2583007812</ele>
        <time>2020-07-14T19:23:58.735Z</time>
      </trkpt>
      <trkpt lat="45.09978" lon="2.651">
        <ele>1652.5263671875</ele>
        <time>2020-07-14T19:24:01.125Z</time>
      </trkpt>
      <trkpt lat="45.09983" lon="2.65107">
        <ele>1651.4226074219</ele>
        <time>2020-07-14T19:24:03.517Z</time>
      </trkpt>
      <trkpt lat="45.09988" lon="2.65114">
        <ele>1650.2922363281</ele>
        <time>2020-07-14T19:24:05.912Z</time>
      </trkpt>
      <trkpt lat="45.09991" lon="2.65123">
        <ele>1649.8603515625</ele>
        <time>2020-07-14T19:24:08.309Z</time>
      </trkpt>
      <trkpt lat="45.09994" lon="2.6513">
        <ele>1649.2603759766</ele>
        <time>2020-07-14T19:24:10.708Z</time>
      </trkpt>
      <trkpt lat="45.09997" lon="2.65139">
        <ele>1648.8284912109</ele>
        <time>2020-07-14T19:24:13.109Z</time>
      </trkpt>
      <trkpt lat="45.1" lon="2.65147">
        <ele>1648.3126220703</ele>
        <time>2020-07-14T19:24:15.513Z</time>
      </trkpt>
      <trkpt lat="45.10001" lon="2.65154">
        <ele>1648.5045166016</ele>
        <time>2020-07-14T19:24:17.918Z</time>
      </trkpt>
      <trkpt lat="45.10005" lon="2.65161">
        <ele>1647.5086669922</ele>
        <time>2020-07-14T19:24:20.325Z</time>
      </trkpt>
      <trkpt lat="45.10009" lon="2.65171">
        <ele>1647.0240478516</ele>
        <time>2020-07-14T19:24:22.735Z</time>
      </trkpt>
      <trkpt lat="45.10014" lon="2.65185">
        <ele>1648.2359619141</ele>
        <time>2020-07-14T19:24:25.149Z</time>
      </trkpt>
      <trkpt lat="45.10018" lon="2.65195">
        <ele>1648.9317626953</ele>
        <time>2020-07-14T19:24:27.565Z</time>
      </trkpt>
      <trkpt lat="45.1002" lon="2.65199">
        <ele>1649.0517578125</ele>
        <time>2020-07-14T19:24:29.983Z</time>
      </trkpt>
      <trkpt lat="45.10024" lon="2.65207">
        <ele>1649.2917480469</ele>
        <time>2020-07-14T19:24:32.403Z</time>
      </trkpt>
      <trkpt lat="45.10029" lon="2.65214">
        <ele>1648.9078369141</ele>
        <time>2020-07-14T19:24:34.825Z</time>
      </trkpt>
      <trkpt lat="45.10036" lon="2.65221">
        <ele>1647.7319335938</ele>
        <time>2020-07-14T19:24:37.250Z</time>
      </trkpt>
      <trkpt lat="45.10042" lon="2.65228">
        <ele>1646.9521484375</ele>
        <time>2020-07-14T19:24:39.678Z</time>
      </trkpt>
      <trkpt lat="45.1005" lon="2.65238">
        <ele>1646.5405273438</ele>
        <time>2020-07-14T19:24:42.109Z</time>
      </trkpt>
      <trkpt lat="45.10057" lon="2.65244">
        <ele>1645.6407470703</ele>
        <time>2020-07-14T19:24:44.543Z</time>
      </trkpt>
      <trkpt lat="45.10061" lon="2.65249">
        <ele>1645.4847412109</ele>
        <time>2020-07-14T19:24:46.979Z</time>
      </trkpt>
      <trkpt lat="45.10065" lon="2.65256">
        <ele>1645.6604003906</ele>
        <time>2020-07-14T19:24:49.417Z</time>
      </trkpt>
      <trkpt lat="45.10069" lon="2.65262">
        <ele>1645.5164794922</ele>
        <time>2020-07-14T19:24:51.857Z</time>
      </trkpt>
      <trkpt lat="45.10074" lon="2.65267">
        <ele>1644.8565673828</ele>
        <time>2020-07-14T19:24:54.299Z</time>
      </trkpt>
      <trkpt lat="45.10081" lon="2.6527">
        <ele>1643.1647949219</ele>
        <time>2020-07-14T19:24:56.743Z</time>
      </trkpt>
      <trkpt lat="45.1009" lon="2.65275">
        <ele>1641.2091064453</ele>
        <time>2020-07-14T19:24:59.191Z</time>
      </trkpt>
      <trkpt lat="45.10101" lon="2.65282">
        <ele>1638.9895019531</ele>
        <time>2020-07-14T19:25:01.643Z</time>
      </trkpt>
      <trkpt lat="45.1011" lon="2.65289">
        <ele>1637.4177246094</ele>
        <time>2020-07-14T19:25:04.098Z</time>
      </trkpt>
      <trkpt lat="45.10122" lon="2.65296">
        <ele>1634.8741455078</ele>
        <time>2020-07-14T19:25:06.557Z</time>
      </trkpt>
      <trkpt lat="45.10131" lon="2.653">
        <ele>1633.3411865234</ele>
        <time>2020-07-14T19:25:09.019Z</time>
      </trkpt>
      <trkpt lat="45.10135" lon="2.65303">
        <ele>1633.197265625</ele>
        <time>2020-07-14T19:25:11.483Z</time>
      </trkpt>
      <trkpt lat="45.10141" lon="2.65306">
        <ele>1632.693359375</ele>
        <time>2020-07-14T19:25:13.949Z</time>
      </trkpt>
      <trkpt lat="45.1015" lon="2.65314">
        <ele>1632.609375</ele>
        <time>2020-07-14T19:25:16.419Z</time>
      </trkpt>
      <trkpt lat="45.10158" lon="2.65321">
        <ele>1632.5133056641</ele>
        <time>2020-07-14T19:25:18.892Z</time>
      </trkpt>
      <trkpt lat="45.10165" lon="2.65328">
        <ele>1632.5972900391</ele>
        <time>2020-07-14T19:25:21.368Z</time>
      </trkpt>
      <trkpt lat="45.1017" lon="2.65334">
        <ele>1632.8492431641</ele>
        <time>2020-07-14T19:25:23.846Z</time>
      </trkpt>
      <trkpt lat="45.10175" lon="2.65342">
        <ele>1632.7525634766</ele>
        <time>2020-07-14T19:25:26.326Z</time>
      </trkpt>
      <trkpt lat="45.10184" lon="2.65354">
        <ele>1631.9967041016</ele>
        <time>2020-07-14T19:25:28.810Z</time>
      </trkpt>
      <trkpt lat="45.10189" lon="2.6536">
        <ele>1631.5288085938</ele>
        <time>2020-07-14T19:25:31.297Z</time>
      </trkpt>
      <trkpt lat="45.10196" lon="2.65365">
        <ele>1630.62890625</ele>
        <time>2020-07-14T19:25:33.786Z</time>
      </trkpt>
      <trkpt lat="45.10204" lon="2.65374">
        <ele>1629.8370361328</ele>
        <time>2020-07-14T19:25:36.279Z</time>
      </trkpt>
      <trkpt lat="45.1021" lon="2.6538">
        <ele>1629.1892089844</ele>
        <time>2020-07-14T19:25:38.774Z</time>
      </trkpt>
      <trkpt lat="45.10217" lon="2.65384">
        <ele>1630.3765869141</ele>
        <time>2020-07-14T19:25:41.272Z</time>
      </trkpt>
      <trkpt lat="45.10221" lon="2.65385">
        <ele>1630.9765625</ele>
        <time>2020-07-14T19:25:43.771Z</time>
      </trkpt>
      <trkpt lat="45.1023" lon="2.65385">
        <ele>1632.1643066406</ele>
        <time>2020-07-14T19:25:46.273Z</time>
      </trkpt>
      <trkpt lat="45.10236" lon="2.65386">
        <ele>1633.0281982422</ele>
        <time>2020-07-14T19:25:48.777Z</time>
      </trkpt>
      <trkpt lat="45.10238" lon="2.65386">
        <ele>1633.2921142578</ele>
        <time>2020-07-14T19:25:51.282Z</time>
      </trkpt>
      <trkpt lat="45.10238" lon="2.65389">
        <ele>1633.5080566406</ele>
        <time>2020-07-14T19:25:53.787Z</time>
      </trkpt>
      <trkpt lat="45.10239" lon="2.65394">
        <ele>1634</ele>
        <time>2020-07-14T19:25:56.294Z</time>
      </trkpt>
      <trkpt lat="45.10238" lon="2.65398">
        <ele>1634.1560058594</ele>
        <time>2020-07-14T19:25:58.802Z</time>
      </trkpt>
      <trkpt lat="45.10236" lon="2.65402">
        <ele>1634.1800537109</ele>
        <time>2020-07-14T19:26:01.311Z</time>
      </trkpt>
      <trkpt lat="45.10233" lon="2.65409">
        <ele>1634.2879638672</ele>
        <time>2020-07-14T19:26:03.822Z</time>
      </trkpt>
      <trkpt lat="45.10231" lon="2.65417">
        <ele>1634.5999755859</ele>
        <time>2020-07-14T19:26:06.335Z</time>
      </trkpt>
      <trkpt lat="45.10228" lon="2.65425">
        <ele>1634.3653564453</ele>
        <time>2020-07-14T19:26:08.850Z</time>
      </trkpt>
      <trkpt lat="45.10227" lon="2.65429">
        <ele>1634.2332763672</ele>
        <time>2020-07-14T19:26:11.366Z</time>
      </trkpt>
      <trkpt lat="45.10226" lon="2.65432">
        <ele>1634.1013183594</ele>
        <time>2020-07-14T19:26:13.883Z</time>
      </trkpt>
      <trkpt lat="45.10229" lon="2.65436">
        <ele>1634.4973144531</ele>
        <time>2020-07-14T19:26:16.401Z</time>
      </trkpt>
      <trkpt lat="45.10232" lon="2.65439">
        <ele>1634.8931884766</ele>
        <time>2020-07-14T19:26:18.920Z</time>
      </trkpt>
      <trkpt lat="45.10237" lon="2.65438">
        <ele>1635.5531005859</ele>
        <time>2020-07-14T19:26:21.441Z</time>
      </trkpt>
      <trkpt lat="45.10244" lon="2.65439">
        <ele>1636.4769287109</ele>
        <time>2020-07-14T19:26:23.964Z</time>
      </trkpt>
      <trkpt lat="45.10252" lon="2.65444">
        <ele>1637.5328369141</ele>
        <time>2020-07-14T19:26:26.490Z</time>
      </trkpt>
      <trkpt lat="45.10259" lon="2.65449">
        <ele>1638.4566650391</ele>
        <time>2020-07-14T19:26:29.019Z</time>
      </trkpt>
      <trkpt lat="45.10263" lon="2.65457">
        <ele>1638.9844970703</ele>
        <time>2020-07-14T19:26:31.550Z</time>
      </trkpt>
      <trkpt lat="45.10264" lon="2.65464">
        <ele>1639.1165771484</ele>
        <time>2020-07-14T19:26:34.083Z</time>
      </trkpt>
      <trkpt lat="45.10264" lon="2.65471">
        <ele>1639.1165771484</ele>
        <time>2020-07-14T19:26:36.617Z</time>
      </trkpt>
      <trkpt lat="45.10266" lon="2.6548">
        <ele>1637.9876708984</ele>
        <time>2020-07-14T19:26:39.154Z</time>
      </trkpt>
      <trkpt lat="45.10268" lon="2.65488">
        <ele>1636.5239257812</ele>
        <time>2020-07-14T19:26:41.693Z</time>
      </trkpt>
      <trkpt lat="45.10269" lon="2.65493">
        <ele>1635.5040283203</ele>
        <time>2020-07-14T19:26:44.233Z</time>
      </trkpt>
      <trkpt lat="45.10269" lon="2.65499">
        <ele>1633.7763671875</ele>
        <time>2020-07-14T19:26:46.774Z</time>
      </trkpt>
      <trkpt lat="45.1027" lon="2.65508">
        <ele>1632.7084960938</ele>
        <time>2020-07-14T19:26:49.318Z</time>
      </trkpt>
      <trkpt lat="45.1027" lon="2.65513">
        <ele>1632.2885742188</ele>
        <time>2020-07-14T19:26:51.863Z</time>
      </trkpt>
      <trkpt lat="45.1027" lon="2.65523">
        <ele>1631.4487304688</ele>
        <time>2020-07-14T19:26:54.410Z</time>
      </trkpt>
      <trkpt lat="45.10271" lon="2.65531">
        <ele>1631.1967773438</ele>
        <time>2020-07-14T19:26:56.959Z</time>
      </trkpt>
      <trkpt lat="45.10273" lon="2.65538">
        <ele>1631.4487304688</ele>
        <time>2020-07-14T19:26:59.510Z</time>
      </trkpt>
      <trkpt lat="45.10275" lon="2.65547">
        <ele>1631.5327148438</ele>
        <time>2020-07-14T19:27:02.063Z</time>
      </trkpt>
      <trkpt lat="45.10276" lon="2.65553">
        <ele>1631.4487304688</ele>
        <time>2020-07-14T19:27:04.617Z</time>
      </trkpt>
      <trkpt lat="45.10275" lon="2.65556">
        <ele>1630.7768554688</ele>
        <time>2020-07-14T19:27:07.172Z</time>
      </trkpt>
      <trkpt lat="45.10273" lon="2.65558">
        <ele>1629.7690429688</ele>
        <time>2020-07-14T19:27:09.728Z</time>
      </trkpt>
      <trkpt lat="45.10274" lon="2.65564">
        <ele>1629.6850585938</ele>
        <time>2020-07-14T19:27:12.285Z</time>
      </trkpt>
      <trkpt lat="45.10275" lon="2.65571">
        <ele>1628.7215576172</ele>
        <time>2020-07-14T19:27:14.844Z</time>
      </trkpt>
      <trkpt lat="45.10278" lon="2.65576">
        <ele>1629.10546875</ele>
        <time>2020-07-14T19:27:17.405Z</time>
      </trkpt>
      <trkpt lat="45.1028" lon="2.65583">
        <ele>1628.2176513672</ele>
        <time>2020-07-14T19:27:19.968Z</time>
      </trkpt>
      <trkpt lat="45.10283" lon="2.65591">
        <ele>1628.0910644531</ele>
        <time>2020-07-14T19:27:22.533Z</time>
      </trkpt>
      <trkpt lat="45.10285" lon="2.65597">
        <ele>1628.0190429688</ele>
        <time>2020-07-14T19:27:25.099Z</time>
      </trkpt>
      <trkpt lat="45.10286" lon="2.65601">
        <ele>1627.7551269531</ele>
        <time>2020-07-14T19:27:27.666Z</time>
      </trkpt>
      <trkpt lat="45.10286" lon="2.6561">
        <ele>1625.7034912109</ele>
        <time>2020-07-14T19:27:30.235Z</time>
      </trkpt>
      <trkpt lat="45.10287" lon="2.65615">
        <ele>1625.2115478516</ele>
        <time>2020-07-14T19:27:32.806Z</time>
      </trkpt>
      <trkpt lat="45.1029" lon="2.6562">
        <ele>1626.0153808594</ele>
        <time>2020-07-14T19:27:35.378Z</time>
      </trkpt>
      <trkpt lat="45.10293" lon="2.65628">
        <ele>1626.1353759766</ele>
        <time>2020-07-14T19:27:37.952Z</time>
      </trkpt>
      <trkpt lat="45.10296" lon="2.65636">
        <ele>1625.7302246094</ele>
        <time>2020-07-14T19:27:40.528Z</time>
      </trkpt>
      <trkpt lat="45.10299" lon="2.65645">
        <ele>1625.0102539062</ele>
        <time>2020-07-14T19:27:43.107Z</time>
      </trkpt>
      <trkpt lat="45.103" lon="2.65654">
        <ele>1623.4025878906</ele>
        <time>2020-07-14T19:27:45.688Z</time>
      </trkpt>
      <trkpt lat="45.10301" lon="2.6566">
        <ele>1622.4787597656</ele>
        <time>2020-07-14T19:27:48.270Z</time>
      </trkpt>
      <trkpt lat="45.10301" lon="2.65665">
        <ele>1621.3388671875</ele>
        <time>2020-07-14T19:27:50.854Z</time>
      </trkpt>
      <trkpt lat="45.10303" lon="2.65671">
        <ele>1620.94140625</ele>
        <time>2020-07-14T19:27:53.439Z</time>
      </trkpt>
      <trkpt lat="45.10305" lon="2.6568">
        <ele>1620.2095947266</ele>
        <time>2020-07-14T19:27:56.026Z</time>
      </trkpt>
      <trkpt lat="45.10308" lon="2.65688">
        <ele>1619.8033447266</ele>
        <time>2020-07-14T19:27:58.615Z</time>
      </trkpt>
      <trkpt lat="45.10309" lon="2.65695">
        <ele>1618.5555419922</ele>
        <time>2020-07-14T19:28:01.206Z</time>
      </trkpt>
      <trkpt lat="45.10311" lon="2.657">
        <ele>1618.3276367188</ele>
        <time>2020-07-14T19:28:03.798Z</time>
      </trkpt>
      <trkpt lat="45.10314" lon="2.65712">
        <ele>1616.8518066406</ele>
        <time>2020-07-14T19:28:06.393Z</time>
      </trkpt>
      <trkpt lat="45.10318" lon="2.6572">
        <ele>1616.8997802734</ele>
        <time>2020-07-14T19:28:08.991Z</time>
      </trkpt>
      <trkpt lat="45.10321" lon="2.65728">
        <ele>1616.4318847656</ele>
        <time>2020-07-14T19:28:11.591Z</time>
      </trkpt>
      <trkpt lat="45.10324" lon="2.65734">
        <ele>1616.4678955078</ele>
        <time>2020-07-14T19:28:14.193Z</time>
      </trkpt>
      <trkpt lat="45.10324" lon="2.65742">
        <ele>1614.4522705078</ele>
        <time>2020-07-14T19:28:16.797Z</time>
      </trkpt>
      <trkpt lat="45.10326" lon="2.6575">
        <ele>1613.4683837891</ele>
        <time>2020-07-14T19:28:19.403Z</time>
      </trkpt>
      <trkpt lat="45.10328" lon="2.65756">
        <ele>1612.7054443359</ele>
        <time>2020-07-14T19:28:22.010Z</time>
      </trkpt>
      <trkpt lat="45.10331" lon="2.65764">
        <ele>1611.5656738281</ele>
        <time>2020-07-14T19:28:24.619Z</time>
      </trkpt>
      <trkpt lat="45.10333" lon="2.65769">
        <ele>1610.9177246094</ele>
        <time>2020-07-14T19:28:27.230Z</time>
      </trkpt>
      <trkpt lat="45.10335" lon="2.65775">
        <ele>1609.9338378906</ele>
        <time>2020-07-14T19:28:29.842Z</time>
      </trkpt>
      <trkpt lat="45.10336" lon="2.65784">
        <ele>1607.4262695312</ele>
        <time>2020-07-14T19:28:32.456Z</time>
      </trkpt>
      <trkpt lat="45.10336" lon="2.65794">
        <ele>1604.0668945312</ele>
        <time>2020-07-14T19:28:35.073Z</time>
      </trkpt>
      <trkpt lat="45.10337" lon="2.65801">
        <ele>1602.3461914062</ele>
        <time>2020-07-14T19:28:37.691Z</time>
      </trkpt>
      <trkpt lat="45.10337" lon="2.6581">
        <ele>1599.5386962891</ele>
        <time>2020-07-14T19:28:40.312Z</time>
      </trkpt>
      <trkpt lat="45.10338" lon="2.65814">
        <ele>1598.7828369141</ele>
        <time>2020-07-14T19:28:42.934Z</time>
      </trkpt>
      <trkpt lat="45.10339" lon="2.65819">
        <ele>1597.7149658203</ele>
        <time>2020-07-14T19:28:45.557Z</time>
      </trkpt>
      <trkpt lat="45.10339" lon="2.65823">
        <ele>1596.4672851562</ele>
        <time>2020-07-14T19:28:48.181Z</time>
      </trkpt>
      <trkpt lat="45.10338" lon="2.6583">
        <ele>1593.7916259766</ele>
        <time>2020-07-14T19:28:50.806Z</time>
      </trkpt>
      <trkpt lat="45.10337" lon="2.65835">
        <ele>1591.7399902344</ele>
        <time>2020-07-14T19:28:53.433Z</time>
      </trkpt>
      <trkpt lat="45.10339" lon="2.6584">
        <ele>1591.1158447266</ele>
        <time>2020-07-14T19:28:56.061Z</time>
      </trkpt>
      <trkpt lat="45.10339" lon="2.65844">
        <ele>1589.8200683594</ele>
        <time>2020-07-14T19:28:58.690Z</time>
      </trkpt>
      <trkpt lat="45.10339" lon="2.65849">
        <ele>1588.2003173828</ele>
        <time>2020-07-14T19:29:01.320Z</time>
      </trkpt>
      <trkpt lat="45.1034" lon="2.65855">
        <ele>1586.7485351562</ele>
        <time>2020-07-14T19:29:03.952Z</time>
      </trkpt>
      <trkpt lat="45.10342" lon="2.65857">
        <ele>1587.0844726562</ele>
        <time>2020-07-14T19:29:06.584Z</time>
      </trkpt>
      <trkpt lat="45.10344" lon="2.65861">
        <ele>1586.7725830078</ele>
        <time>2020-07-14T19:29:09.218Z</time>
      </trkpt>
      <trkpt lat="45.10346" lon="2.65864">
        <ele>1586.7845458984</ele>
        <time>2020-07-14T19:29:11.852Z</time>
      </trkpt>
      <trkpt lat="45.10349" lon="2.65866">
        <ele>1587.6124267578</ele>
        <time>2020-07-14T19:29:14.488Z</time>
      </trkpt>
      <trkpt lat="45.10352" lon="2.6587">
        <ele>1587.7923583984</ele>
        <time>2020-07-14T19:29:17.125Z</time>
      </trkpt>
      <trkpt lat="45.10355" lon="2.65874">
        <ele>1587.9724121094</ele>
        <time>2020-07-14T19:29:19.763Z</time>
      </trkpt>
      <trkpt lat="45.10358" lon="2.65879">
        <ele>1587.8283691406</ele>
        <time>2020-07-14T19:29:22.403Z</time>
      </trkpt>
      <trkpt lat="45.1036" lon="2.65883">
        <ele>1587.5164794922</ele>
        <time>2020-07-14T19:29:25.044Z</time>
      </trkpt>
      <trkpt lat="45.10362" lon="2.65887">
        <ele>1587.2044677734</ele>
        <time>2020-07-14T19:29:27.686Z</time>
      </trkpt>
      <trkpt lat="45.10366" lon="2.6589">
        <ele>1588.2003173828</ele>
        <time>2020-07-14T19:29:30.330Z</time>
      </trkpt>
      <trkpt lat="45.10372" lon="2.65891">
        <ele>1590.8278808594</ele>
        <time>2020-07-14T19:29:32.976Z</time>
      </trkpt>
      <trkpt lat="45.10377" lon="2.65895">
        <ele>1591.8770751953</ele>
        <time>2020-07-14T19:29:35.624Z</time>
      </trkpt>
      <trkpt lat="45.10379" lon="2.65903">
        <ele>1589.2614746094</ele>
        <time>2020-07-14T19:29:38.274Z</time>
      </trkpt>
      <trkpt lat="45.1038" lon="2.65912">
        <ele>1586.333984375</ele>
        <time>2020-07-14T19:29:40.926Z</time>
      </trkpt>
      <trkpt lat="45.1038" lon="2.65919">
        <ele>1584.0662841797</ele>
        <time>2020-07-14T19:29:43.579Z</time>
      </trkpt>
      <trkpt lat="45.1038" lon="2.65925">
        <ele>1582.0158691406</ele>
        <time>2020-07-14T19:29:46.234Z</time>
      </trkpt>
      <trkpt lat="45.10384" lon="2.65931">
        <ele>1579.9041748047</ele>
        <time>2020-07-14T19:29:48.891Z</time>
      </trkpt>
      <trkpt lat="45.10388" lon="2.65941">
        <ele>1576.4487304688</ele>
        <time>2020-07-14T19:29:51.551Z</time>
      </trkpt>
      <trkpt lat="45.10392" lon="2.65948">
        <ele>1574.0012207031</ele>
        <time>2020-07-14T19:29:54.213Z</time>
      </trkpt>
      <trkpt lat="45.10395" lon="2.65956">
        <ele>1571.2415771484</ele>
        <time>2020-07-14T19:29:56.877Z</time>
      </trkpt>
      <trkpt lat="45.10396" lon="2.65965">
        <ele>1568.1940917969</ele>
        <time>2020-07-14T19:29:59.543Z</time>
      </trkpt>
      <trkpt lat="45.104" lon="2.65974">
        <ele>1565.0747070312</ele>
        <time>2020-07-14T19:30:02.211Z</time>
      </trkpt>
      <trkpt lat="45.10403" lon="2.65981">
        <ele>1562.6510009766</ele>
        <time>2020-07-14T19:30:04.881Z</time>
      </trkpt>
      <trkpt lat="45.10407" lon="2.65991">
        <ele>1559.1956787109</ele>
        <time>2020-07-14T19:30:07.554Z</time>
      </trkpt>
      <trkpt lat="45.1041" lon="2.66">
        <ele>1556.1000976562</ele>
        <time>2020-07-14T19:30:10.229Z</time>
      </trkpt>
      <trkpt lat="45.10413" lon="2.66011">
        <ele>1552.2329101562</ele>
        <time>2020-07-14T19:30:12.907Z</time>
      </trkpt>
      <trkpt lat="45.10415" lon="2.66024">
        <ele>1547.6616210938</ele>
        <time>2020-07-14T19:30:15.588Z</time>
      </trkpt>
      <trkpt lat="45.10415" lon="2.66036">
        <ele>1543.486328125</ele>
        <time>2020-07-14T19:30:18.272Z</time>
      </trkpt>
      <trkpt lat="45.10417" lon="2.66045">
        <ele>1540.5589599609</ele>
        <time>2020-07-14T19:30:20.958Z</time>
      </trkpt>
      <trkpt lat="45.10417" lon="2.66054">
        <ele>1538.5072021484</ele>
        <time>2020-07-14T19:30:23.647Z</time>
      </trkpt>
      <trkpt lat="45.10421" lon="2.66063">
        <ele>1535.8796386719</ele>
        <time>2020-07-14T19:30:26.338Z</time>
      </trkpt>
      <trkpt lat="45.10424" lon="2.66072">
        <ele>1533.3961181641</ele>
        <time>2020-07-14T19:30:29.031Z</time>
      </trkpt>
      <trkpt lat="45.10425" lon="2.6608">
        <ele>1531.4284667969</ele>
        <time>2020-07-14T19:30:31.726Z</time>
      </trkpt>
      <trkpt lat="45.10425" lon="2.6609">
        <ele>1529.5787353516</ele>
        <time>2020-07-14T19:30:34.424Z</time>
      </trkpt>
      <trkpt lat="45.10425" lon="2.66097">
        <ele>1528.7388916016</ele>
        <time>2020-07-14T19:30:37.123Z</time>
      </trkpt>
      <trkpt lat="45.10426" lon="2.66104">
        <ele>1527.7550048828</ele>
        <time>2020-07-14T19:30:39.824Z</time>
      </trkpt>
      <trkpt lat="45.1043" lon="2.66113">
        <ele>1526.0992431641</ele>
        <time>2020-07-14T19:30:42.528Z</time>
      </trkpt>
      <trkpt lat="45.10434" lon="2.66122">
        <ele>1524.4436035156</ele>
        <time>2020-07-14T19:30:45.234Z</time>
      </trkpt>
      <trkpt lat="45.10437" lon="2.66129">
        <ele>1523.1717529297</ele>
        <time>2020-07-14T19:30:47.942Z</time>
      </trkpt>
      <trkpt lat="45.10438" lon="2.66136">
        <ele>1522.1879882812</ele>
        <time>2020-07-14T19:30:50.652Z</time>
      </trkpt>
      <trkpt lat="45.10436" lon="2.66137">
        <ele>1522.3559570312</ele>
        <time>2020-07-14T19:30:53.362Z</time>
      </trkpt>
      <trkpt lat="45.10438" lon="2.66136">
        <ele>1522.1879882812</ele>
        <time>2020-07-14T19:30:56.073Z</time>
      </trkpt>
      <trkpt lat="45.10439" lon="2.66142">
        <ele>1521.3240966797</ele>
        <time>2020-07-14T19:30:58.786Z</time>
      </trkpt>
      <trkpt lat="45.10438" lon="2.66147">
        <ele>1520.8681640625</ele>
        <time>2020-07-14T19:31:01.500Z</time>
      </trkpt>
      <trkpt lat="45.10437" lon="2.66155">
        <ele>1519.7371826172</ele>
        <time>2020-07-14T19:31:04.216Z</time>
      </trkpt>
      <trkpt lat="45.10435" lon="2.66164">
        <ele>1518.5494384766</ele>
        <time>2020-07-14T19:31:06.934Z</time>
      </trkpt>
      <trkpt lat="45.10434" lon="2.66174">
        <ele>1516.9309082031</ele>
        <time>2020-07-14T19:31:09.654Z</time>
      </trkpt>
      <trkpt lat="45.10435" lon="2.66181">
        <ele>1515.4791259766</ele>
        <time>2020-07-14T19:31:12.376Z</time>
      </trkpt>
      <trkpt lat="45.10436" lon="2.66189">
        <ele>1513.8353271484</ele>
        <time>2020-07-14T19:31:15.100Z</time>
      </trkpt>
      <trkpt lat="45.10438" lon="2.66204">
        <ele>1510.7398681641</ele>
        <time>2020-07-14T19:31:17.827Z</time>
      </trkpt>
      <trkpt lat="45.10437" lon="2.6621">
        <ele>1509.6960449219</ele>
        <time>2020-07-14T19:31:20.556Z</time>
      </trkpt>
      <trkpt lat="45.10436" lon="2.66213">
        <ele>1509.2281494141</ele>
        <time>2020-07-14T19:31:23.286Z</time>
      </trkpt>
      <trkpt lat="45.10443" lon="2.66201">
        <ele>1510.7758789062</ele>
        <time>2020-07-14T19:31:26.019Z</time>
      </trkpt>
      <trkpt lat="45.10461" lon="2.66168">
        <ele>1514.751953125</ele>
        <time>2020-07-14T19:31:28.762Z</time>
      </trkpt>
      <trkpt lat="45.10471" lon="2.66156">
        <ele>1511.5124511719</ele>
        <time>2020-07-14T19:31:31.510Z</time>
      </trkpt>
      <trkpt lat="45.10481" lon="2.66149">
        <ele>1507.6730957031</ele>
        <time>2020-07-14T19:31:34.261Z</time>
      </trkpt>
      <trkpt lat="45.10481" lon="2.6615">
        <ele>1507.5531005859</ele>
        <time>2020-07-14T19:31:37.013Z</time>
      </trkpt>
      <trkpt lat="45.10479" lon="2.66162">
        <ele>1507.0491943359</ele>
        <time>2020-07-14T19:31:39.767Z</time>
      </trkpt>
      <trkpt lat="45.10478" lon="2.66173">
        <ele>1505.8485107422</ele>
        <time>2020-07-14T19:31:42.524Z</time>
      </trkpt>
      <trkpt lat="45.10484" lon="2.66198">
        <ele>1497.7559814453</ele>
        <time>2020-07-14T19:31:45.287Z</time>
      </trkpt>
      <trkpt lat="45.10487" lon="2.6621">
        <ele>1493.9766845703</ele>
        <time>2020-07-14T19:31:48.053Z</time>
      </trkpt>
      <trkpt lat="45.10491" lon="2.66208">
        <ele>1492.3929443359</ele>
        <time>2020-07-14T19:31:50.821Z</time>
      </trkpt>
      <trkpt lat="45.1051" lon="2.66187">
        <ele>1487.8515625</ele>
        <time>2020-07-14T19:31:53.597Z</time>
      </trkpt>
      <trkpt lat="45.10518" lon="2.66182">
        <ele>1485.1879882812</ele>
        <time>2020-07-14T19:31:56.376Z</time>
      </trkpt>
      <trkpt lat="45.10536" lon="2.66179">
        <ele>1477.4133300781</ele>
        <time>2020-07-14T19:31:59.161Z</time>
      </trkpt>
      <trkpt lat="45.10545" lon="2.66176">
        <ele>1473.7579345703</ele>
        <time>2020-07-14T19:32:01.949Z</time>
      </trkpt>
      <trkpt lat="45.10551" lon="2.66176">
        <ele>1470.666015625</ele>
        <time>2020-07-14T19:32:04.739Z</time>
      </trkpt>
      <trkpt lat="45.10548" lon="2.66195">
        <ele>1468.0709228516</ele>
        <time>2020-07-14T19:32:07.533Z</time>
      </trkpt>
      <trkpt lat="45.10544" lon="2.6621">
        <ele>1466.9431152344</ele>
        <time>2020-07-14T19:32:10.331Z</time>
      </trkpt>
      <trkpt lat="45.10538" lon="2.66225">
        <ele>1466.5430908203</ele>
        <time>2020-07-14T19:32:13.133Z</time>
      </trkpt>
      <trkpt lat="45.10536" lon="2.66239">
        <ele>1464.4554443359</ele>
        <time>2020-07-14T19:32:15.939Z</time>
      </trkpt>
      <trkpt lat="45.10537" lon="2.66248">
        <ele>1462.0859375</ele>
        <time>2020-07-14T19:32:18.747Z</time>
      </trkpt>
      <trkpt lat="45.10536" lon="2.66259">
        <ele>1460.3153076172</ele>
        <time>2020-07-14T19:32:21.557Z</time>
      </trkpt>
      <trkpt lat="45.10539" lon="2.66266">
        <ele>1457.3278808594</ele>
        <time>2020-07-14T19:32:24.369Z</time>
      </trkpt>
      <trkpt lat="45.10546" lon="2.66262">
        <ele>1454.8698730469</ele>
        <time>2020-07-14T19:32:27.184Z</time>
      </trkpt>
      <trkpt lat="45.10547" lon="2.66266">
        <ele>1453.5621337891</ele>
        <time>2020-07-14T19:32:30.000Z</time>
      </trkpt>
      <trkpt lat="45.10546" lon="2.66279">
        <ele>1451.1984863281</ele>
        <time>2020-07-14T19:32:32.819Z</time>
      </trkpt>
      <trkpt lat="45.10538" lon="2.66305">
        <ele>1449.3972167969</ele>
        <time>2020-07-14T19:32:35.645Z</time>
      </trkpt>
      <trkpt lat="45.10536" lon="2.66331">
        <ele>1444.9680175781</ele>
        <time>2020-07-14T19:32:38.477Z</time>
      </trkpt>
      <trkpt lat="45.1054" lon="2.66366">
        <ele>1441.9965820312</ele>
        <time>2020-07-14T19:32:41.317Z</time>
      </trkpt>
      <trkpt lat="45.10554" lon="2.66402">
        <ele>1434.9449462891</ele>
        <time>2020-07-14T19:32:44.167Z</time>
      </trkpt>
      <trkpt lat="45.10565" lon="2.66432">
        <ele>1430.2701416016</ele>
        <time>2020-07-14T19:32:47.025Z</time>
      </trkpt>
      <trkpt lat="45.10578" lon="2.66465">
        <ele>1426.0129394531</ele>
        <time>2020-07-14T19:32:49.892Z</time>
      </trkpt>
      <trkpt lat="45.1059" lon="2.66496">
        <ele>1422.4255371094</ele>
        <time>2020-07-14T19:32:52.767Z</time>
      </trkpt>
      <trkpt lat="45.10598" lon="2.66531">
        <ele>1422.2543945312</ele>
        <time>2020-07-14T19:32:55.651Z</time>
      </trkpt>
      <trkpt lat="45.10606" lon="2.6657">
        <ele>1423.3717041016</ele>
        <time>2020-07-14T19:32:58.544Z</time>
      </trkpt>
      <trkpt lat="45.10613" lon="2.66608">
        <ele>1425.9371337891</ele>
        <time>2020-07-14T19:33:01.447Z</time>
      </trkpt>
      <trkpt lat="45.10621" lon="2.66647">
        <ele>1426.4649658203</ele>
        <time>2020-07-14T19:33:04.359Z</time>
      </trkpt>
      <trkpt lat="45.10631" lon="2.66691">
        <ele>1430.3826904297</ele>
        <time>2020-07-14T19:33:07.282Z</time>
      </trkpt>
      <trkpt lat="45.10638" lon="2.66726">
        <ele>1437.4375</ele>
        <time>2020-07-14T19:33:10.214Z</time>
      </trkpt>
      <trkpt lat="45.10651" lon="2.66769">
        <ele>1444.3435058594</ele>
        <time>2020-07-14T19:33:13.157Z</time>
      </trkpt>
      <trkpt lat="45.10672" lon="2.66808">
        <ele>1447.3913574219</ele>
        <time>2020-07-14T19:33:16.111Z</time>
      </trkpt>
      <trkpt lat="45.10686" lon="2.66836">
        <ele>1450.0788574219</ele>
        <time>2020-07-14T19:33:19.073Z</time>
      </trkpt>
      <trkpt lat="45.10699" lon="2.66863">
        <ele>1453.4829101562</ele>
        <time>2020-07-14T19:33:22.043Z</time>
      </trkpt>
      <trkpt lat="45.10711" lon="2.66886">
        <ele>1456.1750488281</ele>
        <time>2020-07-14T19:33:25.020Z</time>
      </trkpt>
      <trkpt lat="45.1072" lon="2.66908">
        <ele>1460.56640625</ele>
        <time>2020-07-14T19:33:28.003Z</time>
      </trkpt>
      <trkpt lat="45.10729" lon="2.66935">
        <ele>1467.8859863281</ele>
        <time>2020-07-14T19:33:30.993Z</time>
      </trkpt>
      <trkpt lat="45.10739" lon="2.66952">
        <ele>1472.1212158203</ele>
        <time>2020-07-14T19:33:33.988Z</time>
      </trkpt>
      <trkpt lat="45.1075" lon="2.66965">
        <ele>1474.6647949219</ele>
        <time>2020-07-14T19:33:36.988Z</time>
      </trkpt>
      <trkpt lat="45.1076" lon="2.66984">
        <ele>1479.4759521484</ele>
        <time>2020-07-14T19:33:39.994Z</time>
      </trkpt>
      <trkpt lat="45.10765" lon="2.66988">
        <ele>1479.9678955078</ele>
        <time>2020-07-14T19:33:43.001Z</time>
      </trkpt>
      <trkpt lat="45.10771" lon="2.66993">
        <ele>1480.6278076172</ele>
        <time>2020-07-14T19:33:46.011Z</time>
      </trkpt>
      <trkpt lat="45.10779" lon="2.67">
        <ele>1481.6235351562</ele>
        <time>2020-07-14T19:33:49.024Z</time>
      </trkpt>
      <trkpt lat="45.10789" lon="2.67002">
        <ele>1480.5197753906</ele>
        <time>2020-07-14T19:33:52.040Z</time>
      </trkpt>
      <trkpt lat="45.10805" lon="2.67009">
        <ele>1481.8641357422</ele>
        <time>2020-07-14T19:33:55.062Z</time>
      </trkpt>
      <trkpt lat="45.10818" lon="2.67018">
        <ele>1484.9956054688</ele>
        <time>2020-07-14T19:33:58.089Z</time>
      </trkpt>
      <trkpt lat="45.10833" lon="2.67021">
        <ele>1484.8876953125</ele>
        <time>2020-07-14T19:34:01.121Z</time>
      </trkpt>
      <trkpt lat="45.10845" lon="2.67028">
        <ele>1487.1192626953</ele>
        <time>2020-07-14T19:34:04.157Z</time>
      </trkpt>
      <trkpt lat="45.10856" lon="2.67036">
        <ele>1489.9627685547</ele>
        <time>2020-07-14T19:34:07.197Z</time>
      </trkpt>
      <trkpt lat="45.10862" lon="2.67042">
        <ele>1492.3383789062</ele>
        <time>2020-07-14T19:34:10.240Z</time>
      </trkpt>
      <trkpt lat="45.10877" lon="2.67043">
        <ele>1491.2330322266</ele>
        <time>2020-07-14T19:34:13.288Z</time>
      </trkpt>
      <trkpt lat="45.10894" lon="2.67042">
        <ele>1490.1171875</ele>
        <time>2020-07-14T19:34:16.341Z</time>
      </trkpt>
      <trkpt lat="45.109" lon="2.67046">
        <ele>1491.9168701172</ele>
        <time>2020-07-14T19:34:19.397Z</time>
      </trkpt>
      <trkpt lat="45.10909" lon="2.67052">
        <ele>1494.6164550781</ele>
        <time>2020-07-14T19:34:22.456Z</time>
      </trkpt>
      <trkpt lat="45.10919" lon="2.67051">
        <ele>1493.7525634766</ele>
        <time>2020-07-14T19:34:25.518Z</time>
      </trkpt>
      <trkpt lat="45.10924" lon="2.6706">
        <ele>1498.1079101562</ele>
        <time>2020-07-14T19:34:28.583Z</time>
      </trkpt>
      <trkpt lat="45.10939" lon="2.67057">
        <ele>1496.2476806641</ele>
        <time>2020-07-14T19:34:31.653Z</time>
      </trkpt>
      <trkpt lat="45.10947" lon="2.67056">
        <ele>1495.671875</ele>
        <time>2020-07-14T19:34:34.726Z</time>
      </trkpt>
      <trkpt lat="45.10957" lon="2.67046">
        <ele>1490.7526855469</ele>
        <time>2020-07-14T19:34:37.803Z</time>
      </trkpt>
      <trkpt lat="45.10968" lon="2.67035">
        <ele>1486.7447509766</ele>
        <time>2020-07-14T19:34:40.884Z</time>
      </trkpt>
      <trkpt lat="45.10994" lon="2.67027">
        <ele>1487.50390625</ele>
        <time>2020-07-14T19:34:43.974Z</time>
      </trkpt>
      <trkpt lat="45.11" lon="2.67026">
        <ele>1488.1998291016</ele>
        <time>2020-07-14T19:34:47.066Z</time>
      </trkpt>
      <trkpt lat="45.11001" lon="2.67025">
        <ele>1487.9357910156</ele>
        <time>2020-07-14T19:34:50.159Z</time>
      </trkpt>
      <trkpt lat="45.11005" lon="2.67025">
        <ele>1488.7037353516</ele>
        <time>2020-07-14T19:34:53.253Z</time>
      </trkpt>
      <trkpt lat="45.1102" lon="2.67023">
        <ele>1490.6713867188</ele>
        <time>2020-07-14T19:34:56.352Z</time>
      </trkpt>
      <trkpt lat="45.11041" lon="2.6702">
        <ele>1493.3349609375</ele>
        <time>2020-07-14T19:34:59.458Z</time>
      </trkpt>
      <trkpt lat="45.11049" lon="2.67019">
        <ele>1493.95703125</ele>
        <time>2020-07-14T19:35:02.567Z</time>
      </trkpt>
      <trkpt lat="45.11054" lon="2.67018">
        <ele>1494.041015625</ele>
        <time>2020-07-14T19:35:05.677Z</time>
      </trkpt>
      <trkpt lat="45.11063" lon="2.67015">
        <ele>1494.2572021484</ele>
        <time>2020-07-14T19:35:08.790Z</time>
      </trkpt>
      <trkpt lat="45.11071" lon="2.67012">
        <ele>1494.6771240234</ele>
        <time>2020-07-14T19:35:11.906Z</time>
      </trkpt>
      <trkpt lat="45.11079" lon="2.67012">
        <ele>1496.212890625</ele>
        <time>2020-07-14T19:35:15.025Z</time>
      </trkpt>
      <trkpt lat="45.11088" lon="2.67012">
        <ele>1497.9405517578</ele>
        <time>2020-07-14T19:35:18.147Z</time>
      </trkpt>
      <trkpt lat="45.11096" lon="2.67011">
        <ele>1499.1043701172</ele>
        <time>2020-07-14T19:35:21.271Z</time>
      </trkpt>
      <trkpt lat="45.11105" lon="2.67006">
        <ele>1498.9724121094</ele>
        <time>2020-07-14T19:35:24.399Z</time>
      </trkpt>
      <trkpt lat="45.11114" lon="2.67002">
        <ele>1499.1721191406</ele>
        <time>2020-07-14T19:35:27.530Z</time>
      </trkpt>
      <trkpt lat="45.11124" lon="2.66996">
        <ele>1498.4304199219</ele>
        <time>2020-07-14T19:35:30.664Z</time>
      </trkpt>
      <trkpt lat="45.11133" lon="2.66991">
        <ele>1496.7491455078</ele>
        <time>2020-07-14T19:35:33.802Z</time>
      </trkpt>
      <trkpt lat="45.11143" lon="2.66987">
        <ele>1495.1654052734</ele>
        <time>2020-07-14T19:35:36.943Z</time>
      </trkpt>
      <trkpt lat="45.11161" lon="2.66985">
        <ele>1494.6854248047</ele>
        <time>2020-07-14T19:35:40.090Z</time>
      </trkpt>
      <trkpt lat="45.11178" lon="2.66984">
        <ele>1494.6374511719</ele>
        <time>2020-07-14T19:35:43.243Z</time>
      </trkpt>
      <trkpt lat="45.11189" lon="2.66984">
        <ele>1494.9014892578</ele>
        <time>2020-07-14T19:35:46.400Z</time>
      </trkpt>
      <trkpt lat="45.112" lon="2.66984">
        <ele>1496.1964111328</ele>
        <time>2020-07-14T19:35:49.560Z</time>
      </trkpt>
      <trkpt lat="45.11204" lon="2.66984">
        <ele>1496.7723388672</ele>
        <time>2020-07-14T19:35:52.722Z</time>
      </trkpt>
      <trkpt lat="45.11209" lon="2.66985">
        <ele>1497.828125</ele>
        <time>2020-07-14T19:35:55.885Z</time>
      </trkpt>
      <trkpt lat="45.11214" lon="2.6699">
        <ele>1500.0474853516</ele>
        <time>2020-07-14T19:35:59.050Z</time>
      </trkpt>
      <trkpt lat="45.11225" lon="2.66997">
        <ele>1503.4549560547</ele>
        <time>2020-07-14T19:36:02.219Z</time>
      </trkpt>
      <trkpt lat="45.11232" lon="2.67001">
        <ele>1505.470703125</ele>
        <time>2020-07-14T19:36:05.391Z</time>
      </trkpt>
      <trkpt lat="45.1124" lon="2.67004">
        <ele>1507.2602539062</ele>
        <time>2020-07-14T19:36:08.566Z</time>
      </trkpt>
      <trkpt lat="45.11243" lon="2.67006">
        <ele>1508.244140625</ele>
        <time>2020-07-14T19:36:11.742Z</time>
      </trkpt>
      <trkpt lat="45.11247" lon="2.67007">
        <ele>1508.9759521484</ele>
        <time>2020-07-14T19:36:14.919Z</time>
      </trkpt>
      <trkpt lat="45.11253" lon="2.67009">
        <ele>1510.2478027344</ele>
        <time>2020-07-14T19:36:18.098Z</time>
      </trkpt>
      <trkpt lat="45.11261" lon="2.67008">
        <ele>1510.6677246094</ele>
        <time>2020-07-14T19:36:21.280Z</time>
      </trkpt>
      <trkpt lat="45.1127" lon="2.67003">
        <ele>1509.7918701172</ele>
        <time>2020-07-14T19:36:24.465Z</time>
      </trkpt>
      <trkpt lat="45.11283" lon="2.66995">
        <ele>1508.3502197266</ele>
        <time>2020-07-14T19:36:27.655Z</time>
      </trkpt>
      <trkpt lat="45.11293" lon="2.66988">
        <ele>1507.1292724609</ele>
        <time>2020-07-14T19:36:30.848Z</time>
      </trkpt>
      <trkpt lat="45.11303" lon="2.66981">
        <ele>1506.1672363281</ele>
        <time>2020-07-14T19:36:34.045Z</time>
      </trkpt>
      <trkpt lat="45.11306" lon="2.66979">
        <ele>1505.9152832031</ele>
        <time>2020-07-14T19:36:37.243Z</time>
      </trkpt>
      <trkpt lat="45.11313" lon="2.66977">
        <ele>1506.1912841797</ele>
        <time>2020-07-14T19:36:40.444Z</time>
      </trkpt>
      <trkpt lat="45.1132" lon="2.66976">
        <ele>1506.7911376953</ele>
        <time>2020-07-14T19:36:43.647Z</time>
      </trkpt>
      <trkpt lat="45.11324" lon="2.66975">
        <ele>1506.9951171875</ele>
        <time>2020-07-14T19:36:46.851Z</time>
      </trkpt>
      <trkpt lat="45.11336" lon="2.66975">
        <ele>1508.5788574219</ele>
        <time>2020-07-14T19:36:50.059Z</time>
      </trkpt>
      <trkpt lat="45.11346" lon="2.66976">
        <ele>1510.22265625</ele>
        <time>2020-07-14T19:36:53.271Z</time>
      </trkpt>
      <trkpt lat="45.11359" lon="2.66984">
        <ele>1514.5299072266</ele>
        <time>2020-07-14T19:36:56.487Z</time>
      </trkpt>
      <trkpt lat="45.11371" lon="2.66986">
        <ele>1516.7614746094</ele>
        <time>2020-07-14T19:36:59.707Z</time>
      </trkpt>
      <trkpt lat="45.11383" lon="2.66984">
        <ele>1518.4973144531</ele>
        <time>2020-07-14T19:37:02.931Z</time>
      </trkpt>
      <trkpt lat="45.11395" lon="2.66978">
        <ele>1519.7210693359</ele>
        <time>2020-07-14T19:37:06.160Z</time>
      </trkpt>
      <trkpt lat="45.11414" lon="2.66972">
        <ele>1522.7926025391</ele>
        <time>2020-07-14T19:37:09.395Z</time>
      </trkpt>
      <trkpt lat="45.11435" lon="2.66968">
        <ele>1527.4982910156</ele>
        <time>2020-07-14T19:37:12.637Z</time>
      </trkpt>
      <trkpt lat="45.11455" lon="2.66954">
        <ele>1529.8739013672</ele>
        <time>2020-07-14T19:37:15.887Z</time>
      </trkpt>
      <trkpt lat="45.11476" lon="2.66948">
        <ele>1535.5231933594</ele>
        <time>2020-07-14T19:37:19.144Z</time>
      </trkpt>
      <trkpt lat="45.11488" lon="2.66939">
        <ele>1537.3588867188</ele>
        <time>2020-07-14T19:37:22.405Z</time>
      </trkpt>
      <trkpt lat="45.11507" lon="2.66937">
        <ele>1543.6458740234</ele>
        <time>2020-07-14T19:37:25.673Z</time>
      </trkpt>
      <trkpt lat="45.11525" lon="2.66926">
        <ele>1547.0892333984</ele>
        <time>2020-07-14T19:37:28.947Z</time>
      </trkpt>
      <trkpt lat="45.11545" lon="2.66918">
        <ele>1552.2473144531</ele>
        <time>2020-07-14T19:37:32.228Z</time>
      </trkpt>
      <trkpt lat="45.11557" lon="2.66915">
        <ele>1556.9625244141</ele>
        <time>2020-07-14T19:37:35.513Z</time>
      </trkpt>
      <trkpt lat="45.11568" lon="2.66905">
        <ele>1559.4581298828</ele>
        <time>2020-07-14T19:37:38.803Z</time>
      </trkpt>
      <trkpt lat="45.11576" lon="2.66894">
        <ele>1560.333984375</ele>
        <time>2020-07-14T19:37:42.096Z</time>
      </trkpt>
      <trkpt lat="45.11587" lon="2.66889">
        <ele>1564.0893554688</ele>
        <time>2020-07-14T19:37:45.393Z</time>
      </trkpt>
      <trkpt lat="45.11608" lon="2.66877">
        <ele>1570.9223632812</ele>
        <time>2020-07-14T19:37:48.698Z</time>
      </trkpt>
      <trkpt lat="45.11603" lon="2.66889">
        <ele>1571.4622802734</ele>
        <time>2020-07-14T19:37:52.006Z</time>
      </trkpt>
      <trkpt lat="45.11601" lon="2.66894">
        <ele>1571.7320556641</ele>
        <time>2020-07-14T19:37:55.315Z</time>
      </trkpt>
      <trkpt lat="45.11599" lon="2.66892">
        <ele>1570.3162841797</ele>
        <time>2020-07-14T19:37:58.625Z</time>
      </trkpt>
      <trkpt lat="45.11601" lon="2.66894">
        <ele>1571.7320556641</ele>
        <time>2020-07-14T19:38:01.936Z</time>
      </trkpt>
      <trkpt lat="45.116" lon="2.66896">
        <ele>1571.7800292969</ele>
        <time>2020-07-14T19:38:05.248Z</time>
      </trkpt>
      <trkpt lat="45.11591" lon="2.66922">
        <ele>1574.1373291016</ele>
        <time>2020-07-14T19:38:08.566Z</time>
      </trkpt>
      <trkpt lat="45.1158" lon="2.66952">
        <ele>1575.6010742188</ele>
        <time>2020-07-14T19:38:11.892Z</time>
      </trkpt>
      <trkpt lat="45.11571" lon="2.66973">
        <ele>1577.6013183594</ele>
        <time>2020-07-14T19:38:15.224Z</time>
      </trkpt>
      <trkpt lat="45.11561" lon="2.66994">
        <ele>1579.4370117188</ele>
        <time>2020-07-14T19:38:18.562Z</time>
      </trkpt>
      <trkpt lat="45.11548" lon="2.67018">
        <ele>1578.6934814453</ele>
        <time>2020-07-14T19:38:21.907Z</time>
      </trkpt>
      <trkpt lat="45.11538" lon="2.67034">
        <ele>1579.7021484375</ele>
        <time>2020-07-14T19:38:25.257Z</time>
      </trkpt>
      <trkpt lat="45.11523" lon="2.67059">
        <ele>1579.7021484375</ele>
        <time>2020-07-14T19:38:28.615Z</time>
      </trkpt>
      <trkpt lat="45.11517" lon="2.67067">
        <ele>1580.0744628906</ele>
        <time>2020-07-14T19:38:31.976Z</time>
      </trkpt>
      <trkpt lat="45.11514" lon="2.67069">
        <ele>1579.9664306641</ele>
        <time>2020-07-14T19:38:35.338Z</time>
      </trkpt>
      <trkpt lat="45.1151" lon="2.67072">
        <ele>1579.9304199219</ele>
        <time>2020-07-14T19:38:38.701Z</time>
      </trkpt>
      <trkpt lat="45.11505" lon="2.67077">
        <ele>1580.2904052734</ele>
        <time>2020-07-14T19:38:42.066Z</time>
      </trkpt>
      <trkpt lat="45.11498" lon="2.67087">
        <ele>1581.2579345703</ele>
        <time>2020-07-14T19:38:45.435Z</time>
      </trkpt>
      <trkpt lat="45.11493" lon="2.67094">
        <ele>1577.8984375</ele>
        <time>2020-07-14T19:38:48.806Z</time>
      </trkpt>
      <trkpt lat="45.11485" lon="2.67103">
        <ele>1573.1832275391</ele>
        <time>2020-07-14T19:38:52.181Z</time>
      </trkpt>
      <trkpt lat="45.11477" lon="2.67113">
        <ele>1571.0766601562</ele>
        <time>2020-07-14T19:38:55.559Z</time>
      </trkpt>
      <trkpt lat="45.11463" lon="2.67127">
        <ele>1571.4125976562</ele>
        <time>2020-07-14T19:38:58.943Z</time>
      </trkpt>
      <trkpt lat="45.11455" lon="2.67134">
        <ele>1570.2211914062</ele>
        <time>2020-07-14T19:39:02.330Z</time>
      </trkpt>
      <trkpt lat="45.11447" lon="2.67141">
        <ele>1568.3135986328</ele>
        <time>2020-07-14T19:39:05.720Z</time>
      </trkpt>
      <trkpt lat="45.11437" lon="2.67149">
        <ele>1566.8299560547</ele>
        <time>2020-07-14T19:39:09.114Z</time>
      </trkpt>
      <trkpt lat="45.11431" lon="2.67154">
        <ele>1568.9656982422</ele>
        <time>2020-07-14T19:39:12.510Z</time>
      </trkpt>
      <trkpt lat="45.11427" lon="2.67159">
        <ele>1570.9093017578</ele>
        <time>2020-07-14T19:39:15.908Z</time>
      </trkpt>
      <trkpt lat="45.1142" lon="2.67165">
        <ele>1573.4528808594</ele>
        <time>2020-07-14T19:39:19.309Z</time>
      </trkpt>
      <trkpt lat="45.11419" lon="2.67166">
        <ele>1573.8608398438</ele>
        <time>2020-07-14T19:39:22.710Z</time>
      </trkpt>
      <trkpt lat="45.11417" lon="2.67162">
        <ele>1572.8050537109</ele>
        <time>2020-07-14T19:39:26.112Z</time>
      </trkpt>
      <trkpt lat="45.11419" lon="2.67166">
        <ele>1573.8608398438</ele>
        <time>2020-07-14T19:39:29.515Z</time>
      </trkpt>
      <trkpt lat="45.11416" lon="2.67171">
        <ele>1574.775390625</ele>
        <time>2020-07-14T19:39:32.920Z</time>
      </trkpt>
      <trkpt lat="45.11414" lon="2.67175">
        <ele>1573.6716308594</ele>
        <time>2020-07-14T19:39:36.326Z</time>
      </trkpt>
      <trkpt lat="45.11405" lon="2.67182">
        <ele>1572.2678222656</ele>
        <time>2020-07-14T19:39:39.736Z</time>
      </trkpt>
      <trkpt lat="45.11399" lon="2.67188">
        <ele>1570.9000244141</ele>
        <time>2020-07-14T19:39:43.148Z</time>
      </trkpt>
      <trkpt lat="45.11393" lon="2.67191">
        <ele>1571.6069335938</ele>
        <time>2020-07-14T19:39:46.562Z</time>
      </trkpt>
      <trkpt lat="45.11384" lon="2.67195">
        <ele>1573.8265380859</ele>
        <time>2020-07-14T19:39:49.979Z</time>
      </trkpt>
      <trkpt lat="45.11375" lon="2.67198">
        <ele>1575.4681396484</ele>
        <time>2020-07-14T19:39:53.399Z</time>
      </trkpt>
      <trkpt lat="45.11367" lon="2.67205">
        <ele>1574.1484375</ele>
        <time>2020-07-14T19:39:56.823Z</time>
      </trkpt>
      <trkpt lat="45.11363" lon="2.67207">
        <ele>1573.6684570312</ele>
        <time>2020-07-14T19:40:00.248Z</time>
      </trkpt>
      <trkpt lat="45.11353" lon="2.67214">
        <ele>1572.2286376953</ele>
        <time>2020-07-14T19:40:03.677Z</time>
      </trkpt>
      <trkpt lat="45.11338" lon="2.67222">
        <ele>1572.6896972656</ele>
        <time>2020-07-14T19:40:07.111Z</time>
      </trkpt>
      <trkpt lat="45.11325" lon="2.67232">
        <ele>1577.3328857422</ele>
        <time>2020-07-14T19:40:10.550Z</time>
      </trkpt>
      <trkpt lat="45.11319" lon="2.67238">
        <ele>1579.7084960938</ele>
        <time>2020-07-14T19:40:13.991Z</time>
      </trkpt>
      <trkpt lat="45.11312" lon="2.67243">
        <ele>1582.1441650391</ele>
        <time>2020-07-14T19:40:17.435Z</time>
      </trkpt>
      <trkpt lat="45.11307" lon="2.67245">
        <ele>1583.6198730469</ele>
        <time>2020-07-14T19:40:20.881Z</time>
      </trkpt>
      <trkpt lat="45.11299" lon="2.67247">
        <ele>1585.7795410156</ele>
        <time>2020-07-14T19:40:24.329Z</time>
      </trkpt>
      <trkpt lat="45.11291" lon="2.67251">
        <ele>1587.8746337891</ele>
        <time>2020-07-14T19:40:27.780Z</time>
      </trkpt>
      <trkpt lat="45.11287" lon="2.67254">
        <ele>1589.1160888672</ele>
        <time>2020-07-14T19:40:31.233Z</time>
      </trkpt>
      <trkpt lat="45.11285" lon="2.67258">
        <ele>1588.7081298828</ele>
        <time>2020-07-14T19:40:34.687Z</time>
      </trkpt>
      <trkpt lat="45.1128" lon="2.67266">
        <ele>1588.0961914062</ele>
        <time>2020-07-14T19:40:38.144Z</time>
      </trkpt>
      <trkpt lat="45.11276" lon="2.6727">
        <ele>1588.0961914062</ele>
        <time>2020-07-14T19:40:41.602Z</time>
      </trkpt>
      <trkpt lat="45.1127" lon="2.67275">
        <ele>1588.3001708984</ele>
        <time>2020-07-14T19:40:45.062Z</time>
      </trkpt>
      <trkpt lat="45.11266" lon="2.67279">
        <ele>1588.3001708984</ele>
        <time>2020-07-14T19:40:48.524Z</time>
      </trkpt>
      <trkpt lat="45.11263" lon="2.67284">
        <ele>1587.8922119141</ele>
        <time>2020-07-14T19:40:51.988Z</time>
      </trkpt>
      <trkpt lat="45.11256" lon="2.67298">
        <ele>1586.4644775391</ele>
        <time>2020-07-14T19:40:55.456Z</time>
      </trkpt>
      <trkpt lat="45.11252" lon="2.67307">
        <ele>1588.2633056641</ele>
        <time>2020-07-14T19:40:58.926Z</time>
      </trkpt>
      <trkpt lat="45.11248" lon="2.6731">
        <ele>1590.0631103516</ele>
        <time>2020-07-14T19:41:02.398Z</time>
      </trkpt>
      <trkpt lat="45.11245" lon="2.67309">
        <ele>1591.3348388672</ele>
        <time>2020-07-14T19:41:05.871Z</time>
      </trkpt>
      <trkpt lat="45.11239" lon="2.67307">
        <ele>1593.8784179688</ele>
        <time>2020-07-14T19:41:09.346Z</time>
      </trkpt>
      <trkpt lat="45.11235" lon="2.67305">
        <ele>1595.5581054688</ele>
        <time>2020-07-14T19:41:12.822Z</time>
      </trkpt>
      <trkpt lat="45.11232" lon="2.67305">
        <ele>1596.8538818359</ele>
        <time>2020-07-14T19:41:16.299Z</time>
      </trkpt>
      <trkpt lat="45.11225" lon="2.6731">
        <ele>1599.9974365234</ele>
        <time>2020-07-14T19:41:19.779Z</time>
      </trkpt>
      <trkpt lat="45.11219" lon="2.67316">
        <ele>1602.7329101562</ele>
        <time>2020-07-14T19:41:23.261Z</time>
      </trkpt>
      <trkpt lat="45.11216" lon="2.67319">
        <ele>1604.1007080078</ele>
        <time>2020-07-14T19:41:26.744Z</time>
      </trkpt>
      <trkpt lat="45.11214" lon="2.67324">
        <ele>1605.0845947266</ele>
        <time>2020-07-14T19:41:30.229Z</time>
      </trkpt>
      <trkpt lat="45.11213" lon="2.67326">
        <ele>1605.564453125</ele>
        <time>2020-07-14T19:41:33.714Z</time>
      </trkpt>
      <trkpt lat="45.11211" lon="2.67327">
        <ele>1606.4522705078</ele>
        <time>2020-07-14T19:41:37.200Z</time>
      </trkpt>
      <trkpt lat="45.11206" lon="2.67328">
        <ele>1607.2609863281</ele>
        <time>2020-07-14T19:41:40.688Z</time>
      </trkpt>
      <trkpt lat="45.11197" lon="2.67328">
        <ele>1609.4367675781</ele>
        <time>2020-07-14T19:41:44.179Z</time>
      </trkpt>
      <trkpt lat="45.11187" lon="2.67328">
        <ele>1612.9162597656</ele>
        <time>2020-07-14T19:41:47.673Z</time>
      </trkpt>
      <trkpt lat="45.11182" lon="2.67327">
        <ele>1614.3919677734</ele>
        <time>2020-07-14T19:41:51.169Z</time>
      </trkpt>
      <trkpt lat="45.11176" lon="2.67328">
        <ele>1616.7435302734</ele>
        <time>2020-07-14T19:41:54.667Z</time>
      </trkpt>
      <trkpt lat="45.1117" lon="2.67328">
        <ele>1618.8311767578</ele>
        <time>2020-07-14T19:41:58.167Z</time>
      </trkpt>
      <trkpt lat="45.11166" lon="2.6733">
        <ele>1620.7508544922</ele>
        <time>2020-07-14T19:42:01.668Z</time>
      </trkpt>
      <trkpt lat="45.1116" lon="2.67332">
        <ele>1623.3664550781</ele>
        <time>2020-07-14T19:42:05.171Z</time>
      </trkpt>
      <trkpt lat="45.11157" lon="2.67333">
        <ele>1624.6741943359</ele>
        <time>2020-07-14T19:42:08.675Z</time>
      </trkpt>
      <trkpt lat="45.11154" lon="2.67336">
        <ele>1626.5098876953</ele>
        <time>2020-07-14T19:42:12.181Z</time>
      </trkpt>
      <trkpt lat="45.11151" lon="2.67344">
        <ele>1625.9350585938</ele>
        <time>2020-07-14T19:42:15.689Z</time>
      </trkpt>
      <trkpt lat="45.11149" lon="2.67346">
        <ele>1626.1989746094</ele>
        <time>2020-07-14T19:42:19.198Z</time>
      </trkpt>
      <trkpt lat="45.11147" lon="2.67349">
        <ele>1626.2469482422</ele>
        <time>2020-07-14T19:42:22.708Z</time>
      </trkpt>
      <trkpt lat="45.11145" lon="2.67354">
        <ele>1625.8630371094</ele>
        <time>2020-07-14T19:42:26.219Z</time>
      </trkpt>
      <trkpt lat="45.11144" lon="2.6736">
        <ele>1625.4754638672</ele>
        <time>2020-07-14T19:42:29.731Z</time>
      </trkpt>
      <trkpt lat="45.11143" lon="2.67364">
        <ele>1625.3793945312</ele>
        <time>2020-07-14T19:42:33.244Z</time>
      </trkpt>
      <trkpt lat="45.11138" lon="2.67368">
        <ele>1627.0111083984</ele>
        <time>2020-07-14T19:42:36.759Z</time>
      </trkpt>
      <trkpt lat="45.11129" lon="2.67374">
        <ele>1630.1066894531</ele>
        <time>2020-07-14T19:42:40.278Z</time>
      </trkpt>
      <trkpt lat="45.11122" lon="2.67378">
        <ele>1631.0157470703</ele>
        <time>2020-07-14T19:42:43.799Z</time>
      </trkpt>
      <trkpt lat="45.11116" lon="2.67381">
        <ele>1631.2677001953</ele>
        <time>2020-07-14T19:42:47.322Z</time>
      </trkpt>
      <trkpt lat="45.11112" lon="2.67383">
        <ele>1631.4356689453</ele>
        <time>2020-07-14T19:42:50.847Z</time>
      </trkpt>
      <trkpt lat="45.11111" lon="2.67385">
        <ele>1631.2796630859</ele>
        <time>2020-07-14T19:42:54.372Z</time>
      </trkpt>
      <trkpt lat="45.11104" lon="2.67392">
        <ele>1631.1116943359</ele>
        <time>2020-07-14T19:42:57.900Z</time>
      </trkpt>
      <trkpt lat="45.111" lon="2.67396">
        <ele>1632.5308837891</ele>
        <time>2020-07-14T19:43:01.430Z</time>
      </trkpt>
      <trkpt lat="45.11096" lon="2.67401">
        <ele>1636.4061279297</ele>
        <time>2020-07-14T19:43:04.961Z</time>
      </trkpt>
      <trkpt lat="45.11088" lon="2.67411">
        <ele>1644.1568603516</ele>
        <time>2020-07-14T19:43:08.496Z</time>
      </trkpt>
      <trkpt lat="45.11084" lon="2.67416">
        <ele>1648.0322265625</ele>
        <time>2020-07-14T19:43:12.033Z</time>
      </trkpt>
      <trkpt lat="45.11079" lon="2.67421">
        <ele>1651.6674804688</ele>
        <time>2020-07-14T19:43:15.572Z</time>
      </trkpt>
      <trkpt lat="45.11073" lon="2.67425">
        <ele>1654.0911865234</ele>
        <time>2020-07-14T19:43:19.113Z</time>
      </trkpt>
      <trkpt lat="45.11068" lon="2.6743">
        <ele>1655.7108154297</ele>
        <time>2020-07-14T19:43:22.656Z</time>
      </trkpt>
      <trkpt lat="45.11064" lon="2.67433">
        <ele>1657.2465820312</ele>
        <time>2020-07-14T19:43:26.201Z</time>
      </trkpt>
      <trkpt lat="45.11063" lon="2.67435">
        <ele>1657.3305664062</ele>
        <time>2020-07-14T19:43:29.746Z</time>
      </trkpt>
      <trkpt lat="45.11063" lon="2.67439">
        <ele>1656.3707275391</ele>
        <time>2020-07-14T19:43:33.292Z</time>
      </trkpt>
      <trkpt lat="45.11063" lon="2.67444">
        <ele>1655.8873291016</ele>
        <time>2020-07-14T19:43:36.839Z</time>
      </trkpt>
      <trkpt lat="45.11062" lon="2.67448">
        <ele>1656.2113037109</ele>
        <time>2020-07-14T19:43:40.387Z</time>
      </trkpt>
      <trkpt lat="45.11061" lon="2.67452">
        <ele>1656.5352783203</ele>
        <time>2020-07-14T19:43:43.936Z</time>
      </trkpt>
      <trkpt lat="45.1106" lon="2.67453">
        <ele>1657.1470947266</ele>
        <time>2020-07-14T19:43:47.486Z</time>
      </trkpt>
      <trkpt lat="45.11059" lon="2.67455">
        <ele>1657.6630859375</ele>
        <time>2020-07-14T19:43:51.036Z</time>
      </trkpt>
      <trkpt lat="45.11057" lon="2.67456">
        <ele>1658.9827880859</ele>
        <time>2020-07-14T19:43:54.587Z</time>
      </trkpt>
      <trkpt lat="45.11052" lon="2.67456">
        <ele>1662.5222167969</ele>
        <time>2020-07-14T19:43:58.140Z</time>
      </trkpt>
      <trkpt lat="45.11047" lon="2.67453">
        <ele>1666.349609375</ele>
        <time>2020-07-14T19:44:01.694Z</time>
      </trkpt>
      <trkpt lat="45.11044" lon="2.67452">
        <ele>1668.5692138672</ele>
        <time>2020-07-14T19:44:05.250Z</time>
      </trkpt>
      <trkpt lat="45.11041" lon="2.67452">
        <ele>1669.4383544922</ele>
        <time>2020-07-14T19:44:08.807Z</time>
      </trkpt>
      <trkpt lat="45.11037" lon="2.67455">
        <ele>1670.0142822266</ele>
        <time>2020-07-14T19:44:12.365Z</time>
      </trkpt>
      <trkpt lat="45.11034" lon="2.67455">
        <ele>1670.6622314453</ele>
        <time>2020-07-14T19:44:15.924Z</time>
      </trkpt>
      <trkpt lat="45.1103" lon="2.67456">
        <ele>1671.4300537109</ele>
        <time>2020-07-14T19:44:19.484Z</time>
      </trkpt>
      <trkpt lat="45.11027" lon="2.67459">
        <ele>1671.7900390625</ele>
        <time>2020-07-14T19:44:23.046Z</time>
      </trkpt>
      <trkpt lat="45.1102" lon="2.67464">
        <ele>1672.8218994141</ele>
        <time>2020-07-14T19:44:26.610Z</time>
      </trkpt>
      <trkpt lat="45.11012" lon="2.6747">
        <ele>1673.9736328125</ele>
        <time>2020-07-14T19:44:30.177Z</time>
      </trkpt>
      <trkpt lat="45.11007" lon="2.67474">
        <ele>1677.2322998047</ele>
        <time>2020-07-14T19:44:33.746Z</time>
      </trkpt>
      <trkpt lat="45.11003" lon="2.67477">
        <ele>1680.1599121094</ele>
        <time>2020-07-14T19:44:37.317Z</time>
      </trkpt>
      <trkpt lat="45.11" lon="2.67478">
        <ele>1682.0555419922</ele>
        <time>2020-07-14T19:44:40.889Z</time>
      </trkpt>
      <trkpt lat="45.10996" lon="2.67479">
        <ele>1684.5031738281</ele>
        <time>2020-07-14T19:44:44.462Z</time>
      </trkpt>
      <trkpt lat="45.10995" lon="2.67481">
        <ele>1685.5349121094</ele>
        <time>2020-07-14T19:44:48.036Z</time>
      </trkpt>
      <trkpt lat="45.10991" lon="2.67487">
        <ele>1689.1823730469</ele>
        <time>2020-07-14T19:44:51.612Z</time>
      </trkpt>
      <trkpt lat="45.10989" lon="2.67491">
        <ele>1691.2459716797</ele>
        <time>2020-07-14T19:44:55.189Z</time>
      </trkpt>
      <trkpt lat="45.10985" lon="2.67495">
        <ele>1694.4134521484</ele>
        <time>2020-07-14T19:44:58.767Z</time>
      </trkpt>
      <trkpt lat="45.10981" lon="2.67497">
        <ele>1697.1010742188</ele>
        <time>2020-07-14T19:45:02.347Z</time>
      </trkpt>
      <trkpt lat="45.10974" lon="2.675">
        <ele>1701.6843261719</ele>
        <time>2020-07-14T19:45:05.929Z</time>
      </trkpt>
      <trkpt lat="45.1097" lon="2.67501">
        <ele>1704.1318359375</ele>
        <time>2020-07-14T19:45:09.513Z</time>
      </trkpt>
      <trkpt lat="45.10964" lon="2.67503">
        <ele>1707.8864746094</ele>
        <time>2020-07-14T19:45:13.099Z</time>
      </trkpt>
      <trkpt lat="45.10958" lon="2.67506">
        <ele>1710.7712402344</ele>
        <time>2020-07-14T19:45:16.687Z</time>
      </trkpt>
      <trkpt lat="45.10948" lon="2.6751">
        <ele>1713.3148193359</ele>
        <time>2020-07-14T19:45:20.278Z</time>
      </trkpt>
      <trkpt lat="45.10944" lon="2.67511">
        <ele>1714.2746582031</ele>
        <time>2020-07-14T19:45:23.871Z</time>
      </trkpt>
      <trkpt lat="45.10939" lon="2.67512">
        <ele>1715.4504394531</ele>
        <time>2020-07-14T19:45:27.465Z</time>
      </trkpt>
      <trkpt lat="45.10938" lon="2.67512">
        <ele>1715.6663818359</ele>
        <time>2020-07-14T19:45:31.060Z</time>
      </trkpt>
      <trkpt lat="45.10937" lon="2.67513">
        <ele>1715.9783935547</ele>
        <time>2020-07-14T19:45:34.655Z</time>
      </trkpt>
      <trkpt lat="45.10937" lon="2.67515">
        <ele>1716.1704101562</ele>
        <time>2020-07-14T19:45:38.250Z</time>
      </trkpt>
      <trkpt lat="45.10937" lon="2.67517">
        <ele>1716.3623046875</ele>
        <time>2020-07-14T19:45:41.846Z</time>
      </trkpt>
      <trkpt lat="45.10938" lon="2.6752">
        <ele>1716.4343261719</ele>
        <time>2020-07-14T19:45:45.443Z</time>
      </trkpt>
      <trkpt lat="45.10942" lon="2.67522">
        <ele>1715.7624511719</ele>
        <time>2020-07-14T19:45:49.041Z</time>
      </trkpt>
      <trkpt lat="45.10947" lon="2.67526">
        <ele>1715.0665283203</ele>
        <time>2020-07-14T19:45:52.641Z</time>
      </trkpt>
      <trkpt lat="45.1095" lon="2.67531">
        <ele>1714.8985595703</ele>
        <time>2020-07-14T19:45:56.243Z</time>
      </trkpt>
      <trkpt lat="45.10951" lon="2.67534">
        <ele>1714.9705810547</ele>
        <time>2020-07-14T19:45:59.845Z</time>
      </trkpt>
      <trkpt lat="45.10952" lon="2.67538">
        <ele>1715.1385498047</ele>
        <time>2020-07-14T19:46:03.448Z</time>
      </trkpt>
      <trkpt lat="45.10952" lon="2.67543">
        <ele>1715.6184082031</ele>
        <time>2020-07-14T19:46:07.053Z</time>
      </trkpt>
      <trkpt lat="45.10951" lon="2.67549">
        <ele>1716.4102783203</ele>
        <time>2020-07-14T19:46:10.659Z</time>
      </trkpt>
      <trkpt lat="45.10949" lon="2.67556">
        <ele>1717.5141601562</ele>
        <time>2020-07-14T19:46:14.267Z</time>
      </trkpt>
      <trkpt lat="45.10945" lon="2.67567">
        <ele>1719.4338378906</ele>
        <time>2020-07-14T19:46:17.878Z</time>
      </trkpt>
      <trkpt lat="45.10942" lon="2.67576">
        <ele>1722.6590576172</ele>
        <time>2020-07-14T19:46:21.491Z</time>
      </trkpt>
      <trkpt lat="45.10939" lon="2.67584">
        <ele>1726.4504394531</ele>
        <time>2020-07-14T19:46:25.106Z</time>
      </trkpt>
      <trkpt lat="45.10937" lon="2.67589">
        <ele>1727.0389404297</ele>
        <time>2020-07-14T19:46:28.723Z</time>
      </trkpt>
      <trkpt lat="45.10936" lon="2.67595">
        <ele>1725.3111572266</ele>
        <time>2020-07-14T19:46:32.341Z</time>
      </trkpt>
      <trkpt lat="45.10935" lon="2.67603">
        <ele>1722.8636474609</ele>
        <time>2020-07-14T19:46:35.961Z</time>
      </trkpt>
      <trkpt lat="45.10934" lon="2.67609">
        <ele>1721.1358642578</ele>
        <time>2020-07-14T19:46:39.582Z</time>
      </trkpt>
      <trkpt lat="45.10933" lon="2.67618">
        <ele>1718.3283691406</ele>
        <time>2020-07-14T19:46:43.206Z</time>
      </trkpt>
      <trkpt lat="45.10933" lon="2.67625">
        <ele>1715.8088378906</ele>
        <time>2020-07-14T19:46:46.831Z</time>
      </trkpt>
      <trkpt lat="45.10933" lon="2.67629">
        <ele>1714.3690185547</ele>
        <time>2020-07-14T19:46:50.457Z</time>
      </trkpt>
      <trkpt lat="45.10935" lon="2.67635">
        <ele>1711.3455810547</ele>
        <time>2020-07-14T19:46:54.085Z</time>
      </trkpt>
      <trkpt lat="45.10935" lon="2.67637">
        <ele>1710.6256103516</ele>
        <time>2020-07-14T19:46:57.713Z</time>
      </trkpt>
      <trkpt lat="45.10933" lon="2.6764">
        <ele>1710.4096679688</ele>
        <time>2020-07-14T19:47:01.342Z</time>
      </trkpt>
      <trkpt lat="45.10929" lon="2.67644">
        <ele>1712.8427734375</ele>
        <time>2020-07-14T19:47:04.973Z</time>
      </trkpt>
      <trkpt lat="45.10929" lon="2.67646">
        <ele>1712.8907470703</ele>
        <time>2020-07-14T19:47:08.604Z</time>
      </trkpt>
      <trkpt lat="45.10928" lon="2.6765">
        <ele>1713.8026123047</ele>
        <time>2020-07-14T19:47:12.236Z</time>
      </trkpt>
      <trkpt lat="45.10927" lon="2.67658">
        <ele>1714.8104248047</ele>
        <time>2020-07-14T19:47:15.870Z</time>
      </trkpt>
      <trkpt lat="45.10925" lon="2.67667">
        <ele>1716.6580810547</ele>
        <time>2020-07-14T19:47:19.506Z</time>
      </trkpt>
      <trkpt lat="45.10924" lon="2.67673">
        <ele>1716.8059082031</ele>
        <time>2020-07-14T19:47:23.144Z</time>
      </trkpt>
      <trkpt lat="45.10923" lon="2.67677">
        <ele>1716.7579345703</ele>
        <time>2020-07-14T19:47:26.783Z</time>
      </trkpt>
      <trkpt lat="45.10922" lon="2.6768">
        <ele>1716.9259033203</ele>
        <time>2020-07-14T19:47:30.423Z</time>
      </trkpt>
      <trkpt lat="45.10922" lon="2.67685">
        <ele>1715.8460693359</ele>
        <time>2020-07-14T19:47:34.064Z</time>
      </trkpt>
      <trkpt lat="45.10923" lon="2.67698">
        <ele>1712.22265625</ele>
        <time>2020-07-14T19:47:37.708Z</time>
      </trkpt>
      <trkpt lat="45.10922" lon="2.67701">
        <ele>1712.390625</ele>
        <time>2020-07-14T19:47:41.353Z</time>
      </trkpt>
      <trkpt lat="45.1092" lon="2.67705">
        <ele>1713.1584472656</ele>
        <time>2020-07-14T19:47:44.999Z</time>
      </trkpt>
      <trkpt lat="45.10917" lon="2.67709">
        <ele>1714.7421875</ele>
        <time>2020-07-14T19:47:48.646Z</time>
      </trkpt>
      <trkpt lat="45.10917" lon="2.67713">
        <ele>1713.6451416016</ele>
        <time>2020-07-14T19:47:52.294Z</time>
      </trkpt>
      <trkpt lat="45.10917" lon="2.67717">
        <ele>1712.4932861328</ele>
        <time>2020-07-14T19:47:55.943Z</time>
      </trkpt>
      <trkpt lat="45.10916" lon="2.67719">
        <ele>1712.6612548828</ele>
        <time>2020-07-14T19:47:59.593Z</time>
      </trkpt>
      <trkpt lat="45.10913" lon="2.67723">
        <ele>1713.7410888672</ele>
        <time>2020-07-14T19:48:03.244Z</time>
      </trkpt>
      <trkpt lat="45.10911" lon="2.67724">
        <ele>1714.9409179688</ele>
        <time>2020-07-14T19:48:06.896Z</time>
      </trkpt>
      <trkpt lat="45.10908" lon="2.67726">
        <ele>1716.5966796875</ele>
        <time>2020-07-14T19:48:10.549Z</time>
      </trkpt>
      <trkpt lat="45.10908" lon="2.6773">
        <ele>1715.4448242188</ele>
        <time>2020-07-14T19:48:14.203Z</time>
      </trkpt>
      <trkpt lat="45.10909" lon="2.67736">
        <ele>1712.9732666016</ele>
        <time>2020-07-14T19:48:17.858Z</time>
      </trkpt>
      <trkpt lat="45.1091" lon="2.67739">
        <ele>1711.3654785156</ele>
        <time>2020-07-14T19:48:21.514Z</time>
      </trkpt>
      <trkpt lat="45.10909" lon="2.6774">
        <ele>1711.8214111328</ele>
        <time>2020-07-14T19:48:25.170Z</time>
      </trkpt>
      <trkpt lat="45.10908" lon="2.6774">
        <ele>1712.5653076172</ele>
        <time>2020-07-14T19:48:28.827Z</time>
      </trkpt>
      <trkpt lat="45.10906" lon="2.67741">
        <ele>1713.7651367188</ele>
        <time>2020-07-14T19:48:32.485Z</time>
      </trkpt>
      <trkpt lat="45.10904" lon="2.67743">
        <ele>1714.6770019531</ele>
        <time>2020-07-14T19:48:36.143Z</time>
      </trkpt>
      <trkpt lat="45.10902" lon="2.67744">
        <ele>1715.8767089844</ele>
        <time>2020-07-14T19:48:39.802Z</time>
      </trkpt>
      <trkpt lat="45.10899" lon="2.67745">
        <ele>1717.8204345703</ele>
        <time>2020-07-14T19:48:43.462Z</time>
      </trkpt>
      <trkpt lat="45.10898" lon="2.6775">
        <ele>1717.1245117188</ele>
        <time>2020-07-14T19:48:47.123Z</time>
      </trkpt>
      <trkpt lat="45.10898" lon="2.67753">
        <ele>1716.265625</ele>
        <time>2020-07-14T19:48:50.785Z</time>
      </trkpt>
      <trkpt lat="45.10897" lon="2.67753">
        <ele>1717.0093994141</ele>
        <time>2020-07-14T19:48:54.447Z</time>
      </trkpt>
      <trkpt lat="45.10897" lon="2.67751">
        <ele>1717.5804443359</ele>
        <time>2020-07-14T19:48:58.110Z</time>
      </trkpt>
      <trkpt lat="45.10896" lon="2.67751">
        <ele>1718.3243408203</ele>
        <time>2020-07-14T19:49:01.773Z</time>
      </trkpt>
      <trkpt lat="45.10895" lon="2.67752">
        <ele>1718.7802734375</ele>
        <time>2020-07-14T19:49:05.437Z</time>
      </trkpt>
      <trkpt lat="45.10894" lon="2.67754">
        <ele>1719.0850830078</ele>
        <time>2020-07-14T19:49:09.101Z</time>
      </trkpt>
      <trkpt lat="45.10894" lon="2.67756">
        <ele>1718.7731933594</ele>
        <time>2020-07-14T19:49:12.766Z</time>
      </trkpt>
      <trkpt lat="45.10893" lon="2.67756">
        <ele>1719.5169677734</ele>
        <time>2020-07-14T19:49:16.431Z</time>
      </trkpt>
      <trkpt lat="45.10892" lon="2.67756">
        <ele>1720.2608642578</ele>
        <time>2020-07-14T19:49:20.096Z</time>
      </trkpt>
      <trkpt lat="45.10891" lon="2.6776">
        <ele>1720.380859375</ele>
        <time>2020-07-14T19:49:23.762Z</time>
      </trkpt>
      <trkpt lat="45.1089" lon="2.67765">
        <ele>1720.3448486328</ele>
        <time>2020-07-14T19:49:27.429Z</time>
      </trkpt>
      <trkpt lat="45.1089" lon="2.67768">
        <ele>1719.2639160156</ele>
        <time>2020-07-14T19:49:31.097Z</time>
      </trkpt>
      <trkpt lat="45.10888" lon="2.67769">
        <ele>1719.6237792969</ele>
        <time>2020-07-14T19:49:34.766Z</time>
      </trkpt>
      <trkpt lat="45.10885" lon="2.67775">
        <ele>1718.0040283203</ele>
        <time>2020-07-14T19:49:38.437Z</time>
      </trkpt>
      <trkpt lat="45.10882" lon="2.67775">
        <ele>1719.2639160156</ele>
        <time>2020-07-14T19:49:42.109Z</time>
      </trkpt>
      <trkpt lat="45.10879" lon="2.67778">
        <ele>1719.0838623047</ele>
        <time>2020-07-14T19:49:45.782Z</time>
      </trkpt>
      <trkpt lat="45.10874" lon="2.67781">
        <ele>1717.2768554688</ele>
        <time>2020-07-14T19:49:49.457Z</time>
      </trkpt>
      <trkpt lat="45.10869" lon="2.67784">
        <ele>1713.6174316406</ele>
        <time>2020-07-14T19:49:53.133Z</time>
      </trkpt>
      <trkpt lat="45.10867" lon="2.67786">
        <ele>1711.7697753906</ele>
        <time>2020-07-14T19:49:56.810Z</time>
      </trkpt>
      <trkpt lat="45.10867" lon="2.6779">
        <ele>1709.8500976562</ele>
        <time>2020-07-14T19:50:00.488Z</time>
      </trkpt>
      <trkpt lat="45.10866" lon="2.67792">
        <ele>1708.4462890625</ele>
        <time>2020-07-14T19:50:04.167Z</time>
      </trkpt>
      <trkpt lat="45.10865" lon="2.67794">
        <ele>1707.0424804688</ele>
        <time>2020-07-14T19:50:07.846Z</time>
      </trkpt>
      <trkpt lat="45.10863" lon="2.67795">
        <ele>1705.6748046875</ele>
        <time>2020-07-14T19:50:11.526Z</time>
      </trkpt>
      <trkpt lat="45.10861" lon="2.67796">
        <ele>1704.3070068359</ele>
        <time>2020-07-14T19:50:15.207Z</time>
      </trkpt>
      <trkpt lat="45.10853" lon="2.67803">
        <ele>1697.3961181641</ele>
        <time>2020-07-14T19:50:18.891Z</time>
      </trkpt>
      <trkpt lat="45.10849" lon="2.67807">
        <ele>1693.7008056641</ele>
        <time>2020-07-14T19:50:22.577Z</time>
      </trkpt>
      <trkpt lat="45.10848" lon="2.67807">
        <ele>1693.2568359375</ele>
        <time>2020-07-14T19:50:26.263Z</time>
      </trkpt>
      <trkpt lat="45.10844" lon="2.67806">
        <ele>1692.8161621094</ele>
        <time>2020-07-14T19:50:29.950Z</time>
      </trkpt>
      <trkpt lat="45.1084" lon="2.67807">
        <ele>1692.240234375</ele>
        <time>2020-07-14T19:50:33.639Z</time>
      </trkpt>
      <trkpt lat="45.10837" lon="2.67808">
        <ele>1691.7723388672</ele>
        <time>2020-07-14T19:50:37.329Z</time>
      </trkpt>
      <trkpt lat="45.10836" lon="2.67811">
        <ele>1691.232421875</ele>
        <time>2020-07-14T19:50:41.019Z</time>
      </trkpt>
      <trkpt lat="45.10835" lon="2.67813">
        <ele>1690.8364257812</ele>
        <time>2020-07-14T19:50:44.710Z</time>
      </trkpt>
      <trkpt lat="45.1083" lon="2.67814">
        <ele>1690.1525878906</ele>
        <time>2020-07-14T19:50:48.403Z</time>
      </trkpt>
      <trkpt lat="45.10828" lon="2.67815">
        <ele>1689.7926025391</ele>
        <time>2020-07-14T19:50:52.096Z</time>
      </trkpt>
      <trkpt lat="45.10828" lon="2.67818">
        <ele>1689.3607177734</ele>
        <time>2020-07-14T19:50:55.790Z</time>
      </trkpt>
      <trkpt lat="45.10831" lon="2.67822">
        <ele>1689.1087646484</ele>
        <time>2020-07-14T19:50:59.485Z</time>
      </trkpt>
      <trkpt lat="45.1083" lon="2.67826">
        <ele>1688.4249267578</ele>
        <time>2020-07-14T19:51:03.181Z</time>
      </trkpt>
      <trkpt lat="45.10828" lon="2.67828">
        <ele>1687.9208984375</ele>
        <time>2020-07-14T19:51:06.878Z</time>
      </trkpt>
      <trkpt lat="45.10826" lon="2.6783">
        <ele>1687.4169921875</ele>
        <time>2020-07-14T19:51:10.576Z</time>
      </trkpt>
      <trkpt lat="45.10822" lon="2.67832">
        <ele>1686.6971435547</ele>
        <time>2020-07-14T19:51:14.276Z</time>
      </trkpt>
      <trkpt lat="45.10819" lon="2.67833">
        <ele>1686.2292480469</ele>
        <time>2020-07-14T19:51:17.977Z</time>
      </trkpt>
      <trkpt lat="45.10816" lon="2.67834">
        <ele>1685.7613525391</ele>
        <time>2020-07-14T19:51:21.679Z</time>
      </trkpt>
      <trkpt lat="45.10815" lon="2.67834">
        <ele>1685.6533203125</ele>
        <time>2020-07-14T19:51:25.381Z</time>
      </trkpt>
      <trkpt lat="45.10814" lon="2.67839">
        <ele>1684.2124023438</ele>
        <time>2020-07-14T19:51:29.084Z</time>
      </trkpt>
      <trkpt lat="45.10813" lon="2.6784">
        <ele>1683.732421875</ele>
        <time>2020-07-14T19:51:32.788Z</time>
      </trkpt>
      <trkpt lat="45.10809" lon="2.67844">
        <ele>1681.8127441406</ele>
        <time>2020-07-14T19:51:36.493Z</time>
      </trkpt>
      <trkpt lat="45.10806" lon="2.67846">
        <ele>1680.7448730469</ele>
        <time>2020-07-14T19:51:40.199Z</time>
      </trkpt>
      <trkpt lat="45.10804" lon="2.67849">
        <ele>1679.6505126953</ele>
        <time>2020-07-14T19:51:43.906Z</time>
      </trkpt>
      <trkpt lat="45.10804" lon="2.67851">
        <ele>1679.1225585938</ele>
        <time>2020-07-14T19:51:47.614Z</time>
      </trkpt>
      <trkpt lat="45.10797" lon="2.67855">
        <ele>1678.0667724609</ele>
        <time>2020-07-14T19:51:51.324Z</time>
      </trkpt>
      <trkpt lat="45.10793" lon="2.67857">
        <ele>1677.3436279297</ele>
        <time>2020-07-14T19:51:55.036Z</time>
      </trkpt>
      <trkpt lat="45.10789" lon="2.67862">
        <ele>1674.4880371094</ele>
        <time>2020-07-14T19:51:58.749Z</time>
      </trkpt>
      <trkpt lat="45.10786" lon="2.67868">
        <ele>1671.7525634766</ele>
        <time>2020-07-14T19:52:02.464Z</time>
      </trkpt>
      <trkpt lat="45.10785" lon="2.67872">
        <ele>1670.3127441406</ele>
        <time>2020-07-14T19:52:06.180Z</time>
      </trkpt>
      <trkpt lat="45.10783" lon="2.67877">
        <ele>1668.2250976562</ele>
        <time>2020-07-14T19:52:09.898Z</time>
      </trkpt>
      <trkpt lat="45.10779" lon="2.67882">
        <ele>1665.3696289062</ele>
        <time>2020-07-14T19:52:13.617Z</time>
      </trkpt>
      <trkpt lat="45.10776" lon="2.67887">
        <ele>1662.8980712891</ele>
        <time>2020-07-14T19:52:17.338Z</time>
      </trkpt>
      <trkpt lat="45.10773" lon="2.6789">
        <ele>1660.9543457031</ele>
        <time>2020-07-14T19:52:21.060Z</time>
      </trkpt>
      <trkpt lat="45.1077" lon="2.67892">
        <ele>1659.2746582031</ele>
        <time>2020-07-14T19:52:24.783Z</time>
      </trkpt>
      <trkpt lat="45.10767" lon="2.67896">
        <ele>1657.6484375</ele>
        <time>2020-07-14T19:52:28.508Z</time>
      </trkpt>
      <trkpt lat="45.10766" lon="2.67899">
        <ele>1657.2885742188</ele>
        <time>2020-07-14T19:52:32.233Z</time>
      </trkpt>
      <trkpt lat="45.10763" lon="2.679">
        <ele>1656.6885986328</ele>
        <time>2020-07-14T19:52:35.959Z</time>
      </trkpt>
      <trkpt lat="45.1076" lon="2.67902">
        <ele>1656.0288085938</ele>
        <time>2020-07-14T19:52:39.687Z</time>
      </trkpt>
      <trkpt lat="45.10758" lon="2.67904">
        <ele>1655.548828125</ele>
        <time>2020-07-14T19:52:43.415Z</time>
      </trkpt>
      <trkpt lat="45.10756" lon="2.67907">
        <ele>1655.0089111328</ele>
        <time>2020-07-14T19:52:47.144Z</time>
      </trkpt>
      <trkpt lat="45.10754" lon="2.6791">
        <ele>1654.4689941406</ele>
        <time>2020-07-14T19:52:50.874Z</time>
      </trkpt>
      <trkpt lat="45.10753" lon="2.67913">
        <ele>1654.1090087891</ele>
        <time>2020-07-14T19:52:54.605Z</time>
      </trkpt>
      <trkpt lat="45.10751" lon="2.67916">
        <ele>1653.5692138672</ele>
        <time>2020-07-14T19:52:58.337Z</time>
      </trkpt>
      <trkpt lat="45.10748" lon="2.6792">
        <ele>1652.6413574219</ele>
        <time>2020-07-14T19:53:02.070Z</time>
      </trkpt>
      <trkpt lat="45.10746" lon="2.67923">
        <ele>1650.8056640625</ele>
        <time>2020-07-14T19:53:05.804Z</time>
      </trkpt>
      <trkpt lat="45.10743" lon="2.67926">
        <ele>1648.7900390625</ele>
        <time>2020-07-14T19:53:09.540Z</time>
      </trkpt>
      <trkpt lat="45.10741" lon="2.67932">
        <ele>1645.4786376953</ele>
        <time>2020-07-14T19:53:13.277Z</time>
      </trkpt>
      <trkpt lat="45.10737" lon="2.67937">
        <ele>1642.2990722656</ele>
        <time>2020-07-14T19:53:17.016Z</time>
      </trkpt>
      <trkpt lat="45.10733" lon="2.67942">
        <ele>1639.1196289062</ele>
        <time>2020-07-14T19:53:20.757Z</time>
      </trkpt>
      <trkpt lat="45.1073" lon="2.67946">
        <ele>1637.9385986328</ele>
        <time>2020-07-14T19:53:24.499Z</time>
      </trkpt>
      <trkpt lat="45.10726" lon="2.67952">
        <ele>1636.3068847656</ele>
        <time>2020-07-14T19:53:28.243Z</time>
      </trkpt>
      <trkpt lat="45.10723" lon="2.67961">
        <ele>1633.7873535156</ele>
        <time>2020-07-14T19:53:31.989Z</time>
      </trkpt>
      <trkpt lat="45.10719" lon="2.67968">
        <ele>1631.8676757812</ele>
        <time>2020-07-14T19:53:35.738Z</time>
      </trkpt>
      <trkpt lat="45.10712" lon="2.67979">
        <ele>1628.8681640625</ele>
        <time>2020-07-14T19:53:39.490Z</time>
      </trkpt>
      <trkpt lat="45.10707" lon="2.67985">
        <ele>1625.6673583984</ele>
        <time>2020-07-14T19:53:43.244Z</time>
      </trkpt>
      <trkpt lat="45.10702" lon="2.67991">
        <ele>1621.5400390625</ele>
        <time>2020-07-14T19:53:47.000Z</time>
      </trkpt>
      <trkpt lat="45.10698" lon="2.67997">
        <ele>1619.6654052734</ele>
        <time>2020-07-14T19:53:50.758Z</time>
      </trkpt>
      <trkpt lat="45.10695" lon="2.68001">
        <ele>1619.0894775391</ele>
        <time>2020-07-14T19:53:54.518Z</time>
      </trkpt>
      <trkpt lat="45.1069" lon="2.68008">
        <ele>1615.5526123047</ele>
        <time>2020-07-14T19:53:58.280Z</time>
      </trkpt>
      <trkpt lat="45.10686" lon="2.68014">
        <ele>1611.6892089844</ele>
        <time>2020-07-14T19:54:02.044Z</time>
      </trkpt>
      <trkpt lat="45.10684" lon="2.68012">
        <ele>1612.3371582031</ele>
        <time>2020-07-14T19:54:05.809Z</time>
      </trkpt>
      <trkpt lat="45.10686" lon="2.68014">
        <ele>1611.6892089844</ele>
        <time>2020-07-14T19:54:09.575Z</time>
      </trkpt>
      <trkpt lat="45.10681" lon="2.68023">
        <ele>1606.0861816406</ele>
        <time>2020-07-14T19:54:13.343Z</time>
      </trkpt>
      <trkpt lat="45.10676" lon="2.6803">
        <ele>1601.5148925781</ele>
        <time>2020-07-14T19:54:17.114Z</time>
      </trkpt>
      <trkpt lat="45.10675" lon="2.68033">
        <ele>1599.7752685547</ele>
        <time>2020-07-14T19:54:20.885Z</time>
      </trkpt>
      <trkpt lat="45.10673" lon="2.68036">
        <ele>1597.8435058594</ele>
        <time>2020-07-14T19:54:24.657Z</time>
      </trkpt>
      <trkpt lat="45.10671" lon="2.68042">
        <ele>1594.3641357422</ele>
        <time>2020-07-14T19:54:28.431Z</time>
      </trkpt>
      <trkpt lat="45.10668" lon="2.68052">
        <ele>1591.7210693359</ele>
        <time>2020-07-14T19:54:32.208Z</time>
      </trkpt>
      <trkpt lat="45.10668" lon="2.68053">
        <ele>1591.6010742188</ele>
        <time>2020-07-14T19:54:35.985Z</time>
      </trkpt>
      <trkpt lat="45.10668" lon="2.68056">
        <ele>1591.2410888672</ele>
        <time>2020-07-14T19:54:39.763Z</time>
      </trkpt>
      <trkpt lat="45.10667" lon="2.68059">
        <ele>1591.0850830078</ele>
        <time>2020-07-14T19:54:43.541Z</time>
      </trkpt>
      <trkpt lat="45.10666" lon="2.68065">
        <ele>1590.5692138672</ele>
        <time>2020-07-14T19:54:47.321Z</time>
      </trkpt>
      <trkpt lat="45.10665" lon="2.68073">
        <ele>1589.8133544922</ele>
        <time>2020-07-14T19:54:51.103Z</time>
      </trkpt>
      <trkpt lat="45.10664" lon="2.68076">
        <ele>1589.6573486328</ele>
        <time>2020-07-14T19:54:54.885Z</time>
      </trkpt>
      <trkpt lat="45.10664" lon="2.68079">
        <ele>1589.2974853516</ele>
        <time>2020-07-14T19:54:58.668Z</time>
      </trkpt>
      <trkpt lat="45.10663" lon="2.68082">
        <ele>1589.1414794922</ele>
        <time>2020-07-14T19:55:02.452Z</time>
      </trkpt>
      <trkpt lat="45.10662" lon="2.6809">
        <ele>1587.1600341797</ele>
        <time>2020-07-14T19:55:06.238Z</time>
      </trkpt>
      <trkpt lat="45.10659" lon="2.68098">
        <ele>1584.1246337891</ele>
        <time>2020-07-14T19:55:10.026Z</time>
      </trkpt>
      <trkpt lat="45.10658" lon="2.681">
        <ele>1583.4167480469</ele>
        <time>2020-07-14T19:55:13.815Z</time>
      </trkpt>
      <trkpt lat="45.10657" lon="2.68104">
        <ele>1581.7969970703</ele>
        <time>2020-07-14T19:55:17.605Z</time>
      </trkpt>
      <trkpt lat="45.10656" lon="2.68105">
        <ele>1581.5450439453</ele>
        <time>2020-07-14T19:55:21.395Z</time>
      </trkpt>
      <trkpt lat="45.10654" lon="2.68108">
        <ele>1580.5852050781</ele>
        <time>2020-07-14T19:55:25.186Z</time>
      </trkpt>
      <trkpt lat="45.10653" lon="2.68111">
        <ele>1579.4213867188</ele>
        <time>2020-07-14T19:55:28.978Z</time>
      </trkpt>
      <trkpt lat="45.1065" lon="2.68117">
        <ele>1577.9244384766</ele>
        <time>2020-07-14T19:55:32.771Z</time>
      </trkpt>
      <trkpt lat="45.10648" lon="2.6812">
        <ele>1577.3845214844</ele>
        <time>2020-07-14T19:55:36.565Z</time>
      </trkpt>
      <trkpt lat="45.10645" lon="2.68125">
        <ele>1576.388671875</ele>
        <time>2020-07-14T19:55:40.361Z</time>
      </trkpt>
      <trkpt lat="45.10642" lon="2.68132">
        <ele>1574.6489257812</ele>
        <time>2020-07-14T19:55:44.159Z</time>
      </trkpt>
      <trkpt lat="45.1064" lon="2.68137">
        <ele>1573.365234375</ele>
        <time>2020-07-14T19:55:47.958Z</time>
      </trkpt>
      <trkpt lat="45.1064" lon="2.68141">
        <ele>1571.8774414062</ele>
        <time>2020-07-14T19:55:51.758Z</time>
      </trkpt>
      <trkpt lat="45.10638" lon="2.68143">
        <ele>1571.7094726562</ele>
        <time>2020-07-14T19:55:55.559Z</time>
      </trkpt>
      <trkpt lat="45.10635" lon="2.68148">
        <ele>1570.7136230469</ele>
        <time>2020-07-14T19:55:59.362Z</time>
      </trkpt>
      <trkpt lat="45.10632" lon="2.68151">
        <ele>1570.4616699219</ele>
        <time>2020-07-14T19:56:03.166Z</time>
      </trkpt>
      <trkpt lat="45.10628" lon="2.68155">
        <ele>1570.1257324219</ele>
        <time>2020-07-14T19:56:06.971Z</time>
      </trkpt>
      <trkpt lat="45.10625" lon="2.68158">
        <ele>1568.6766357422</ele>
        <time>2020-07-14T19:56:10.778Z</time>
      </trkpt>
      <trkpt lat="45.1062" lon="2.68161">
        <ele>1565.701171875</ele>
        <time>2020-07-14T19:56:14.586Z</time>
      </trkpt>
      <trkpt lat="45.10617" lon="2.68163">
        <ele>1565.560546875</ele>
        <time>2020-07-14T19:56:18.396Z</time>
      </trkpt>
      <trkpt lat="45.10613" lon="2.68168">
        <ele>1567.1802978516</ele>
        <time>2020-07-14T19:56:22.207Z</time>
      </trkpt>
      <trkpt lat="45.10609" lon="2.68173">
        <ele>1567.0574951172</ele>
        <time>2020-07-14T19:56:26.020Z</time>
      </trkpt>
      <trkpt lat="45.10606" lon="2.68179">
        <ele>1565.509765625</ele>
        <time>2020-07-14T19:56:29.835Z</time>
      </trkpt>
      <trkpt lat="45.10602" lon="2.68184">
        <ele>1564.4899902344</ele>
        <time>2020-07-14T19:56:33.652Z</time>
      </trkpt>
      <trkpt lat="45.10598" lon="2.68189">
        <ele>1563.4700927734</ele>
        <time>2020-07-14T19:56:37.470Z</time>
      </trkpt>
      <trkpt lat="45.10595" lon="2.68192">
        <ele>1562.9661865234</ele>
        <time>2020-07-14T19:56:41.290Z</time>
      </trkpt>
      <trkpt lat="45.10592" lon="2.68195">
        <ele>1562.4622802734</ele>
        <time>2020-07-14T19:56:45.111Z</time>
      </trkpt>
      <trkpt lat="45.10585" lon="2.68201">
        <ele>1561.6343994141</ele>
        <time>2020-07-14T19:56:48.935Z</time>
      </trkpt>
      <trkpt lat="45.10582" lon="2.68205">
        <ele>1560.7825927734</ele>
        <time>2020-07-14T19:56:52.760Z</time>
      </trkpt>
      <trkpt lat="45.10578" lon="2.68208">
        <ele>1561.2270507812</ele>
        <time>2020-07-14T19:56:56.587Z</time>
      </trkpt>
      <trkpt lat="45.10576" lon="2.6821">
        <ele>1561.70703125</ele>
        <time>2020-07-14T19:57:00.414Z</time>
      </trkpt>
      <trkpt lat="45.10572" lon="2.68214">
        <ele>1562.6668701172</ele>
        <time>2020-07-14T19:57:04.243Z</time>
      </trkpt>
      <trkpt lat="45.1057" lon="2.68218">
        <ele>1562.8588867188</ele>
        <time>2020-07-14T19:57:08.073Z</time>
      </trkpt>
      <trkpt lat="45.10565" lon="2.68225">
        <ele>1563.7706298828</ele>
        <time>2020-07-14T19:57:11.905Z</time>
      </trkpt>
      <trkpt lat="45.10561" lon="2.68229">
        <ele>1564.73046875</ele>
        <time>2020-07-14T19:57:15.739Z</time>
      </trkpt>
      <trkpt lat="45.10559" lon="2.68232">
        <ele>1565.06640625</ele>
        <time>2020-07-14T19:57:19.574Z</time>
      </trkpt>
      <trkpt lat="45.10554" lon="2.6824">
        <ele>1565.8343505859</ele>
        <time>2020-07-14T19:57:23.412Z</time>
      </trkpt>
      <trkpt lat="45.10551" lon="2.68244">
        <ele>1566.4102783203</ele>
        <time>2020-07-14T19:57:27.251Z</time>
      </trkpt>
      <trkpt lat="45.10547" lon="2.6825">
        <ele>1567.0821533203</ele>
        <time>2020-07-14T19:57:31.092Z</time>
      </trkpt>
      <trkpt lat="45.10544" lon="2.68253">
        <ele>1567.8020019531</ele>
        <time>2020-07-14T19:57:34.934Z</time>
      </trkpt>
      <trkpt lat="45.1054" lon="2.68259">
        <ele>1567.4331054688</ele>
        <time>2020-07-14T19:57:38.778Z</time>
      </trkpt>
      <trkpt lat="45.10534" lon="2.68264">
        <ele>1567.6611328125</ele>
        <time>2020-07-14T19:57:42.624Z</time>
      </trkpt>
      <trkpt lat="45.1053" lon="2.68267">
        <ele>1567.8890380859</ele>
        <time>2020-07-14T19:57:46.472Z</time>
      </trkpt>
      <trkpt lat="45.10526" lon="2.6827">
        <ele>1568.1170654297</ele>
        <time>2020-07-14T19:57:50.321Z</time>
      </trkpt>
      <trkpt lat="45.10522" lon="2.68273">
        <ele>1568.3449707031</ele>
        <time>2020-07-14T19:57:54.172Z</time>
      </trkpt>
      <trkpt lat="45.10517" lon="2.68278">
        <ele>1568.3449707031</ele>
        <time>2020-07-14T19:57:58.025Z</time>
      </trkpt>
      <trkpt lat="45.10513" lon="2.68281">
        <ele>1568.5729980469</ele>
        <time>2020-07-14T19:58:01.880Z</time>
      </trkpt>
      <trkpt lat="45.1051" lon="2.68284">
        <ele>1568.5729980469</ele>
        <time>2020-07-14T19:58:05.736Z</time>
      </trkpt>
      <trkpt lat="45.10505" lon="2.68291">
        <ele>1568.1170654297</ele>
        <time>2020-07-14T19:58:09.594Z</time>
      </trkpt>
      <trkpt lat="45.10502" lon="2.68293">
        <ele>1568.3449707031</ele>
        <time>2020-07-14T19:58:13.453Z</time>
      </trkpt>
      <trkpt lat="45.105" lon="2.68297">
        <ele>1569.2574462891</ele>
        <time>2020-07-14T19:58:17.313Z</time>
      </trkpt>
      <trkpt lat="45.10497" lon="2.68304">
        <ele>1571.7049560547</ele>
        <time>2020-07-14T19:58:21.175Z</time>
      </trkpt>
      <trkpt lat="45.10495" lon="2.68309">
        <ele>1573.3726806641</ele>
        <time>2020-07-14T19:58:25.039Z</time>
      </trkpt>
      <trkpt lat="45.10493" lon="2.68315">
        <ele>1575.1484375</ele>
        <time>2020-07-14T19:58:28.904Z</time>
      </trkpt>
      <trkpt lat="45.1049" lon="2.68319">
        <ele>1577.2720947266</ele>
        <time>2020-07-14T19:58:32.771Z</time>
      </trkpt>
      <trkpt lat="45.10488" lon="2.68322">
        <ele>1578.7238769531</ele>
        <time>2020-07-14T19:58:36.639Z</time>
      </trkpt>
      <trkpt lat="45.10482" lon="2.6833">
        <ele>1582.9711914062</ele>
        <time>2020-07-14T19:58:40.509Z</time>
      </trkpt>
      <trkpt lat="45.10479" lon="2.68332">
        <ele>1584.8787841797</ele>
        <time>2020-07-14T19:58:44.380Z</time>
      </trkpt>
      <trkpt lat="45.10476" lon="2.68335">
        <ele>1586.89453125</ele>
        <time>2020-07-14T19:58:48.253Z</time>
      </trkpt>
      <trkpt lat="45.10474" lon="2.68338">
        <ele>1587.5946044922</ele>
        <time>2020-07-14T19:58:52.127Z</time>
      </trkpt>
      <trkpt lat="45.10471" lon="2.68344">
        <ele>1587.1267089844</ele>
        <time>2020-07-14T19:58:56.002Z</time>
      </trkpt>
      <trkpt lat="45.10468" lon="2.68348">
        <ele>1587.9151611328</ele>
        <time>2020-07-14T19:58:59.879Z</time>
      </trkpt>
      <trkpt lat="45.10464" lon="2.68356">
        <ele>1589.0189208984</ele>
        <time>2020-07-14T19:59:03.758Z</time>
      </trkpt>
      <trkpt lat="45.10461" lon="2.68363">
        <ele>1589.630859375</ele>
        <time>2020-07-14T19:59:07.639Z</time>
      </trkpt>
      <trkpt lat="45.10459" lon="2.68366">
        <ele>1589.3508300781</ele>
        <time>2020-07-14T19:59:11.521Z</time>
      </trkpt>
      <trkpt lat="45.10453" lon="2.68373">
        <ele>1586.4713134766</ele>
        <time>2020-07-14T19:59:15.406Z</time>
      </trkpt>
      <trkpt lat="45.10451" lon="2.68376">
        <ele>1585.3675537109</ele>
        <time>2020-07-14T19:59:19.291Z</time>
      </trkpt>
      <trkpt lat="45.10447" lon="2.68383">
        <ele>1582.9439697266</ele>
        <time>2020-07-14T19:59:23.179Z</time>
      </trkpt>
      <trkpt lat="45.10444" lon="2.68386">
        <ele>1581.6121826172</ele>
        <time>2020-07-14T19:59:27.068Z</time>
      </trkpt>
      <trkpt lat="45.1044" lon="2.68393">
        <ele>1579.1885986328</ele>
        <time>2020-07-14T19:59:30.959Z</time>
      </trkpt>
      <trkpt lat="45.10433" lon="2.68403">
        <ele>1581.9084472656</ele>
        <time>2020-07-14T19:59:34.853Z</time>
      </trkpt>
      <trkpt lat="45.10429" lon="2.68412">
        <ele>1587.1635742188</ele>
        <time>2020-07-14T19:59:38.750Z</time>
      </trkpt>
      <trkpt lat="45.10426" lon="2.68418">
        <ele>1590.7989501953</ele>
        <time>2020-07-14T19:59:42.649Z</time>
      </trkpt>
      <trkpt lat="45.10425" lon="2.68421">
        <ele>1591.5274658203</ele>
        <time>2020-07-14T19:59:46.548Z</time>
      </trkpt>
      <trkpt lat="45.10423" lon="2.68426">
        <ele>1590.8195800781</ele>
        <time>2020-07-14T19:59:50.449Z</time>
      </trkpt>
      <trkpt lat="45.10421" lon="2.6843">
        <ele>1590.4116210938</ele>
        <time>2020-07-14T19:59:54.351Z</time>
      </trkpt>
      <trkpt lat="45.1042" lon="2.68435">
        <ele>1589.3077392578</ele>
        <time>2020-07-14T19:59:58.254Z</time>
      </trkpt>
      <trkpt lat="45.10418" lon="2.68438">
        <ele>1589.1998291016</ele>
        <time>2020-07-14T20:00:02.158Z</time>
      </trkpt>
      <trkpt lat="45.10416" lon="2.68444">
        <ele>1588.1920166016</ele>
        <time>2020-07-14T20:00:06.064Z</time>
      </trkpt>
      <trkpt lat="45.10413" lon="2.68451">
        <ele>1587.2801513672</ele>
        <time>2020-07-14T20:00:09.972Z</time>
      </trkpt>
      <trkpt lat="45.1041" lon="2.68457">
        <ele>1588.0225830078</ele>
        <time>2020-07-14T20:00:13.881Z</time>
      </trkpt>
      <trkpt lat="45.10408" lon="2.68461">
        <ele>1589.6302490234</ele>
        <time>2020-07-14T20:00:17.791Z</time>
      </trkpt>
      <trkpt lat="45.10407" lon="2.68465">
        <ele>1590.5061035156</ele>
        <time>2020-07-14T20:00:21.702Z</time>
      </trkpt>
      <trkpt lat="45.10405" lon="2.68473">
        <ele>1592.2578125</ele>
        <time>2020-07-14T20:00:25.615Z</time>
      </trkpt>
      <trkpt lat="45.10403" lon="2.68485">
        <ele>1594.1535644531</ele>
        <time>2020-07-14T20:00:29.531Z</time>
      </trkpt>
      <trkpt lat="45.10401" lon="2.6849">
        <ele>1595.7972412109</ele>
        <time>2020-07-14T20:00:33.449Z</time>
      </trkpt>
      <trkpt lat="45.10401" lon="2.68496">
        <ele>1596.0131835938</ele>
        <time>2020-07-14T20:00:37.368Z</time>
      </trkpt>
      <trkpt lat="45.104" lon="2.685">
        <ele>1596.8890380859</ele>
        <time>2020-07-14T20:00:41.288Z</time>
      </trkpt>
      <trkpt lat="45.10399" lon="2.68504">
        <ele>1597.3601074219</ele>
        <time>2020-07-14T20:00:45.209Z</time>
      </trkpt>
      <trkpt lat="45.10398" lon="2.68509">
        <ele>1596.0523681641</ele>
        <time>2020-07-14T20:00:49.131Z</time>
      </trkpt>
      <trkpt lat="45.10396" lon="2.68513">
        <ele>1595.8843994141</ele>
        <time>2020-07-14T20:00:53.054Z</time>
      </trkpt>
      <trkpt lat="45.10391" lon="2.68522">
        <ele>1597.3898925781</ele>
        <time>2020-07-14T20:00:56.980Z</time>
      </trkpt>
      <trkpt lat="45.1039" lon="2.68526">
        <ele>1598.1097412109</ele>
        <time>2020-07-14T20:01:00.907Z</time>
      </trkpt>
      <trkpt lat="45.10386" lon="2.68532">
        <ele>1601.8291015625</ele>
        <time>2020-07-14T20:01:04.836Z</time>
      </trkpt>
      <trkpt lat="45.10383" lon="2.68537">
        <ele>1604.5766601562</ele>
        <time>2020-07-14T20:01:08.767Z</time>
      </trkpt>
      <trkpt lat="45.1038" lon="2.68542">
        <ele>1607.32421875</ele>
        <time>2020-07-14T20:01:12.699Z</time>
      </trkpt>
      <trkpt lat="45.10377" lon="2.68547">
        <ele>1610.0717773438</ele>
        <time>2020-07-14T20:01:16.633Z</time>
      </trkpt>
      <trkpt lat="45.10374" lon="2.6855">
        <ele>1609.4281005859</ele>
        <time>2020-07-14T20:01:20.568Z</time>
      </trkpt>
      <trkpt lat="45.10372" lon="2.68552">
        <ele>1608.8041992188</ele>
        <time>2020-07-14T20:01:24.504Z</time>
      </trkpt>
      <trkpt lat="45.1037" lon="2.68555">
        <ele>1608.0963134766</ele>
        <time>2020-07-14T20:01:28.441Z</time>
      </trkpt>
      <trkpt lat="45.1037" lon="2.68557">
        <ele>1607.9283447266</ele>
        <time>2020-07-14T20:01:32.378Z</time>
      </trkpt>
      <trkpt lat="45.1037" lon="2.68559">
        <ele>1607.7603759766</ele>
        <time>2020-07-14T20:01:36.316Z</time>
      </trkpt>
      <trkpt lat="45.10371" lon="2.6856">
        <ele>1607.904296875</ele>
        <time>2020-07-14T20:01:40.254Z</time>
      </trkpt>
      <trkpt lat="45.10372" lon="2.68561">
        <ele>1608.0483398438</ele>
        <time>2020-07-14T20:01:44.193Z</time>
      </trkpt>
      <trkpt lat="45.10374" lon="2.68563">
        <ele>1608.3361816406</ele>
        <time>2020-07-14T20:01:48.132Z</time>
      </trkpt>
      <trkpt lat="45.10375" lon="2.68565">
        <ele>1608.3962402344</ele>
        <time>2020-07-14T20:01:52.072Z</time>
      </trkpt>
      <trkpt lat="45.10374" lon="2.68569">
        <ele>1607.8322753906</ele>
        <time>2020-07-14T20:01:56.013Z</time>
      </trkpt>
      <trkpt lat="45.10373" lon="2.6857">
        <ele>1607.5203857422</ele>
        <time>2020-07-14T20:01:59.954Z</time>
      </trkpt>
      <trkpt lat="45.10372" lon="2.68572">
        <ele>1607.1243896484</ele>
        <time>2020-07-14T20:02:03.896Z</time>
      </trkpt>
      <trkpt lat="45.10371" lon="2.68573">
        <ele>1606.8125</ele>
        <time>2020-07-14T20:02:07.838Z</time>
      </trkpt>
      <trkpt lat="45.10369" lon="2.68575">
        <ele>1606.1885986328</ele>
        <time>2020-07-14T20:02:11.781Z</time>
      </trkpt>
      <trkpt lat="45.10369" lon="2.68576">
        <ele>1606.1046142578</ele>
        <time>2020-07-14T20:02:15.724Z</time>
      </trkpt>
      <trkpt lat="45.1037" lon="2.68579">
        <ele>1606.0805664062</ele>
        <time>2020-07-14T20:02:19.668Z</time>
      </trkpt>
      <trkpt lat="45.10371" lon="2.68581">
        <ele>1606.2133789062</ele>
        <time>2020-07-14T20:02:23.613Z</time>
      </trkpt>
      <trkpt lat="45.10372" lon="2.68584">
        <ele>1606.6213378906</ele>
        <time>2020-07-14T20:02:27.559Z</time>
      </trkpt>
      <trkpt lat="45.10372" lon="2.68588">
        <ele>1607.0928955078</ele>
        <time>2020-07-14T20:02:31.505Z</time>
      </trkpt>
      <trkpt lat="45.10372" lon="2.68591">
        <ele>1607.380859375</ele>
        <time>2020-07-14T20:02:35.452Z</time>
      </trkpt>
      <trkpt lat="45.10372" lon="2.68593">
        <ele>1607.5728759766</ele>
        <time>2020-07-14T20:02:39.400Z</time>
      </trkpt>
      <trkpt lat="45.10373" lon="2.68594">
        <ele>1607.6807861328</ele>
        <time>2020-07-14T20:02:43.348Z</time>
      </trkpt>
      <trkpt lat="45.10375" lon="2.68595">
        <ele>1607.80078125</ele>
        <time>2020-07-14T20:02:47.297Z</time>
      </trkpt>
      <trkpt lat="45.10376" lon="2.68597">
        <ele>1608.0047607422</ele>
        <time>2020-07-14T20:02:51.246Z</time>
      </trkpt>
      <trkpt lat="45.10377" lon="2.68598">
        <ele>1607.8096923828</ele>
        <time>2020-07-14T20:02:55.196Z</time>
      </trkpt>
      <trkpt lat="45.10377" lon="2.686">
        <ele>1608.0015869141</ele>
        <time>2020-07-14T20:02:59.146Z</time>
      </trkpt>
      <trkpt lat="45.10376" lon="2.68602">
        <ele>1608.4847412109</ele>
        <time>2020-07-14T20:03:03.097Z</time>
      </trkpt>
      <trkpt lat="45.10374" lon="2.68611">
        <ele>1609.3245849609</ele>
        <time>2020-07-14T20:03:07.050Z</time>
      </trkpt>
      <trkpt lat="45.10372" lon="2.68617">
        <ele>1609.8764648438</ele>
        <time>2020-07-14T20:03:11.005Z</time>
      </trkpt>
      <trkpt lat="45.10371" lon="2.68625">
        <ele>1610.6323242188</ele>
        <time>2020-07-14T20:03:14.962Z</time>
      </trkpt>
      <trkpt lat="45.10372" lon="2.68629">
        <ele>1611.0283203125</ele>
        <time>2020-07-14T20:03:18.920Z</time>
      </trkpt>
      <trkpt lat="45.10372" lon="2.6863">
        <ele>1611.1242675781</ele>
        <time>2020-07-14T20:03:22.878Z</time>
      </trkpt>
      <trkpt lat="45.10372" lon="2.68632">
        <ele>1611.3161621094</ele>
        <time>2020-07-14T20:03:26.836Z</time>
      </trkpt>
      <trkpt lat="45.10374" lon="2.68641">
        <ele>1612.2041015625</ele>
        <time>2020-07-14T20:03:30.796Z</time>
      </trkpt>
      <trkpt lat="45.10375" lon="2.68643">
        <ele>1612.4080810547</ele>
        <time>2020-07-14T20:03:34.757Z</time>
      </trkpt>
      <trkpt lat="45.10375" lon="2.68646">
        <ele>1612.6959228516</ele>
        <time>2020-07-14T20:03:38.719Z</time>
      </trkpt>
      <trkpt lat="45.10375" lon="2.68649">
        <ele>1612.9838867188</ele>
        <time>2020-07-14T20:03:42.681Z</time>
      </trkpt>
      <trkpt lat="45.10373" lon="2.68655">
        <ele>1613.5358886719</ele>
        <time>2020-07-14T20:03:46.645Z</time>
      </trkpt>
      <trkpt lat="45.10373" lon="2.68656">
        <ele>1613.6318359375</ele>
        <time>2020-07-14T20:03:50.609Z</time>
      </trkpt>
      <trkpt lat="45.10373" lon="2.68659">
        <ele>1613.9197998047</ele>
        <time>2020-07-14T20:03:54.574Z</time>
      </trkpt>
      <trkpt lat="45.10375" lon="2.68665">
        <ele>1614.5196533203</ele>
        <time>2020-07-14T20:03:58.541Z</time>
      </trkpt>
      <trkpt lat="45.10376" lon="2.68668">
        <ele>1614.8195800781</ele>
        <time>2020-07-14T20:04:02.508Z</time>
      </trkpt>
      <trkpt lat="45.10376" lon="2.68671">
        <ele>1615.3583984375</ele>
        <time>2020-07-14T20:04:06.476Z</time>
      </trkpt>
      <trkpt lat="45.10375" lon="2.68673">
        <ele>1615.9343261719</ele>
        <time>2020-07-14T20:04:10.445Z</time>
      </trkpt>
      <trkpt lat="45.10373" lon="2.68675">
        <ele>1616.5582275391</ele>
        <time>2020-07-14T20:04:14.414Z</time>
      </trkpt>
      <trkpt lat="45.10371" lon="2.68682">
        <ele>1618.5018310547</ele>
        <time>2020-07-14T20:04:18.385Z</time>
      </trkpt>
      <trkpt lat="45.1037" lon="2.6869">
        <ele>1620.6614990234</ele>
        <time>2020-07-14T20:04:22.358Z</time>
      </trkpt>
      <trkpt lat="45.10369" lon="2.68698">
        <ele>1622.8211669922</ele>
        <time>2020-07-14T20:04:26.333Z</time>
      </trkpt>
      <trkpt lat="45.10366" lon="2.68707">
        <ele>1625.3406982422</ele>
        <time>2020-07-14T20:04:30.310Z</time>
      </trkpt>
      <trkpt lat="45.10365" lon="2.68712">
        <ele>1626.7084960938</ele>
        <time>2020-07-14T20:04:34.289Z</time>
      </trkpt>
      <trkpt lat="45.10364" lon="2.68721">
        <ele>1629.1320800781</ele>
        <time>2020-07-14T20:04:38.270Z</time>
      </trkpt>
      <trkpt lat="45.10364" lon="2.68729">
        <ele>1631.2437744141</ele>
        <time>2020-07-14T20:04:42.253Z</time>
      </trkpt>
      <trkpt lat="45.10362" lon="2.68738">
        <ele>1633.7153320312</ele>
        <time>2020-07-14T20:04:46.238Z</time>
      </trkpt>
      <trkpt lat="45.10362" lon="2.68747">
        <ele>1635.1577148438</ele>
        <time>2020-07-14T20:04:50.225Z</time>
      </trkpt>
      <trkpt lat="45.10362" lon="2.68755">
        <ele>1636.2933349609</ele>
        <time>2020-07-14T20:04:54.214Z</time>
      </trkpt>
      <trkpt lat="45.10362" lon="2.68763">
        <ele>1637.0611572266</ele>
        <time>2020-07-14T20:04:58.205Z</time>
      </trkpt>
      <trkpt lat="45.10362" lon="2.6877">
        <ele>1637.7330322266</ele>
        <time>2020-07-14T20:05:02.197Z</time>
      </trkpt>
      <trkpt lat="45.10362" lon="2.68776">
        <ele>1638.3089599609</ele>
        <time>2020-07-14T20:05:06.191Z</time>
      </trkpt>
      <trkpt lat="45.10362" lon="2.68782">
        <ele>1638.8848876953</ele>
        <time>2020-07-14T20:05:10.186Z</time>
      </trkpt>
      <trkpt lat="45.10362" lon="2.6879">
        <ele>1639.6527099609</ele>
        <time>2020-07-14T20:05:14.183Z</time>
      </trkpt>
      <trkpt lat="45.10363" lon="2.68796">
        <ele>1640.2886962891</ele>
        <time>2020-07-14T20:05:18.182Z</time>
      </trkpt>
      <trkpt lat="45.10364" lon="2.68806">
        <ele>1641.3084716797</ele>
        <time>2020-07-14T20:05:22.183Z</time>
      </trkpt>
      <trkpt lat="45.10366" lon="2.68816">
        <ele>1642.3883056641</ele>
        <time>2020-07-14T20:05:26.186Z</time>
      </trkpt>
      <trkpt lat="45.10369" lon="2.68829">
        <ele>1643.7983398438</ele>
        <time>2020-07-14T20:05:30.193Z</time>
      </trkpt>
      <trkpt lat="45.1037" lon="2.68835">
        <ele>1644.1342773438</ele>
        <time>2020-07-14T20:05:34.201Z</time>
      </trkpt>
      <trkpt lat="45.1037" lon="2.68841">
        <ele>1643.1021728516</ele>
        <time>2020-07-14T20:05:38.211Z</time>
      </trkpt>
      <trkpt lat="45.10369" lon="2.68845">
        <ele>1642.0223388672</ele>
        <time>2020-07-14T20:05:42.222Z</time>
      </trkpt>
      <trkpt lat="45.10369" lon="2.68849">
        <ele>1641.0625</ele>
        <time>2020-07-14T20:05:46.234Z</time>
      </trkpt>
      <trkpt lat="45.10368" lon="2.68855">
        <ele>1639.5026855469</ele>
        <time>2020-07-14T20:05:50.247Z</time>
      </trkpt>
      <trkpt lat="45.10366" lon="2.68862">
        <ele>1637.5830078125</ele>
        <time>2020-07-14T20:05:54.262Z</time>
      </trkpt>
      <trkpt lat="45.10365" lon="2.68869">
        <ele>1635.7833251953</ele>
        <time>2020-07-14T20:05:58.278Z</time>
      </trkpt>
      <trkpt lat="45.10362" lon="2.68878">
        <ele>1633.2637939453</ele>
        <time>2020-07-14T20:06:02.297Z</time>
      </trkpt>
      <trkpt lat="45.10359" lon="2.68889">
        <ele>1630.2642822266</ele>
        <time>2020-07-14T20:06:06.319Z</time>
      </trkpt>
      <trkpt lat="45.10357" lon="2.68897">
        <ele>1628.1046142578</ele>
        <time>2020-07-14T20:06:10.343Z</time>
      </trkpt>
      <trkpt lat="45.10354" lon="2.68905">
        <ele>1628.8765869141</ele>
        <time>2020-07-14T20:06:14.369Z</time>
      </trkpt>
      <trkpt lat="45.1035" lon="2.6891">
        <ele>1630.6522216797</ele>
        <time>2020-07-14T20:06:18.396Z</time>
      </trkpt>
      <trkpt lat="45.10347" lon="2.68914">
        <ele>1632.0200195312</ele>
        <time>2020-07-14T20:06:22.425Z</time>
      </trkpt>
      <trkpt lat="45.10343" lon="2.6892">
        <ele>1633.8743896484</ele>
        <time>2020-07-14T20:06:26.456Z</time>
      </trkpt>
      <trkpt lat="45.10338" lon="2.68925">
        <ele>1634.0543212891</ele>
        <time>2020-07-14T20:06:30.489Z</time>
      </trkpt>
      <trkpt lat="45.10333" lon="2.68935">
        <ele>1633.0944824219</ele>
        <time>2020-07-14T20:06:34.525Z</time>
      </trkpt>
      <trkpt lat="45.10329" lon="2.68941">
        <ele>1632.7825927734</ele>
        <time>2020-07-14T20:06:38.563Z</time>
      </trkpt>
      <trkpt lat="45.10326" lon="2.68949">
        <ele>1631.7507324219</ele>
        <time>2020-07-14T20:06:42.603Z</time>
      </trkpt>
      <trkpt lat="45.10323" lon="2.68958">
        <ele>1632.8643798828</ele>
        <time>2020-07-14T20:06:46.645Z</time>
      </trkpt>
      <trkpt lat="45.10321" lon="2.68961">
        <ele>1634.0882568359</ele>
        <time>2020-07-14T20:06:50.688Z</time>
      </trkpt>
      <trkpt lat="45.1032" lon="2.68966">
        <ele>1634.8680419922</ele>
        <time>2020-07-14T20:06:54.732Z</time>
      </trkpt>
      <trkpt lat="45.1032" lon="2.68972">
        <ele>1635.1560058594</ele>
        <time>2020-07-14T20:06:58.778Z</time>
      </trkpt>
      <trkpt lat="45.1032" lon="2.68981">
        <ele>1635.587890625</ele>
        <time>2020-07-14T20:07:02.826Z</time>
      </trkpt>
      <trkpt lat="45.1032" lon="2.68994">
        <ele>1636.2117919922</ele>
        <time>2020-07-14T20:07:06.877Z</time>
      </trkpt>
      <trkpt lat="45.1032" lon="2.68999">
        <ele>1636.4517822266</ele>
        <time>2020-07-14T20:07:10.929Z</time>
      </trkpt>
      <trkpt lat="45.1032" lon="2.69005">
        <ele>1636.3010253906</ele>
        <time>2020-07-14T20:07:14.983Z</time>
      </trkpt>
      <trkpt lat="45.1032" lon="2.69015">
        <ele>1634.3813476562</ele>
        <time>2020-07-14T20:07:19.039Z</time>
      </trkpt>
      <trkpt lat="45.1032" lon="2.69031">
        <ele>1631.5354003906</ele>
        <time>2020-07-14T20:07:23.099Z</time>
      </trkpt>
      <trkpt lat="45.1032" lon="2.69037">
        <ele>1631.4635009766</ele>
        <time>2020-07-14T20:07:27.160Z</time>
      </trkpt>
      <trkpt lat="45.10319" lon="2.69041">
        <ele>1632.1353759766</ele>
        <time>2020-07-14T20:07:31.222Z</time>
      </trkpt>
      <trkpt lat="45.10316" lon="2.69047">
        <ele>1634.2230224609</ele>
        <time>2020-07-14T20:07:35.286Z</time>
      </trkpt>
      <trkpt lat="45.10312" lon="2.69058">
        <ele>1636.9705810547</ele>
        <time>2020-07-14T20:07:39.353Z</time>
      </trkpt>
      <trkpt lat="45.10307" lon="2.69067">
        <ele>1640.4619140625</ele>
        <time>2020-07-14T20:07:43.422Z</time>
      </trkpt>
      <trkpt lat="45.10302" lon="2.69077">
        <ele>1643.94140625</ele>
        <time>2020-07-14T20:07:47.494Z</time>
      </trkpt>
      <trkpt lat="45.10301" lon="2.69079">
        <ele>1644.6372070312</ele>
        <time>2020-07-14T20:07:51.567Z</time>
      </trkpt>
      <trkpt lat="45.10298" lon="2.69086">
        <ele>1646.712890625</ele>
        <time>2020-07-14T20:07:55.642Z</time>
      </trkpt>
      <trkpt lat="45.10296" lon="2.69093">
        <ele>1647.5510253906</ele>
        <time>2020-07-14T20:07:59.719Z</time>
      </trkpt>
      <trkpt lat="45.10293" lon="2.69107">
        <ele>1645.9916992188</ele>
        <time>2020-07-14T20:08:03.799Z</time>
      </trkpt>
      <trkpt lat="45.10292" lon="2.69113">
        <ele>1644.6599121094</ele>
        <time>2020-07-14T20:08:07.881Z</time>
      </trkpt>
      <trkpt lat="45.1029" lon="2.6912">
        <ele>1642.9561767578</ele>
        <time>2020-07-14T20:08:11.964Z</time>
      </trkpt>
      <trkpt lat="45.10288" lon="2.69126">
        <ele>1641.4444580078</ele>
        <time>2020-07-14T20:08:16.049Z</time>
      </trkpt>
      <trkpt lat="45.10286" lon="2.69131">
        <ele>1640.1247558594</ele>
        <time>2020-07-14T20:08:20.135Z</time>
      </trkpt>
      <trkpt lat="45.10284" lon="2.69138">
        <ele>1638.4210205078</ele>
        <time>2020-07-14T20:08:24.223Z</time>
      </trkpt>
      <trkpt lat="45.10281" lon="2.69146">
        <ele>1636.3453369141</ele>
        <time>2020-07-14T20:08:28.313Z</time>
      </trkpt>
      <trkpt lat="45.1028" lon="2.69153">
        <ele>1634.8215332031</ele>
        <time>2020-07-14T20:08:32.405Z</time>
      </trkpt>
      <trkpt lat="45.10278" lon="2.6916">
        <ele>1635.3189697266</ele>
        <time>2020-07-14T20:08:36.499Z</time>
      </trkpt>
      <trkpt lat="45.10275" lon="2.69168">
        <ele>1637.5986328125</ele>
        <time>2020-07-14T20:08:40.595Z</time>
      </trkpt>
      <trkpt lat="45.10273" lon="2.69175">
        <ele>1637.9799804688</ele>
        <time>2020-07-14T20:08:44.693Z</time>
      </trkpt>
      <trkpt lat="45.10271" lon="2.69181">
        <ele>1637.9079589844</ele>
        <time>2020-07-14T20:08:48.792Z</time>
      </trkpt>
      <trkpt lat="45.10271" lon="2.69182">
        <ele>1637.8239746094</ele>
        <time>2020-07-14T20:08:52.891Z</time>
      </trkpt>
      <trkpt lat="45.10268" lon="2.69191">
        <ele>1637.7159423828</ele>
        <time>2020-07-14T20:08:56.993Z</time>
      </trkpt>
      <trkpt lat="45.10266" lon="2.69201">
        <ele>1637.3079833984</ele>
        <time>2020-07-14T20:09:01.097Z</time>
      </trkpt>
      <trkpt lat="45.10264" lon="2.69206">
        <ele>1637.3200683594</ele>
        <time>2020-07-14T20:09:05.203Z</time>
      </trkpt>
      <trkpt lat="45.10262" lon="2.69213">
        <ele>1637.1640625</ele>
        <time>2020-07-14T20:09:09.310Z</time>
      </trkpt>
      <trkpt lat="45.1026" lon="2.69219">
        <ele>1637.0920410156</ele>
        <time>2020-07-14T20:09:13.419Z</time>
      </trkpt>
      <trkpt lat="45.10257" lon="2.69226">
        <ele>1637.8151855469</ele>
        <time>2020-07-14T20:09:17.530Z</time>
      </trkpt>
      <trkpt lat="45.10254" lon="2.69233">
        <ele>1638.5950927734</ele>
        <time>2020-07-14T20:09:21.643Z</time>
      </trkpt>
      <trkpt lat="45.10252" lon="2.69237">
        <ele>1639.123046875</ele>
        <time>2020-07-14T20:09:25.757Z</time>
      </trkpt>
      <trkpt lat="45.1025" lon="2.6924">
        <ele>1639.6629638672</ele>
        <time>2020-07-14T20:09:29.872Z</time>
      </trkpt>
      <trkpt lat="45.10248" lon="2.69253">
        <ele>1640.0828857422</ele>
        <time>2020-07-14T20:09:33.990Z</time>
      </trkpt>
      <trkpt lat="45.10248" lon="2.6926">
        <ele>1641.0573730469</ele>
        <time>2020-07-14T20:09:38.110Z</time>
      </trkpt>
      <trkpt lat="45.10247" lon="2.69267">
        <ele>1642.3531494141</ele>
        <time>2020-07-14T20:09:42.231Z</time>
      </trkpt>
      <trkpt lat="45.10245" lon="2.69271">
        <ele>1643.5050048828</ele>
        <time>2020-07-14T20:09:46.354Z</time>
      </trkpt>
      <trkpt lat="45.10242" lon="2.69278">
        <ele>1645.3767089844</ele>
        <time>2020-07-14T20:09:50.478Z</time>
      </trkpt>
      <trkpt lat="45.10241" lon="2.69281">
        <ele>1646.0965576172</ele>
        <time>2020-07-14T20:09:54.603Z</time>
      </trkpt>
      <trkpt lat="45.10241" lon="2.69286">
        <ele>1646.5031738281</ele>
        <time>2020-07-14T20:09:58.729Z</time>
      </trkpt>
      <trkpt lat="45.10241" lon="2.69293">
        <ele>1646.3352050781</ele>
        <time>2020-07-14T20:10:02.857Z</time>
      </trkpt>
      <trkpt lat="45.10241" lon="2.69299">
        <ele>1646.1912841797</ele>
        <time>2020-07-14T20:10:06.986Z</time>
      </trkpt>
      <trkpt lat="45.10241" lon="2.69308">
        <ele>1645.9753417969</ele>
        <time>2020-07-14T20:10:11.118Z</time>
      </trkpt>
      <trkpt lat="45.1024" lon="2.69314">
        <ele>1645.9512939453</ele>
        <time>2020-07-14T20:10:15.251Z</time>
      </trkpt>
      <trkpt lat="45.10239" lon="2.69325">
        <ele>1645.8073730469</ele>
        <time>2020-07-14T20:10:19.387Z</time>
      </trkpt>
      <trkpt lat="45.10238" lon="2.69335">
        <ele>1645.6873779297</ele>
        <time>2020-07-14T20:10:23.525Z</time>
      </trkpt>
      <trkpt lat="45.10237" lon="2.69344">
        <ele>1645.5914306641</ele>
        <time>2020-07-14T20:10:27.665Z</time>
      </trkpt>
      <trkpt lat="45.10236" lon="2.69355">
        <ele>1645.4473876953</ele>
        <time>2020-07-14T20:10:31.808Z</time>
      </trkpt>
      <trkpt lat="45.10236" lon="2.69359">
        <ele>1645.3514404297</ele>
        <time>2020-07-14T20:10:35.952Z</time>
      </trkpt>
      <trkpt lat="45.10236" lon="2.69363">
        <ele>1645.2802734375</ele>
        <time>2020-07-14T20:10:40.097Z</time>
      </trkpt>
      <trkpt lat="45.10237" lon="2.69367">
        <ele>1645.2082519531</ele>
        <time>2020-07-14T20:10:44.243Z</time>
      </trkpt>
      <trkpt lat="45.1024" lon="2.69374">
        <ele>1644.8723144531</ele>
        <time>2020-07-14T20:10:48.391Z</time>
      </trkpt>
      <trkpt lat="45.10243" lon="2.6938">
        <ele>1644.5124511719</ele>
        <time>2020-07-14T20:10:52.540Z</time>
      </trkpt>
      <trkpt lat="45.10244" lon="2.69386">
        <ele>1644.4884033203</ele>
        <time>2020-07-14T20:10:56.691Z</time>
      </trkpt>
      <trkpt lat="45.10246" lon="2.6939">
        <ele>1644.2484130859</ele>
        <time>2020-07-14T20:11:00.843Z</time>
      </trkpt>
      <trkpt lat="45.10248" lon="2.69395">
        <ele>1644.0324707031</ele>
        <time>2020-07-14T20:11:04.996Z</time>
      </trkpt>
      <trkpt lat="45.10249" lon="2.694">
        <ele>1643.9844970703</ele>
        <time>2020-07-14T20:11:09.151Z</time>
      </trkpt>
      <trkpt lat="45.10251" lon="2.69406">
        <ele>1643.7924804688</ele>
        <time>2020-07-14T20:11:13.307Z</time>
      </trkpt>
      <trkpt lat="45.10252" lon="2.69409">
        <ele>1643.6965332031</ele>
        <time>2020-07-14T20:11:17.464Z</time>
      </trkpt>
      <trkpt lat="45.10255" lon="2.69415">
        <ele>1643.3365478516</ele>
        <time>2020-07-14T20:11:21.623Z</time>
      </trkpt>
      <trkpt lat="45.10257" lon="2.6942">
        <ele>1643.1129150391</ele>
        <time>2020-07-14T20:11:25.783Z</time>
      </trkpt>
      <trkpt lat="45.10259" lon="2.69424">
        <ele>1642.5369873047</ele>
        <time>2020-07-14T20:11:29.944Z</time>
      </trkpt>
      <trkpt lat="45.10262" lon="2.69431">
        <ele>1641.6131591797</ele>
        <time>2020-07-14T20:11:34.107Z</time>
      </trkpt>
      <trkpt lat="45.10262" lon="2.69439">
        <ele>1641.1331787109</ele>
        <time>2020-07-14T20:11:38.272Z</time>
      </trkpt>
      <trkpt lat="45.10262" lon="2.69445">
        <ele>1640.7733154297</ele>
        <time>2020-07-14T20:11:42.438Z</time>
      </trkpt>
      <trkpt lat="45.10265" lon="2.69453">
        <ele>1639.7894287109</ele>
        <time>2020-07-14T20:11:46.607Z</time>
      </trkpt>
      <trkpt lat="45.1027" lon="2.6946">
        <ele>1638.5296630859</ele>
        <time>2020-07-14T20:11:50.778Z</time>
      </trkpt>
      <trkpt lat="45.10274" lon="2.69463">
        <ele>1637.677734375</ele>
        <time>2020-07-14T20:11:54.950Z</time>
      </trkpt>
      <trkpt lat="45.10281" lon="2.69472">
        <ele>1635.9620361328</ele>
        <time>2020-07-14T20:11:59.126Z</time>
      </trkpt>
      <trkpt lat="45.10286" lon="2.69478">
        <ele>1634.7622070312</ele>
        <time>2020-07-14T20:12:03.304Z</time>
      </trkpt>
      <trkpt lat="45.10292" lon="2.69486">
        <ele>1633.2745361328</ele>
        <time>2020-07-14T20:12:07.485Z</time>
      </trkpt>
      <trkpt lat="45.10296" lon="2.6949">
        <ele>1631.5594482422</ele>
        <time>2020-07-14T20:12:11.667Z</time>
      </trkpt>
      <trkpt lat="45.103" lon="2.69495">
        <ele>1629.33984375</ele>
        <time>2020-07-14T20:12:15.851Z</time>
      </trkpt>
      <trkpt lat="45.10303" lon="2.695">
        <ele>1627.6000976562</ele>
        <time>2020-07-14T20:12:20.036Z</time>
      </trkpt>
      <trkpt lat="45.10305" lon="2.69503">
        <ele>1626.4603271484</ele>
        <time>2020-07-14T20:12:24.222Z</time>
      </trkpt>
      <trkpt lat="45.1031" lon="2.69506">
        <ele>1624.5394287109</ele>
        <time>2020-07-14T20:12:28.410Z</time>
      </trkpt>
      <trkpt lat="45.10314" lon="2.6951">
        <ele>1623.3397216797</ele>
        <time>2020-07-14T20:12:32.600Z</time>
      </trkpt>
      <trkpt lat="45.10317" lon="2.69513">
        <ele>1622.4398193359</ele>
        <time>2020-07-14T20:12:36.791Z</time>
      </trkpt>
      <trkpt lat="45.10321" lon="2.69517">
        <ele>1621.2399902344</ele>
        <time>2020-07-14T20:12:40.984Z</time>
      </trkpt>
      <trkpt lat="45.10324" lon="2.69522">
        <ele>1620.7000732422</ele>
        <time>2020-07-14T20:12:45.178Z</time>
      </trkpt>
      <trkpt lat="45.10328" lon="2.69526">
        <ele>1619.5003662109</ele>
        <time>2020-07-14T20:12:49.374Z</time>
      </trkpt>
      <trkpt lat="45.10333" lon="2.69529">
        <ele>1617.640625</ele>
        <time>2020-07-14T20:12:53.572Z</time>
      </trkpt>
      <trkpt lat="45.10336" lon="2.69532">
        <ele>1616.7407226562</ele>
        <time>2020-07-14T20:12:57.771Z</time>
      </trkpt>
      <trkpt lat="45.10333" lon="2.69536">
        <ele>1618.900390625</ele>
        <time>2020-07-14T20:13:01.971Z</time>
      </trkpt>
      <trkpt lat="45.10336" lon="2.69532">
        <ele>1616.7407226562</ele>
        <time>2020-07-14T20:13:06.173Z</time>
      </trkpt>
      <trkpt lat="45.10337" lon="2.69534">
        <ele>1616.6208496094</ele>
        <time>2020-07-14T20:13:10.375Z</time>
      </trkpt>
      <trkpt lat="45.10341" lon="2.69547">
        <ele>1617.0407714844</ele>
        <time>2020-07-14T20:13:14.581Z</time>
      </trkpt>
      <trkpt lat="45.10342" lon="2.6955">
        <ele>1617.1007080078</ele>
        <time>2020-07-14T20:13:18.787Z</time>
      </trkpt>
      <trkpt lat="45.10342" lon="2.69553">
        <ele>1617.3035888672</ele>
        <time>2020-07-14T20:13:22.994Z</time>
      </trkpt>
      <trkpt lat="45.10343" lon="2.69557">
        <ele>1616.6796875</ele>
        <time>2020-07-14T20:13:27.202Z</time>
      </trkpt>
      <trkpt lat="45.10343" lon="2.69565">
        <ele>1615.8159179688</ele>
        <time>2020-07-14T20:13:31.412Z</time>
      </trkpt>
      <trkpt lat="45.10343" lon="2.69572">
        <ele>1615.0599365234</ele>
        <time>2020-07-14T20:13:35.624Z</time>
      </trkpt>
      <trkpt lat="45.10345" lon="2.69588">
        <ele>1613.2838134766</ele>
        <time>2020-07-14T20:13:39.840Z</time>
      </trkpt>
      <trkpt lat="45.10346" lon="2.696">
        <ele>1614.6755371094</ele>
        <time>2020-07-14T20:13:44.058Z</time>
      </trkpt>
      <trkpt lat="45.10348" lon="2.69611">
        <ele>1615.7434082031</ele>
        <time>2020-07-14T20:13:48.279Z</time>
      </trkpt>
      <trkpt lat="45.1035" lon="2.69626">
        <ele>1617.3391113281</ele>
        <time>2020-07-14T20:13:52.504Z</time>
      </trkpt>
      <trkpt lat="45.10354" lon="2.6964">
        <ele>1618.4189453125</ele>
        <time>2020-07-14T20:13:56.732Z</time>
      </trkpt>
      <trkpt lat="45.10356" lon="2.6965">
        <ele>1619.2559814453</ele>
        <time>2020-07-14T20:14:00.963Z</time>
      </trkpt>
      <trkpt lat="45.10361" lon="2.69664">
        <ele>1619.0640869141</ele>
        <time>2020-07-14T20:14:05.197Z</time>
      </trkpt>
      <trkpt lat="45.10363" lon="2.6967">
        <ele>1618.9945068359</ele>
        <time>2020-07-14T20:14:09.433Z</time>
      </trkpt>
      <trkpt lat="45.10367" lon="2.69683">
        <ele>1619.4864501953</ele>
        <time>2020-07-14T20:14:13.672Z</time>
      </trkpt>
      <trkpt lat="45.1037" lon="2.69695">
        <ele>1619.9903564453</ele>
        <time>2020-07-14T20:14:17.914Z</time>
      </trkpt>
      <trkpt lat="45.10374" lon="2.69706">
        <ele>1620.3623046875</ele>
        <time>2020-07-14T20:14:22.159Z</time>
      </trkpt>
      <trkpt lat="45.10376" lon="2.69719">
        <ele>1620.9981689453</ele>
        <time>2020-07-14T20:14:26.407Z</time>
      </trkpt>
      <trkpt lat="45.10377" lon="2.69725">
        <ele>1621.2260742188</ele>
        <time>2020-07-14T20:14:30.657Z</time>
      </trkpt>
      <trkpt lat="45.10379" lon="2.69735">
        <ele>1621.1540527344</ele>
        <time>2020-07-14T20:14:34.909Z</time>
      </trkpt>
      <trkpt lat="45.10383" lon="2.6975">
        <ele>1620.7100830078</ele>
        <time>2020-07-14T20:14:39.165Z</time>
      </trkpt>
      <trkpt lat="45.10385" lon="2.69758">
        <ele>1620.9132080078</ele>
        <time>2020-07-14T20:14:43.423Z</time>
      </trkpt>
      <trkpt lat="45.10388" lon="2.69771">
        <ele>1621.3885498047</ele>
        <time>2020-07-14T20:14:47.684Z</time>
      </trkpt>
      <trkpt lat="45.10393" lon="2.69788">
        <ele>1621.4365234375</ele>
        <time>2020-07-14T20:14:51.950Z</time>
      </trkpt>
      <trkpt lat="45.10396" lon="2.698">
        <ele>1621.6164550781</ele>
        <time>2020-07-14T20:14:56.219Z</time>
      </trkpt>
      <trkpt lat="45.104" lon="2.69813">
        <ele>1621.6044921875</ele>
        <time>2020-07-14T20:15:00.491Z</time>
      </trkpt>
      <trkpt lat="45.10402" lon="2.69822">
        <ele>1621.8084716797</ele>
        <time>2020-07-14T20:15:04.765Z</time>
      </trkpt>
      <trkpt lat="45.10407" lon="2.69834">
        <ele>1621.4365234375</ele>
        <time>2020-07-14T20:15:09.043Z</time>
      </trkpt>
      <trkpt lat="45.10412" lon="2.69848">
        <ele>1622.7313232422</ele>
        <time>2020-07-14T20:15:13.324Z</time>
      </trkpt>
      <trkpt lat="45.10414" lon="2.69854">
        <ele>1623.4752197266</ele>
        <time>2020-07-14T20:15:17.607Z</time>
      </trkpt>
      <trkpt lat="45.10415" lon="2.69858">
        <ele>1624.0631103516</ele>
        <time>2020-07-14T20:15:21.891Z</time>
      </trkpt>
      <trkpt lat="45.10416" lon="2.69862">
        <ele>1624.6510009766</ele>
        <time>2020-07-14T20:15:26.176Z</time>
      </trkpt>
      <trkpt lat="45.10419" lon="2.69875">
        <ele>1626.6307373047</ele>
        <time>2020-07-14T20:15:30.464Z</time>
      </trkpt>
      <trkpt lat="45.1042" lon="2.69881">
        <ele>1627.4473876953</ele>
        <time>2020-07-14T20:15:34.753Z</time>
      </trkpt>
      <trkpt lat="45.10422" lon="2.69886">
        <ele>1627.4354248047</ele>
        <time>2020-07-14T20:15:39.044Z</time>
      </trkpt>
      <trkpt lat="45.10425" lon="2.69896">
        <ele>1627.5074462891</ele>
        <time>2020-07-14T20:15:43.337Z</time>
      </trkpt>
      <trkpt lat="45.10426" lon="2.69901">
        <ele>1627.5914306641</ele>
        <time>2020-07-14T20:15:47.632Z</time>
      </trkpt>
      <trkpt lat="45.10428" lon="2.69904">
        <ele>1627.5074462891</ele>
        <time>2020-07-14T20:15:51.928Z</time>
      </trkpt>
      <trkpt lat="45.10431" lon="2.69908">
        <ele>1627.3634033203</ele>
        <time>2020-07-14T20:15:56.225Z</time>
      </trkpt>
      <trkpt lat="45.10435" lon="2.69914">
        <ele>1627.1954345703</ele>
        <time>2020-07-14T20:16:00.524Z</time>
      </trkpt>
      <trkpt lat="45.10437" lon="2.69918">
        <ele>1627.1474609375</ele>
        <time>2020-07-14T20:16:04.824Z</time>
      </trkpt>
      <trkpt lat="45.10439" lon="2.69921">
        <ele>1627.0755615234</ele>
        <time>2020-07-14T20:16:09.125Z</time>
      </trkpt>
      <trkpt lat="45.10444" lon="2.69924">
        <ele>1626.7396240234</ele>
        <time>2020-07-14T20:16:13.428Z</time>
      </trkpt>
      <trkpt lat="45.10447" lon="2.69926">
        <ele>1626.5476074219</ele>
        <time>2020-07-14T20:16:17.732Z</time>
      </trkpt>
      <trkpt lat="45.10451" lon="2.69929">
        <ele>1626.3077392578</ele>
        <time>2020-07-14T20:16:22.037Z</time>
      </trkpt>
      <trkpt lat="45.10455" lon="2.69932">
        <ele>1626.0677490234</ele>
        <time>2020-07-14T20:16:26.344Z</time>
      </trkpt>
      <trkpt lat="45.1046" lon="2.69938">
        <ele>1625.8757324219</ele>
        <time>2020-07-14T20:16:30.653Z</time>
      </trkpt>
      <trkpt lat="45.10465" lon="2.69945">
        <ele>1625.3804931641</ele>
        <time>2020-07-14T20:16:34.964Z</time>
      </trkpt>
      <trkpt lat="45.10471" lon="2.69953">
        <ele>1624.7565917969</ele>
        <time>2020-07-14T20:16:39.278Z</time>
      </trkpt>
      <trkpt lat="45.10477" lon="2.69963">
        <ele>1624.2286376953</ele>
        <time>2020-07-14T20:16:43.595Z</time>
      </trkpt>
      <trkpt lat="45.10483" lon="2.69968">
        <ele>1623.4608154297</ele>
        <time>2020-07-14T20:16:47.915Z</time>
      </trkpt>
      <trkpt lat="45.10488" lon="2.69974">
        <ele>1622.9089355469</ele>
        <time>2020-07-14T20:16:52.237Z</time>
      </trkpt>
      <trkpt lat="45.10496" lon="2.69982">
        <ele>1621.9490966797</ele>
        <time>2020-07-14T20:16:56.562Z</time>
      </trkpt>
      <trkpt lat="45.10502" lon="2.69989">
        <ele>1621.2770996094</ele>
        <time>2020-07-14T20:17:00.890Z</time>
      </trkpt>
      <trkpt lat="45.1051" lon="2.69998">
        <ele>1620.3653564453</ele>
        <time>2020-07-14T20:17:05.221Z</time>
      </trkpt>
      <trkpt lat="45.10517" lon="2.70007">
        <ele>1620.0607910156</ele>
        <time>2020-07-14T20:17:09.555Z</time>
      </trkpt>
      <trkpt lat="45.1052" lon="2.70013">
        <ele>1620.5646972656</ele>
        <time>2020-07-14T20:17:13.891Z</time>
      </trkpt>
      <trkpt lat="45.10526" lon="2.70023">
        <ele>1621.2365722656</ele>
        <time>2020-07-14T20:17:18.230Z</time>
      </trkpt>
      <trkpt lat="45.10531" lon="2.70031">
        <ele>1621.7404785156</ele>
        <time>2020-07-14T20:17:22.572Z</time>
      </trkpt>
      <trkpt lat="45.10533" lon="2.70036">
        <ele>1622.2443847656</ele>
        <time>2020-07-14T20:17:26.915Z</time>
      </trkpt>
      <trkpt lat="45.10535" lon="2.70039">
        <ele>1622.4123535156</ele>
        <time>2020-07-14T20:17:31.259Z</time>
      </trkpt>
      <trkpt lat="45.10537" lon="2.70044">
        <ele>1622.9162597656</ele>
        <time>2020-07-14T20:17:35.604Z</time>
      </trkpt>
      <trkpt lat="45.10537" lon="2.70046">
        <ele>1623.2521972656</ele>
        <time>2020-07-14T20:17:39.950Z</time>
      </trkpt>
      <trkpt lat="45.10536" lon="2.70048">
        <ele>1623.7561035156</ele>
        <time>2020-07-14T20:17:44.296Z</time>
      </trkpt>
      <trkpt lat="45.10536" lon="2.7005">
        <ele>1624.0921630859</ele>
        <time>2020-07-14T20:17:48.643Z</time>
      </trkpt>
      <trkpt lat="45.10537" lon="2.70054">
        <ele>1624.5960693359</ele>
        <time>2020-07-14T20:17:52.991Z</time>
      </trkpt>
      <trkpt lat="45.10539" lon="2.70059">
        <ele>1625.0999755859</ele>
        <time>2020-07-14T20:17:57.340Z</time>
      </trkpt>
      <trkpt lat="45.10541" lon="2.70067">
        <ele>1626.1077880859</ele>
        <time>2020-07-14T20:18:01.691Z</time>
      </trkpt>
      <trkpt lat="45.10542" lon="2.70076">
        <ele>1627.4515380859</ele>
        <time>2020-07-14T20:18:06.044Z</time>
      </trkpt>
      <trkpt lat="45.10543" lon="2.70078">
        <ele>1627.6195068359</ele>
        <time>2020-07-14T20:18:10.398Z</time>
      </trkpt>
      <trkpt lat="45.10545" lon="2.70083">
        <ele>1628.1785888672</ele>
        <time>2020-07-14T20:18:14.753Z</time>
      </trkpt>
      <trkpt lat="45.10546" lon="2.70088">
        <ele>1629.0284423828</ele>
        <time>2020-07-14T20:18:19.110Z</time>
      </trkpt>
      <trkpt lat="45.10546" lon="2.70096">
        <ele>1630.4224853516</ele>
        <time>2020-07-14T20:18:23.468Z</time>
      </trkpt>
      <trkpt lat="45.10548" lon="2.70107">
        <ele>1632.1141357422</ele>
        <time>2020-07-14T20:18:27.829Z</time>
      </trkpt>
      <trkpt lat="45.1055" lon="2.70112">
        <ele>1632.8699951172</ele>
        <time>2020-07-14T20:18:32.191Z</time>
      </trkpt>
      <trkpt lat="45.10552" lon="2.70118">
        <ele>1633.7818603516</ele>
        <time>2020-07-14T20:18:36.555Z</time>
      </trkpt>
      <trkpt lat="45.10553" lon="2.70123">
        <ele>1634.5498046875</ele>
        <time>2020-07-14T20:18:40.920Z</time>
      </trkpt>
      <trkpt lat="45.10553" lon="2.70127">
        <ele>1635.1737060547</ele>
        <time>2020-07-14T20:18:45.286Z</time>
      </trkpt>
      <trkpt lat="45.10553" lon="2.70134">
        <ele>1636.2655029297</ele>
        <time>2020-07-14T20:18:49.654Z</time>
      </trkpt>
      <trkpt lat="45.10553" lon="2.70139">
        <ele>1637.0452880859</ele>
        <time>2020-07-14T20:18:54.023Z</time>
      </trkpt>
      <trkpt lat="45.10553" lon="2.70144">
        <ele>1637.8251953125</ele>
        <time>2020-07-14T20:18:58.393Z</time>
      </trkpt>
      <trkpt lat="45.10552" lon="2.70151">
        <ele>1638.9290771484</ele>
        <time>2020-07-14T20:19:02.765Z</time>
      </trkpt>
      <trkpt lat="45.10552" lon="2.70157">
        <ele>1639.8648681641</ele>
        <time>2020-07-14T20:19:07.138Z</time>
      </trkpt>
      <trkpt lat="45.10553" lon="2.70165">
        <ele>1641.1007080078</ele>
        <time>2020-07-14T20:19:11.513Z</time>
      </trkpt>
      <trkpt lat="45.10554" lon="2.70173">
        <ele>1642.5856933594</ele>
        <time>2020-07-14T20:19:15.890Z</time>
      </trkpt>
      <trkpt lat="45.10555" lon="2.70181">
        <ele>1644.4934082031</ele>
        <time>2020-07-14T20:19:20.269Z</time>
      </trkpt>
      <trkpt lat="45.10555" lon="2.70188">
        <ele>1645.0151367188</ele>
        <time>2020-07-14T20:19:24.650Z</time>
      </trkpt>
      <trkpt lat="45.10555" lon="2.70196">
        <ele>1645.4949951172</ele>
        <time>2020-07-14T20:19:29.033Z</time>
      </trkpt>
      <trkpt lat="45.10554" lon="2.702">
        <ele>1645.5670166016</ele>
        <time>2020-07-14T20:19:33.417Z</time>
      </trkpt>
      <trkpt lat="45.10554" lon="2.70204">
        <ele>1645.8070068359</ele>
        <time>2020-07-14T20:19:37.802Z</time>
      </trkpt>
      <trkpt lat="45.10552" lon="2.70209">
        <ele>1645.7709960938</ele>
        <time>2020-07-14T20:19:42.188Z</time>
      </trkpt>
      <trkpt lat="45.1055" lon="2.70212">
        <ele>1645.6149902344</ele>
        <time>2020-07-14T20:19:46.575Z</time>
      </trkpt>
      <trkpt lat="45.10549" lon="2.70217">
        <ele>1645.7469482422</ele>
        <time>2020-07-14T20:19:50.963Z</time>
      </trkpt>
      <trkpt lat="45.10548" lon="2.70224">
        <ele>1645.9989013672</ele>
        <time>2020-07-14T20:19:55.353Z</time>
      </trkpt>
      <trkpt lat="45.10548" lon="2.70231">
        <ele>1646.4188232422</ele>
        <time>2020-07-14T20:19:59.744Z</time>
      </trkpt>
      <trkpt lat="45.10547" lon="2.70237">
        <ele>1646.6108398438</ele>
        <time>2020-07-14T20:20:04.137Z</time>
      </trkpt>
      <trkpt lat="45.10548" lon="2.70241">
        <ele>1647.0187988281</ele>
        <time>2020-07-14T20:20:08.531Z</time>
      </trkpt>
      <trkpt lat="45.10547" lon="2.70248">
        <ele>1647.2707519531</ele>
        <time>2020-07-14T20:20:12.927Z</time>
      </trkpt>
      <trkpt lat="45.10548" lon="2.70252">
        <ele>1647.6787109375</ele>
        <time>2020-07-14T20:20:17.324Z</time>
      </trkpt>
      <trkpt lat="45.10548" lon="2.70257">
        <ele>1648.0654296875</ele>
        <time>2020-07-14T20:20:21.722Z</time>
      </trkpt>
      <trkpt lat="45.10548" lon="2.70264">
        <ele>1647.4118652344</ele>
        <time>2020-07-14T20:20:26.121Z</time>
      </trkpt>
      <trkpt lat="45.10545" lon="2.70272">
        <ele>1645.3361816406</ele>
        <time>2020-07-14T20:20:30.523Z</time>
      </trkpt>
      <trkpt lat="45.10543" lon="2.70278">
        <ele>1643.7603759766</ele>
        <time>2020-07-14T20:20:34.926Z</time>
      </trkpt>
      <trkpt lat="45.10541" lon="2.70283">
        <ele>1641.9366455078</ele>
        <time>2020-07-14T20:20:39.330Z</time>
      </trkpt>
      <trkpt lat="45.10541" lon="2.70287">
        <ele>1641.4567871094</ele>
        <time>2020-07-14T20:20:43.735Z</time>
      </trkpt>
      <trkpt lat="45.10541" lon="2.70294">
        <ele>1640.6169433594</ele>
        <time>2020-07-14T20:20:48.142Z</time>
      </trkpt>
      <trkpt lat="45.1054" lon="2.70299">
        <ele>1639.4051513672</ele>
        <time>2020-07-14T20:20:52.550Z</time>
      </trkpt>
      <trkpt lat="45.1054" lon="2.70305">
        <ele>1638.6851806641</ele>
        <time>2020-07-14T20:20:56.960Z</time>
      </trkpt>
      <trkpt lat="45.10539" lon="2.70312">
        <ele>1637.2335205078</ele>
        <time>2020-07-14T20:21:01.371Z</time>
      </trkpt>
      <trkpt lat="45.10539" lon="2.7032">
        <ele>1636.2736816406</ele>
        <time>2020-07-14T20:21:05.784Z</time>
      </trkpt>
      <trkpt lat="45.10539" lon="2.70326">
        <ele>1635.5537109375</ele>
        <time>2020-07-14T20:21:10.199Z</time>
      </trkpt>
      <trkpt lat="45.10539" lon="2.70331">
        <ele>1634.9538574219</ele>
        <time>2020-07-14T20:21:14.615Z</time>
      </trkpt>
      <trkpt lat="45.10541" lon="2.70337">
        <ele>1635.6419677734</ele>
        <time>2020-07-14T20:21:19.032Z</time>
      </trkpt>
      <trkpt lat="45.10543" lon="2.70343">
        <ele>1636.1458740234</ele>
        <time>2020-07-14T20:21:23.451Z</time>
      </trkpt>
      <trkpt lat="45.10544" lon="2.70348">
        <ele>1636.1546630859</ele>
        <time>2020-07-14T20:21:27.871Z</time>
      </trkpt>
      <trkpt lat="45.10548" lon="2.70352">
        <ele>1637.5463867188</ele>
        <time>2020-07-14T20:21:32.293Z</time>
      </trkpt>
      <trkpt lat="45.1055" lon="2.70356">
        <ele>1638.0502929688</ele>
        <time>2020-07-14T20:21:36.716Z</time>
      </trkpt>
      <trkpt lat="45.10553" lon="2.7036">
        <ele>1638.9981689453</ele>
        <time>2020-07-14T20:21:41.140Z</time>
      </trkpt>
      <trkpt lat="45.10556" lon="2.70364">
        <ele>1639.9460449219</ele>
        <time>2020-07-14T20:21:45.566Z</time>
      </trkpt>
      <trkpt lat="45.1056" lon="2.70369">
        <ele>1641.2418212891</ele>
        <time>2020-07-14T20:21:49.994Z</time>
      </trkpt>
      <trkpt lat="45.10564" lon="2.70375">
        <ele>1642.4416503906</ele>
        <time>2020-07-14T20:21:54.424Z</time>
      </trkpt>
      <trkpt lat="45.10565" lon="2.70378">
        <ele>1642.5975341797</ele>
        <time>2020-07-14T20:21:58.854Z</time>
      </trkpt>
      <trkpt lat="45.10567" lon="2.70384">
        <ele>1642.9095458984</ele>
        <time>2020-07-14T20:22:03.286Z</time>
      </trkpt>
      <trkpt lat="45.1057" lon="2.70389">
        <ele>1643.7613525391</ele>
        <time>2020-07-14T20:22:07.719Z</time>
      </trkpt>
      <trkpt lat="45.10571" lon="2.70393">
        <ele>1643.8214111328</ele>
        <time>2020-07-14T20:22:12.153Z</time>
      </trkpt>
      <trkpt lat="45.10575" lon="2.704">
        <ele>1644.9251708984</ele>
        <time>2020-07-14T20:22:16.590Z</time>
      </trkpt>
      <trkpt lat="45.10577" lon="2.70408">
        <ele>1645.0451660156</ele>
        <time>2020-07-14T20:22:21.029Z</time>
      </trkpt>
      <trkpt lat="45.1058" lon="2.70416">
        <ele>1645.6091308594</ele>
        <time>2020-07-14T20:22:25.470Z</time>
      </trkpt>
      <trkpt lat="45.10583" lon="2.70425">
        <ele>1646.431640625</ele>
        <time>2020-07-14T20:22:29.913Z</time>
      </trkpt>
      <trkpt lat="45.10584" lon="2.70431">
        <ele>1646.7315673828</ele>
        <time>2020-07-14T20:22:34.357Z</time>
      </trkpt>
      <trkpt lat="45.10585" lon="2.70437">
        <ele>1647.0314941406</ele>
        <time>2020-07-14T20:22:38.803Z</time>
      </trkpt>
      <trkpt lat="45.10587" lon="2.70443">
        <ele>1647.775390625</ele>
        <time>2020-07-14T20:22:43.250Z</time>
      </trkpt>
      <trkpt lat="45.10587" lon="2.70447">
        <ele>1647.6793212891</ele>
        <time>2020-07-14T20:22:47.698Z</time>
      </trkpt>
      <trkpt lat="45.10587" lon="2.70453">
        <ele>1647.5354003906</ele>
        <time>2020-07-14T20:22:52.148Z</time>
      </trkpt>
      <trkpt lat="45.10586" lon="2.70458">
        <ele>1646.9714355469</ele>
        <time>2020-07-14T20:22:56.599Z</time>
      </trkpt>
      <trkpt lat="45.10585" lon="2.70468">
        <ele>1645.3671875</ele>
        <time>2020-07-14T20:23:01.052Z</time>
      </trkpt>
      <trkpt lat="45.10586" lon="2.7047">
        <ele>1645.619140625</ele>
        <time>2020-07-14T20:23:05.506Z</time>
      </trkpt>
      <trkpt lat="45.10586" lon="2.70478">
        <ele>1644.275390625</ele>
        <time>2020-07-14T20:23:09.962Z</time>
      </trkpt>
      <trkpt lat="45.10587" lon="2.70483">
        <ele>1644.0234375</ele>
        <time>2020-07-14T20:23:14.419Z</time>
      </trkpt>
      <trkpt lat="45.10588" lon="2.7049">
        <ele>1643.435546875</ele>
        <time>2020-07-14T20:23:18.878Z</time>
      </trkpt>
      <trkpt lat="45.10589" lon="2.70498">
        <ele>1642.6796875</ele>
        <time>2020-07-14T20:23:23.339Z</time>
      </trkpt>
      <trkpt lat="45.10589" lon="2.70507">
        <ele>1640.7385253906</ele>
        <time>2020-07-14T20:23:27.802Z</time>
      </trkpt>
      <trkpt lat="45.10588" lon="2.70509">
        <ele>1639.5748291016</ele>
        <time>2020-07-14T20:23:32.265Z</time>
      </trkpt>
      <trkpt lat="45.10588" lon="2.70513">
        <ele>1638.4229736328</ele>
        <time>2020-07-14T20:23:36.729Z</time>
      </trkpt>
      <trkpt lat="45.10587" lon="2.70517">
        <ele>1636.6832275391</ele>
        <time>2020-07-14T20:23:41.194Z</time>
      </trkpt>
      <trkpt lat="45.10587" lon="2.70521">
        <ele>1635.5314941406</ele>
        <time>2020-07-14T20:23:45.660Z</time>
      </trkpt>
      <trkpt lat="45.10587" lon="2.70527">
        <ele>1633.8037109375</ele>
        <time>2020-07-14T20:23:50.128Z</time>
      </trkpt>
      <trkpt lat="45.10587" lon="2.7053">
        <ele>1632.9399414062</ele>
        <time>2020-07-14T20:23:54.596Z</time>
      </trkpt>
      <trkpt lat="45.10585" lon="2.70537">
        <ele>1629.7484130859</ele>
        <time>2020-07-14T20:23:59.066Z</time>
      </trkpt>
      <trkpt lat="45.10585" lon="2.70541">
        <ele>1628.5965576172</ele>
        <time>2020-07-14T20:24:03.537Z</time>
      </trkpt>
      <trkpt lat="45.10585" lon="2.70549">
        <ele>1626.6326904297</ele>
        <time>2020-07-14T20:24:08.010Z</time>
      </trkpt>
      <trkpt lat="45.10585" lon="2.70557">
        <ele>1625.0009765625</ele>
        <time>2020-07-14T20:24:12.485Z</time>
      </trkpt>
      <trkpt lat="45.10586" lon="2.70569">
        <ele>1623.0573730469</ele>
        <time>2020-07-14T20:24:16.963Z</time>
      </trkpt>
      <trkpt lat="45.10587" lon="2.70576">
        <ele>1622.1335449219</ele>
        <time>2020-07-14T20:24:21.443Z</time>
      </trkpt>
      <trkpt lat="45.10588" lon="2.70579">
        <ele>1622.0255126953</ele>
        <time>2020-07-14T20:24:25.923Z</time>
      </trkpt>
      <trkpt lat="45.10589" lon="2.70584">
        <ele>1621.5096435547</ele>
        <time>2020-07-14T20:24:30.405Z</time>
      </trkpt>
      <trkpt lat="45.10595" lon="2.70594">
        <ele>1621.0185546875</ele>
        <time>2020-07-14T20:24:34.890Z</time>
      </trkpt>
      <trkpt lat="45.10597" lon="2.70597">
        <ele>1620.8024902344</ele>
        <time>2020-07-14T20:24:39.376Z</time>
      </trkpt>
      <trkpt lat="45.106" lon="2.706">
        <ele>1621.0904541016</ele>
        <time>2020-07-14T20:24:43.863Z</time>
      </trkpt>
      <trkpt lat="45.10602" lon="2.70602">
        <ele>1621.2824707031</ele>
        <time>2020-07-14T20:24:48.351Z</time>
      </trkpt>
      <trkpt lat="45.10605" lon="2.70606">
        <ele>1621.1624755859</ele>
        <time>2020-07-14T20:24:52.840Z</time>
      </trkpt>
      <trkpt lat="45.10606" lon="2.7061">
        <ele>1620.0346679688</ele>
        <time>2020-07-14T20:24:57.330Z</time>
      </trkpt>
      <trkpt lat="45.10607" lon="2.70616">
        <ele>1618.0909423828</ele>
        <time>2020-07-14T20:25:01.821Z</time>
      </trkpt>
      <trkpt lat="45.10608" lon="2.70621">
        <ele>1616.5552978516</ele>
        <time>2020-07-14T20:25:06.314Z</time>
      </trkpt>
      <trkpt lat="45.10609" lon="2.70624">
        <ele>1615.8353271484</ele>
        <time>2020-07-14T20:25:10.807Z</time>
      </trkpt>
      <trkpt lat="45.10611" lon="2.70627">
        <ele>1615.6193847656</ele>
        <time>2020-07-14T20:25:15.301Z</time>
      </trkpt>
      <trkpt lat="45.10614" lon="2.70633">
        <ele>1614.68359375</ele>
        <time>2020-07-14T20:25:19.797Z</time>
      </trkpt>
      <trkpt lat="45.10617" lon="2.70637">
        <ele>1614.5635986328</ele>
        <time>2020-07-14T20:25:24.295Z</time>
      </trkpt>
      <trkpt lat="45.10621" lon="2.70639">
        <ele>1615.7634277344</ele>
        <time>2020-07-14T20:25:28.794Z</time>
      </trkpt>
      <trkpt lat="45.10623" lon="2.70642">
        <ele>1615.5473632812</ele>
        <time>2020-07-14T20:25:33.294Z</time>
      </trkpt>
      <trkpt lat="45.10626" lon="2.70643">
        <ele>1616.6512451172</ele>
        <time>2020-07-14T20:25:37.795Z</time>
      </trkpt>
      <trkpt lat="45.10631" lon="2.70646">
        <ele>1618.4995117188</ele>
        <time>2020-07-14T20:25:42.298Z</time>
      </trkpt>
      <trkpt lat="45.10636" lon="2.70649">
        <ele>1620.455078125</ele>
        <time>2020-07-14T20:25:46.803Z</time>
      </trkpt>
      <trkpt lat="45.10639" lon="2.70652">
        <ele>1621.1390380859</ele>
        <time>2020-07-14T20:25:51.309Z</time>
      </trkpt>
      <trkpt lat="45.10641" lon="2.70655">
        <ele>1621.1870117188</ele>
        <time>2020-07-14T20:25:55.816Z</time>
      </trkpt>
      <trkpt lat="45.10644" lon="2.70659">
        <ele>1621.4630126953</ele>
        <time>2020-07-14T20:26:00.324Z</time>
      </trkpt>
      <trkpt lat="45.10647" lon="2.70662">
        <ele>1622.1468505859</ele>
        <time>2020-07-14T20:26:04.833Z</time>
      </trkpt>
      <trkpt lat="45.10651" lon="2.70664">
        <ele>1623.8745117188</ele>
        <time>2020-07-14T20:26:09.344Z</time>
      </trkpt>
      <trkpt lat="45.10653" lon="2.70666">
        <ele>1624.3304443359</ele>
        <time>2020-07-14T20:26:13.856Z</time>
      </trkpt>
      <trkpt lat="45.10654" lon="2.70669">
        <ele>1623.7425537109</ele>
        <time>2020-07-14T20:26:18.368Z</time>
      </trkpt>
      <trkpt lat="45.10656" lon="2.70673">
        <ele>1623.6594238281</ele>
        <time>2020-07-14T20:26:22.882Z</time>
      </trkpt>
      <trkpt lat="45.10658" lon="2.70676">
        <ele>1623.9953613281</ele>
        <time>2020-07-14T20:26:27.397Z</time>
      </trkpt>
      <trkpt lat="45.10661" lon="2.70678">
        <ele>1625.2791748047</ele>
        <time>2020-07-14T20:26:31.913Z</time>
      </trkpt>
      <trkpt lat="45.10665" lon="2.70679">
        <ele>1627.5108642578</ele>
        <time>2020-07-14T20:26:36.430Z</time>
      </trkpt>
      <trkpt lat="45.10667" lon="2.70682">
        <ele>1627.8468017578</ele>
        <time>2020-07-14T20:26:40.948Z</time>
      </trkpt>
      <trkpt lat="45.10668" lon="2.70686">
        <ele>1627.2348632812</ele>
        <time>2020-07-14T20:26:45.467Z</time>
      </trkpt>
      <trkpt lat="45.1067" lon="2.70688">
        <ele>1627.8828125</ele>
        <time>2020-07-14T20:26:49.987Z</time>
      </trkpt>
      <trkpt lat="45.10674" lon="2.70696">
        <ele>1627.9307861328</ele>
        <time>2020-07-14T20:26:54.509Z</time>
      </trkpt>
      <trkpt lat="45.10676" lon="2.70699">
        <ele>1628.2667236328</ele>
        <time>2020-07-14T20:26:59.032Z</time>
      </trkpt>
      <trkpt lat="45.10676" lon="2.70702">
        <ele>1627.3308105469</ele>
        <time>2020-07-14T20:27:03.556Z</time>
      </trkpt>
      <trkpt lat="45.10677" lon="2.70705">
        <ele>1627.0308837891</ele>
        <time>2020-07-14T20:27:08.081Z</time>
      </trkpt>
      <trkpt lat="45.10678" lon="2.70708">
        <ele>1626.7309570312</ele>
        <time>2020-07-14T20:27:12.606Z</time>
      </trkpt>
      <trkpt lat="45.10679" lon="2.70713">
        <ele>1625.8071289062</ele>
        <time>2020-07-14T20:27:17.133Z</time>
      </trkpt>
      <trkpt lat="45.1068" lon="2.70716">
        <ele>1625.5072021484</ele>
        <time>2020-07-14T20:27:21.660Z</time>
      </trkpt>
      <trkpt lat="45.10681" lon="2.70719">
        <ele>1625.2071533203</ele>
        <time>2020-07-14T20:27:26.188Z</time>
      </trkpt>
      <trkpt lat="45.10683" lon="2.70722">
        <ele>1625.5432128906</ele>
        <time>2020-07-14T20:27:30.717Z</time>
      </trkpt>
      <trkpt lat="45.10684" lon="2.70725">
        <ele>1625.2431640625</ele>
        <time>2020-07-14T20:27:35.247Z</time>
      </trkpt>
      <trkpt lat="45.10685" lon="2.7073">
        <ele>1624.4620361328</ele>
        <time>2020-07-14T20:27:39.778Z</time>
      </trkpt>
      <trkpt lat="45.10686" lon="2.70736">
        <ele>1623.6461181641</ele>
        <time>2020-07-14T20:27:44.311Z</time>
      </trkpt>
      <trkpt lat="45.10687" lon="2.70742">
        <ele>1622.8302001953</ele>
        <time>2020-07-14T20:27:48.845Z</time>
      </trkpt>
      <trkpt lat="45.10687" lon="2.70747">
        <ele>1621.6904296875</ele>
        <time>2020-07-14T20:27:53.380Z</time>
      </trkpt>
      <trkpt lat="45.10687" lon="2.7075">
        <ele>1621.0065917969</ele>
        <time>2020-07-14T20:27:57.916Z</time>
      </trkpt>
      <trkpt lat="45.10689" lon="2.70756">
        <ele>1621.2296142578</ele>
        <time>2020-07-14T20:28:02.453Z</time>
      </trkpt>
      <trkpt lat="45.10689" lon="2.70763">
        <ele>1620.9776611328</ele>
        <time>2020-07-14T20:28:06.992Z</time>
      </trkpt>
      <trkpt lat="45.1069" lon="2.70768">
        <ele>1621.349609375</ele>
        <time>2020-07-14T20:28:11.532Z</time>
      </trkpt>
      <trkpt lat="45.10692" lon="2.70774">
        <ele>1622.2374267578</ele>
        <time>2020-07-14T20:28:16.074Z</time>
      </trkpt>
      <trkpt lat="45.10693" lon="2.7078">
        <ele>1622.5733642578</ele>
        <time>2020-07-14T20:28:20.617Z</time>
      </trkpt>
      <trkpt lat="45.10693" lon="2.70785">
        <ele>1622.3934326172</ele>
        <time>2020-07-14T20:28:25.162Z</time>
      </trkpt>
      <trkpt lat="45.10695" lon="2.70794">
        <ele>1623.1732177734</ele>
        <time>2020-07-14T20:28:29.709Z</time>
      </trkpt>
      <trkpt lat="45.10695" lon="2.70797">
        <ele>1623.0653076172</ele>
        <time>2020-07-14T20:28:34.257Z</time>
      </trkpt>
      <trkpt lat="45.10694" lon="2.70801">
        <ele>1622.3693847656</ele>
        <time>2020-07-14T20:28:38.806Z</time>
      </trkpt>
      <trkpt lat="45.10692" lon="2.70807">
        <ele>1621.0495605469</ele>
        <time>2020-07-14T20:28:43.356Z</time>
      </trkpt>
      <trkpt lat="45.10689" lon="2.70813">
        <ele>1619.1779785156</ele>
        <time>2020-07-14T20:28:47.908Z</time>
      </trkpt>
      <trkpt lat="45.10689" lon="2.70818">
        <ele>1618.8569335938</ele>
        <time>2020-07-14T20:28:52.461Z</time>
      </trkpt>
      <trkpt lat="45.10689" lon="2.70822">
        <ele>1618.4730224609</ele>
        <time>2020-07-14T20:28:57.015Z</time>
      </trkpt>
      <trkpt lat="45.10689" lon="2.70824">
        <ele>1618.2810058594</ele>
        <time>2020-07-14T20:29:01.569Z</time>
      </trkpt>
      <trkpt lat="45.10692" lon="2.7083">
        <ele>1619.5407714844</ele>
        <time>2020-07-14T20:29:06.125Z</time>
      </trkpt>
      <trkpt lat="45.10693" lon="2.70835">
        <ele>1619.6728515625</ele>
        <time>2020-07-14T20:29:10.682Z</time>
      </trkpt>
      <trkpt lat="45.10696" lon="2.70842">
        <ele>1621.5837402344</ele>
        <time>2020-07-14T20:29:15.241Z</time>
      </trkpt>
      <trkpt lat="45.10698" lon="2.70846">
        <ele>1622.9995117188</ele>
        <time>2020-07-14T20:29:19.801Z</time>
      </trkpt>
      <trkpt lat="45.10699" lon="2.70849">
        <ele>1623.7553710938</ele>
        <time>2020-07-14T20:29:24.362Z</time>
      </trkpt>
      <trkpt lat="45.10698" lon="2.70855">
        <ele>1623.4315185547</ele>
        <time>2020-07-14T20:29:28.925Z</time>
      </trkpt>
      <trkpt lat="45.10697" lon="2.70861">
        <ele>1623.1075439453</ele>
        <time>2020-07-14T20:29:33.489Z</time>
      </trkpt>
      <trkpt lat="45.10697" lon="2.70864">
        <ele>1623.2514648438</ele>
        <time>2020-07-14T20:29:38.054Z</time>
      </trkpt>
      <trkpt lat="45.10696" lon="2.70869">
        <ele>1622.8795166016</ele>
        <time>2020-07-14T20:29:42.620Z</time>
      </trkpt>
      <trkpt lat="45.10695" lon="2.70873">
        <ele>1622.4595947266</ele>
        <time>2020-07-14T20:29:47.187Z</time>
      </trkpt>
      <trkpt lat="45.10694" lon="2.70877">
        <ele>1622.0396728516</ele>
        <time>2020-07-14T20:29:51.755Z</time>
      </trkpt>
      <trkpt lat="45.10691" lon="2.70881">
        <ele>1620.3959960938</ele>
        <time>2020-07-14T20:29:56.324Z</time>
      </trkpt>
      <trkpt lat="45.10688" lon="2.70885">
        <ele>1618.7521972656</ele>
        <time>2020-07-14T20:30:00.895Z</time>
      </trkpt>
      <trkpt lat="45.10687" lon="2.70889">
        <ele>1618.3322753906</ele>
        <time>2020-07-14T20:30:05.467Z</time>
      </trkpt>
      <trkpt lat="45.10685" lon="2.70897">
        <ele>1617.4202880859</ele>
        <time>2020-07-14T20:30:10.041Z</time>
      </trkpt>
      <trkpt lat="45.10683" lon="2.70903">
        <ele>1616.1965332031</ele>
        <time>2020-07-14T20:30:14.616Z</time>
      </trkpt>
      <trkpt lat="45.10679" lon="2.70911">
        <ele>1613.7009277344</ele>
        <time>2020-07-14T20:30:19.194Z</time>
      </trkpt>
      <trkpt lat="45.10677" lon="2.70916">
        <ele>1612.4652099609</ele>
        <time>2020-07-14T20:30:23.773Z</time>
      </trkpt>
      <trkpt lat="45.10672" lon="2.70924">
        <ele>1608.9528808594</ele>
        <time>2020-07-14T20:30:28.355Z</time>
      </trkpt>
      <trkpt lat="45.10671" lon="2.70927">
        <ele>1608.0529785156</ele>
        <time>2020-07-14T20:30:32.937Z</time>
      </trkpt>
      <trkpt lat="45.10671" lon="2.70931">
        <ele>1607.7170410156</ele>
        <time>2020-07-14T20:30:37.520Z</time>
      </trkpt>
      <trkpt lat="45.10672" lon="2.70937">
        <ele>1607.8610839844</ele>
        <time>2020-07-14T20:30:42.105Z</time>
      </trkpt>
      <trkpt lat="45.10676" lon="2.70945">
        <ele>1609.7807617188</ele>
        <time>2020-07-14T20:30:46.692Z</time>
      </trkpt>
      <trkpt lat="45.1068" lon="2.70952">
        <ele>1611.7844238281</ele>
        <time>2020-07-14T20:30:51.281Z</time>
      </trkpt>
      <trkpt lat="45.10685" lon="2.70962">
        <ele>1614.1839599609</ele>
        <time>2020-07-14T20:30:55.873Z</time>
      </trkpt>
      <trkpt lat="45.10687" lon="2.70976">
        <ele>1614.3039550781</ele>
        <time>2020-07-14T20:31:00.468Z</time>
      </trkpt>
      <trkpt lat="45.10688" lon="2.70983">
        <ele>1614.4633789062</ele>
        <time>2020-07-14T20:31:05.065Z</time>
      </trkpt>
      <trkpt lat="45.10691" lon="2.70989">
        <ele>1616.0831298828</ele>
        <time>2020-07-14T20:31:09.664Z</time>
      </trkpt>
      <trkpt lat="45.10692" lon="2.70992">
        <ele>1616.5989990234</ele>
        <time>2020-07-14T20:31:14.264Z</time>
      </trkpt>
      <trkpt lat="45.10691" lon="2.70996">
        <ele>1615.9151611328</ele>
        <time>2020-07-14T20:31:18.865Z</time>
      </trkpt>
      <trkpt lat="45.10689" lon="2.7101">
        <ele>1614.9488525391</ele>
        <time>2020-07-14T20:31:23.469Z</time>
      </trkpt>
      <trkpt lat="45.1069" lon="2.71016">
        <ele>1615.8967285156</ele>
        <time>2020-07-14T20:31:28.075Z</time>
      </trkpt>
      <trkpt lat="45.10689" lon="2.7102">
        <ele>1615.5487060547</ele>
        <time>2020-07-14T20:31:32.682Z</time>
      </trkpt>
      <trkpt lat="45.10687" lon="2.71024">
        <ele>1614.6129150391</ele>
        <time>2020-07-14T20:31:37.290Z</time>
      </trkpt>
      <trkpt lat="45.10686" lon="2.71032">
        <ele>1614.5048828125</ele>
        <time>2020-07-14T20:31:41.900Z</time>
      </trkpt>
      <trkpt lat="45.10684" lon="2.7104">
        <ele>1613.8090820312</ele>
        <time>2020-07-14T20:31:46.512Z</time>
      </trkpt>
      <trkpt lat="45.10684" lon="2.71045">
        <ele>1614.1090087891</ele>
        <time>2020-07-14T20:31:51.125Z</time>
      </trkpt>
      <trkpt lat="45.10682" lon="2.71048">
        <ele>1613.1131591797</ele>
        <time>2020-07-14T20:31:55.739Z</time>
      </trkpt>
      <trkpt lat="45.10679" lon="2.71052">
        <ele>1611.5894775391</ele>
        <time>2020-07-14T20:32:00.354Z</time>
      </trkpt>
      <trkpt lat="45.10677" lon="2.71058">
        <ele>1611.0837402344</ele>
        <time>2020-07-14T20:32:04.971Z</time>
      </trkpt>
      <trkpt lat="45.10674" lon="2.71063">
        <ele>1610.1959228516</ele>
        <time>2020-07-14T20:32:09.589Z</time>
      </trkpt>
      <trkpt lat="45.10668" lon="2.71068">
        <ele>1607.7603759766</ele>
        <time>2020-07-14T20:32:14.210Z</time>
      </trkpt>
      <trkpt lat="45.1066" lon="2.71074">
        <ele>1604.4249267578</ele>
        <time>2020-07-14T20:32:18.834Z</time>
      </trkpt>
      <trkpt lat="45.10656" lon="2.71078">
        <ele>1602.8891601562</ele>
        <time>2020-07-14T20:32:23.459Z</time>
      </trkpt>
      <trkpt lat="45.10652" lon="2.71086">
        <ele>1601.8813476562</ele>
        <time>2020-07-14T20:32:28.087Z</time>
      </trkpt>
      <trkpt lat="45.10646" lon="2.71094">
        <ele>1600.2705078125</ele>
        <time>2020-07-14T20:32:32.717Z</time>
      </trkpt>
      <trkpt lat="45.1064" lon="2.711">
        <ele>1598.3267822266</ele>
        <time>2020-07-14T20:32:37.350Z</time>
      </trkpt>
      <trkpt lat="45.10636" lon="2.71104">
        <ele>1598.0817871094</ele>
        <time>2020-07-14T20:32:41.984Z</time>
      </trkpt>
      <trkpt lat="45.1063" lon="2.71108">
        <ele>1597.0739746094</ele>
        <time>2020-07-14T20:32:46.621Z</time>
      </trkpt>
      <trkpt lat="45.10622" lon="2.71112">
        <ele>1594.9516601562</ele>
        <time>2020-07-14T20:32:51.260Z</time>
      </trkpt>
      <trkpt lat="45.10617" lon="2.71115">
        <ele>1593.6439208984</ele>
        <time>2020-07-14T20:32:55.901Z</time>
      </trkpt>
      <trkpt lat="45.10612" lon="2.71121">
        <ele>1593.3079833984</ele>
        <time>2020-07-14T20:33:00.544Z</time>
      </trkpt>
      <trkpt lat="45.10608" lon="2.71121">
        <ele>1591.4842529297</ele>
        <time>2020-07-14T20:33:05.189Z</time>
      </trkpt>
      <trkpt lat="45.10604" lon="2.71124">
        <ele>1590.6324462891</ele>
        <time>2020-07-14T20:33:09.835Z</time>
      </trkpt>
      <trkpt lat="45.10602" lon="2.71129">
        <ele>1591.3403320312</ele>
        <time>2020-07-14T20:33:14.483Z</time>
      </trkpt>
      <trkpt lat="45.10599" lon="2.71132">
        <ele>1590.9443359375</ele>
        <time>2020-07-14T20:33:19.132Z</time>
      </trkpt>
      <trkpt lat="45.10593" lon="2.71139">
        <ele>1590.3823242188</ele>
        <time>2020-07-14T20:33:23.783Z</time>
      </trkpt>
      <trkpt lat="45.10589" lon="2.71145">
        <ele>1590.1423339844</ele>
        <time>2020-07-14T20:33:28.436Z</time>
      </trkpt>
      <trkpt lat="45.10588" lon="2.71155">
        <ele>1592.5300292969</ele>
        <time>2020-07-14T20:33:33.092Z</time>
      </trkpt>
      <trkpt lat="45.10586" lon="2.71164">
        <ele>1594.1376953125</ele>
        <time>2020-07-14T20:33:37.750Z</time>
      </trkpt>
      <trkpt lat="45.10584" lon="2.71171">
        <ele>1595.1214599609</ele>
        <time>2020-07-14T20:33:42.410Z</time>
      </trkpt>
      <trkpt lat="45.1058" lon="2.71176">
        <ele>1594.2937011719</ele>
        <time>2020-07-14T20:33:47.072Z</time>
      </trkpt>
      <trkpt lat="45.1058" lon="2.71181">
        <ele>1595.4334716797</ele>
        <time>2020-07-14T20:33:51.735Z</time>
      </trkpt>
      <trkpt lat="45.10579" lon="2.71184">
        <ele>1595.6253662109</ele>
        <time>2020-07-14T20:33:56.399Z</time>
      </trkpt>
      <trkpt lat="45.10575" lon="2.71187">
        <ele>1594.3416748047</ele>
        <time>2020-07-14T20:34:01.064Z</time>
      </trkpt>
      <trkpt lat="45.10573" lon="2.71189">
        <ele>1593.8137207031</ele>
        <time>2020-07-14T20:34:05.730Z</time>
      </trkpt>
      <trkpt lat="45.1057" lon="2.71197">
        <ele>1594.1552734375</ele>
        <time>2020-07-14T20:34:10.398Z</time>
      </trkpt>
      <trkpt lat="45.10565" lon="2.71203">
        <ele>1592.7994384766</ele>
        <time>2020-07-14T20:34:15.068Z</time>
      </trkpt>
      <trkpt lat="45.10561" lon="2.71207">
        <ele>1591.5516357422</ele>
        <time>2020-07-14T20:34:19.740Z</time>
      </trkpt>
      <trkpt lat="45.10558" lon="2.71208">
        <ele>1590.2078857422</ele>
        <time>2020-07-14T20:34:24.413Z</time>
      </trkpt>
      <trkpt lat="45.10552" lon="2.7121">
        <ele>1587.5203857422</ele>
        <time>2020-07-14T20:34:29.088Z</time>
      </trkpt>
      <trkpt lat="45.1055" lon="2.71212">
        <ele>1586.896484375</ele>
        <time>2020-07-14T20:34:33.764Z</time>
      </trkpt>
      <trkpt lat="45.10547" lon="2.71216">
        <ele>1586.1645507812</ele>
        <time>2020-07-14T20:34:38.441Z</time>
      </trkpt>
      <trkpt lat="45.10546" lon="2.71224">
        <ele>1587.2803955078</ele>
        <time>2020-07-14T20:34:43.120Z</time>
      </trkpt>
      <trkpt lat="45.10541" lon="2.71233">
        <ele>1586.3885498047</ele>
        <time>2020-07-14T20:34:47.802Z</time>
      </trkpt>
      <trkpt lat="45.10539" lon="2.71238">
        <ele>1586.2565917969</ele>
        <time>2020-07-14T20:34:52.485Z</time>
      </trkpt>
      <trkpt lat="45.10535" lon="2.71248">
        <ele>1585.9575195312</ele>
        <time>2020-07-14T20:34:57.171Z</time>
      </trkpt>
      <trkpt lat="45.10533" lon="2.71255">
        <ele>1585.9686279297</ele>
        <time>2020-07-14T20:35:01.859Z</time>
      </trkpt>
      <trkpt lat="45.10529" lon="2.71263">
        <ele>1584.2888183594</ele>
        <time>2020-07-14T20:35:06.549Z</time>
      </trkpt>
      <trkpt lat="45.10527" lon="2.7127">
        <ele>1583.7009277344</ele>
        <time>2020-07-14T20:35:11.241Z</time>
      </trkpt>
      <trkpt lat="45.10524" lon="2.71276">
        <ele>1582.4411621094</ele>
        <time>2020-07-14T20:35:15.934Z</time>
      </trkpt>
      <trkpt lat="45.1052" lon="2.71279">
        <ele>1580.3415527344</ele>
        <time>2020-07-14T20:35:20.629Z</time>
      </trkpt>
      <trkpt lat="45.10516" lon="2.71285">
        <ele>1578.4937744141</ele>
        <time>2020-07-14T20:35:25.326Z</time>
      </trkpt>
      <trkpt lat="45.10512" lon="2.71289">
        <ele>1576.4781494141</ele>
        <time>2020-07-14T20:35:30.024Z</time>
      </trkpt>
      <trkpt lat="45.10508" lon="2.71294">
        <ele>1574.5465087891</ele>
        <time>2020-07-14T20:35:34.724Z</time>
      </trkpt>
      <trkpt lat="45.10504" lon="2.71305">
        <ele>1574.6633300781</ele>
        <time>2020-07-14T20:35:39.427Z</time>
      </trkpt>
      <trkpt lat="45.10501" lon="2.71308">
        <ele>1574.3754882812</ele>
        <time>2020-07-14T20:35:44.131Z</time>
      </trkpt>
      <trkpt lat="45.10496" lon="2.71312">
        <ele>1573.6075439453</ele>
        <time>2020-07-14T20:35:48.837Z</time>
      </trkpt>
      <trkpt lat="45.10492" lon="2.71314">
        <ele>1572.6477050781</ele>
        <time>2020-07-14T20:35:53.545Z</time>
      </trkpt>
      <trkpt lat="45.10485" lon="2.71317">
        <ele>1570.8239746094</ele>
        <time>2020-07-14T20:35:58.255Z</time>
      </trkpt>
      <trkpt lat="45.1048" lon="2.71319">
        <ele>1569.4802246094</ele>
        <time>2020-07-14T20:36:02.967Z</time>
      </trkpt>
      <trkpt lat="45.10475" lon="2.71323">
        <ele>1568.7124023438</ele>
        <time>2020-07-14T20:36:07.681Z</time>
      </trkpt>
      <trkpt lat="45.10469" lon="2.71324">
        <ele>1566.6966552734</ele>
        <time>2020-07-14T20:36:12.397Z</time>
      </trkpt>
      <trkpt lat="45.1046" lon="2.71325">
        <ele>1563.5249023438</ele>
        <time>2020-07-14T20:36:17.116Z</time>
      </trkpt>
      <trkpt lat="45.10452" lon="2.71328">
        <ele>1561.029296875</ele>
        <time>2020-07-14T20:36:21.838Z</time>
      </trkpt>
      <trkpt lat="45.10445" lon="2.7133">
        <ele>1558.0736083984</ele>
        <time>2020-07-14T20:36:26.562Z</time>
      </trkpt>
      <trkpt lat="45.10442" lon="2.71333">
        <ele>1557.2457275391</ele>
        <time>2020-07-14T20:36:31.287Z</time>
      </trkpt>
      <trkpt lat="45.1044" lon="2.71336">
        <ele>1556.9097900391</ele>
        <time>2020-07-14T20:36:36.013Z</time>
      </trkpt>
      <trkpt lat="45.1044" lon="2.71342">
        <ele>1557.2866210938</ele>
        <time>2020-07-14T20:36:40.741Z</time>
      </trkpt>
      <trkpt lat="45.10437" lon="2.71351">
        <ele>1556.134765625</ele>
        <time>2020-07-14T20:36:45.471Z</time>
      </trkpt>
      <trkpt lat="45.10436" lon="2.7136">
        <ele>1555.966796875</ele>
        <time>2020-07-14T20:36:50.203Z</time>
      </trkpt>
      <trkpt lat="45.10436" lon="2.71364">
        <ele>1556.1107177734</ele>
        <time>2020-07-14T20:36:54.936Z</time>
      </trkpt>
      <trkpt lat="45.10436" lon="2.71367">
        <ele>1556.21875</ele>
        <time>2020-07-14T20:36:59.670Z</time>
      </trkpt>
      <trkpt lat="45.10436" lon="2.71373">
        <ele>1556.4346923828</ele>
        <time>2020-07-14T20:37:04.405Z</time>
      </trkpt>
      <trkpt lat="45.10436" lon="2.71381">
        <ele>1556.72265625</ele>
        <time>2020-07-14T20:37:09.142Z</time>
      </trkpt>
      <trkpt lat="45.10436" lon="2.7139">
        <ele>1557.0466308594</ele>
        <time>2020-07-14T20:37:13.881Z</time>
      </trkpt>
      <trkpt lat="45.10437" lon="2.71402">
        <ele>1558.1461181641</ele>
        <time>2020-07-14T20:37:18.623Z</time>
      </trkpt>
      <trkpt lat="45.10438" lon="2.7141">
        <ele>1559.1778564453</ele>
        <time>2020-07-14T20:37:23.367Z</time>
      </trkpt>
      <trkpt lat="45.10438" lon="2.71418">
        <ele>1559.7537841797</ele>
        <time>2020-07-14T20:37:28.113Z</time>
      </trkpt>
      <trkpt lat="45.10438" lon="2.71426">
        <ele>1558.3950195312</ele>
        <time>2020-07-14T20:37:32.861Z</time>
      </trkpt>
      <trkpt lat="45.10442" lon="2.71441">
        <ele>1556.2593994141</ele>
        <time>2020-07-14T20:37:37.612Z</time>
      </trkpt>
      <trkpt lat="45.10441" lon="2.71454">
        <ele>1552.3719482422</ele>
        <time>2020-07-14T20:37:42.367Z</time>
      </trkpt>
      <trkpt lat="45.1044" lon="2.71468">
        <ele>1548.220703125</ele>
        <time>2020-07-14T20:37:47.125Z</time>
      </trkpt>
      <trkpt lat="45.10437" lon="2.71477">
        <ele>1544.4772949219</ele>
        <time>2020-07-14T20:37:51.885Z</time>
      </trkpt>
      <trkpt lat="45.10434" lon="2.71489">
        <ele>1542.9858398438</ele>
        <time>2020-07-14T20:37:56.648Z</time>
      </trkpt>
      <trkpt lat="45.10432" lon="2.71499">
        <ele>1542.6019287109</ele>
        <time>2020-07-14T20:38:01.414Z</time>
      </trkpt>
      <trkpt lat="45.10428" lon="2.7151">
        <ele>1538.9107666016</ele>
        <time>2020-07-14T20:38:06.183Z</time>
      </trkpt>
      <trkpt lat="45.10425" lon="2.71522">
        <ele>1532.8637695312</ele>
        <time>2020-07-14T20:38:10.955Z</time>
      </trkpt>
      <trkpt lat="45.10422" lon="2.71531">
        <ele>1528.1845703125</ele>
        <time>2020-07-14T20:38:15.729Z</time>
      </trkpt>
      <trkpt lat="45.10418" lon="2.71543">
        <ele>1521.9455566406</ele>
        <time>2020-07-14T20:38:20.506Z</time>
      </trkpt>
      <trkpt lat="45.10413" lon="2.71551">
        <ele>1521.6323242188</ele>
        <time>2020-07-14T20:38:25.286Z</time>
      </trkpt>
      <trkpt lat="45.10409" lon="2.71558">
        <ele>1521.8963623047</ele>
        <time>2020-07-14T20:38:30.068Z</time>
      </trkpt>
      <trkpt lat="45.10406" lon="2.71567">
        <ele>1521.8243408203</ele>
        <time>2020-07-14T20:38:34.852Z</time>
      </trkpt>
      <trkpt lat="45.10404" lon="2.71575">
        <ele>1521.6323242188</ele>
        <time>2020-07-14T20:38:39.638Z</time>
      </trkpt>
      <trkpt lat="45.10401" lon="2.71581">
        <ele>1521.7763671875</ele>
        <time>2020-07-14T20:38:44.426Z</time>
      </trkpt>
      <trkpt lat="45.10399" lon="2.71585">
        <ele>1521.8723144531</ele>
        <time>2020-07-14T20:38:49.215Z</time>
      </trkpt>
      <trkpt lat="45.10395" lon="2.71594">
        <ele>1519.8732910156</ele>
        <time>2020-07-14T20:38:54.007Z</time>
      </trkpt>
      <trkpt lat="45.10386" lon="2.716">
        <ele>1519.7376708984</ele>
        <time>2020-07-14T20:38:58.802Z</time>
      </trkpt>
      <trkpt lat="45.10379" lon="2.71605">
        <ele>1520.3735351562</ele>
        <time>2020-07-14T20:39:03.599Z</time>
      </trkpt>
      <trkpt lat="45.10372" lon="2.71608">
        <ele>1519.9008789062</ele>
        <time>2020-07-14T20:39:08.399Z</time>
      </trkpt>
      <trkpt lat="45.10365" lon="2.7161">
        <ele>1518.9289550781</ele>
        <time>2020-07-14T20:39:13.201Z</time>
      </trkpt>
      <trkpt lat="45.10359" lon="2.71614">
        <ele>1517.4652099609</ele>
        <time>2020-07-14T20:39:18.005Z</time>
      </trkpt>
      <trkpt lat="45.10353" lon="2.71616">
        <ele>1516.5533447266</ele>
        <time>2020-07-14T20:39:22.812Z</time>
      </trkpt>
      <trkpt lat="45.10346" lon="2.71621">
        <ele>1514.7536621094</ele>
        <time>2020-07-14T20:39:27.621Z</time>
      </trkpt>
      <trkpt lat="45.1034" lon="2.71625">
        <ele>1513.2899169922</ele>
        <time>2020-07-14T20:39:32.432Z</time>
      </trkpt>
      <trkpt lat="45.10334" lon="2.71628">
        <ele>1512.2490234375</ele>
        <time>2020-07-14T20:39:37.245Z</time>
      </trkpt>
      <trkpt lat="45.10328" lon="2.71632">
        <ele>1513.7847900391</ele>
        <time>2020-07-14T20:39:42.061Z</time>
      </trkpt>
      <trkpt lat="45.10322" lon="2.71636">
        <ele>1515.3205566406</ele>
        <time>2020-07-14T20:39:46.879Z</time>
      </trkpt>
      <trkpt lat="45.10315" lon="2.7164">
        <ele>1517.0961914062</ele>
        <time>2020-07-14T20:39:51.699Z</time>
      </trkpt>
      <trkpt lat="45.10307" lon="2.71646">
        <ele>1519.1599121094</ele>
        <time>2020-07-14T20:39:56.522Z</time>
      </trkpt>
      <trkpt lat="45.10299" lon="2.7165">
        <ele>1521.1755371094</ele>
        <time>2020-07-14T20:40:01.348Z</time>
      </trkpt>
      <trkpt lat="45.10292" lon="2.71649">
        <ele>1522.318359375</ele>
        <time>2020-07-14T20:40:06.177Z</time>
      </trkpt>
      <trkpt lat="45.10281" lon="2.71647">
        <ele>1520.9505615234</ele>
        <time>2020-07-14T20:40:11.009Z</time>
      </trkpt>
      <trkpt lat="45.10275" lon="2.71645">
        <ele>1520.1826171875</ele>
        <time>2020-07-14T20:40:15.843Z</time>
      </trkpt>
      <trkpt lat="45.10268" lon="2.71643">
        <ele>1519.2947998047</ele>
        <time>2020-07-14T20:40:20.680Z</time>
      </trkpt>
      <trkpt lat="45.10261" lon="2.71641">
        <ele>1519.349609375</ele>
        <time>2020-07-14T20:40:25.519Z</time>
      </trkpt>
      <trkpt lat="45.10255" lon="2.7164">
        <ele>1520.10546875</ele>
        <time>2020-07-14T20:40:30.360Z</time>
      </trkpt>
      <trkpt lat="45.1025" lon="2.7164">
        <ele>1521.0052490234</ele>
        <time>2020-07-14T20:40:35.203Z</time>
      </trkpt>
      <trkpt lat="45.10248" lon="2.71639">
        <ele>1521.0412597656</ele>
        <time>2020-07-14T20:40:40.047Z</time>
      </trkpt>
      <trkpt lat="45.10243" lon="2.71639">
        <ele>1521.9411621094</ele>
        <time>2020-07-14T20:40:44.892Z</time>
      </trkpt>
      <trkpt lat="45.10234" lon="2.71638">
        <ele>1523.2369384766</ele>
        <time>2020-07-14T20:40:49.740Z</time>
      </trkpt>
      <trkpt lat="45.10226" lon="2.71635">
        <ele>1523.7048339844</ele>
        <time>2020-07-14T20:40:54.591Z</time>
      </trkpt>
      <trkpt lat="45.10216" lon="2.71634">
        <ele>1525.1806640625</ele>
        <time>2020-07-14T20:40:59.445Z</time>
      </trkpt>
      <trkpt lat="45.10209" lon="2.71635">
        <ele>1526.4798583984</ele>
        <time>2020-07-14T20:41:04.302Z</time>
      </trkpt>
      <trkpt lat="45.10203" lon="2.71635">
        <ele>1525.9758300781</ele>
        <time>2020-07-14T20:41:09.161Z</time>
      </trkpt>
      <trkpt lat="45.10195" lon="2.71632">
        <ele>1524.3321533203</ele>
        <time>2020-07-14T20:41:14.022Z</time>
      </trkpt>
      <trkpt lat="45.10186" lon="2.71629">
        <ele>1522.6044921875</ele>
        <time>2020-07-14T20:41:18.886Z</time>
      </trkpt>
      <trkpt lat="45.10182" lon="2.7163">
        <ele>1522.5924072266</ele>
        <time>2020-07-14T20:41:23.752Z</time>
      </trkpt>
      <trkpt lat="45.10177" lon="2.71631">
        <ele>1522.4964599609</ele>
        <time>2020-07-14T20:41:28.620Z</time>
      </trkpt>
      <trkpt lat="45.10172" lon="2.7163">
        <ele>1521.7525634766</ele>
        <time>2020-07-14T20:41:33.489Z</time>
      </trkpt>
      <trkpt lat="45.1016" lon="2.71633">
        <ele>1522.9447021484</ele>
        <time>2020-07-14T20:41:38.362Z</time>
      </trkpt>
      <trkpt lat="45.10155" lon="2.71635">
        <ele>1523.8446044922</ele>
        <time>2020-07-14T20:41:43.237Z</time>
      </trkpt>
      <trkpt lat="45.10147" lon="2.71638">
        <ele>1525.2003173828</ele>
        <time>2020-07-14T20:41:48.115Z</time>
      </trkpt>
      <trkpt lat="45.10139" lon="2.71642">
        <ele>1526.9760742188</ele>
        <time>2020-07-14T20:41:52.996Z</time>
      </trkpt>
      <trkpt lat="45.10132" lon="2.71647">
        <ele>1529.1596679688</ele>
        <time>2020-07-14T20:41:57.879Z</time>
      </trkpt>
      <trkpt lat="45.10125" lon="2.7165">
        <ele>1530.3166503906</ele>
        <time>2020-07-14T20:42:02.765Z</time>
      </trkpt>
      <trkpt lat="45.10119" lon="2.71653">
        <ele>1531.0004882812</ele>
        <time>2020-07-14T20:42:07.653Z</time>
      </trkpt>
      <trkpt lat="45.10113" lon="2.71655">
        <ele>1531.2644042969</ele>
        <time>2020-07-14T20:42:12.543Z</time>
      </trkpt>
      <trkpt lat="45.10107" lon="2.71657">
        <ele>1531.7604980469</ele>
        <time>2020-07-14T20:42:17.435Z</time>
      </trkpt>
      <trkpt lat="45.101" lon="2.7166">
        <ele>1532.7083740234</ele>
        <time>2020-07-14T20:42:22.329Z</time>
      </trkpt>
      <trkpt lat="45.10095" lon="2.71666">
        <ele>1535.1439208984</ele>
        <time>2020-07-14T20:42:27.226Z</time>
      </trkpt>
      <trkpt lat="45.10093" lon="2.71669">
        <ele>1536.3917236328</ele>
        <time>2020-07-14T20:42:32.123Z</time>
      </trkpt>
      <trkpt lat="45.10089" lon="2.7167">
        <ele>1536.6076660156</ele>
        <time>2020-07-14T20:42:37.022Z</time>
      </trkpt>
      <trkpt lat="45.10085" lon="2.71668">
        <ele>1535.4558105469</ele>
        <time>2020-07-14T20:42:41.922Z</time>
      </trkpt>
      <trkpt lat="45.10081" lon="2.71667">
        <ele>1534.7600097656</ele>
        <time>2020-07-14T20:42:46.824Z</time>
      </trkpt>
      <trkpt lat="45.10076" lon="2.71668">
        <ele>1534.916015625</ele>
        <time>2020-07-14T20:42:51.727Z</time>
      </trkpt>
      <trkpt lat="45.10071" lon="2.71669">
        <ele>1535.0718994141</ele>
        <time>2020-07-14T20:42:56.632Z</time>
      </trkpt>
      <trkpt lat="45.10069" lon="2.71667">
        <ele>1534.0401611328</ele>
        <time>2020-07-14T20:43:01.538Z</time>
      </trkpt>
      <trkpt lat="45.10063" lon="2.71666">
        <ele>1533.2242431641</ele>
        <time>2020-07-14T20:43:06.446Z</time>
      </trkpt>
      <trkpt lat="45.1006" lon="2.71665">
        <ele>1532.5883789062</ele>
        <time>2020-07-14T20:43:11.355Z</time>
      </trkpt>
      <trkpt lat="45.10055" lon="2.7166">
        <ele>1530.0087890625</ele>
        <time>2020-07-14T20:43:16.266Z</time>
      </trkpt>
      <trkpt lat="45.1005" lon="2.71658">
        <ele>1528.7969970703</ele>
        <time>2020-07-14T20:43:21.179Z</time>
      </trkpt>
      <trkpt lat="45.10043" lon="2.71658">
        <ele>1528.4230957031</ele>
        <time>2020-07-14T20:43:26.094Z</time>
      </trkpt>
      <trkpt lat="45.10037" lon="2.71658">
        <ele>1528.7829589844</ele>
        <time>2020-07-14T20:43:31.011Z</time>
      </trkpt>
      <trkpt lat="45.10033" lon="2.7166">
        <ele>1529.9396972656</ele>
        <time>2020-07-14T20:43:35.929Z</time>
      </trkpt>
      <trkpt lat="45.10029" lon="2.71659">
        <ele>1529.8676757812</ele>
        <time>2020-07-14T20:43:40.849Z</time>
      </trkpt>
      <trkpt lat="45.10022" lon="2.71656">
        <ele>1529.1118164062</ele>
        <time>2020-07-14T20:43:45.771Z</time>
      </trkpt>
      <trkpt lat="45.10017" lon="2.71654">
        <ele>1528.6439208984</ele>
        <time>2020-07-14T20:43:50.695Z</time>
      </trkpt>
      <trkpt lat="45.10007" lon="2.71653">
        <ele>1529.2197265625</ele>
        <time>2020-07-14T20:43:55.622Z</time>
      </trkpt>
      <trkpt lat="45.09997" lon="2.71652">
        <ele>1529.7956542969</ele>
        <time>2020-07-14T20:44:00.553Z</time>
      </trkpt>
      <trkpt lat="45.09991" lon="2.7165">
        <ele>1529.4357910156</ele>
        <time>2020-07-14T20:44:05.486Z</time>
      </trkpt>
      <trkpt lat="45.09986" lon="2.71646">
        <ele>1527.9599609375</ele>
        <time>2020-07-14T20:44:10.421Z</time>
      </trkpt>
      <trkpt lat="45.09981" lon="2.71645">
        <ele>1527.9959716797</ele>
        <time>2020-07-14T20:44:15.357Z</time>
      </trkpt>
      <trkpt lat="45.09974" lon="2.71646">
        <ele>1529.2557373047</ele>
        <time>2020-07-14T20:44:20.296Z</time>
      </trkpt>
      <trkpt lat="45.09969" lon="2.71647">
        <ele>1530.2995605469</ele>
        <time>2020-07-14T20:44:25.236Z</time>
      </trkpt>
      <trkpt lat="45.09964" lon="2.71647">
        <ele>1530.8394775391</ele>
        <time>2020-07-14T20:44:30.178Z</time>
      </trkpt>
      <trkpt lat="45.0996" lon="2.71647">
        <ele>1531.2687988281</ele>
        <time>2020-07-14T20:44:35.121Z</time>
      </trkpt>
      <trkpt lat="45.09953" lon="2.71649">
        <ele>1532.5285644531</ele>
        <time>2020-07-14T20:44:40.067Z</time>
      </trkpt>
      <trkpt lat="45.09949" lon="2.7165">
        <ele>1533.1765136719</ele>
        <time>2020-07-14T20:44:45.014Z</time>
      </trkpt>
      <trkpt lat="45.09944" lon="2.71652">
        <ele>1534.3642578125</ele>
        <time>2020-07-14T20:44:49.963Z</time>
      </trkpt>
      <trkpt lat="45.0994" lon="2.71651">
        <ele>1533.9772949219</ele>
        <time>2020-07-14T20:44:54.913Z</time>
      </trkpt>
      <trkpt lat="45.09932" lon="2.71652">
        <ele>1534.4451904297</ele>
        <time>2020-07-14T20:44:59.866Z</time>
      </trkpt>
      <trkpt lat="45.09919" lon="2.71653">
        <ele>1534.9130859375</ele>
        <time>2020-07-14T20:45:04.823Z</time>
      </trkpt>
      <trkpt lat="45.09914" lon="2.71655">
        <ele>1535.8488769531</ele>
        <time>2020-07-14T20:45:09.782Z</time>
      </trkpt>
      <trkpt lat="45.09912" lon="2.71656">
        <ele>1536.3168945312</ele>
        <time>2020-07-14T20:45:14.742Z</time>
      </trkpt>
      <trkpt lat="45.09905" lon="2.71656">
        <ele>1536.3168945312</ele>
        <time>2020-07-14T20:45:19.704Z</time>
      </trkpt>
      <trkpt lat="45.09901" lon="2.71658">
        <ele>1537.2526855469</ele>
        <time>2020-07-14T20:45:24.667Z</time>
      </trkpt>
      <trkpt lat="45.09893" lon="2.71661">
        <ele>1538.6564941406</ele>
        <time>2020-07-14T20:45:29.633Z</time>
      </trkpt>
      <trkpt lat="45.09888" lon="2.71661">
        <ele>1538.6564941406</ele>
        <time>2020-07-14T20:45:34.601Z</time>
      </trkpt>
      <trkpt lat="45.09879" lon="2.71664">
        <ele>1540.0601806641</ele>
        <time>2020-07-14T20:45:39.572Z</time>
      </trkpt>
      <trkpt lat="45.09876" lon="2.71665">
        <ele>1540.478515625</ele>
        <time>2020-07-14T20:45:44.544Z</time>
      </trkpt>
      <trkpt lat="45.09868" lon="2.71667">
        <ele>1540.8385009766</ele>
        <time>2020-07-14T20:45:49.519Z</time>
      </trkpt>
      <trkpt lat="45.0986" lon="2.71669">
        <ele>1541.1983642578</ele>
        <time>2020-07-14T20:45:54.496Z</time>
      </trkpt>
      <trkpt lat="45.09853" lon="2.71671">
        <ele>1541.6905517578</ele>
        <time>2020-07-14T20:45:59.476Z</time>
      </trkpt>
      <trkpt lat="45.09847" lon="2.71673">
        <ele>1542.3624267578</ele>
        <time>2020-07-14T20:46:04.458Z</time>
      </trkpt>
      <trkpt lat="45.0984" lon="2.71677">
        <ele>1544.0661621094</ele>
        <time>2020-07-14T20:46:09.442Z</time>
      </trkpt>
      <trkpt lat="45.09834" lon="2.7168">
        <ele>1545.2900390625</ele>
        <time>2020-07-14T20:46:14.428Z</time>
      </trkpt>
      <trkpt lat="45.09827" lon="2.71684">
        <ele>1546.9937744141</ele>
        <time>2020-07-14T20:46:19.417Z</time>
      </trkpt>
      <trkpt lat="45.09819" lon="2.71685">
        <ele>1546.9697265625</ele>
        <time>2020-07-14T20:46:24.409Z</time>
      </trkpt>
      <trkpt lat="45.09811" lon="2.71687">
        <ele>1547.4976806641</ele>
        <time>2020-07-14T20:46:29.403Z</time>
      </trkpt>
      <trkpt lat="45.09801" lon="2.71689">
        <ele>1547.7489013672</ele>
        <time>2020-07-14T20:46:34.401Z</time>
      </trkpt>
      <trkpt lat="45.09795" lon="2.71691">
        <ele>1548.3248291016</ele>
        <time>2020-07-14T20:46:39.401Z</time>
      </trkpt>
      <trkpt lat="45.09788" lon="2.71693">
        <ele>1548.6243896484</ele>
        <time>2020-07-14T20:46:44.403Z</time>
      </trkpt>
      <trkpt lat="45.0978" lon="2.71695">
        <ele>1548.7443847656</ele>
        <time>2020-07-14T20:46:49.408Z</time>
      </trkpt>
      <trkpt lat="45.09772" lon="2.71699">
        <ele>1549.9442138672</ele>
        <time>2020-07-14T20:46:54.416Z</time>
      </trkpt>
      <trkpt lat="45.09766" lon="2.71701">
        <ele>1550.3041992188</ele>
        <time>2020-07-14T20:46:59.426Z</time>
      </trkpt>
      <trkpt lat="45.09761" lon="2.71702">
        <ele>1550.244140625</ele>
        <time>2020-07-14T20:47:04.437Z</time>
      </trkpt>
      <trkpt lat="45.0975" lon="2.71704">
        <ele>1550.0041503906</ele>
        <time>2020-07-14T20:47:09.452Z</time>
      </trkpt>
      <trkpt lat="45.09744" lon="2.71707">
        <ele>1550.7413330078</ele>
        <time>2020-07-14T20:47:14.469Z</time>
      </trkpt>
      <trkpt lat="45.09737" lon="2.71709">
        <ele>1550.44140625</ele>
        <time>2020-07-14T20:47:19.489Z</time>
      </trkpt>
      <trkpt lat="45.09728" lon="2.71714">
        <ele>1551.2213134766</ele>
        <time>2020-07-14T20:47:24.512Z</time>
      </trkpt>
      <trkpt lat="45.09722" lon="2.71719">
        <ele>1552.541015625</ele>
        <time>2020-07-14T20:47:29.537Z</time>
      </trkpt>
      <trkpt lat="45.09715" lon="2.7172">
        <ele>1551.7612304688</ele>
        <time>2020-07-14T20:47:34.564Z</time>
      </trkpt>
      <trkpt lat="45.09708" lon="2.71725">
        <ele>1552.9967041016</ele>
        <time>2020-07-14T20:47:39.594Z</time>
      </trkpt>
      <trkpt lat="45.09702" lon="2.7173">
        <ele>1554.6044921875</ele>
        <time>2020-07-14T20:47:44.626Z</time>
      </trkpt>
      <trkpt lat="45.09696" lon="2.71734">
        <ele>1555.7322998047</ele>
        <time>2020-07-14T20:47:49.661Z</time>
      </trkpt>
      <trkpt lat="45.09689" lon="2.71737">
        <ele>1555.7244873047</ele>
        <time>2020-07-14T20:47:54.698Z</time>
      </trkpt>
      <trkpt lat="45.09684" lon="2.7174">
        <ele>1555.5445556641</ele>
        <time>2020-07-14T20:47:59.737Z</time>
      </trkpt>
      <trkpt lat="45.09676" lon="2.71745">
        <ele>1555.3284912109</ele>
        <time>2020-07-14T20:48:04.779Z</time>
      </trkpt>
      <trkpt lat="45.09671" lon="2.71746">
        <ele>1554.4287109375</ele>
        <time>2020-07-14T20:48:09.822Z</time>
      </trkpt>
      <trkpt lat="45.09666" lon="2.71748">
        <ele>1553.8887939453</ele>
        <time>2020-07-14T20:48:14.867Z</time>
      </trkpt>
      <trkpt lat="45.09661" lon="2.7175">
        <ele>1553.3488769531</ele>
        <time>2020-07-14T20:48:19.914Z</time>
      </trkpt>
      <trkpt lat="45.09658" lon="2.71751">
        <ele>1552.9530029297</ele>
        <time>2020-07-14T20:48:24.962Z</time>
      </trkpt>
      <trkpt lat="45.09652" lon="2.71751">
        <ele>1551.4411621094</ele>
        <time>2020-07-14T20:48:30.012Z</time>
      </trkpt>
      <trkpt lat="45.09645" lon="2.71755">
        <ele>1550.8049316406</ele>
        <time>2020-07-14T20:48:35.064Z</time>
      </trkpt>
      <trkpt lat="45.0964" lon="2.71757">
        <ele>1549.8090820312</ele>
        <time>2020-07-14T20:48:40.118Z</time>
      </trkpt>
      <trkpt lat="45.09632" lon="2.71761">
        <ele>1548.2971191406</ele>
        <time>2020-07-14T20:48:45.175Z</time>
      </trkpt>
      <trkpt lat="45.09629" lon="2.71762">
        <ele>1547.6252441406</ele>
        <time>2020-07-14T20:48:50.233Z</time>
      </trkpt>
      <trkpt lat="45.09621" lon="2.71762">
        <ele>1546.3266601562</ele>
        <time>2020-07-14T20:48:55.294Z</time>
      </trkpt>
      <trkpt lat="45.09615" lon="2.7176">
        <ele>1545.3668212891</ele>
        <time>2020-07-14T20:49:00.357Z</time>
      </trkpt>
      <trkpt lat="45.09609" lon="2.7176">
        <ele>1544.6469726562</ele>
        <time>2020-07-14T20:49:05.422Z</time>
      </trkpt>
      <trkpt lat="45.09609" lon="2.71759">
        <ele>1544.5269775391</ele>
        <time>2020-07-14T20:49:10.487Z</time>
      </trkpt>
      <trkpt lat="45.09609" lon="2.7176">
        <ele>1544.6469726562</ele>
        <time>2020-07-14T20:49:15.552Z</time>
      </trkpt>
      <trkpt lat="45.096" lon="2.71761">
        <ele>1543.6871337891</ele>
        <time>2020-07-14T20:49:20.620Z</time>
      </trkpt>
      <trkpt lat="45.09595" lon="2.71761">
        <ele>1543.0871582031</ele>
        <time>2020-07-14T20:49:25.690Z</time>
      </trkpt>
      <trkpt lat="45.09587" lon="2.71762">
        <ele>1542.2473144531</ele>
        <time>2020-07-14T20:49:30.763Z</time>
      </trkpt>
      <trkpt lat="45.0958" lon="2.71763">
        <ele>1541.5274658203</ele>
        <time>2020-07-14T20:49:35.838Z</time>
      </trkpt>
      <trkpt lat="45.09573" lon="2.71764">
        <ele>1540.8076171875</ele>
        <time>2020-07-14T20:49:40.915Z</time>
      </trkpt>
      <trkpt lat="45.09565" lon="2.71765">
        <ele>1539.9677734375</ele>
        <time>2020-07-14T20:49:45.995Z</time>
      </trkpt>
      <trkpt lat="45.09562" lon="2.71765">
        <ele>1539.6077880859</ele>
        <time>2020-07-14T20:49:51.076Z</time>
      </trkpt>
      <trkpt lat="45.09557" lon="2.71764">
        <ele>1538.8879394531</ele>
        <time>2020-07-14T20:49:56.159Z</time>
      </trkpt>
      <trkpt lat="45.09553" lon="2.71764">
        <ele>1538.3516845703</ele>
        <time>2020-07-14T20:50:01.243Z</time>
      </trkpt>
      <trkpt lat="45.0955" lon="2.71765">
        <ele>1537.7757568359</ele>
        <time>2020-07-14T20:50:06.328Z</time>
      </trkpt>
      <trkpt lat="45.09545" lon="2.71768">
        <ele>1536.8638916016</ele>
        <time>2020-07-14T20:50:11.415Z</time>
      </trkpt>
      <trkpt lat="45.0954" lon="2.71768">
        <ele>1536.5172119141</ele>
        <time>2020-07-14T20:50:16.503Z</time>
      </trkpt>
      <trkpt lat="45.09535" lon="2.71768">
        <ele>1536.5172119141</ele>
        <time>2020-07-14T20:50:21.593Z</time>
      </trkpt>
      <trkpt lat="45.0953" lon="2.71769">
        <ele>1536.5532226562</ele>
        <time>2020-07-14T20:50:26.685Z</time>
      </trkpt>
      <trkpt lat="45.09524" lon="2.71768">
        <ele>1536.5172119141</ele>
        <time>2020-07-14T20:50:31.779Z</time>
      </trkpt>
      <trkpt lat="45.09518" lon="2.71768">
        <ele>1536.5172119141</ele>
        <time>2020-07-14T20:50:36.875Z</time>
      </trkpt>
      <trkpt lat="45.09513" lon="2.71768">
        <ele>1536.5172119141</ele>
        <time>2020-07-14T20:50:41.972Z</time>
      </trkpt>
      <trkpt lat="45.09505" lon="2.71769">
        <ele>1536.5532226562</ele>
        <time>2020-07-14T20:50:47.072Z</time>
      </trkpt>
      <trkpt lat="45.09501" lon="2.71769">
        <ele>1536.5532226562</ele>
        <time>2020-07-14T20:50:52.173Z</time>
      </trkpt>
      <trkpt lat="45.09499" lon="2.71769">
        <ele>1536.5532226562</ele>
        <time>2020-07-14T20:50:57.275Z</time>
      </trkpt>
      <trkpt lat="45.09495" lon="2.71769">
        <ele>1536.5532226562</ele>
        <time>2020-07-14T20:51:02.378Z</time>
      </trkpt>
      <trkpt lat="45.09492" lon="2.7177">
        <ele>1536.5892333984</ele>
        <time>2020-07-14T20:51:07.483Z</time>
      </trkpt>
      <trkpt lat="45.0949" lon="2.71769">
        <ele>1536.5532226562</ele>
        <time>2020-07-14T20:51:12.588Z</time>
      </trkpt>
      <trkpt lat="45.09487" lon="2.71766">
        <ele>1536.4453125</ele>
        <time>2020-07-14T20:51:17.694Z</time>
      </trkpt>
      <trkpt lat="45.0948" lon="2.71765">
        <ele>1536.4093017578</ele>
        <time>2020-07-14T20:51:22.803Z</time>
      </trkpt>
      <trkpt lat="45.09472" lon="2.71764">
        <ele>1536.3732910156</ele>
        <time>2020-07-14T20:51:27.914Z</time>
      </trkpt>
      <trkpt lat="45.09464" lon="2.71761">
        <ele>1536.9431152344</ele>
        <time>2020-07-14T20:51:33.028Z</time>
      </trkpt>
      <trkpt lat="45.09457" lon="2.71757">
        <ele>1537.0212402344</ele>
        <time>2020-07-14T20:51:38.145Z</time>
      </trkpt>
      <trkpt lat="45.09453" lon="2.71755">
        <ele>1536.8293457031</ele>
        <time>2020-07-14T20:51:43.263Z</time>
      </trkpt>
      <trkpt lat="45.09446" lon="2.71752">
        <ele>1536.5546875</ele>
        <time>2020-07-14T20:51:48.384Z</time>
      </trkpt>
      <trkpt lat="45.09442" lon="2.7175">
        <ele>1536.2907714844</ele>
        <time>2020-07-14T20:51:53.506Z</time>
      </trkpt>
      <trkpt lat="45.09436" lon="2.71749">
        <ele>1536.4466552734</ele>
        <time>2020-07-14T20:51:58.630Z</time>
      </trkpt>
      <trkpt lat="45.0943" lon="2.71748">
        <ele>1536.6026611328</ele>
        <time>2020-07-14T20:52:03.756Z</time>
      </trkpt>
      <trkpt lat="45.09425" lon="2.71747">
        <ele>1536.6866455078</ele>
        <time>2020-07-14T20:52:08.884Z</time>
      </trkpt>
      <trkpt lat="45.09415" lon="2.71743">
        <ele>1536.302734375</ele>
        <time>2020-07-14T20:52:14.015Z</time>
      </trkpt>
      <trkpt lat="45.09404" lon="2.71738">
        <ele>1535.71484375</ele>
        <time>2020-07-14T20:52:19.150Z</time>
      </trkpt>
      <trkpt lat="45.09394" lon="2.71733">
        <ele>1535.0549316406</ele>
        <time>2020-07-14T20:52:24.289Z</time>
      </trkpt>
      <trkpt lat="45.09388" lon="2.71728">
        <ele>1534.1070556641</ele>
        <time>2020-07-14T20:52:29.430Z</time>
      </trkpt>
      <trkpt lat="45.09376" lon="2.71721">
        <ele>1533.0828857422</ele>
        <time>2020-07-14T20:52:34.575Z</time>
      </trkpt>
      <trkpt lat="45.0937" lon="2.7172">
        <ele>1533.6707763672</ele>
        <time>2020-07-14T20:52:39.722Z</time>
      </trkpt>
      <trkpt lat="45.09362" lon="2.71719">
        <ele>1534.5466308594</ele>
        <time>2020-07-14T20:52:44.872Z</time>
      </trkpt>
      <trkpt lat="45.09354" lon="2.71716">
        <ele>1534.8706054688</ele>
        <time>2020-07-14T20:52:50.025Z</time>
      </trkpt>
      <trkpt lat="45.09347" lon="2.71714">
        <ele>1535.3265380859</ele>
        <time>2020-07-14T20:52:55.180Z</time>
      </trkpt>
      <trkpt lat="45.09339" lon="2.7171">
        <ele>1535.3745117188</ele>
        <time>2020-07-14T20:53:00.338Z</time>
      </trkpt>
      <trkpt lat="45.09332" lon="2.71705">
        <ele>1535.0025634766</ele>
        <time>2020-07-14T20:53:05.499Z</time>
      </trkpt>
      <trkpt lat="45.09324" lon="2.71699">
        <ele>1534.4986572266</ele>
        <time>2020-07-14T20:53:10.663Z</time>
      </trkpt>
      <trkpt lat="45.09313" lon="2.71692">
        <ele>1533.8662109375</ele>
        <time>2020-07-14T20:53:15.831Z</time>
      </trkpt>
      <trkpt lat="45.09308" lon="2.71688">
        <ele>1533.3382568359</ele>
        <time>2020-07-14T20:53:21.000Z</time>
      </trkpt>
      <trkpt lat="45.09302" lon="2.71683">
        <ele>1532.6784667969</ele>
        <time>2020-07-14T20:53:26.172Z</time>
      </trkpt>
      <trkpt lat="45.09297" lon="2.71678">
        <ele>1532.0185546875</ele>
        <time>2020-07-14T20:53:31.346Z</time>
      </trkpt>
      <trkpt lat="45.09295" lon="2.7168">
        <ele>1532.2824707031</ele>
        <time>2020-07-14T20:53:36.521Z</time>
      </trkpt>
      <trkpt lat="45.09292" lon="2.71682">
        <ele>1532.5463867188</ele>
        <time>2020-07-14T20:53:41.697Z</time>
      </trkpt>
      <trkpt lat="45.09285" lon="2.71684">
        <ele>1532.8104248047</ele>
        <time>2020-07-14T20:53:46.875Z</time>
      </trkpt>
      <trkpt lat="45.09278" lon="2.71683">
        <ele>1532.6784667969</ele>
        <time>2020-07-14T20:53:52.055Z</time>
      </trkpt>
      <trkpt lat="45.0927" lon="2.71681">
        <ele>1532.4144287109</ele>
        <time>2020-07-14T20:53:57.238Z</time>
      </trkpt>
      <trkpt lat="45.09262" lon="2.71679">
        <ele>1532.1505126953</ele>
        <time>2020-07-14T20:54:02.424Z</time>
      </trkpt>
      <trkpt lat="45.09253" lon="2.71676">
        <ele>1531.7545166016</ele>
        <time>2020-07-14T20:54:07.613Z</time>
      </trkpt>
      <trkpt lat="45.09249" lon="2.71676">
        <ele>1531.7545166016</ele>
        <time>2020-07-14T20:54:12.803Z</time>
      </trkpt>
      <trkpt lat="45.09243" lon="2.71673">
        <ele>1531.3586425781</ele>
        <time>2020-07-14T20:54:17.995Z</time>
      </trkpt>
      <trkpt lat="45.09234" lon="2.71673">
        <ele>1531.3586425781</ele>
        <time>2020-07-14T20:54:23.190Z</time>
      </trkpt>
      <trkpt lat="45.09226" lon="2.71676">
        <ele>1531.7545166016</ele>
        <time>2020-07-14T20:54:28.388Z</time>
      </trkpt>
      <trkpt lat="45.09218" lon="2.7168">
        <ele>1531.9112548828</ele>
        <time>2020-07-14T20:54:33.589Z</time>
      </trkpt>
      <trkpt lat="45.09212" lon="2.71681">
        <ele>1530.4473876953</ele>
        <time>2020-07-14T20:54:38.792Z</time>
      </trkpt>
      <trkpt lat="45.09207" lon="2.71682">
        <ele>1530.0150146484</ele>
        <time>2020-07-14T20:54:43.997Z</time>
      </trkpt>
      <trkpt lat="45.092" lon="2.71685">
        <ele>1530.0629882812</ele>
        <time>2020-07-14T20:54:49.204Z</time>
      </trkpt>
      <trkpt lat="45.09193" lon="2.7169">
        <ele>1529.9190673828</ele>
        <time>2020-07-14T20:54:54.414Z</time>
      </trkpt>
      <trkpt lat="45.09187" lon="2.71694">
        <ele>1529.8231201172</ele>
        <time>2020-07-14T20:54:59.626Z</time>
      </trkpt>
      <trkpt lat="45.09181" lon="2.71696">
        <ele>1529.9190673828</ele>
        <time>2020-07-14T20:55:04.840Z</time>
      </trkpt>
      <trkpt lat="45.09176" lon="2.71697">
        <ele>1530.0629882812</ele>
        <time>2020-07-14T20:55:10.056Z</time>
      </trkpt>
      <trkpt lat="45.09167" lon="2.71699">
        <ele>1530.3029785156</ele>
        <time>2020-07-14T20:55:15.275Z</time>
      </trkpt>
      <trkpt lat="45.09159" lon="2.71701">
        <ele>1530.4949951172</ele>
        <time>2020-07-14T20:55:20.496Z</time>
      </trkpt>
      <trkpt lat="45.09152" lon="2.71702">
        <ele>1529.2276611328</ele>
        <time>2020-07-14T20:55:25.720Z</time>
      </trkpt>
      <trkpt lat="45.09143" lon="2.71707">
        <ele>1525.8201904297</ele>
        <time>2020-07-14T20:55:30.947Z</time>
      </trkpt>
      <trkpt lat="45.09138" lon="2.71707">
        <ele>1524.8603515625</ele>
        <time>2020-07-14T20:55:36.176Z</time>
      </trkpt>
      <trkpt lat="45.09133" lon="2.71707">
        <ele>1523.9005126953</ele>
        <time>2020-07-14T20:55:41.406Z</time>
      </trkpt>
      <trkpt lat="45.09127" lon="2.71707">
        <ele>1522.7486572266</ele>
        <time>2020-07-14T20:55:46.638Z</time>
      </trkpt>
      <trkpt lat="45.09118" lon="2.71707">
        <ele>1521.740234375</ele>
        <time>2020-07-14T20:55:51.873Z</time>
      </trkpt>
      <trkpt lat="45.09107" lon="2.71707">
        <ele>1520.5524902344</ele>
        <time>2020-07-14T20:55:57.112Z</time>
      </trkpt>
      <trkpt lat="45.091" lon="2.7171">
        <ele>1518.7886962891</ele>
        <time>2020-07-14T20:56:02.353Z</time>
      </trkpt>
      <trkpt lat="45.09088" lon="2.71713">
        <ele>1516.4851074219</ele>
        <time>2020-07-14T20:56:07.599Z</time>
      </trkpt>
      <trkpt lat="45.09083" lon="2.71717">
        <ele>1515.5166015625</ele>
        <time>2020-07-14T20:56:12.846Z</time>
      </trkpt>
      <trkpt lat="45.09077" lon="2.7172">
        <ele>1515.0487060547</ele>
        <time>2020-07-14T20:56:18.096Z</time>
      </trkpt>
      <trkpt lat="45.09073" lon="2.71719">
        <ele>1515.3486328125</ele>
        <time>2020-07-14T20:56:23.347Z</time>
      </trkpt>
      <trkpt lat="45.09069" lon="2.71717">
        <ele>1515.8525390625</ele>
        <time>2020-07-14T20:56:28.599Z</time>
      </trkpt>
      <trkpt lat="45.09068" lon="2.71714">
        <ele>1516.4884033203</ele>
        <time>2020-07-14T20:56:33.852Z</time>
      </trkpt>
      <trkpt lat="45.09068" lon="2.71711">
        <ele>1517.1003417969</ele>
        <time>2020-07-14T20:56:39.106Z</time>
      </trkpt>
      <trkpt lat="45.09068" lon="2.71707">
        <ele>1517.9162597656</ele>
        <time>2020-07-14T20:56:44.361Z</time>
      </trkpt>
      <trkpt lat="45.09069" lon="2.71702">
        <ele>1518.9119873047</ele>
        <time>2020-07-14T20:56:49.617Z</time>
      </trkpt>
      <trkpt lat="45.0907" lon="2.71698">
        <ele>1519.7038574219</ele>
        <time>2020-07-14T20:56:54.874Z</time>
      </trkpt>
      <trkpt lat="45.09069" lon="2.71694">
        <ele>1520.81640625</ele>
        <time>2020-07-14T20:57:00.132Z</time>
      </trkpt>
      <trkpt lat="45.09068" lon="2.7169">
        <ele>1522.0522460938</ele>
        <time>2020-07-14T20:57:05.391Z</time>
      </trkpt>
      <trkpt lat="45.09065" lon="2.71684">
        <ele>1523.7438964844</ele>
        <time>2020-07-14T20:57:10.652Z</time>
      </trkpt>
      <trkpt lat="45.09061" lon="2.71678">
        <ele>1525.3276367188</ele>
        <time>2020-07-14T20:57:15.915Z</time>
      </trkpt>
      <trkpt lat="45.09059" lon="2.71676">
        <ele>1525.7835693359</ele>
        <time>2020-07-14T20:57:21.179Z</time>
      </trkpt>
      <trkpt lat="45.09057" lon="2.71673">
        <ele>1526.5754394531</ele>
        <time>2020-07-14T20:57:26.444Z</time>
      </trkpt>
      <trkpt lat="45.09058" lon="2.71674">
        <ele>1526.3475341797</ele>
        <time>2020-07-14T20:57:31.709Z</time>
      </trkpt>
      <trkpt lat="45.09057" lon="2.71673">
        <ele>1526.5754394531</ele>
        <time>2020-07-14T20:57:36.974Z</time>
      </trkpt>
      <trkpt lat="45.09056" lon="2.71673">
        <ele>1526.4674072266</ele>
        <time>2020-07-14T20:57:42.240Z</time>
      </trkpt>
      <trkpt lat="45.09055" lon="2.71672">
        <ele>1526.6954345703</ele>
        <time>2020-07-14T20:57:47.506Z</time>
      </trkpt>
      <trkpt lat="45.09053" lon="2.71671">
        <ele>1526.8154296875</ele>
        <time>2020-07-14T20:57:52.773Z</time>
      </trkpt>
      <trkpt lat="45.09049" lon="2.7167">
        <ele>1526.6176757812</ele>
        <time>2020-07-14T20:57:58.041Z</time>
      </trkpt>
      <trkpt lat="45.09047" lon="2.71669">
        <ele>1526.3776855469</ele>
        <time>2020-07-14T20:58:03.310Z</time>
      </trkpt>
      <trkpt lat="45.09041" lon="2.71664">
        <ele>1525.7427978516</ele>
        <time>2020-07-14T20:58:08.581Z</time>
      </trkpt>
      <trkpt lat="45.09037" lon="2.71661">
        <ele>1525.4788818359</ele>
        <time>2020-07-14T20:58:13.854Z</time>
      </trkpt>
      <trkpt lat="45.09032" lon="2.71656">
        <ele>1525.1188964844</ele>
        <time>2020-07-14T20:58:19.129Z</time>
      </trkpt>
      <trkpt lat="45.09029" lon="2.71653">
        <ele>1524.9029541016</ele>
        <time>2020-07-14T20:58:24.405Z</time>
      </trkpt>
      <trkpt lat="45.09026" lon="2.71649">
        <ele>1524.6630859375</ele>
        <time>2020-07-14T20:58:29.682Z</time>
      </trkpt>
      <trkpt lat="45.09023" lon="2.71643">
        <ele>1524.3751220703</ele>
        <time>2020-07-14T20:58:34.961Z</time>
      </trkpt>
      <trkpt lat="45.09018" lon="2.71632">
        <ele>1523.8712158203</ele>
        <time>2020-07-14T20:58:40.243Z</time>
      </trkpt>
      <trkpt lat="45.09016" lon="2.71627">
        <ele>1523.6551513672</ele>
        <time>2020-07-14T20:58:45.526Z</time>
      </trkpt>
      <trkpt lat="45.09015" lon="2.71624">
        <ele>1523.5352783203</ele>
        <time>2020-07-14T20:58:50.810Z</time>
      </trkpt>
      <trkpt lat="45.09014" lon="2.71621">
        <ele>1523.4152832031</ele>
        <time>2020-07-14T20:58:56.095Z</time>
      </trkpt>
      <trkpt lat="45.09012" lon="2.71618">
        <ele>1523.2473144531</ele>
        <time>2020-07-14T20:59:01.381Z</time>
      </trkpt>
      <trkpt lat="45.0901" lon="2.71616">
        <ele>1523.1032714844</ele>
        <time>2020-07-14T20:59:06.668Z</time>
      </trkpt>
      <trkpt lat="45.09006" lon="2.71612">
        <ele>1522.8153076172</ele>
        <time>2020-07-14T20:59:11.956Z</time>
      </trkpt>
      <trkpt lat="45.09004" lon="2.71609">
        <ele>1522.6473388672</ele>
        <time>2020-07-14T20:59:17.245Z</time>
      </trkpt>
      <trkpt lat="45.09001" lon="2.71606">
        <ele>1522.4313964844</ele>
        <time>2020-07-14T20:59:22.536Z</time>
      </trkpt>
      <trkpt lat="45.08999" lon="2.71603">
        <ele>1522.2634277344</ele>
        <time>2020-07-14T20:59:27.828Z</time>
      </trkpt>
      <trkpt lat="45.08991" lon="2.71593">
        <ele>1521.6395263672</ele>
        <time>2020-07-14T20:59:33.123Z</time>
      </trkpt>
      <trkpt lat="45.08988" lon="2.71589">
        <ele>1521.3995361328</ele>
        <time>2020-07-14T20:59:38.420Z</time>
      </trkpt>
      <trkpt lat="45.08984" lon="2.71584">
        <ele>1520.6297607422</ele>
        <time>2020-07-14T20:59:43.718Z</time>
      </trkpt>
      <trkpt lat="45.0898" lon="2.71579">
        <ele>1519.5379638672</ele>
        <time>2020-07-14T20:59:49.018Z</time>
      </trkpt>
      <trkpt lat="45.08977" lon="2.71575">
        <ele>1518.6740722656</ele>
        <time>2020-07-14T20:59:54.320Z</time>
      </trkpt>
      <trkpt lat="45.08975" lon="2.71572">
        <ele>1518.0382080078</ele>
        <time>2020-07-14T20:59:59.623Z</time>
      </trkpt>
      <trkpt lat="45.08973" lon="2.71569">
        <ele>1517.40234375</ele>
        <time>2020-07-14T21:00:04.926Z</time>
      </trkpt>
      <trkpt lat="45.08969" lon="2.71564">
        <ele>1516.310546875</ele>
        <time>2020-07-14T21:00:10.231Z</time>
      </trkpt>
      <trkpt lat="45.08967" lon="2.7156">
        <ele>1515.4946289062</ele>
        <time>2020-07-14T21:00:15.537Z</time>
      </trkpt>
      <trkpt lat="45.08962" lon="2.71557">
        <ele>1514.7147216797</ele>
        <time>2020-07-14T21:00:20.845Z</time>
      </trkpt>
      <trkpt lat="45.0896" lon="2.71555">
        <ele>1514.2587890625</ele>
        <time>2020-07-14T21:00:26.154Z</time>
      </trkpt>
      <trkpt lat="45.08957" lon="2.71551">
        <ele>1514.2557373047</ele>
        <time>2020-07-14T21:00:31.464Z</time>
      </trkpt>
      <trkpt lat="45.08952" lon="2.71546">
        <ele>1514.6157226562</ele>
        <time>2020-07-14T21:00:36.776Z</time>
      </trkpt>
      <trkpt lat="45.08949" lon="2.71542">
        <ele>1514.6517333984</ele>
        <time>2020-07-14T21:00:42.090Z</time>
      </trkpt>
      <trkpt lat="45.08947" lon="2.71539">
        <ele>1514.6157226562</ele>
        <time>2020-07-14T21:00:47.405Z</time>
      </trkpt>
      <trkpt lat="45.08943" lon="2.71537">
        <ele>1515.2635498047</ele>
        <time>2020-07-14T21:00:52.721Z</time>
      </trkpt>
      <trkpt lat="45.08939" lon="2.71534">
        <ele>1515.7314453125</ele>
        <time>2020-07-14T21:00:58.039Z</time>
      </trkpt>
      <trkpt lat="45.08937" lon="2.71531">
        <ele>1515.6955566406</ele>
        <time>2020-07-14T21:01:03.358Z</time>
      </trkpt>
      <trkpt lat="45.08935" lon="2.71528">
        <ele>1515.6595458984</ele>
        <time>2020-07-14T21:01:08.678Z</time>
      </trkpt>
      <trkpt lat="45.08934" lon="2.71524">
        <ele>1515.1915283203</ele>
        <time>2020-07-14T21:01:13.999Z</time>
      </trkpt>
      <trkpt lat="45.08932" lon="2.71521">
        <ele>1515.1556396484</ele>
        <time>2020-07-14T21:01:19.321Z</time>
      </trkpt>
      <trkpt lat="45.08931" lon="2.7152">
        <ele>1515.2275390625</ele>
        <time>2020-07-14T21:01:24.643Z</time>
      </trkpt>
      <trkpt lat="45.0893" lon="2.71519">
        <ele>1515.2995605469</ele>
        <time>2020-07-14T21:01:29.965Z</time>
      </trkpt>
      <trkpt lat="45.08927" lon="2.71516">
        <ele>1515.5155029297</ele>
        <time>2020-07-14T21:01:35.289Z</time>
      </trkpt>
      <trkpt lat="45.08923" lon="2.71512">
        <ele>1515.8034667969</ele>
        <time>2020-07-14T21:01:40.614Z</time>
      </trkpt>
      <trkpt lat="45.0892" lon="2.7151">
        <ele>1516.1994628906</ele>
        <time>2020-07-14T21:01:45.940Z</time>
      </trkpt>
      <trkpt lat="45.08918" lon="2.71508">
        <ele>1516.3433837891</ele>
        <time>2020-07-14T21:01:51.267Z</time>
      </trkpt>
      <trkpt lat="45.08916" lon="2.71505">
        <ele>1516.3073730469</ele>
        <time>2020-07-14T21:01:56.595Z</time>
      </trkpt>
      <trkpt lat="45.08914" lon="2.71502">
        <ele>1516.1571044922</ele>
        <time>2020-07-14T21:02:01.924Z</time>
      </trkpt>
      <trkpt lat="45.08912" lon="2.715">
        <ele>1516.1571044922</ele>
        <time>2020-07-14T21:02:07.254Z</time>
      </trkpt>
      <trkpt lat="45.08911" lon="2.71498">
        <ele>1515.9051513672</ele>
        <time>2020-07-14T21:02:12.585Z</time>
      </trkpt>
      <trkpt lat="45.08908" lon="2.71492">
        <ele>1515.1492919922</ele>
        <time>2020-07-14T21:02:17.917Z</time>
      </trkpt>
      <trkpt lat="45.08907" lon="2.71488">
        <ele>1514.3933105469</ele>
        <time>2020-07-14T21:02:23.250Z</time>
      </trkpt>
      <trkpt lat="45.08905" lon="2.71485">
        <ele>1514.1413574219</ele>
        <time>2020-07-14T21:02:28.584Z</time>
      </trkpt>
      <trkpt lat="45.08903" lon="2.71482">
        <ele>1513.8894042969</ele>
        <time>2020-07-14T21:02:33.919Z</time>
      </trkpt>
      <trkpt lat="45.089" lon="2.71477">
        <ele>1513.3854980469</ele>
        <time>2020-07-14T21:02:39.256Z</time>
      </trkpt>
      <trkpt lat="45.08898" lon="2.71475">
        <ele>1513.3854980469</ele>
        <time>2020-07-14T21:02:44.594Z</time>
      </trkpt>
      <trkpt lat="45.08896" lon="2.71472">
        <ele>1513.1335449219</ele>
        <time>2020-07-14T21:02:49.933Z</time>
      </trkpt>
      <trkpt lat="45.08893" lon="2.71468">
        <ele>1512.8815917969</ele>
        <time>2020-07-14T21:02:55.273Z</time>
      </trkpt>
      <trkpt lat="45.08889" lon="2.71464">
        <ele>1512.8815917969</ele>
        <time>2020-07-14T21:03:00.615Z</time>
      </trkpt>
      <trkpt lat="45.08887" lon="2.71463">
        <ele>1513.1335449219</ele>
        <time>2020-07-14T21:03:05.957Z</time>
      </trkpt>
      <trkpt lat="45.08885" lon="2.7146">
        <ele>1512.8815917969</ele>
        <time>2020-07-14T21:03:11.300Z</time>
      </trkpt>
      <trkpt lat="45.08881" lon="2.71459">
        <ele>1513.6374511719</ele>
        <time>2020-07-14T21:03:16.645Z</time>
      </trkpt>
      <trkpt lat="45.0888" lon="2.71456">
        <ele>1513.1335449219</ele>
        <time>2020-07-14T21:03:21.990Z</time>
      </trkpt>
      <trkpt lat="45.08878" lon="2.71454">
        <ele>1513.1335449219</ele>
        <time>2020-07-14T21:03:27.336Z</time>
      </trkpt>
      <trkpt lat="45.08876" lon="2.71451">
        <ele>1512.9943847656</ele>
        <time>2020-07-14T21:03:32.683Z</time>
      </trkpt>
      <trkpt lat="45.08874" lon="2.71449">
        <ele>1513.4263916016</ele>
        <time>2020-07-14T21:03:38.031Z</time>
      </trkpt>
      <trkpt lat="45.08872" lon="2.71446">
        <ele>1513.6063232422</ele>
        <time>2020-07-14T21:03:43.380Z</time>
      </trkpt>
      <trkpt lat="45.08872" lon="2.71445">
        <ele>1513.3543701172</ele>
        <time>2020-07-14T21:03:48.729Z</time>
      </trkpt>
      <trkpt lat="45.0887" lon="2.71443">
        <ele>1513.7862548828</ele>
        <time>2020-07-14T21:03:54.079Z</time>
      </trkpt>
      <trkpt lat="45.08869" lon="2.71441">
        <ele>1513.7503662109</ele>
        <time>2020-07-14T21:03:59.430Z</time>
      </trkpt>
      <trkpt lat="45.08868" lon="2.71439">
        <ele>1513.7143554688</ele>
        <time>2020-07-14T21:04:04.781Z</time>
      </trkpt>
      <trkpt lat="45.08867" lon="2.71436">
        <ele>1513.4263916016</ele>
        <time>2020-07-14T21:04:10.133Z</time>
      </trkpt>
      <trkpt lat="45.08864" lon="2.71432">
        <ele>1513.822265625</ele>
        <time>2020-07-14T21:04:15.486Z</time>
      </trkpt>
      <trkpt lat="45.08863" lon="2.71431">
        <ele>1514.0383300781</ele>
        <time>2020-07-14T21:04:20.840Z</time>
      </trkpt>
      <trkpt lat="45.08862" lon="2.71426">
        <ele>1513.2464599609</ele>
        <time>2020-07-14T21:04:26.195Z</time>
      </trkpt>
      <trkpt lat="45.0886" lon="2.71422">
        <ele>1513.1744384766</ele>
        <time>2020-07-14T21:04:31.551Z</time>
      </trkpt>
      <trkpt lat="45.08857" lon="2.71419">
        <ele>1513.8669433594</ele>
        <time>2020-07-14T21:04:36.908Z</time>
      </trkpt>
      <trkpt lat="45.08856" lon="2.71417">
        <ele>1513.9029541016</ele>
        <time>2020-07-14T21:04:42.266Z</time>
      </trkpt>
      <trkpt lat="45.08854" lon="2.71416">
        <ele>1514.6228027344</ele>
        <time>2020-07-14T21:04:47.625Z</time>
      </trkpt>
      <trkpt lat="45.08852" lon="2.71415">
        <ele>1515.3427734375</ele>
        <time>2020-07-14T21:04:52.984Z</time>
      </trkpt>
      <trkpt lat="45.0885" lon="2.71413">
        <ele>1515.8466796875</ele>
        <time>2020-07-14T21:04:58.344Z</time>
      </trkpt>
      <trkpt lat="45.08849" lon="2.71409">
        <ele>1515.4506835938</ele>
        <time>2020-07-14T21:05:03.705Z</time>
      </trkpt>
      <trkpt lat="45.08847" lon="2.71405">
        <ele>1515.5227050781</ele>
        <time>2020-07-14T21:05:09.067Z</time>
      </trkpt>
      <trkpt lat="45.08845" lon="2.714">
        <ele>1515.3786621094</ele>
        <time>2020-07-14T21:05:14.431Z</time>
      </trkpt>
      <trkpt lat="45.08844" lon="2.71397">
        <ele>1515.1987304688</ele>
        <time>2020-07-14T21:05:19.796Z</time>
      </trkpt>
      <trkpt lat="45.08842" lon="2.7139">
        <ele>1514.6228027344</ele>
        <time>2020-07-14T21:05:25.162Z</time>
      </trkpt>
      <trkpt lat="45.08842" lon="2.71387">
        <ele>1513.9749755859</ele>
        <time>2020-07-14T21:05:30.529Z</time>
      </trkpt>
      <trkpt lat="45.0884" lon="2.71385">
        <ele>1514.4788818359</ele>
        <time>2020-07-14T21:05:35.897Z</time>
      </trkpt>
      <trkpt lat="45.08839" lon="2.71381">
        <ele>1513.9798583984</ele>
        <time>2020-07-14T21:05:41.266Z</time>
      </trkpt>
      <trkpt lat="45.08838" lon="2.71377">
        <ele>1513.4039306641</ele>
        <time>2020-07-14T21:05:46.636Z</time>
      </trkpt>
      <trkpt lat="45.08837" lon="2.71373">
        <ele>1512.8280029297</ele>
        <time>2020-07-14T21:05:52.007Z</time>
      </trkpt>
      <trkpt lat="45.08835" lon="2.7137">
        <ele>1513.0560302734</ele>
        <time>2020-07-14T21:05:57.379Z</time>
      </trkpt>
      <trkpt lat="45.08833" lon="2.71368">
        <ele>1513.5599365234</ele>
        <time>2020-07-14T21:06:02.752Z</time>
      </trkpt>
      <trkpt lat="45.08833" lon="2.71365">
        <ele>1512.7320556641</ele>
        <time>2020-07-14T21:06:08.125Z</time>
      </trkpt>
      <trkpt lat="45.08831" lon="2.71362">
        <ele>1512.9599609375</ele>
        <time>2020-07-14T21:06:13.499Z</time>
      </trkpt>
      <trkpt lat="45.0883" lon="2.71357">
        <ele>1512.1081542969</ele>
        <time>2020-07-14T21:06:18.875Z</time>
      </trkpt>
      <trkpt lat="45.08829" lon="2.71353">
        <ele>1511.5322265625</ele>
        <time>2020-07-14T21:06:24.252Z</time>
      </trkpt>
      <trkpt lat="45.08823" lon="2.71341">
        <ele>1511.3883056641</ele>
        <time>2020-07-14T21:06:29.632Z</time>
      </trkpt>
      <trkpt lat="45.08821" lon="2.71335">
        <ele>1510.9473876953</ele>
        <time>2020-07-14T21:06:35.014Z</time>
      </trkpt>
      <trkpt lat="45.08819" lon="2.7133">
        <ele>1511.0434570312</ele>
        <time>2020-07-14T21:06:40.397Z</time>
      </trkpt>
      <trkpt lat="45.08817" lon="2.71326">
        <ele>1511.3312988281</ele>
        <time>2020-07-14T21:06:45.781Z</time>
      </trkpt>
      <trkpt lat="45.08815" lon="2.71323">
        <ele>1511.8112792969</ele>
        <time>2020-07-14T21:06:51.166Z</time>
      </trkpt>
      <trkpt lat="45.08813" lon="2.7132">
        <ele>1512.2911376953</ele>
        <time>2020-07-14T21:06:56.552Z</time>
      </trkpt>
      <trkpt lat="45.08812" lon="2.71316">
        <ele>1512.0512695312</ele>
        <time>2020-07-14T21:07:01.939Z</time>
      </trkpt>
      <trkpt lat="45.08811" lon="2.71313">
        <ele>1512.0032958984</ele>
        <time>2020-07-14T21:07:07.327Z</time>
      </trkpt>
      <trkpt lat="45.08809" lon="2.71312">
        <ele>1512.8670654297</ele>
        <time>2020-07-14T21:07:12.716Z</time>
      </trkpt>
      <trkpt lat="45.08806" lon="2.71309">
        <ele>1513.8748779297</ele>
        <time>2020-07-14T21:07:18.106Z</time>
      </trkpt>
      <trkpt lat="45.08802" lon="2.71305">
        <ele>1515.21875</ele>
        <time>2020-07-14T21:07:23.497Z</time>
      </trkpt>
      <trkpt lat="45.08799" lon="2.71301">
        <ele>1516.0345458984</ele>
        <time>2020-07-14T21:07:28.890Z</time>
      </trkpt>
      <trkpt lat="45.08796" lon="2.71299">
        <ele>1517.234375</ele>
        <time>2020-07-14T21:07:34.284Z</time>
      </trkpt>
      <trkpt lat="45.08793" lon="2.71296">
        <ele>1518.2232666016</ele>
        <time>2020-07-14T21:07:39.679Z</time>
      </trkpt>
      <trkpt lat="45.0879" lon="2.71291">
        <ele>1518.5231933594</ele>
        <time>2020-07-14T21:07:45.076Z</time>
      </trkpt>
      <trkpt lat="45.08788" lon="2.71289">
        <ele>1518.9791259766</ele>
        <time>2020-07-14T21:07:50.473Z</time>
      </trkpt>
      <trkpt lat="45.08786" lon="2.71287">
        <ele>1519.4350585938</ele>
        <time>2020-07-14T21:07:55.871Z</time>
      </trkpt>
      <trkpt lat="45.08784" lon="2.71283">
        <ele>1519.5070800781</ele>
        <time>2020-07-14T21:08:01.270Z</time>
      </trkpt>
      <trkpt lat="45.08783" lon="2.71279">
        <ele>1519.1591796875</ele>
        <time>2020-07-14T21:08:06.670Z</time>
      </trkpt>
      <trkpt lat="45.08781" lon="2.71275">
        <ele>1519.2310791016</ele>
        <time>2020-07-14T21:08:12.072Z</time>
      </trkpt>
      <trkpt lat="45.08778" lon="2.7127">
        <ele>1519.5311279297</ele>
        <time>2020-07-14T21:08:17.475Z</time>
      </trkpt>
      <trkpt lat="45.08774" lon="2.71263">
        <ele>1519.8670654297</ele>
        <time>2020-07-14T21:08:22.880Z</time>
      </trkpt>
      <trkpt lat="45.08772" lon="2.7126">
        <ele>1520.1309814453</ele>
        <time>2020-07-14T21:08:28.286Z</time>
      </trkpt>
      <trkpt lat="45.0877" lon="2.71257">
        <ele>1520.3948974609</ele>
        <time>2020-07-14T21:08:33.693Z</time>
      </trkpt>
      <trkpt lat="45.08768" lon="2.71255">
        <ele>1520.8508300781</ele>
        <time>2020-07-14T21:08:39.101Z</time>
      </trkpt>
      <trkpt lat="45.08766" lon="2.71249">
        <ele>1520.2115478516</ele>
        <time>2020-07-14T21:08:44.511Z</time>
      </trkpt>
      <trkpt lat="45.08762" lon="2.71241">
        <ele>1519.7796630859</ele>
        <time>2020-07-14T21:08:49.923Z</time>
      </trkpt>
      <trkpt lat="45.08761" lon="2.71239">
        <ele>1519.6717529297</ele>
        <time>2020-07-14T21:08:55.335Z</time>
      </trkpt>
      <trkpt lat="45.0876" lon="2.71236">
        <ele>1519.2998046875</ele>
        <time>2020-07-14T21:09:00.748Z</time>
      </trkpt>
      <trkpt lat="45.08753" lon="2.71225">
        <ele>1519.3356933594</ele>
        <time>2020-07-14T21:09:06.165Z</time>
      </trkpt>
      <trkpt lat="45.08749" lon="2.7122">
        <ele>1519.6956787109</ele>
        <time>2020-07-14T21:09:11.584Z</time>
      </trkpt>
      <trkpt lat="45.08747" lon="2.71217">
        <ele>1519.7436523438</ele>
        <time>2020-07-14T21:09:17.004Z</time>
      </trkpt>
      <trkpt lat="45.08745" lon="2.71214">
        <ele>1519.7916259766</ele>
        <time>2020-07-14T21:09:22.424Z</time>
      </trkpt>
      <trkpt lat="45.08743" lon="2.71213">
        <ele>1520.3675537109</ele>
        <time>2020-07-14T21:09:27.845Z</time>
      </trkpt>
      <trkpt lat="45.08742" lon="2.71212">
        <ele>1520.5235595703</ele>
        <time>2020-07-14T21:09:33.267Z</time>
      </trkpt>
      <trkpt lat="45.0874" lon="2.71212">
        <ele>1521.3634033203</ele>
        <time>2020-07-14T21:09:38.689Z</time>
      </trkpt>
      <trkpt lat="45.08739" lon="2.71213">
        <ele>1522.0472412109</ele>
        <time>2020-07-14T21:09:44.112Z</time>
      </trkpt>
      <trkpt lat="45.08737" lon="2.71214">
        <ele>1523.1511230469</ele>
        <time>2020-07-14T21:09:49.535Z</time>
      </trkpt>
      <trkpt lat="45.08732" lon="2.71216">
        <ele>1525.7786865234</ele>
        <time>2020-07-14T21:09:54.960Z</time>
      </trkpt>
      <trkpt lat="45.08726" lon="2.7122">
        <ele>1529.3541259766</ele>
        <time>2020-07-14T21:10:00.387Z</time>
      </trkpt>
      <trkpt lat="45.08722" lon="2.71222">
        <ele>1531.5617675781</ele>
        <time>2020-07-14T21:10:05.816Z</time>
      </trkpt>
      <trkpt lat="45.08721" lon="2.71224">
        <ele>1532.5095214844</ele>
        <time>2020-07-14T21:10:11.245Z</time>
      </trkpt>
      <trkpt lat="45.0872" lon="2.71226">
        <ele>1533.4573974609</ele>
        <time>2020-07-14T21:10:16.675Z</time>
      </trkpt>
      <trkpt lat="45.0872" lon="2.71229">
        <ele>1534.2492675781</ele>
        <time>2020-07-14T21:10:22.106Z</time>
      </trkpt>
      <trkpt lat="45.08718" lon="2.7123">
        <ele>1535.3530273438</ele>
        <time>2020-07-14T21:10:27.537Z</time>
      </trkpt>
      <trkpt lat="45.08716" lon="2.71233">
        <ele>1536.9848632812</ele>
        <time>2020-07-14T21:10:32.969Z</time>
      </trkpt>
      <trkpt lat="45.08715" lon="2.71235">
        <ele>1537.9326171875</ele>
        <time>2020-07-14T21:10:38.402Z</time>
      </trkpt>
      <trkpt lat="45.08713" lon="2.71237">
        <ele>1539.3004150391</ele>
        <time>2020-07-14T21:10:43.836Z</time>
      </trkpt>
      <trkpt lat="45.08711" lon="2.71239">
        <ele>1540.6682128906</ele>
        <time>2020-07-14T21:10:49.270Z</time>
      </trkpt>
      <trkpt lat="45.08709" lon="2.71244">
        <ele>1542.4106445312</ele>
        <time>2020-07-14T21:10:54.706Z</time>
      </trkpt>
      <trkpt lat="45.08708" lon="2.71245">
        <ele>1542.5905761719</ele>
        <time>2020-07-14T21:11:00.142Z</time>
      </trkpt>
      <trkpt lat="45.08705" lon="2.71249">
        <ele>1543.4248046875</ele>
        <time>2020-07-14T21:11:05.580Z</time>
      </trkpt>
      <trkpt lat="45.08701" lon="2.71253">
        <ele>1545.0085449219</ele>
        <time>2020-07-14T21:11:11.019Z</time>
      </trkpt>
      <trkpt lat="45.08699" lon="2.71256">
        <ele>1545.8190917969</ele>
        <time>2020-07-14T21:11:16.459Z</time>
      </trkpt>
      <trkpt lat="45.08693" lon="2.71262">
        <ele>1547.3309326172</ele>
        <time>2020-07-14T21:11:21.902Z</time>
      </trkpt>
      <trkpt lat="45.08691" lon="2.71265">
        <ele>1548.0627441406</ele>
        <time>2020-07-14T21:11:27.346Z</time>
      </trkpt>
      <trkpt lat="45.08689" lon="2.71267">
        <ele>1548.5666503906</ele>
        <time>2020-07-14T21:11:32.790Z</time>
      </trkpt>
      <trkpt lat="45.08686" lon="2.71269">
        <ele>1549.0946044922</ele>
        <time>2020-07-14T21:11:38.236Z</time>
      </trkpt>
      <trkpt lat="45.08684" lon="2.71272">
        <ele>1549.8264160156</ele>
        <time>2020-07-14T21:11:43.683Z</time>
      </trkpt>
      <trkpt lat="45.08682" lon="2.71274">
        <ele>1550.3303222656</ele>
        <time>2020-07-14T21:11:49.130Z</time>
      </trkpt>
      <trkpt lat="45.08681" lon="2.71274">
        <ele>1550.3543701172</ele>
        <time>2020-07-14T21:11:54.578Z</time>
      </trkpt>
      <trkpt lat="45.0868" lon="2.71274">
        <ele>1550.3784179688</ele>
        <time>2020-07-14T21:12:00.026Z</time>
      </trkpt>
      <trkpt lat="45.08678" lon="2.71273">
        <ele>1550.1983642578</ele>
        <time>2020-07-14T21:12:05.475Z</time>
      </trkpt>
      <trkpt lat="45.08676" lon="2.71273">
        <ele>1550.2463378906</ele>
        <time>2020-07-14T21:12:10.924Z</time>
      </trkpt>
      <trkpt lat="45.0867" lon="2.71271">
        <ele>1549.9344482422</ele>
        <time>2020-07-14T21:12:16.375Z</time>
      </trkpt>
      <trkpt lat="45.08666" lon="2.71269">
        <ele>1549.5744628906</ele>
        <time>2020-07-14T21:12:21.828Z</time>
      </trkpt>
      <trkpt lat="45.0866" lon="2.71266">
        <ele>1549.0345458984</ele>
        <time>2020-07-14T21:12:27.283Z</time>
      </trkpt>
      <trkpt lat="45.08657" lon="2.71264">
        <ele>1548.6506347656</ele>
        <time>2020-07-14T21:12:32.739Z</time>
      </trkpt>
      <trkpt lat="45.08655" lon="2.71262">
        <ele>1548.2426757812</ele>
        <time>2020-07-14T21:12:38.196Z</time>
      </trkpt>
      <trkpt lat="45.08652" lon="2.7126">
        <ele>1547.8587646484</ele>
        <time>2020-07-14T21:12:43.654Z</time>
      </trkpt>
      <trkpt lat="45.08649" lon="2.71258">
        <ele>1547.4748535156</ele>
        <time>2020-07-14T21:12:49.113Z</time>
      </trkpt>
      <trkpt lat="45.08647" lon="2.71255">
        <ele>1546.8389892578</ele>
        <time>2020-07-14T21:12:54.573Z</time>
      </trkpt>
      <trkpt lat="45.08644" lon="2.71252">
        <ele>1546.0043945312</ele>
        <time>2020-07-14T21:13:00.034Z</time>
      </trkpt>
      <trkpt lat="45.08641" lon="2.71248">
        <ele>1544.5886230469</ele>
        <time>2020-07-14T21:13:05.497Z</time>
      </trkpt>
      <trkpt lat="45.08637" lon="2.71245">
        <ele>1543.5688476562</ele>
        <time>2020-07-14T21:13:10.961Z</time>
      </trkpt>
      <trkpt lat="45.08636" lon="2.71243">
        <ele>1542.8488769531</ele>
        <time>2020-07-14T21:13:16.426Z</time>
      </trkpt>
      <trkpt lat="45.08632" lon="2.71243">
        <ele>1542.9449462891</ele>
        <time>2020-07-14T21:13:21.892Z</time>
      </trkpt>
      <trkpt lat="45.08631" lon="2.71243">
        <ele>1542.9688720703</ele>
        <time>2020-07-14T21:13:27.358Z</time>
      </trkpt>
      <trkpt lat="45.08629" lon="2.71241">
        <ele>1542.2730712891</ele>
        <time>2020-07-14T21:13:32.825Z</time>
      </trkpt>
      <trkpt lat="45.08626" lon="2.71238">
        <ele>1541.2926025391</ele>
        <time>2020-07-14T21:13:38.294Z</time>
      </trkpt>
      <trkpt lat="45.08625" lon="2.71235">
        <ele>1540.3327636719</ele>
        <time>2020-07-14T21:13:43.763Z</time>
      </trkpt>
      <trkpt lat="45.08621" lon="2.7123">
        <ele>1539.0970458984</ele>
        <time>2020-07-14T21:13:49.234Z</time>
      </trkpt>
      <trkpt lat="45.08611" lon="2.71217">
        <ele>1535.8215332031</ele>
        <time>2020-07-14T21:13:54.710Z</time>
      </trkpt>
      <trkpt lat="45.08608" lon="2.71213">
        <ele>1534.8017578125</ele>
        <time>2020-07-14T21:14:00.187Z</time>
      </trkpt>
      <trkpt lat="45.08604" lon="2.71208">
        <ele>1533.5659179688</ele>
        <time>2020-07-14T21:14:05.666Z</time>
      </trkpt>
      <trkpt lat="45.08603" lon="2.71207">
        <ele>1533.3499755859</ele>
        <time>2020-07-14T21:14:11.145Z</time>
      </trkpt>
      <trkpt lat="45.08601" lon="2.71206">
        <ele>1533.2900390625</ele>
        <time>2020-07-14T21:14:16.625Z</time>
      </trkpt>
      <trkpt lat="45.08597" lon="2.71204">
        <ele>1533.1700439453</ele>
        <time>2020-07-14T21:14:22.106Z</time>
      </trkpt>
      <trkpt lat="45.08589" lon="2.71202">
        <ele>1533.6739501953</ele>
        <time>2020-07-14T21:14:27.590Z</time>
      </trkpt>
      <trkpt lat="45.08585" lon="2.71202">
        <ele>1534.2978515625</ele>
        <time>2020-07-14T21:14:33.075Z</time>
      </trkpt>
      <trkpt lat="45.0858" lon="2.71203">
        <ele>1535.4495849609</ele>
        <time>2020-07-14T21:14:38.562Z</time>
      </trkpt>
      <trkpt lat="45.08577" lon="2.71203">
        <ele>1535.9176025391</ele>
        <time>2020-07-14T21:14:44.050Z</time>
      </trkpt>
      <trkpt lat="45.08574" lon="2.71205">
        <ele>1537.3181152344</ele>
        <time>2020-07-14T21:14:49.539Z</time>
      </trkpt>
      <trkpt lat="45.08572" lon="2.71205">
        <ele>1537.7260742188</ele>
        <time>2020-07-14T21:14:55.029Z</time>
      </trkpt>
      <trkpt lat="45.0857" lon="2.71205">
        <ele>1538.1340332031</ele>
        <time>2020-07-14T21:15:00.519Z</time>
      </trkpt>
      <trkpt lat="45.08566" lon="2.71205">
        <ele>1538.9498291016</ele>
        <time>2020-07-14T21:15:06.011Z</time>
      </trkpt>
      <trkpt lat="45.08564" lon="2.71204">
        <ele>1538.9378662109</ele>
        <time>2020-07-14T21:15:11.504Z</time>
      </trkpt>
      <trkpt lat="45.08559" lon="2.71203">
        <ele>1539.5378417969</ele>
        <time>2020-07-14T21:15:16.998Z</time>
      </trkpt>
      <trkpt lat="45.08549" lon="2.71203">
        <ele>1541.5773925781</ele>
        <time>2020-07-14T21:15:22.496Z</time>
      </trkpt>
      <trkpt lat="45.08544" lon="2.71203">
        <ele>1542.5972900391</ele>
        <time>2020-07-14T21:15:27.995Z</time>
      </trkpt>
      <trkpt lat="45.08537" lon="2.71203">
        <ele>1544.6137695312</ele>
        <time>2020-07-14T21:15:33.497Z</time>
      </trkpt>
      <trkpt lat="45.08532" lon="2.71203">
        <ele>1546.1135253906</ele>
        <time>2020-07-14T21:15:39.000Z</time>
      </trkpt>
      <trkpt lat="45.08527" lon="2.71203">
        <ele>1547.61328125</ele>
        <time>2020-07-14T21:15:44.505Z</time>
      </trkpt>
      <trkpt lat="45.08523" lon="2.712">
        <ele>1547.5532226562</ele>
        <time>2020-07-14T21:15:50.011Z</time>
      </trkpt>
      <trkpt lat="45.08519" lon="2.71198">
        <ele>1547.9132080078</ele>
        <time>2020-07-14T21:15:55.519Z</time>
      </trkpt>
      <trkpt lat="45.08517" lon="2.71195">
        <ele>1547.2532958984</ele>
        <time>2020-07-14T21:16:01.028Z</time>
      </trkpt>
      <trkpt lat="45.08515" lon="2.71192">
        <ele>1546.5933837891</ele>
        <time>2020-07-14T21:16:06.538Z</time>
      </trkpt>
      <trkpt lat="45.08512" lon="2.71186">
        <ele>1544.9737548828</ele>
        <time>2020-07-14T21:16:12.049Z</time>
      </trkpt>
      <trkpt lat="45.0851" lon="2.71181">
        <ele>1543.4739990234</ele>
        <time>2020-07-14T21:16:17.562Z</time>
      </trkpt>
      <trkpt lat="45.08507" lon="2.71177">
        <ele>1542.6940917969</ele>
        <time>2020-07-14T21:16:23.076Z</time>
      </trkpt>
      <trkpt lat="45.08504" lon="2.71171">
        <ele>1541.0743408203</ele>
        <time>2020-07-14T21:16:28.592Z</time>
      </trkpt>
      <trkpt lat="45.085" lon="2.71165">
        <ele>1540.5031738281</ele>
        <time>2020-07-14T21:16:34.110Z</time>
      </trkpt>
      <trkpt lat="45.08497" lon="2.7116">
        <ele>1540.0231933594</ele>
        <time>2020-07-14T21:16:39.629Z</time>
      </trkpt>
      <trkpt lat="45.08494" lon="2.71155">
        <ele>1539.5433349609</ele>
        <time>2020-07-14T21:16:45.150Z</time>
      </trkpt>
      <trkpt lat="45.08487" lon="2.71144">
        <ele>1538.607421875</ele>
        <time>2020-07-14T21:16:50.674Z</time>
      </trkpt>
      <trkpt lat="45.08483" lon="2.71141">
        <ele>1538.9793701172</ele>
        <time>2020-07-14T21:16:56.200Z</time>
      </trkpt>
      <trkpt lat="45.08481" lon="2.71139">
        <ele>1539.02734375</ele>
        <time>2020-07-14T21:17:01.727Z</time>
      </trkpt>
      <trkpt lat="45.0848" lon="2.71135">
        <ele>1538.2235107422</ele>
        <time>2020-07-14T21:17:07.255Z</time>
      </trkpt>
      <trkpt lat="45.08479" lon="2.71131">
        <ele>1537.4196777344</ele>
        <time>2020-07-14T21:17:12.784Z</time>
      </trkpt>
      <trkpt lat="45.08477" lon="2.71128">
        <ele>1537.1916503906</ele>
        <time>2020-07-14T21:17:18.314Z</time>
      </trkpt>
      <trkpt lat="45.08475" lon="2.71124">
        <ele>1536.6877441406</ele>
        <time>2020-07-14T21:17:23.845Z</time>
      </trkpt>
      <trkpt lat="45.08473" lon="2.7112">
        <ele>1536.1838378906</ele>
        <time>2020-07-14T21:17:29.377Z</time>
      </trkpt>
      <trkpt lat="45.08471" lon="2.71117">
        <ele>1535.9559326172</ele>
        <time>2020-07-14T21:17:34.910Z</time>
      </trkpt>
      <trkpt lat="45.08466" lon="2.71111">
        <ele>1535.7999267578</ele>
        <time>2020-07-14T21:17:40.445Z</time>
      </trkpt>
      <trkpt lat="45.08461" lon="2.71108">
        <ele>1536.4718017578</ele>
        <time>2020-07-14T21:17:45.982Z</time>
      </trkpt>
      <trkpt lat="45.08457" lon="2.71104">
        <ele>1536.6680908203</ele>
        <time>2020-07-14T21:17:51.521Z</time>
      </trkpt>
      <trkpt lat="45.08451" lon="2.711">
        <ele>1537.5799560547</ele>
        <time>2020-07-14T21:17:57.062Z</time>
      </trkpt>
      <trkpt lat="45.08447" lon="2.71097">
        <ele>1538.0958251953</ele>
        <time>2020-07-14T21:18:02.604Z</time>
      </trkpt>
      <trkpt lat="45.08444" lon="2.71095">
        <ele>1538.5517578125</ele>
        <time>2020-07-14T21:18:08.148Z</time>
      </trkpt>
      <trkpt lat="45.08441" lon="2.71093">
        <ele>1539.0076904297</ele>
        <time>2020-07-14T21:18:13.693Z</time>
      </trkpt>
      <trkpt lat="45.08437" lon="2.71091">
        <ele>1539.7995605469</ele>
        <time>2020-07-14T21:18:19.239Z</time>
      </trkpt>
      <trkpt lat="45.08433" lon="2.71089">
        <ele>1540.5914306641</ele>
        <time>2020-07-14T21:18:24.786Z</time>
      </trkpt>
      <trkpt lat="45.08431" lon="2.71087">
        <ele>1540.7114257812</ele>
        <time>2020-07-14T21:18:30.334Z</time>
      </trkpt>
      <trkpt lat="45.08424" lon="2.71082">
        <ele>1541.8579101562</ele>
        <time>2020-07-14T21:18:35.885Z</time>
      </trkpt>
      <trkpt lat="45.0842" lon="2.7108">
        <ele>1542.7218017578</ele>
        <time>2020-07-14T21:18:41.437Z</time>
      </trkpt>
      <trkpt lat="45.08415" lon="2.71078">
        <ele>1543.9215087891</ele>
        <time>2020-07-14T21:18:46.991Z</time>
      </trkpt>
      <trkpt lat="45.08411" lon="2.71076">
        <ele>1544.7854003906</ele>
        <time>2020-07-14T21:18:52.546Z</time>
      </trkpt>
      <trkpt lat="45.08407" lon="2.71073">
        <ele>1545.4093017578</ele>
        <time>2020-07-14T21:18:58.103Z</time>
      </trkpt>
      <trkpt lat="45.08401" lon="2.71069">
        <ele>1546.4650878906</ele>
        <time>2020-07-14T21:19:03.662Z</time>
      </trkpt>
      <trkpt lat="45.08399" lon="2.71067">
        <ele>1546.6571044922</ele>
        <time>2020-07-14T21:19:09.222Z</time>
      </trkpt>
      <trkpt lat="45.08395" lon="2.71067">
        <ele>1548.0008544922</ele>
        <time>2020-07-14T21:19:14.783Z</time>
      </trkpt>
      <trkpt lat="45.08392" lon="2.71066">
        <ele>1548.7687988281</ele>
        <time>2020-07-14T21:19:20.345Z</time>
      </trkpt>
      <trkpt lat="45.08387" lon="2.71064">
        <ele>1549.9685058594</ele>
        <time>2020-07-14T21:19:25.909Z</time>
      </trkpt>
      <trkpt lat="45.08383" lon="2.71061">
        <ele>1550.5924072266</ele>
        <time>2020-07-14T21:19:31.475Z</time>
      </trkpt>
      <trkpt lat="45.08379" lon="2.71059">
        <ele>1551.4562988281</ele>
        <time>2020-07-14T21:19:37.042Z</time>
      </trkpt>
      <trkpt lat="45.08377" lon="2.71056">
        <ele>1551.4083251953</ele>
        <time>2020-07-14T21:19:42.610Z</time>
      </trkpt>
      <trkpt lat="45.08375" lon="2.71053">
        <ele>1551.1530761719</ele>
        <time>2020-07-14T21:19:48.179Z</time>
      </trkpt>
      <trkpt lat="45.08373" lon="2.7105">
        <ele>1550.8171386719</ele>
        <time>2020-07-14T21:19:53.749Z</time>
      </trkpt>
      <trkpt lat="45.08368" lon="2.71042">
        <ele>1549.8572998047</ele>
        <time>2020-07-14T21:19:59.321Z</time>
      </trkpt>
      <trkpt lat="45.08364" lon="2.71035">
        <ele>1548.9454345703</ele>
        <time>2020-07-14T21:20:04.896Z</time>
      </trkpt>
      <trkpt lat="45.0836" lon="2.7103">
        <ele>1548.5135498047</ele>
        <time>2020-07-14T21:20:10.472Z</time>
      </trkpt>
      <trkpt lat="45.08358" lon="2.71028">
        <ele>1548.4176025391</ele>
        <time>2020-07-14T21:20:16.049Z</time>
      </trkpt>
      <trkpt lat="45.08357" lon="2.71026">
        <ele>1548.1296386719</ele>
        <time>2020-07-14T21:20:21.627Z</time>
      </trkpt>
      <trkpt lat="45.08355" lon="2.71023">
        <ele>1547.7937011719</ele>
        <time>2020-07-14T21:20:27.206Z</time>
      </trkpt>
      <trkpt lat="45.08353" lon="2.71019">
        <ele>1547.2177734375</ele>
        <time>2020-07-14T21:20:32.786Z</time>
      </trkpt>
      <trkpt lat="45.08346" lon="2.71009">
        <ele>1546.1619873047</ele>
        <time>2020-07-14T21:20:38.369Z</time>
      </trkpt>
      <trkpt lat="45.08342" lon="2.71005">
        <ele>1545.9699707031</ele>
        <time>2020-07-14T21:20:43.954Z</time>
      </trkpt>
      <trkpt lat="45.08337" lon="2.71">
        <ele>1545.7299804688</ele>
        <time>2020-07-14T21:20:49.541Z</time>
      </trkpt>
      <trkpt lat="45.08334" lon="2.70997">
        <ele>1545.5860595703</ele>
        <time>2020-07-14T21:20:55.129Z</time>
      </trkpt>
      <trkpt lat="45.08331" lon="2.70994">
        <ele>1545.4420166016</ele>
        <time>2020-07-14T21:21:00.718Z</time>
      </trkpt>
      <trkpt lat="45.08326" lon="2.70992">
        <ele>1545.9219970703</ele>
        <time>2020-07-14T21:21:06.309Z</time>
      </trkpt>
      <trkpt lat="45.08321" lon="2.7099">
        <ele>1546.4018554688</ele>
        <time>2020-07-14T21:21:11.902Z</time>
      </trkpt>
      <trkpt lat="45.08317" lon="2.70988">
        <ele>1546.6898193359</ele>
        <time>2020-07-14T21:21:17.496Z</time>
      </trkpt>
      <trkpt lat="45.08308" lon="2.70984">
        <ele>1547.4577636719</ele>
        <time>2020-07-14T21:21:23.093Z</time>
      </trkpt>
      <trkpt lat="45.08296" lon="2.70979">
        <ele>1548.5615234375</ele>
        <time>2020-07-14T21:21:28.695Z</time>
      </trkpt>
      <trkpt lat="45.08293" lon="2.70977">
        <ele>1548.6696777344</ele>
        <time>2020-07-14T21:21:34.298Z</time>
      </trkpt>
      <trkpt lat="45.08288" lon="2.70973">
        <ele>1549.3295898438</ele>
        <time>2020-07-14T21:21:39.903Z</time>
      </trkpt>
      <trkpt lat="45.08282" lon="2.70969">
        <ele>1550.3133544922</ele>
        <time>2020-07-14T21:21:45.510Z</time>
      </trkpt>
      <trkpt lat="45.0828" lon="2.70967">
        <ele>1550.4813232422</ele>
        <time>2020-07-14T21:21:51.118Z</time>
      </trkpt>
      <trkpt lat="45.08277" lon="2.70964">
        <ele>1550.7332763672</ele>
        <time>2020-07-14T21:21:56.727Z</time>
      </trkpt>
      <trkpt lat="45.08274" lon="2.7096">
        <ele>1550.7453613281</ele>
        <time>2020-07-14T21:22:02.337Z</time>
      </trkpt>
      <trkpt lat="45.0827" lon="2.70957">
        <ele>1551.3211669922</ele>
        <time>2020-07-14T21:22:07.949Z</time>
      </trkpt>
      <trkpt lat="45.08268" lon="2.70954">
        <ele>1551.2492675781</ele>
        <time>2020-07-14T21:22:13.562Z</time>
      </trkpt>
      <trkpt lat="45.08267" lon="2.70952">
        <ele>1551.0932617188</ele>
        <time>2020-07-14T21:22:19.175Z</time>
      </trkpt>
      <trkpt lat="45.08266" lon="2.7095">
        <ele>1550.9372558594</ele>
        <time>2020-07-14T21:22:24.789Z</time>
      </trkpt>
      <trkpt lat="45.08263" lon="2.70945">
        <ele>1550.7093505859</ele>
        <time>2020-07-14T21:22:30.404Z</time>
      </trkpt>
      <trkpt lat="45.08256" lon="2.70936">
        <ele>1550.8172607422</ele>
        <time>2020-07-14T21:22:36.023Z</time>
      </trkpt>
      <trkpt lat="45.08249" lon="2.70926">
        <ele>1550.6853027344</ele>
        <time>2020-07-14T21:22:41.645Z</time>
      </trkpt>
      <trkpt lat="45.08244" lon="2.70921">
        <ele>1551.1052246094</ele>
        <time>2020-07-14T21:22:47.269Z</time>
      </trkpt>
      <trkpt lat="45.08244" lon="2.70919">
        <ele>1550.8198242188</ele>
        <time>2020-07-14T21:22:52.893Z</time>
      </trkpt>
      <trkpt lat="45.08244" lon="2.70903">
        <ele>1549.66796875</ele>
        <time>2020-07-14T21:22:58.521Z</time>
      </trkpt>
      <trkpt lat="45.08246" lon="2.70892">
        <ele>1548.2282714844</ele>
        <time>2020-07-14T21:23:04.152Z</time>
      </trkpt>
      <trkpt lat="45.08247" lon="2.70878">
        <ele>1546.896484375</ele>
        <time>2020-07-14T21:23:09.786Z</time>
      </trkpt>
      <trkpt lat="45.08248" lon="2.70863">
        <ele>1544.3345947266</ele>
        <time>2020-07-14T21:23:15.424Z</time>
      </trkpt>
      <trkpt lat="45.08248" lon="2.70862">
        <ele>1544.1666259766</ele>
        <time>2020-07-14T21:23:21.062Z</time>
      </trkpt>
      <trkpt lat="45.08248" lon="2.7086">
        <ele>1543.8306884766</ele>
        <time>2020-07-14T21:23:26.700Z</time>
      </trkpt>
      <trkpt lat="45.0825" lon="2.70855">
        <ele>1542.1508789062</ele>
        <time>2020-07-14T21:23:32.340Z</time>
      </trkpt>
      <trkpt lat="45.08252" lon="2.70848">
        <ele>1540.1352539062</ele>
        <time>2020-07-14T21:23:37.982Z</time>
      </trkpt>
      <trkpt lat="45.08254" lon="2.70837">
        <ele>1537.4477539062</ele>
        <time>2020-07-14T21:23:43.626Z</time>
      </trkpt>
      <trkpt lat="45.08255" lon="2.70834">
        <ele>1536.7261962891</ele>
        <time>2020-07-14T21:23:49.271Z</time>
      </trkpt>
      <trkpt lat="45.08257" lon="2.70826">
        <ele>1535.1184082031</ele>
        <time>2020-07-14T21:23:54.918Z</time>
      </trkpt>
      <trkpt lat="45.08258" lon="2.70818">
        <ele>1533.9306640625</ele>
        <time>2020-07-14T21:24:00.567Z</time>
      </trkpt>
      <trkpt lat="45.08258" lon="2.70813">
        <ele>1533.4506835938</ele>
        <time>2020-07-14T21:24:06.217Z</time>
      </trkpt>
      <trkpt lat="45.0826" lon="2.70797">
        <ele>1530.9945068359</ele>
        <time>2020-07-14T21:24:11.871Z</time>
      </trkpt>
      <trkpt lat="45.08262" lon="2.70785">
        <ele>1528.8348388672</ele>
        <time>2020-07-14T21:24:17.528Z</time>
      </trkpt>
      <trkpt lat="45.08264" lon="2.70776">
        <ele>1526.9991455078</ele>
        <time>2020-07-14T21:24:23.187Z</time>
      </trkpt>
      <trkpt lat="45.08267" lon="2.7077">
        <ele>1525.0555419922</ele>
        <time>2020-07-14T21:24:28.848Z</time>
      </trkpt>
      <trkpt lat="45.0827" lon="2.70764">
        <ele>1523.1118164062</ele>
        <time>2020-07-14T21:24:34.511Z</time>
      </trkpt>
      <trkpt lat="45.08278" lon="2.7075">
        <ele>1518.0200195312</ele>
        <time>2020-07-14T21:24:40.178Z</time>
      </trkpt>
      <trkpt lat="45.08283" lon="2.7074">
        <ele>1514.5823974609</ele>
        <time>2020-07-14T21:24:45.848Z</time>
      </trkpt>
      <trkpt lat="45.08286" lon="2.70734">
        <ele>1512.8546142578</ele>
        <time>2020-07-14T21:24:51.519Z</time>
      </trkpt>
      <trkpt lat="45.08287" lon="2.70728">
        <ele>1511.8947753906</ele>
        <time>2020-07-14T21:24:57.192Z</time>
      </trkpt>
      <trkpt lat="45.08287" lon="2.7072">
        <ele>1511.126953125</ele>
        <time>2020-07-14T21:25:02.867Z</time>
      </trkpt>
      <trkpt lat="45.08287" lon="2.70716">
        <ele>1510.7430419922</ele>
        <time>2020-07-14T21:25:08.543Z</time>
      </trkpt>
      <trkpt lat="45.08289" lon="2.70707">
        <ele>1509.111328125</ele>
        <time>2020-07-14T21:25:14.221Z</time>
      </trkpt>
      <trkpt lat="45.08291" lon="2.70699">
        <ele>1507.5755615234</ele>
        <time>2020-07-14T21:25:19.901Z</time>
      </trkpt>
      <trkpt lat="45.08292" lon="2.7069">
        <ele>1506.3277587891</ele>
        <time>2020-07-14T21:25:25.583Z</time>
      </trkpt>
      <trkpt lat="45.08292" lon="2.70684">
        <ele>1505.7518310547</ele>
        <time>2020-07-14T21:25:31.267Z</time>
      </trkpt>
      <trkpt lat="45.08289" lon="2.70673">
        <ele>1505.8479003906</ele>
        <time>2020-07-14T21:25:36.953Z</time>
      </trkpt>
      <trkpt lat="45.08288" lon="2.70671">
        <ele>1506.0397949219</ele>
        <time>2020-07-14T21:25:42.640Z</time>
      </trkpt>
      <trkpt lat="45.08285" lon="2.70662">
        <ele>1505.8411865234</ele>
        <time>2020-07-14T21:25:48.329Z</time>
      </trkpt>
      <trkpt lat="45.08284" lon="2.7066">
        <ele>1505.9251708984</ele>
        <time>2020-07-14T21:25:54.019Z</time>
      </trkpt>
      <trkpt lat="45.08284" lon="2.70656">
        <ele>1505.3492431641</ele>
        <time>2020-07-14T21:25:59.710Z</time>
      </trkpt>
      <trkpt lat="45.08287" lon="2.70647">
        <ele>1502.9376220703</ele>
        <time>2020-07-14T21:26:05.403Z</time>
      </trkpt>
      <trkpt lat="45.0829" lon="2.70638">
        <ele>1500.5260009766</ele>
        <time>2020-07-14T21:26:11.098Z</time>
      </trkpt>
      <trkpt lat="45.08294" lon="2.7063">
        <ele>1497.8756103516</ele>
        <time>2020-07-14T21:26:16.796Z</time>
      </trkpt>
      <trkpt lat="45.08295" lon="2.70626">
        <ele>1496.9157714844</ele>
        <time>2020-07-14T21:26:22.495Z</time>
      </trkpt>
      <trkpt lat="45.08295" lon="2.70623">
        <ele>1496.4838867188</ele>
        <time>2020-07-14T21:26:28.194Z</time>
      </trkpt>
      <trkpt lat="45.08295" lon="2.70614">
        <ele>1495.1881103516</ele>
        <time>2020-07-14T21:26:33.896Z</time>
      </trkpt>
      <trkpt lat="45.08296" lon="2.70606">
        <ele>1493.65234375</ele>
        <time>2020-07-14T21:26:39.600Z</time>
      </trkpt>
      <trkpt lat="45.08295" lon="2.70596">
        <ele>1492.5964355469</ele>
        <time>2020-07-14T21:26:45.306Z</time>
      </trkpt>
      <trkpt lat="45.08296" lon="2.70591">
        <ele>1491.4926757812</ele>
        <time>2020-07-14T21:26:51.013Z</time>
      </trkpt>
      <trkpt lat="45.08296" lon="2.7058">
        <ele>1489.9901123047</ele>
        <time>2020-07-14T21:26:56.723Z</time>
      </trkpt>
      <trkpt lat="45.08296" lon="2.70574">
        <ele>1489.1982421875</ele>
        <time>2020-07-14T21:27:02.434Z</time>
      </trkpt>
      <trkpt lat="45.08296" lon="2.70565">
        <ele>1488.0104980469</ele>
        <time>2020-07-14T21:27:08.147Z</time>
      </trkpt>
      <trkpt lat="45.08296" lon="2.70559">
        <ele>1487.2186279297</ele>
        <time>2020-07-14T21:27:13.862Z</time>
      </trkpt>
      <trkpt lat="45.08297" lon="2.70552">
        <ele>1485.9107666016</ele>
        <time>2020-07-14T21:27:19.578Z</time>
      </trkpt>
      <trkpt lat="45.08298" lon="2.70544">
        <ele>1484.4710693359</ele>
        <time>2020-07-14T21:27:25.296Z</time>
      </trkpt>
      <trkpt lat="45.08298" lon="2.70538">
        <ele>1483.6791992188</ele>
        <time>2020-07-14T21:27:31.016Z</time>
      </trkpt>
      <trkpt lat="45.08299" lon="2.70531">
        <ele>1482.3714599609</ele>
        <time>2020-07-14T21:27:36.737Z</time>
      </trkpt>
      <trkpt lat="45.08299" lon="2.70529">
        <ele>1482.107421875</ele>
        <time>2020-07-14T21:27:42.459Z</time>
      </trkpt>
      <trkpt lat="45.08299" lon="2.70526">
        <ele>1481.7115478516</ele>
        <time>2020-07-14T21:27:48.182Z</time>
      </trkpt>
      <trkpt lat="45.08298" lon="2.70522">
        <ele>1481.5675048828</ele>
        <time>2020-07-14T21:27:53.906Z</time>
      </trkpt>
      <trkpt lat="45.08298" lon="2.70521">
        <ele>1481.435546875</ele>
        <time>2020-07-14T21:27:59.630Z</time>
      </trkpt>
      <trkpt lat="45.08298" lon="2.70517">
        <ele>1480.9077148438</ele>
        <time>2020-07-14T21:28:05.355Z</time>
      </trkpt>
      <trkpt lat="45.08299" lon="2.70508">
        <ele>1479.240234375</ele>
        <time>2020-07-14T21:28:11.082Z</time>
      </trkpt>
      <trkpt lat="45.083" lon="2.70504">
        <ele>1477.9683837891</ele>
        <time>2020-07-14T21:28:16.810Z</time>
      </trkpt>
      <trkpt lat="45.083" lon="2.70502">
        <ele>1477.5604248047</ele>
        <time>2020-07-14T21:28:22.538Z</time>
      </trkpt>
      <trkpt lat="45.083" lon="2.70499">
        <ele>1476.9486083984</ele>
        <time>2020-07-14T21:28:28.267Z</time>
      </trkpt>
      <trkpt lat="45.083" lon="2.70492">
        <ele>1475.5208740234</ele>
        <time>2020-07-14T21:28:33.998Z</time>
      </trkpt>
      <trkpt lat="45.083" lon="2.70489">
        <ele>1474.9089355469</ele>
        <time>2020-07-14T21:28:39.729Z</time>
      </trkpt>
      <trkpt lat="45.083" lon="2.70485">
        <ele>1474.0930175781</ele>
        <time>2020-07-14T21:28:45.461Z</time>
      </trkpt>
      <trkpt lat="45.08299" lon="2.70482">
        <ele>1473.9371337891</ele>
        <time>2020-07-14T21:28:51.194Z</time>
      </trkpt>
      <trkpt lat="45.08298" lon="2.70477">
        <ele>1473.3731689453</ele>
        <time>2020-07-14T21:28:56.928Z</time>
      </trkpt>
      <trkpt lat="45.08297" lon="2.70473">
        <ele>1473.0131835938</ele>
        <time>2020-07-14T21:29:02.663Z</time>
      </trkpt>
      <trkpt lat="45.08295" lon="2.70466">
        <ele>1472.4973144531</ele>
        <time>2020-07-14T21:29:08.400Z</time>
      </trkpt>
      <trkpt lat="45.08293" lon="2.70461">
        <ele>1472.3728027344</ele>
        <time>2020-07-14T21:29:14.139Z</time>
      </trkpt>
      <trkpt lat="45.08288" lon="2.70449">
        <ele>1471.3049316406</ele>
        <time>2020-07-14T21:29:19.881Z</time>
      </trkpt>
      <trkpt lat="45.08284" lon="2.70441">
        <ele>1470.7770996094</ele>
        <time>2020-07-14T21:29:25.625Z</time>
      </trkpt>
      <trkpt lat="45.08282" lon="2.70435">
        <ele>1470.1052246094</ele>
        <time>2020-07-14T21:29:31.371Z</time>
      </trkpt>
      <trkpt lat="45.08279" lon="2.70428">
        <ele>1469.5052490234</ele>
        <time>2020-07-14T21:29:37.119Z</time>
      </trkpt>
      <trkpt lat="45.08275" lon="2.7042">
        <ele>1468.9737548828</ele>
        <time>2020-07-14T21:29:42.869Z</time>
      </trkpt>
      <trkpt lat="45.08274" lon="2.70415">
        <ele>1467.9899902344</ele>
        <time>2020-07-14T21:29:48.620Z</time>
      </trkpt>
      <trkpt lat="45.08273" lon="2.70412">
        <ele>1467.5100097656</ele>
        <time>2020-07-14T21:29:54.372Z</time>
      </trkpt>
      <trkpt lat="45.08271" lon="2.70406">
        <ele>1466.5501708984</ele>
        <time>2020-07-14T21:30:00.126Z</time>
      </trkpt>
      <trkpt lat="45.0827" lon="2.70398">
        <ele>1464.810546875</ele>
        <time>2020-07-14T21:30:05.881Z</time>
      </trkpt>
      <trkpt lat="45.08269" lon="2.70394">
        <ele>1464.2451171875</ele>
        <time>2020-07-14T21:30:11.637Z</time>
      </trkpt>
      <trkpt lat="45.08269" lon="2.7039">
        <ele>1463.5732421875</ele>
        <time>2020-07-14T21:30:17.394Z</time>
      </trkpt>
      <trkpt lat="45.08267" lon="2.70379">
        <ele>1462.1094970703</ele>
        <time>2020-07-14T21:30:23.154Z</time>
      </trkpt>
      <trkpt lat="45.08266" lon="2.70376">
        <ele>1461.7974853516</ele>
        <time>2020-07-14T21:30:28.915Z</time>
      </trkpt>
      <trkpt lat="45.08264" lon="2.70365">
        <ele>1460.3337402344</ele>
        <time>2020-07-14T21:30:34.679Z</time>
      </trkpt>
      <trkpt lat="45.08263" lon="2.70364">
        <ele>1460.3577880859</ele>
        <time>2020-07-14T21:30:40.443Z</time>
      </trkpt>
      <trkpt lat="45.08261" lon="2.70356">
        <ele>1459.3979492188</ele>
        <time>2020-07-14T21:30:46.209Z</time>
      </trkpt>
      <trkpt lat="45.08261" lon="2.70353">
        <ele>1458.8940429688</ele>
        <time>2020-07-14T21:30:51.976Z</time>
      </trkpt>
      <trkpt lat="45.0826" lon="2.70345">
        <ele>1457.7421875</ele>
        <time>2020-07-14T21:30:57.745Z</time>
      </trkpt>
      <trkpt lat="45.08259" lon="2.70342">
        <ele>1457.4302978516</ele>
        <time>2020-07-14T21:31:03.514Z</time>
      </trkpt>
      <trkpt lat="45.08259" lon="2.70338">
        <ele>1456.7584228516</ele>
        <time>2020-07-14T21:31:09.284Z</time>
      </trkpt>
      <trkpt lat="45.08258" lon="2.70334">
        <ele>1456.2457275391</ele>
        <time>2020-07-14T21:31:15.055Z</time>
      </trkpt>
      <trkpt lat="45.08255" lon="2.70326">
        <ele>1455.3818359375</ele>
        <time>2020-07-14T21:31:20.828Z</time>
      </trkpt>
      <trkpt lat="45.08254" lon="2.70323">
        <ele>1455.0339355469</ele>
        <time>2020-07-14T21:31:26.602Z</time>
      </trkpt>
      <trkpt lat="45.08253" lon="2.70321">
        <ele>1454.8659667969</ele>
        <time>2020-07-14T21:31:32.377Z</time>
      </trkpt>
      <trkpt lat="45.08249" lon="2.70311">
        <ele>1453.8341064453</ele>
        <time>2020-07-14T21:31:38.155Z</time>
      </trkpt>
      <trkpt lat="45.08248" lon="2.70309">
        <ele>1453.6661376953</ele>
        <time>2020-07-14T21:31:43.933Z</time>
      </trkpt>
      <trkpt lat="45.08244" lon="2.703">
        <ele>1452.8143310547</ele>
        <time>2020-07-14T21:31:49.714Z</time>
      </trkpt>
      <trkpt lat="45.08243" lon="2.70298">
        <ele>1452.6463623047</ele>
        <time>2020-07-14T21:31:55.495Z</time>
      </trkpt>
      <trkpt lat="45.08242" lon="2.70294">
        <ele>1452.1184082031</ele>
        <time>2020-07-14T21:32:01.277Z</time>
      </trkpt>
      <trkpt lat="45.0824" lon="2.70291">
        <ele>1451.9624023438</ele>
        <time>2020-07-14T21:32:07.060Z</time>
      </trkpt>
      <trkpt lat="45.08237" lon="2.70285">
        <ele>1451.4584960938</ele>
        <time>2020-07-14T21:32:12.845Z</time>
      </trkpt>
      <trkpt lat="45.08235" lon="2.70281">
        <ele>1451.1225585938</ele>
        <time>2020-07-14T21:32:18.631Z</time>
      </trkpt>
      <trkpt lat="45.08232" lon="2.7028">
        <ele>1451.5185546875</ele>
        <time>2020-07-14T21:32:24.418Z</time>
      </trkpt>
      <trkpt lat="45.08229" lon="2.70278">
        <ele>1451.7344970703</ele>
        <time>2020-07-14T21:32:30.206Z</time>
      </trkpt>
      <trkpt lat="45.08226" lon="2.70275">
        <ele>1451.7705078125</ele>
        <time>2020-07-14T21:32:35.995Z</time>
      </trkpt>
      <trkpt lat="45.08223" lon="2.70273">
        <ele>1451.9864501953</ele>
        <time>2020-07-14T21:32:41.786Z</time>
      </trkpt>
      <trkpt lat="45.08218" lon="2.7027">
        <ele>1452.4063720703</ele>
        <time>2020-07-14T21:32:47.578Z</time>
      </trkpt>
      <trkpt lat="45.08212" lon="2.70264">
        <ele>1452.4783935547</ele>
        <time>2020-07-14T21:32:53.373Z</time>
      </trkpt>
      <trkpt lat="45.08209" lon="2.7026">
        <ele>1452.1378173828</ele>
        <time>2020-07-14T21:32:59.169Z</time>
      </trkpt>
      <trkpt lat="45.08207" lon="2.70257">
        <ele>1451.4539794922</ele>
        <time>2020-07-14T21:33:04.966Z</time>
      </trkpt>
      <trkpt lat="45.08205" lon="2.70254">
        <ele>1450.7700195312</ele>
        <time>2020-07-14T21:33:10.764Z</time>
      </trkpt>
      <trkpt lat="45.08199" lon="2.70245">
        <ele>1448.2156982422</ele>
        <time>2020-07-14T21:33:16.565Z</time>
      </trkpt>
      <trkpt lat="45.08196" lon="2.70242">
        <ele>1447.2797851562</ele>
        <time>2020-07-14T21:33:22.367Z</time>
      </trkpt>
      <trkpt lat="45.08193" lon="2.70239">
        <ele>1446.3439941406</ele>
        <time>2020-07-14T21:33:28.171Z</time>
      </trkpt>
      <trkpt lat="45.0819" lon="2.70236">
        <ele>1445.408203125</ele>
        <time>2020-07-14T21:33:33.976Z</time>
      </trkpt>
      <trkpt lat="45.08188" lon="2.70232">
        <ele>1444.3043212891</ele>
        <time>2020-07-14T21:33:39.782Z</time>
      </trkpt>
      <trkpt lat="45.08186" lon="2.7023">
        <ele>1443.6804199219</ele>
        <time>2020-07-14T21:33:45.589Z</time>
      </trkpt>
      <trkpt lat="45.08184" lon="2.70228">
        <ele>1443.0565185547</ele>
        <time>2020-07-14T21:33:51.397Z</time>
      </trkpt>
      <trkpt lat="45.08183" lon="2.70226">
        <ele>1442.5885009766</ele>
        <time>2020-07-14T21:33:57.205Z</time>
      </trkpt>
      <trkpt lat="45.08176" lon="2.70225">
        <ele>1441.7607421875</ele>
        <time>2020-07-14T21:34:03.015Z</time>
      </trkpt>
      <trkpt lat="45.08158" lon="2.70222">
        <ele>1439.7451171875</ele>
        <time>2020-07-14T21:34:08.831Z</time>
      </trkpt>
      <trkpt lat="45.08132" lon="2.7022">
        <ele>1437.3934326172</ele>
        <time>2020-07-14T21:34:14.656Z</time>
      </trkpt>
      <trkpt lat="45.08101" lon="2.70217">
        <ele>1436.2702636719</ele>
        <time>2020-07-14T21:34:20.492Z</time>
      </trkpt>
      <trkpt lat="45.0808" lon="2.70208">
        <ele>1434.1595458984</ele>
        <time>2020-07-14T21:34:26.335Z</time>
      </trkpt>
      <trkpt lat="45.08062" lon="2.70196">
        <ele>1431.5678710938</ele>
        <time>2020-07-14T21:34:32.184Z</time>
      </trkpt>
      <trkpt lat="45.08051" lon="2.70194">
        <ele>1431.5198974609</ele>
        <time>2020-07-14T21:34:38.037Z</time>
      </trkpt>
      <trkpt lat="45.08037" lon="2.70194">
        <ele>1431.7562255859</ele>
        <time>2020-07-14T21:34:43.895Z</time>
      </trkpt>
      <trkpt lat="45.08008" lon="2.70196">
        <ele>1431.6363525391</ele>
        <time>2020-07-14T21:34:49.763Z</time>
      </trkpt>
      <trkpt lat="45.07974" lon="2.70198">
        <ele>1433.0364990234</ele>
        <time>2020-07-14T21:34:55.642Z</time>
      </trkpt>
      <trkpt lat="45.07934" lon="2.70207">
        <ele>1436.2298583984</ele>
        <time>2020-07-14T21:35:01.534Z</time>
      </trkpt>
      <trkpt lat="45.07914" lon="2.70213">
        <ele>1437.3015136719</ele>
        <time>2020-07-14T21:35:07.433Z</time>
      </trkpt>
      <trkpt lat="45.07889" lon="2.70216">
        <ele>1437.0616455078</ele>
        <time>2020-07-14T21:35:13.341Z</time>
      </trkpt>
      <trkpt lat="45.07864" lon="2.70222">
        <ele>1438.6744384766</ele>
        <time>2020-07-14T21:35:19.257Z</time>
      </trkpt>
      <trkpt lat="45.07835" lon="2.70229">
        <ele>1440.2475585938</ele>
        <time>2020-07-14T21:35:25.183Z</time>
      </trkpt>
      <trkpt lat="45.07819" lon="2.70236">
        <ele>1441.6153564453</ele>
        <time>2020-07-14T21:35:31.114Z</time>
      </trkpt>
      <trkpt lat="45.07796" lon="2.70244">
        <ele>1442.8391113281</ele>
        <time>2020-07-14T21:35:37.053Z</time>
      </trkpt>
      <trkpt lat="45.0778" lon="2.70248">
        <ele>1443.0086669922</ele>
        <time>2020-07-14T21:35:42.998Z</time>
      </trkpt>
      <trkpt lat="45.0776" lon="2.70255">
        <ele>1443.3371582031</ele>
        <time>2020-07-14T21:35:48.950Z</time>
      </trkpt>
      <trkpt lat="45.07746" lon="2.70257">
        <ele>1442.6171875</ele>
        <time>2020-07-14T21:35:54.906Z</time>
      </trkpt>
      <trkpt lat="45.07733" lon="2.7026">
        <ele>1442.3052978516</ele>
        <time>2020-07-14T21:36:00.867Z</time>
      </trkpt>
      <trkpt lat="45.0772" lon="2.70263">
        <ele>1441.9932861328</ele>
        <time>2020-07-14T21:36:06.832Z</time>
      </trkpt>
      <trkpt lat="45.07708" lon="2.70258">
        <ele>1438.5810546875</ele>
        <time>2020-07-14T21:36:12.801Z</time>
      </trkpt>
      <trkpt lat="45.07699" lon="2.70252">
        <ele>1436.9224853516</ele>
        <time>2020-07-14T21:36:18.774Z</time>
      </trkpt>
      <trkpt lat="45.07687" lon="2.70249">
        <ele>1435.5186767578</ele>
        <time>2020-07-14T21:36:24.751Z</time>
      </trkpt>
      <trkpt lat="45.07679" lon="2.7024">
        <ele>1433.6590576172</ele>
        <time>2020-07-14T21:36:30.731Z</time>
      </trkpt>
      <trkpt lat="45.07669" lon="2.7024">
        <ele>1432.8192138672</ele>
        <time>2020-07-14T21:36:36.714Z</time>
      </trkpt>
      <trkpt lat="45.07663" lon="2.70236">
        <ele>1431.7873535156</ele>
        <time>2020-07-14T21:36:42.700Z</time>
      </trkpt>
      <trkpt lat="45.07657" lon="2.70236">
        <ele>1431.2834472656</ele>
        <time>2020-07-14T21:36:48.688Z</time>
      </trkpt>
      <trkpt lat="45.0765" lon="2.70238">
        <ele>1430.9594726562</ele>
        <time>2020-07-14T21:36:54.678Z</time>
      </trkpt>
      <trkpt lat="45.07646" lon="2.70233">
        <ele>1429.9636230469</ele>
        <time>2020-07-14T21:37:00.670Z</time>
      </trkpt>
      <trkpt lat="45.07637" lon="2.70224">
        <ele>1428.0200195312</ele>
        <time>2020-07-14T21:37:06.665Z</time>
      </trkpt>
      <trkpt lat="45.07628" lon="2.70221">
        <ele>1426.8681640625</ele>
        <time>2020-07-14T21:37:12.664Z</time>
      </trkpt>
      <trkpt lat="45.07614" lon="2.70219">
        <ele>1426.4626464844</ele>
        <time>2020-07-14T21:37:18.667Z</time>
      </trkpt>
      <trkpt lat="45.07604" lon="2.70219">
        <ele>1426.4626464844</ele>
        <time>2020-07-14T21:37:24.674Z</time>
      </trkpt>
      <trkpt lat="45.07599" lon="2.70211">
        <ele>1425.4067382812</ele>
        <time>2020-07-14T21:37:30.683Z</time>
      </trkpt>
      <trkpt lat="45.07586" lon="2.70153">
        <ele>1418.5694580078</ele>
        <time>2020-07-14T21:37:36.706Z</time>
      </trkpt>
      <trkpt lat="45.07574" lon="2.70132">
        <ele>1416.8057861328</ele>
        <time>2020-07-14T21:37:42.736Z</time>
      </trkpt>
      <trkpt lat="45.07565" lon="2.70113">
        <ele>1415.2100830078</ele>
        <time>2020-07-14T21:37:48.771Z</time>
      </trkpt>
      <trkpt lat="45.07554" lon="2.70103">
        <ele>1414.3702392578</ele>
        <time>2020-07-14T21:37:54.811Z</time>
      </trkpt>
      <trkpt lat="45.07534" lon="2.70058">
        <ele>1407.1063232422</ele>
        <time>2020-07-14T21:38:00.863Z</time>
      </trkpt>
      <trkpt lat="45.07523" lon="2.70045">
        <ele>1404.9346923828</ele>
        <time>2020-07-14T21:38:06.920Z</time>
      </trkpt>
      <trkpt lat="45.07516" lon="2.69985">
        <ele>1394.1811523438</ele>
        <time>2020-07-14T21:38:12.991Z</time>
      </trkpt>
      <trkpt lat="45.07499" lon="2.69977">
        <ele>1394.6370849609</ele>
        <time>2020-07-14T21:38:19.068Z</time>
      </trkpt>
      <trkpt lat="45.07487" lon="2.69973">
        <ele>1395.1169433594</ele>
        <time>2020-07-14T21:38:25.149Z</time>
      </trkpt>
      <trkpt lat="45.07477" lon="2.69965">
        <ele>1395.0689697266</ele>
        <time>2020-07-14T21:38:31.234Z</time>
      </trkpt>
      <trkpt lat="45.07474" lon="2.69954">
        <ele>1394.2291259766</ele>
        <time>2020-07-14T21:38:37.322Z</time>
      </trkpt>
      <trkpt lat="45.07475" lon="2.69943">
        <ele>1393.1013183594</ele>
        <time>2020-07-14T21:38:43.413Z</time>
      </trkpt>
      <trkpt lat="45.07478" lon="2.69906">
        <ele>1385.2163085938</ele>
        <time>2020-07-14T21:38:49.512Z</time>
      </trkpt>
      <trkpt lat="45.07477" lon="2.6988">
        <ele>1385.2642822266</ele>
        <time>2020-07-14T21:38:55.618Z</time>
      </trkpt>
      <trkpt lat="45.07474" lon="2.69853">
        <ele>1386.0201416016</ele>
        <time>2020-07-14T21:39:01.730Z</time>
      </trkpt>
      <trkpt lat="45.07468" lon="2.69825">
        <ele>1385.1566162109</ele>
        <time>2020-07-14T21:39:07.849Z</time>
      </trkpt>
      <trkpt lat="45.07461" lon="2.69792">
        <ele>1385.9365234375</ele>
        <time>2020-07-14T21:39:13.976Z</time>
      </trkpt>
      <trkpt lat="45.07455" lon="2.69758">
        <ele>1385.1142578125</ele>
        <time>2020-07-14T21:39:20.111Z</time>
      </trkpt>
      <trkpt lat="45.07451" lon="2.69733">
        <ele>1381.859375</ele>
        <time>2020-07-14T21:39:26.252Z</time>
      </trkpt>
      <trkpt lat="45.07449" lon="2.69725">
        <ele>1380.9234619141</ele>
        <time>2020-07-14T21:39:32.395Z</time>
      </trkpt>
      <trkpt lat="45.07443" lon="2.69709">
        <ele>1379.7476806641</ele>
        <time>2020-07-14T21:39:38.543Z</time>
      </trkpt>
      <trkpt lat="45.0744" lon="2.69707">
        <ele>1380.3835449219</ele>
        <time>2020-07-14T21:39:44.692Z</time>
      </trkpt>
      <trkpt lat="45.07437" lon="2.69706">
        <ele>1381.2233886719</ele>
        <time>2020-07-14T21:39:50.842Z</time>
      </trkpt>
      <trkpt lat="45.07429" lon="2.69712">
        <ele>1385.2308349609</ele>
        <time>2020-07-14T21:39:56.995Z</time>
      </trkpt>
      <trkpt lat="45.07419" lon="2.6972">
        <ele>1390.4298095703</ele>
        <time>2020-07-14T21:40:03.152Z</time>
      </trkpt>
      <trkpt lat="45.07395" lon="2.69731">
        <ele>1401.4439697266</ele>
        <time>2020-07-14T21:40:09.317Z</time>
      </trkpt>
      <trkpt lat="45.07369" lon="2.69743">
        <ele>1410.0782470703</ele>
        <time>2020-07-14T21:40:15.491Z</time>
      </trkpt>
      <trkpt lat="45.07361" lon="2.69749">
        <ele>1410.3427734375</ele>
        <time>2020-07-14T21:40:21.668Z</time>
      </trkpt>
      <trkpt lat="45.0734" lon="2.69774">
        <ele>1411.3804931641</ele>
        <time>2020-07-14T21:40:27.854Z</time>
      </trkpt>
      <trkpt lat="45.07323" lon="2.69803">
        <ele>1412.6971435547</ele>
        <time>2020-07-14T21:40:34.049Z</time>
      </trkpt>
      <trkpt lat="45.07319" lon="2.69805">
        <ele>1412.3371582031</ele>
        <time>2020-07-14T21:40:40.246Z</time>
      </trkpt>
      <trkpt lat="45.07314" lon="2.69802">
        <ele>1411.2933349609</ele>
        <time>2020-07-14T21:40:46.444Z</time>
      </trkpt>
      <trkpt lat="45.07289" lon="2.69788">
        <ele>1406.5589599609</ele>
        <time>2020-07-14T21:40:52.651Z</time>
      </trkpt>
      <trkpt lat="45.07278" lon="2.69778">
        <ele>1404.9512939453</ele>
        <time>2020-07-14T21:40:58.863Z</time>
      </trkpt>
      <trkpt lat="45.07257" lon="2.69762">
        <ele>1402.2156982422</ele>
        <time>2020-07-14T21:41:05.083Z</time>
      </trkpt>
      <trkpt lat="45.07235" lon="2.69742">
        <ele>1399.0002441406</ele>
        <time>2020-07-14T21:41:11.311Z</time>
      </trkpt>
      <trkpt lat="45.07214" lon="2.69721">
        <ele>1395.7247314453</ele>
        <time>2020-07-14T21:41:17.548Z</time>
      </trkpt>
      <trkpt lat="45.07198" lon="2.69702">
        <ele>1395.5445556641</ele>
        <time>2020-07-14T21:41:23.792Z</time>
      </trkpt>
      <trkpt lat="45.07192" lon="2.69691">
        <ele>1395.4366455078</ele>
        <time>2020-07-14T21:41:30.039Z</time>
      </trkpt>
      <trkpt lat="45.07176" lon="2.69641">
        <ele>1395.3483886719</ele>
        <time>2020-07-14T21:41:36.299Z</time>
      </trkpt>
      <trkpt lat="45.07169" lon="2.69615">
        <ele>1394.4323730469</ele>
        <time>2020-07-14T21:41:42.566Z</time>
      </trkpt>
      <trkpt lat="45.07161" lon="2.69568">
        <ele>1391.8721923828</ele>
        <time>2020-07-14T21:41:48.844Z</time>
      </trkpt>
      <trkpt lat="45.07155" lon="2.69526">
        <ele>1391.1525878906</ele>
        <time>2020-07-14T21:41:55.132Z</time>
      </trkpt>
      <trkpt lat="45.07152" lon="2.69505">
        <ele>1390.97265625</ele>
        <time>2020-07-14T21:42:01.425Z</time>
      </trkpt>
      <trkpt lat="45.07125" lon="2.69521">
        <ele>1398.9020996094</ele>
        <time>2020-07-14T21:42:07.728Z</time>
      </trkpt>
      <trkpt lat="45.07113" lon="2.69529">
        <ele>1397.7983398438</ele>
        <time>2020-07-14T21:42:14.036Z</time>
      </trkpt>
      <trkpt lat="45.0711" lon="2.6953">
        <ele>1397.4622802734</ele>
        <time>2020-07-14T21:42:20.345Z</time>
      </trkpt>
      <trkpt lat="45.07109" lon="2.69527">
        <ele>1397.150390625</ele>
        <time>2020-07-14T21:42:26.654Z</time>
      </trkpt>
      <trkpt lat="45.0711" lon="2.6953">
        <ele>1397.4622802734</ele>
        <time>2020-07-14T21:42:32.964Z</time>
      </trkpt>
      <trkpt lat="45.07088" lon="2.69539">
        <ele>1395.0987548828</ele>
        <time>2020-07-14T21:42:39.282Z</time>
      </trkpt>
      <trkpt lat="45.07069" lon="2.69546">
        <ele>1396.4027099609</ele>
        <time>2020-07-14T21:42:45.606Z</time>
      </trkpt>
      <trkpt lat="45.07057" lon="2.69551">
        <ele>1398.5864257812</ele>
        <time>2020-07-14T21:42:51.935Z</time>
      </trkpt>
      <trkpt lat="45.07047" lon="2.69558">
        <ele>1401.1539306641</ele>
        <time>2020-07-14T21:42:58.267Z</time>
      </trkpt>
      <trkpt lat="45.07036" lon="2.69565">
        <ele>1401.3159179688</ele>
        <time>2020-07-14T21:43:04.603Z</time>
      </trkpt>
      <trkpt lat="45.07026" lon="2.69572">
        <ele>1400.2019042969</ele>
        <time>2020-07-14T21:43:10.943Z</time>
      </trkpt>
      <trkpt lat="45.07019" lon="2.6958">
        <ele>1399.7580566406</ele>
        <time>2020-07-14T21:43:17.286Z</time>
      </trkpt>
      <trkpt lat="45.07014" lon="2.69587">
        <ele>1399.6337890625</ele>
        <time>2020-07-14T21:43:23.631Z</time>
      </trkpt>
      <trkpt lat="45.07007" lon="2.69595">
        <ele>1397.1741943359</ele>
        <time>2020-07-14T21:43:29.979Z</time>
      </trkpt>
      <trkpt lat="45.07" lon="2.69601">
        <ele>1394.7625732422</ele>
        <time>2020-07-14T21:43:36.330Z</time>
      </trkpt>
      <trkpt lat="45.06992" lon="2.69609">
        <ele>1391.9790039062</ele>
        <time>2020-07-14T21:43:42.684Z</time>
      </trkpt>
      <trkpt lat="45.0698" lon="2.69619">
        <ele>1389.2835693359</ele>
        <time>2020-07-14T21:43:49.043Z</time>
      </trkpt>
      <trkpt lat="45.06966" lon="2.69631">
        <ele>1387.5798339844</ele>
        <time>2020-07-14T21:43:55.408Z</time>
      </trkpt>
      <trkpt lat="45.06956" lon="2.69641">
        <ele>1386.3728027344</ele>
        <time>2020-07-14T21:44:01.777Z</time>
      </trkpt>
      <trkpt lat="45.06954" lon="2.69643">
        <ele>1386.0848388672</ele>
        <time>2020-07-14T21:44:08.146Z</time>
      </trkpt>
      <trkpt lat="45.06944" lon="2.69654">
        <ele>1384.7410888672</ele>
        <time>2020-07-14T21:44:14.520Z</time>
      </trkpt>
      <trkpt lat="45.06939" lon="2.69661">
        <ele>1384.2131347656</ele>
        <time>2020-07-14T21:44:20.896Z</time>
      </trkpt>
      <trkpt lat="45.06931" lon="2.69673">
        <ele>1382.45703125</ele>
        <time>2020-07-14T21:44:27.276Z</time>
      </trkpt>
      <trkpt lat="45.06926" lon="2.69678">
        <ele>1380.1173095703</ele>
        <time>2020-07-14T21:44:33.658Z</time>
      </trkpt>
      <trkpt lat="45.06917" lon="2.69683">
        <ele>1376.8178710938</ele>
        <time>2020-07-14T21:44:40.043Z</time>
      </trkpt>
      <trkpt lat="45.0691" lon="2.69686">
        <ele>1374.4543457031</ele>
        <time>2020-07-14T21:44:46.431Z</time>
      </trkpt>
      <trkpt lat="45.06891" lon="2.69693">
        <ele>1369.3868408203</ele>
        <time>2020-07-14T21:44:52.825Z</time>
      </trkpt>
      <trkpt lat="45.06881" lon="2.69697">
        <ele>1367.9230957031</ele>
        <time>2020-07-14T21:44:59.223Z</time>
      </trkpt>
      <trkpt lat="45.06876" lon="2.697">
        <ele>1367.1201171875</ele>
        <time>2020-07-14T21:45:05.622Z</time>
      </trkpt>
      <trkpt lat="45.06873" lon="2.69701">
        <ele>1367.0961914062</ele>
        <time>2020-07-14T21:45:12.022Z</time>
      </trkpt>
      <trkpt lat="45.06864" lon="2.69703">
        <ele>1367.1201171875</ele>
        <time>2020-07-14T21:45:18.425Z</time>
      </trkpt>
      <trkpt lat="45.06859" lon="2.69705">
        <ele>1367.0482177734</ele>
        <time>2020-07-14T21:45:24.830Z</time>
      </trkpt>
      <trkpt lat="45.06856" lon="2.69616">
        <ele>1365.5484619141</ele>
        <time>2020-07-14T21:45:31.256Z</time>
      </trkpt>
      <trkpt lat="45.06861" lon="2.69618">
        <ele>1365.5604248047</ele>
        <time>2020-07-14T21:45:37.684Z</time>
      </trkpt>
      <trkpt lat="45.0686" lon="2.69621">
        <ele>1365.8843994141</ele>
        <time>2020-07-14T21:45:44.113Z</time>
      </trkpt>
      <trkpt lat="45.06861" lon="2.69618">
        <ele>1365.5604248047</ele>
        <time>2020-07-14T21:45:50.543Z</time>
      </trkpt>
      <trkpt lat="45.06856" lon="2.69616">
        <ele>1365.5484619141</ele>
        <time>2020-07-14T21:45:56.974Z</time>
      </trkpt>
      <trkpt lat="45.06849" lon="2.69594">
        <ele>1363.6887207031</ele>
        <time>2020-07-14T21:46:03.411Z</time>
      </trkpt>
      <trkpt lat="45.06843" lon="2.69578">
        <ele>1361.5433349609</ele>
        <time>2020-07-14T21:46:09.852Z</time>
      </trkpt>
      <trkpt lat="45.06837" lon="2.69565">
        <ele>1359.263671875</ele>
        <time>2020-07-14T21:46:16.297Z</time>
      </trkpt>
      <trkpt lat="45.06825" lon="2.69541">
        <ele>1355.0883789062</ele>
        <time>2020-07-14T21:46:22.749Z</time>
      </trkpt>
      <trkpt lat="45.06814" lon="2.69507">
        <ele>1348.3305664062</ele>
        <time>2020-07-14T21:46:29.210Z</time>
      </trkpt>
      <trkpt lat="45.06798" lon="2.69466">
        <ele>1338.3480224609</ele>
        <time>2020-07-14T21:46:35.682Z</time>
      </trkpt>
      <trkpt lat="45.06788" lon="2.69445">
        <ele>1334.9576416016</ele>
        <time>2020-07-14T21:46:42.160Z</time>
      </trkpt>
      <trkpt lat="45.06776" lon="2.69429">
        <ele>1335.5815429688</ele>
        <time>2020-07-14T21:46:48.643Z</time>
      </trkpt>
      <trkpt lat="45.06765" lon="2.69412">
        <ele>1335.6043701172</ele>
        <time>2020-07-14T21:46:55.132Z</time>
      </trkpt>
      <trkpt lat="45.06763" lon="2.69392">
        <ele>1331.1651611328</ele>
        <time>2020-07-14T21:47:01.625Z</time>
      </trkpt>
      <trkpt lat="45.06761" lon="2.6938">
        <ele>1329.224609375</ele>
        <time>2020-07-14T21:47:08.121Z</time>
      </trkpt>
      <trkpt lat="45.0676" lon="2.69373">
        <ele>1328.0848388672</ele>
        <time>2020-07-14T21:47:14.619Z</time>
      </trkpt>
      <trkpt lat="45.06758" lon="2.69366">
        <ele>1327.3168945312</ele>
        <time>2020-07-14T21:47:21.119Z</time>
      </trkpt>
      <trkpt lat="45.06753" lon="2.69351">
        <ele>1325.9371337891</ele>
        <time>2020-07-14T21:47:27.623Z</time>
      </trkpt>
      <trkpt lat="45.06751" lon="2.69342">
        <ele>1324.7373046875</ele>
        <time>2020-07-14T21:47:34.129Z</time>
      </trkpt>
      <trkpt lat="45.06746" lon="2.69325">
        <ele>1322.0933837891</ele>
        <time>2020-07-14T21:47:40.639Z</time>
      </trkpt>
      <trkpt lat="45.06742" lon="2.69311">
        <ele>1319.5498046875</ele>
        <time>2020-07-14T21:47:47.153Z</time>
      </trkpt>
      <trkpt lat="45.06736" lon="2.69294">
        <ele>1316.8863525391</ele>
        <time>2020-07-14T21:47:53.671Z</time>
      </trkpt>
      <trkpt lat="45.06733" lon="2.69286">
        <ele>1315.6984863281</ele>
        <time>2020-07-14T21:48:00.192Z</time>
      </trkpt>
      <trkpt lat="45.06729" lon="2.69277">
        <ele>1314.5947265625</ele>
        <time>2020-07-14T21:48:06.715Z</time>
      </trkpt>
      <trkpt lat="45.06723" lon="2.69265">
        <ele>1313.59765625</ele>
        <time>2020-07-14T21:48:13.242Z</time>
      </trkpt>
      <trkpt lat="45.06719" lon="2.69259">
        <ele>1313.6217041016</ele>
        <time>2020-07-14T21:48:19.770Z</time>
      </trkpt>
      <trkpt lat="45.06715" lon="2.69253">
        <ele>1313.640625</ele>
        <time>2020-07-14T21:48:26.300Z</time>
      </trkpt>
      <trkpt lat="45.06709" lon="2.69247">
        <ele>1313.96484375</ele>
        <time>2020-07-14T21:48:32.833Z</time>
      </trkpt>
      <trkpt lat="45.06705" lon="2.6924">
        <ele>1313.376953125</ele>
        <time>2020-07-14T21:48:39.368Z</time>
      </trkpt>
      <trkpt lat="45.06696" lon="2.69232">
        <ele>1313.4489746094</ele>
        <time>2020-07-14T21:48:45.907Z</time>
      </trkpt>
      <trkpt lat="45.06688" lon="2.69225">
        <ele>1313.5329589844</ele>
        <time>2020-07-14T21:48:52.449Z</time>
      </trkpt>
      <trkpt lat="45.06676" lon="2.69216">
        <ele>1313.9289550781</ele>
        <time>2020-07-14T21:48:58.995Z</time>
      </trkpt>
      <trkpt lat="45.06655" lon="2.69197">
        <ele>1314.0368652344</ele>
        <time>2020-07-14T21:49:05.550Z</time>
      </trkpt>
      <trkpt lat="45.06645" lon="2.69187">
        <ele>1313.9168701172</ele>
        <time>2020-07-14T21:49:12.109Z</time>
      </trkpt>
      <trkpt lat="45.06661" lon="2.69188">
        <ele>1311.4093017578</ele>
        <time>2020-07-14T21:49:18.673Z</time>
      </trkpt>
      <trkpt lat="45.0666" lon="2.69192">
        <ele>1312.2972412109</ele>
        <time>2020-07-14T21:49:25.238Z</time>
      </trkpt>
      <trkpt lat="45.0666" lon="2.69188">
        <ele>1311.5772705078</ele>
        <time>2020-07-14T21:49:31.804Z</time>
      </trkpt>
      <trkpt lat="45.06669" lon="2.69189">
        <ele>1310.2454833984</ele>
        <time>2020-07-14T21:49:38.373Z</time>
      </trkpt>
      <trkpt lat="45.06694" lon="2.69193">
        <ele>1306.7661132812</ele>
        <time>2020-07-14T21:49:44.950Z</time>
      </trkpt>
      <trkpt lat="45.06722" lon="2.69201">
        <ele>1302.6024169922</ele>
        <time>2020-07-14T21:49:51.537Z</time>
      </trkpt>
      <trkpt lat="45.06749" lon="2.69215">
        <ele>1298.6430664062</ele>
        <time>2020-07-14T21:49:58.133Z</time>
      </trkpt>
      <trkpt lat="45.06757" lon="2.69223">
        <ele>1298.1632080078</ele>
        <time>2020-07-14T21:50:04.733Z</time>
      </trkpt>
      <trkpt lat="45.0677" lon="2.69241">
        <ele>1298.2830810547</ele>
        <time>2020-07-14T21:50:11.339Z</time>
      </trkpt>
      <trkpt lat="45.06777" lon="2.69251">
        <ele>1298.4030761719</ele>
        <time>2020-07-14T21:50:17.948Z</time>
      </trkpt>
      <trkpt lat="45.0679" lon="2.69259">
        <ele>1296.5844726562</ele>
        <time>2020-07-14T21:50:24.562Z</time>
      </trkpt>
      <trkpt lat="45.06796" lon="2.69264">
        <ele>1296.5688476562</ele>
        <time>2020-07-14T21:50:31.178Z</time>
      </trkpt>
      <trkpt lat="45.068" lon="2.69271">
        <ele>1297.5166015625</ele>
        <time>2020-07-14T21:50:37.796Z</time>
      </trkpt>
      <trkpt lat="45.06803" lon="2.6928">
        <ele>1298.8123779297</ele>
        <time>2020-07-14T21:50:44.417Z</time>
      </trkpt>
      <trkpt lat="45.06806" lon="2.69284">
        <ele>1299.3283691406</ele>
        <time>2020-07-14T21:50:51.039Z</time>
      </trkpt>
      <trkpt lat="45.06809" lon="2.69285">
        <ele>1299.3763427734</ele>
        <time>2020-07-14T21:50:57.662Z</time>
      </trkpt>
      <trkpt lat="45.06812" lon="2.69285">
        <ele>1299.2683105469</ele>
        <time>2020-07-14T21:51:04.286Z</time>
      </trkpt>
      <trkpt lat="45.06817" lon="2.69282">
        <ele>1298.6204833984</ele>
        <time>2020-07-14T21:51:10.912Z</time>
      </trkpt>
      <trkpt lat="45.06821" lon="2.69275">
        <ele>1297.0024414062</ele>
        <time>2020-07-14T21:51:17.540Z</time>
      </trkpt>
      <trkpt lat="45.06832" lon="2.69267">
        <ele>1294.2188720703</ele>
        <time>2020-07-14T21:51:24.172Z</time>
      </trkpt>
      <trkpt lat="45.06849" lon="2.6926">
        <ele>1291.0754394531</ele>
        <time>2020-07-14T21:51:30.810Z</time>
      </trkpt>
      <trkpt lat="45.06873" lon="2.69246">
        <ele>1286.3923339844</ele>
        <time>2020-07-14T21:51:37.457Z</time>
      </trkpt>
      <trkpt lat="45.06881" lon="2.69244">
        <ele>1286.7076416016</ele>
        <time>2020-07-14T21:51:44.106Z</time>
      </trkpt>
      <trkpt lat="45.06887" lon="2.69246">
        <ele>1288.1234130859</ele>
        <time>2020-07-14T21:51:50.757Z</time>
      </trkpt>
      <trkpt lat="45.06893" lon="2.69251">
        <ele>1289.9350585938</ele>
        <time>2020-07-14T21:51:57.411Z</time>
      </trkpt>
      <trkpt lat="45.069" lon="2.69255">
        <ele>1291.9139404297</ele>
        <time>2020-07-14T21:52:04.067Z</time>
      </trkpt>
      <trkpt lat="45.06904" lon="2.69254">
        <ele>1292.4898681641</ele>
        <time>2020-07-14T21:52:10.725Z</time>
      </trkpt>
      <trkpt lat="45.06907" lon="2.69251">
        <ele>1292.6225585938</ele>
        <time>2020-07-14T21:52:17.384Z</time>
      </trkpt>
      <trkpt lat="45.06913" lon="2.69241">
        <ele>1292.4545898438</ele>
        <time>2020-07-14T21:52:24.046Z</time>
      </trkpt>
      <trkpt lat="45.06917" lon="2.69233">
        <ele>1292.1667480469</ele>
        <time>2020-07-14T21:52:30.710Z</time>
      </trkpt>
      <trkpt lat="45.0692" lon="2.69227">
        <ele>1291.9506835938</ele>
        <time>2020-07-14T21:52:37.376Z</time>
      </trkpt>
      <trkpt lat="45.06924" lon="2.69222">
        <ele>1292.0587158203</ele>
        <time>2020-07-14T21:52:44.044Z</time>
      </trkpt>
      <trkpt lat="45.06931" lon="2.69218">
        <ele>1292.7944335938</ele>
        <time>2020-07-14T21:52:50.714Z</time>
      </trkpt>
      <trkpt lat="45.06941" lon="2.69214">
        <ele>1294.0183105469</ele>
        <time>2020-07-14T21:52:57.388Z</time>
      </trkpt>
      <trkpt lat="45.06946" lon="2.69208">
        <ele>1294.0541992188</ele>
        <time>2020-07-14T21:53:04.064Z</time>
      </trkpt>
      <trkpt lat="45.06949" lon="2.69197">
        <ele>1293.0103759766</ele>
        <time>2020-07-14T21:53:10.743Z</time>
      </trkpt>
      <trkpt lat="45.06951" lon="2.69181">
        <ele>1291.0667724609</ele>
        <time>2020-07-14T21:53:17.426Z</time>
      </trkpt>
      <trkpt lat="45.06951" lon="2.6917">
        <ele>1289.4830322266</ele>
        <time>2020-07-14T21:53:24.111Z</time>
      </trkpt>
      <trkpt lat="45.06956" lon="2.69158">
        <ele>1289.1397705078</ele>
        <time>2020-07-14T21:53:30.799Z</time>
      </trkpt>
      <trkpt lat="45.06959" lon="2.69148">
        <ele>1288.7918701172</ele>
        <time>2020-07-14T21:53:37.490Z</time>
      </trkpt>
      <trkpt lat="45.06958" lon="2.69135">
        <ele>1287.3400878906</ele>
        <time>2020-07-14T21:53:44.184Z</time>
      </trkpt>
      <trkpt lat="45.06952" lon="2.69116">
        <ele>1284.2926025391</ele>
        <time>2020-07-14T21:53:50.883Z</time>
      </trkpt>
      <trkpt lat="45.06944" lon="2.69083">
        <ele>1279.7467041016</ele>
        <time>2020-07-14T21:53:57.590Z</time>
      </trkpt>
      <trkpt lat="45.06937" lon="2.69056">
        <ele>1278.2457275391</ele>
        <time>2020-07-14T21:54:04.304Z</time>
      </trkpt>
      <trkpt lat="45.06934" lon="2.69006">
        <ele>1279.8173828125</ele>
        <time>2020-07-14T21:54:11.030Z</time>
      </trkpt>
      <trkpt lat="45.0693" lon="2.68989">
        <ele>1278.6793212891</ele>
        <time>2020-07-14T21:54:17.760Z</time>
      </trkpt>
      <trkpt lat="45.06919" lon="2.68957">
        <ele>1275.5302734375</ele>
        <time>2020-07-14T21:54:24.498Z</time>
      </trkpt>
      <trkpt lat="45.06912" lon="2.68928">
        <ele>1274.3065185547</ele>
        <time>2020-07-14T21:54:31.244Z</time>
      </trkpt>
      <trkpt lat="45.06907" lon="2.68882">
        <ele>1270.2581787109</ele>
        <time>2020-07-14T21:54:38.001Z</time>
      </trkpt>
      <trkpt lat="45.06902" lon="2.68851">
        <ele>1266.2713623047</ele>
        <time>2020-07-14T21:54:44.765Z</time>
      </trkpt>
      <trkpt lat="45.06896" lon="2.68816">
        <ele>1262.4428710938</ele>
        <time>2020-07-14T21:54:51.538Z</time>
      </trkpt>
      <trkpt lat="45.06889" lon="2.68779">
        <ele>1258.9274902344</ele>
        <time>2020-07-14T21:54:58.320Z</time>
      </trkpt>
      <trkpt lat="45.06884" lon="2.68749">
        <ele>1255.6652832031</ele>
        <time>2020-07-14T21:55:05.109Z</time>
      </trkpt>
      <trkpt lat="45.06878" lon="2.68735">
        <ele>1252.7377929688</ele>
        <time>2020-07-14T21:55:11.902Z</time>
      </trkpt>
      <trkpt lat="45.06876" lon="2.68721">
        <ele>1250.8684082031</ele>
        <time>2020-07-14T21:55:18.698Z</time>
      </trkpt>
      <trkpt lat="45.06873" lon="2.68681">
        <ele>1246.2731933594</ele>
        <time>2020-07-14T21:55:25.504Z</time>
      </trkpt>
      <trkpt lat="45.06867" lon="2.68641">
        <ele>1241.046875</ele>
        <time>2020-07-14T21:55:32.319Z</time>
      </trkpt>
      <trkpt lat="45.06866" lon="2.68628">
        <ele>1239.6790771484</ele>
        <time>2020-07-14T21:55:39.138Z</time>
      </trkpt>
      <trkpt lat="45.06861" lon="2.68635">
        <ele>1238.8872070312</ele>
        <time>2020-07-14T21:55:45.959Z</time>
      </trkpt>
      <trkpt lat="45.0686" lon="2.68634">
        <ele>1238.52734375</ele>
        <time>2020-07-14T21:55:52.780Z</time>
      </trkpt>
      <trkpt lat="45.06861" lon="2.68635">
        <ele>1238.8872070312</ele>
        <time>2020-07-14T21:55:59.602Z</time>
      </trkpt>
      <trkpt lat="45.0686" lon="2.68637">
        <ele>1238.779296875</ele>
        <time>2020-07-14T21:56:06.424Z</time>
      </trkpt>
      <trkpt lat="45.06855" lon="2.68646">
        <ele>1238.1553955078</ele>
        <time>2020-07-14T21:56:13.249Z</time>
      </trkpt>
      <trkpt lat="45.06846" lon="2.68664">
        <ele>1237.7691650391</ele>
        <time>2020-07-14T21:56:20.079Z</time>
      </trkpt>
      <trkpt lat="45.06843" lon="2.68675">
        <ele>1238.1385498047</ele>
        <time>2020-07-14T21:56:26.912Z</time>
      </trkpt>
      <trkpt lat="45.06839" lon="2.68689">
        <ele>1238.4744873047</ele>
        <time>2020-07-14T21:56:33.749Z</time>
      </trkpt>
      <trkpt lat="45.06837" lon="2.68697">
        <ele>1238.7384033203</ele>
        <time>2020-07-14T21:56:40.588Z</time>
      </trkpt>
      <trkpt lat="45.06835" lon="2.68708">
        <ele>1239.2902832031</ele>
        <time>2020-07-14T21:56:47.429Z</time>
      </trkpt>
      <trkpt lat="45.06831" lon="2.68732">
        <ele>1240.0087890625</ele>
        <time>2020-07-14T21:56:54.276Z</time>
      </trkpt>
      <trkpt lat="45.06831" lon="2.68739">
        <ele>1240.5126953125</ele>
        <time>2020-07-14T21:57:01.125Z</time>
      </trkpt>
      <trkpt lat="45.06831" lon="2.68747">
        <ele>1241.0886230469</ele>
        <time>2020-07-14T21:57:07.976Z</time>
      </trkpt>
      <trkpt lat="45.06828" lon="2.68755">
        <ele>1240.7692871094</ele>
        <time>2020-07-14T21:57:14.829Z</time>
      </trkpt>
      <trkpt lat="45.06823" lon="2.68759">
        <ele>1239.5335693359</ele>
        <time>2020-07-14T21:57:21.684Z</time>
      </trkpt>
      <trkpt lat="45.06816" lon="2.68756">
        <ele>1237.4938964844</ele>
        <time>2020-07-14T21:57:28.541Z</time>
      </trkpt>
      <trkpt lat="45.0681" lon="2.68749">
        <ele>1235.4375</ele>
        <time>2020-07-14T21:57:35.401Z</time>
      </trkpt>
      <trkpt lat="45.06787" lon="2.68712">
        <ele>1228.5297851562</ele>
        <time>2020-07-14T21:57:42.272Z</time>
      </trkpt>
      <trkpt lat="45.06773" lon="2.68685">
        <ele>1227.7619628906</ele>
        <time>2020-07-14T21:57:49.151Z</time>
      </trkpt>
      <trkpt lat="45.06764" lon="2.68674">
        <ele>1227.7259521484</ele>
        <time>2020-07-14T21:57:56.034Z</time>
      </trkpt>
      <trkpt lat="45.0676" lon="2.6867">
        <ele>1227.7739257812</ele>
        <time>2020-07-14T21:58:02.919Z</time>
      </trkpt>
      <trkpt lat="45.0676" lon="2.68669">
        <ele>1227.7019042969</ele>
        <time>2020-07-14T21:58:09.804Z</time>
      </trkpt>
      <trkpt lat="45.06756" lon="2.68665">
        <ele>1227.7498779297</ele>
        <time>2020-07-14T21:58:16.691Z</time>
      </trkpt>
      <trkpt lat="45.06754" lon="2.68662">
        <ele>1227.7019042969</ele>
        <time>2020-07-14T21:58:23.579Z</time>
      </trkpt>
      <trkpt lat="45.06754" lon="2.68658">
        <ele>1227.4139404297</ele>
        <time>2020-07-14T21:58:30.468Z</time>
      </trkpt>
      <trkpt lat="45.06753" lon="2.68645">
        <ele>1226.5621337891</ele>
        <time>2020-07-14T21:58:37.360Z</time>
      </trkpt>
      <trkpt lat="45.06753" lon="2.68628">
        <ele>1225.2684326172</ele>
        <time>2020-07-14T21:58:44.256Z</time>
      </trkpt>
      <trkpt lat="45.06752" lon="2.6861">
        <ele>1223.4447021484</ele>
        <time>2020-07-14T21:58:51.156Z</time>
      </trkpt>
      <trkpt lat="45.06751" lon="2.68597">
        <ele>1222.1610107422</ele>
        <time>2020-07-14T21:58:58.059Z</time>
      </trkpt>
      <trkpt lat="45.06747" lon="2.68575">
        <ele>1220.5396728516</ele>
        <time>2020-07-14T21:59:04.967Z</time>
      </trkpt>
      <trkpt lat="45.06746" lon="2.68563">
        <ele>1219.6518554688</ele>
        <time>2020-07-14T21:59:11.878Z</time>
      </trkpt>
      <trkpt lat="45.06744" lon="2.68541">
        <ele>1218.0440673828</ele>
        <time>2020-07-14T21:59:18.795Z</time>
      </trkpt>
      <trkpt lat="45.0674" lon="2.685">
        <ele>1217.0217285156</ele>
        <time>2020-07-14T21:59:25.721Z</time>
      </trkpt>
      <trkpt lat="45.06738" lon="2.68462">
        <ele>1215.3181152344</ele>
        <time>2020-07-14T21:59:32.656Z</time>
      </trkpt>
      <trkpt lat="45.06738" lon="2.68418">
        <ele>1211.4963378906</ele>
        <time>2020-07-14T21:59:39.602Z</time>
      </trkpt>
      <trkpt lat="45.06739" lon="2.68389">
        <ele>1209.9846191406</ele>
        <time>2020-07-14T21:59:46.555Z</time>
      </trkpt>
      <trkpt lat="45.06738" lon="2.68353">
        <ele>1207.3775634766</ele>
        <time>2020-07-14T21:59:53.516Z</time>
      </trkpt>
      <trkpt lat="45.06737" lon="2.68317">
        <ele>1205.1571044922</ele>
        <time>2020-07-14T22:00:00.486Z</time>
      </trkpt>
      <trkpt lat="45.06736" lon="2.68306">
        <ele>1205.2291259766</ele>
        <time>2020-07-14T22:00:07.458Z</time>
      </trkpt>
      <trkpt lat="45.06733" lon="2.68299">
        <ele>1205.7570800781</ele>
        <time>2020-07-14T22:00:14.432Z</time>
      </trkpt>
      <trkpt lat="45.0673" lon="2.68293">
        <ele>1206.2969970703</ele>
        <time>2020-07-14T22:00:21.408Z</time>
      </trkpt>
      <trkpt lat="45.0673" lon="2.68282">
        <ele>1206.1650390625</ele>
        <time>2020-07-14T22:00:28.387Z</time>
      </trkpt>
      <trkpt lat="45.06733" lon="2.68272">
        <ele>1205.2145996094</ele>
        <time>2020-07-14T22:00:35.368Z</time>
      </trkpt>
      <trkpt lat="45.06735" lon="2.68263">
        <ele>1204.1707763672</ele>
        <time>2020-07-14T22:00:42.351Z</time>
      </trkpt>
      <trkpt lat="45.06737" lon="2.68254">
        <ele>1203.126953125</ele>
        <time>2020-07-14T22:00:49.337Z</time>
      </trkpt>
      <trkpt lat="45.06739" lon="2.68227">
        <ele>1203.5034179688</ele>
        <time>2020-07-14T22:00:56.329Z</time>
      </trkpt>
      <trkpt lat="45.06739" lon="2.68215">
        <ele>1203.9353027344</ele>
        <time>2020-07-14T22:01:03.324Z</time>
      </trkpt>
      <trkpt lat="45.06738" lon="2.68206">
        <ele>1204.5112304688</ele>
        <time>2020-07-14T22:01:10.321Z</time>
      </trkpt>
      <trkpt lat="45.06738" lon="2.68183">
        <ele>1205.7039794922</ele>
        <time>2020-07-14T22:01:17.323Z</time>
      </trkpt>
      <trkpt lat="45.06737" lon="2.68163">
        <ele>1207.0513916016</ele>
        <time>2020-07-14T22:01:24.330Z</time>
      </trkpt>
      <trkpt lat="45.06738" lon="2.68149">
        <ele>1207.4952392578</ele>
        <time>2020-07-14T22:01:31.340Z</time>
      </trkpt>
      <trkpt lat="45.06742" lon="2.68122">
        <ele>1207.8791503906</ele>
        <time>2020-07-14T22:01:38.357Z</time>
      </trkpt>
      <trkpt lat="45.06744" lon="2.68099">
        <ele>1210.1005859375</ele>
        <time>2020-07-14T22:01:45.379Z</time>
      </trkpt>
      <trkpt lat="45.06747" lon="2.68087">
        <ele>1211.0723876953</ele>
        <time>2020-07-14T22:01:52.404Z</time>
      </trkpt>
      <trkpt lat="45.06752" lon="2.68078">
        <ele>1210.9715576172</ele>
        <time>2020-07-14T22:01:59.432Z</time>
      </trkpt>
      <trkpt lat="45.06755" lon="2.68076">
        <ele>1210.6475830078</ele>
        <time>2020-07-14T22:02:06.461Z</time>
      </trkpt>
      <trkpt lat="45.06761" lon="2.68074">
        <ele>1209.8557128906</ele>
        <time>2020-07-14T22:02:13.492Z</time>
      </trkpt>
      <trkpt lat="45.06772" lon="2.68068">
        <ele>1208.5718994141</ele>
        <time>2020-07-14T22:02:20.527Z</time>
      </trkpt>
      <trkpt lat="45.06781" lon="2.68065">
        <ele>1207.4981689453</ele>
        <time>2020-07-14T22:02:27.565Z</time>
      </trkpt>
      <trkpt lat="45.06789" lon="2.68066">
        <ele>1206.2624511719</ele>
        <time>2020-07-14T22:02:34.606Z</time>
      </trkpt>
      <trkpt lat="45.06806" lon="2.68079">
        <ele>1200.5128173828</ele>
        <time>2020-07-14T22:02:41.653Z</time>
      </trkpt>
      <trkpt lat="45.06809" lon="2.68083">
        <ele>1199.2410888672</ele>
        <time>2020-07-14T22:02:48.702Z</time>
      </trkpt>
      <trkpt lat="45.06811" lon="2.68087">
        <ele>1198.265625</ele>
        <time>2020-07-14T22:02:55.752Z</time>
      </trkpt>
      <trkpt lat="45.06812" lon="2.68092">
        <ele>1197.4138183594</ele>
        <time>2020-07-14T22:03:02.803Z</time>
      </trkpt>
      <trkpt lat="45.06813" lon="2.68099">
        <ele>1196.3459472656</ele>
        <time>2020-07-14T22:03:09.856Z</time>
      </trkpt>
      <trkpt lat="45.06814" lon="2.68104">
        <ele>1195.494140625</ele>
        <time>2020-07-14T22:03:16.910Z</time>
      </trkpt>
      <trkpt lat="45.06818" lon="2.68111">
        <ele>1193.4904785156</ele>
        <time>2020-07-14T22:03:23.966Z</time>
      </trkpt>
      <trkpt lat="45.06831" lon="2.68125">
        <ele>1187.9174804688</ele>
        <time>2020-07-14T22:03:31.028Z</time>
      </trkpt>
      <trkpt lat="45.06838" lon="2.68127">
        <ele>1185.5238037109</ele>
        <time>2020-07-14T22:03:38.092Z</time>
      </trkpt>
      <trkpt lat="45.06841" lon="2.68126">
        <ele>1184.6959228516</ele>
        <time>2020-07-14T22:03:45.157Z</time>
      </trkpt>
      <trkpt lat="45.06849" lon="2.68118">
        <ele>1183.0642089844</ele>
        <time>2020-07-14T22:03:52.225Z</time>
      </trkpt>
      <trkpt lat="45.06868" lon="2.6809">
        <ele>1180.1606445312</ele>
        <time>2020-07-14T22:03:59.303Z</time>
      </trkpt>
      <trkpt lat="45.0688" lon="2.68067">
        <ele>1178.8551025391</ele>
        <time>2020-07-14T22:04:06.387Z</time>
      </trkpt>
      <trkpt lat="45.06891" lon="2.68032">
        <ele>1179.0711669922</ele>
        <time>2020-07-14T22:04:13.480Z</time>
      </trkpt>
      <trkpt lat="45.06898" lon="2.68017">
        <ele>1178.1418457031</ele>
        <time>2020-07-14T22:04:20.578Z</time>
      </trkpt>
      <trkpt lat="45.0691" lon="2.67996">
        <ele>1175.1662597656</ele>
        <time>2020-07-14T22:04:27.682Z</time>
      </trkpt>
      <trkpt lat="45.06915" lon="2.67989">
        <ele>1173.7025146484</ele>
        <time>2020-07-14T22:04:34.788Z</time>
      </trkpt>
      <trkpt lat="45.06921" lon="2.67983">
        <ele>1171.8308105469</ele>
        <time>2020-07-14T22:04:41.897Z</time>
      </trkpt>
      <trkpt lat="45.06927" lon="2.67983">
        <ele>1169.6711425781</ele>
        <time>2020-07-14T22:04:49.008Z</time>
      </trkpt>
      <trkpt lat="45.06934" lon="2.67981">
        <ele>1167.2475585938</ele>
        <time>2020-07-14T22:04:56.121Z</time>
      </trkpt>
      <trkpt lat="45.06938" lon="2.67977">
        <ele>1166.0534667969</ele>
        <time>2020-07-14T22:05:03.236Z</time>
      </trkpt>
      <trkpt lat="45.06943" lon="2.67971">
        <ele>1164.6737060547</ele>
        <time>2020-07-14T22:05:10.353Z</time>
      </trkpt>
      <trkpt lat="45.06944" lon="2.67969">
        <ele>1164.4456787109</ele>
        <time>2020-07-14T22:05:17.471Z</time>
      </trkpt>
      <trkpt lat="45.06944" lon="2.67965">
        <ele>1164.6856689453</ele>
        <time>2020-07-14T22:05:24.589Z</time>
      </trkpt>
      <trkpt lat="45.06942" lon="2.67958">
        <ele>1165.8015136719</ele>
        <time>2020-07-14T22:05:31.709Z</time>
      </trkpt>
      <trkpt lat="45.06939" lon="2.67953">
        <ele>1167.1452636719</ele>
        <time>2020-07-14T22:05:38.831Z</time>
      </trkpt>
      <trkpt lat="45.06939" lon="2.6795">
        <ele>1167.3251953125</ele>
        <time>2020-07-14T22:05:45.953Z</time>
      </trkpt>
      <trkpt lat="45.0694" lon="2.67947">
        <ele>1167.1572265625</ele>
        <time>2020-07-14T22:05:53.076Z</time>
      </trkpt>
      <trkpt lat="45.06941" lon="2.67943">
        <ele>1167.0491943359</ele>
        <time>2020-07-14T22:06:00.200Z</time>
      </trkpt>
      <trkpt lat="45.06943" lon="2.67941">
        <ele>1166.4733886719</ele>
        <time>2020-07-14T22:06:07.325Z</time>
      </trkpt>
      <trkpt lat="45.06947" lon="2.67939">
        <ele>1165.2015380859</ele>
        <time>2020-07-14T22:06:14.452Z</time>
      </trkpt>
      <trkpt lat="45.06951" lon="2.67938">
        <ele>1163.8697509766</ele>
        <time>2020-07-14T22:06:21.580Z</time>
      </trkpt>
      <trkpt lat="45.06964" lon="2.67937">
        <ele>1159.8885498047</ele>
        <time>2020-07-14T22:06:28.712Z</time>
      </trkpt>
      <trkpt lat="45.06977" lon="2.67928">
        <ele>1155.9957275391</ele>
        <time>2020-07-14T22:06:35.849Z</time>
      </trkpt>
      <trkpt lat="45.06983" lon="2.67922">
        <ele>1153.1882324219</ele>
        <time>2020-07-14T22:06:42.988Z</time>
      </trkpt>
      <trkpt lat="45.06985" lon="2.67919">
        <ele>1152.2156982422</ele>
        <time>2020-07-14T22:06:50.128Z</time>
      </trkpt>
      <trkpt lat="45.06987" lon="2.67912">
        <ele>1151.3637695312</ele>
        <time>2020-07-14T22:06:57.270Z</time>
      </trkpt>
      <trkpt lat="45.0699" lon="2.67897">
        <ele>1150.0321044922</ele>
        <time>2020-07-14T22:07:04.416Z</time>
      </trkpt>
      <trkpt lat="45.06992" lon="2.67881">
        <ele>1149.072265625</ele>
        <time>2020-07-14T22:07:11.566Z</time>
      </trkpt>
      <trkpt lat="45.06994" lon="2.67855">
        <ele>1147.6138916016</ele>
        <time>2020-07-14T22:07:18.722Z</time>
      </trkpt>
      <trkpt lat="45.06997" lon="2.67814">
        <ele>1144.37890625</ele>
        <time>2020-07-14T22:07:25.888Z</time>
      </trkpt>
      <trkpt lat="45.06997" lon="2.67811">
        <ele>1144.1989746094</ele>
        <time>2020-07-14T22:07:33.054Z</time>
      </trkpt>
      <trkpt lat="45.06998" lon="2.67808">
        <ele>1143.6110839844</ele>
        <time>2020-07-14T22:07:40.221Z</time>
      </trkpt>
      <trkpt lat="45.07001" lon="2.67808">
        <ele>1142.3873291016</ele>
        <time>2020-07-14T22:07:47.389Z</time>
      </trkpt>
      <trkpt lat="45.07004" lon="2.67805">
        <ele>1140.9835205078</ele>
        <time>2020-07-14T22:07:54.558Z</time>
      </trkpt>
      <trkpt lat="45.07006" lon="2.67803">
        <ele>1140.0477294922</ele>
        <time>2020-07-14T22:08:01.728Z</time>
      </trkpt>
      <trkpt lat="45.07009" lon="2.67797">
        <ele>1138.5290527344</ele>
        <time>2020-07-14T22:08:08.900Z</time>
      </trkpt>
      <trkpt lat="45.07014" lon="2.67771">
        <ele>1135.3016357422</ele>
        <time>2020-07-14T22:08:16.078Z</time>
      </trkpt>
      <trkpt lat="45.07016" lon="2.67752">
        <ele>1133.6094970703</ele>
        <time>2020-07-14T22:08:23.261Z</time>
      </trkpt>
      <trkpt lat="45.07018" lon="2.6774">
        <ele>1132.3856201172</ele>
        <time>2020-07-14T22:08:30.447Z</time>
      </trkpt>
      <trkpt lat="45.07019" lon="2.67726">
        <ele>1131.5596923828</ele>
        <time>2020-07-14T22:08:37.636Z</time>
      </trkpt>
      <trkpt lat="45.0702" lon="2.67716">
        <ele>1131.0677490234</ele>
        <time>2020-07-14T22:08:44.827Z</time>
      </trkpt>
      <trkpt lat="45.07019" lon="2.67711">
        <ele>1131.3797607422</ele>
        <time>2020-07-14T22:08:52.020Z</time>
      </trkpt>
      <trkpt lat="45.07019" lon="2.67704">
        <ele>1131.2957763672</ele>
        <time>2020-07-14T22:08:59.214Z</time>
      </trkpt>
      <trkpt lat="45.0702" lon="2.67698">
        <ele>1130.8518066406</ele>
        <time>2020-07-14T22:09:06.410Z</time>
      </trkpt>
      <trkpt lat="45.07024" lon="2.67695">
        <ele>1129.328125</ele>
        <time>2020-07-14T22:09:13.607Z</time>
      </trkpt>
      <trkpt lat="45.07035" lon="2.67694">
        <ele>1125.2247314453</ele>
        <time>2020-07-14T22:09:20.808Z</time>
      </trkpt>
      <trkpt lat="45.07042" lon="2.67687">
        <ele>1122.5372314453</ele>
        <time>2020-07-14T22:09:28.012Z</time>
      </trkpt>
      <trkpt lat="45.07043" lon="2.67684">
        <ele>1122.1488037109</ele>
        <time>2020-07-14T22:09:35.217Z</time>
      </trkpt>
      <trkpt lat="45.07044" lon="2.67673">
        <ele>1121.8128662109</ele>
        <time>2020-07-14T22:09:42.424Z</time>
      </trkpt>
      <trkpt lat="45.07046" lon="2.67652">
        <ele>1123.8258056641</ele>
        <time>2020-07-14T22:09:49.636Z</time>
      </trkpt>
      <trkpt lat="45.07046" lon="2.67647">
        <ele>1124.5457763672</ele>
        <time>2020-07-14T22:09:56.849Z</time>
      </trkpt>
      <trkpt lat="45.0705" lon="2.6764">
        <ele>1124.6417236328</ele>
        <time>2020-07-14T22:10:04.065Z</time>
      </trkpt>
      <trkpt lat="45.07053" lon="2.67638">
        <ele>1124.2457275391</ele>
        <time>2020-07-14T22:10:11.282Z</time>
      </trkpt>
      <trkpt lat="45.07057" lon="2.67637">
        <ele>1123.4779052734</ele>
        <time>2020-07-14T22:10:18.500Z</time>
      </trkpt>
      <trkpt lat="45.07062" lon="2.67636">
        <ele>1122.4820556641</ele>
        <time>2020-07-14T22:10:25.720Z</time>
      </trkpt>
      <trkpt lat="45.07068" lon="2.67637">
        <ele>1120.9703369141</ele>
        <time>2020-07-14T22:10:32.942Z</time>
      </trkpt>
      <trkpt lat="45.07075" lon="2.67639">
        <ele>1119.0866699219</ele>
        <time>2020-07-14T22:10:40.166Z</time>
      </trkpt>
      <trkpt lat="45.0708" lon="2.67638">
        <ele>1118.0908203125</ele>
        <time>2020-07-14T22:10:47.392Z</time>
      </trkpt>
      <trkpt lat="45.07086" lon="2.67634">
        <ele>1117.2989501953</ele>
        <time>2020-07-14T22:10:54.620Z</time>
      </trkpt>
      <trkpt lat="45.07092" lon="2.67626">
        <ele>1116.1821289062</ele>
        <time>2020-07-14T22:11:01.851Z</time>
      </trkpt>
      <trkpt lat="45.07099" lon="2.67615">
        <ele>1114.4423828125</ele>
        <time>2020-07-14T22:11:09.085Z</time>
      </trkpt>
      <trkpt lat="45.07105" lon="2.67601">
        <ele>1113.1706542969</ele>
        <time>2020-07-14T22:11:16.323Z</time>
      </trkpt>
      <trkpt lat="45.07116" lon="2.67578">
        <ele>1111.4055175781</ele>
        <time>2020-07-14T22:11:23.568Z</time>
      </trkpt>
      <trkpt lat="45.07122" lon="2.67565">
        <ele>1108.3156738281</ele>
        <time>2020-07-14T22:11:30.816Z</time>
      </trkpt>
      <trkpt lat="45.07135" lon="2.67539">
        <ele>1104.3516845703</ele>
        <time>2020-07-14T22:11:38.072Z</time>
      </trkpt>
      <trkpt lat="45.0714" lon="2.67522">
        <ele>1103.1998291016</ele>
        <time>2020-07-14T22:11:45.332Z</time>
      </trkpt>
      <trkpt lat="45.07144" lon="2.67513">
        <ele>1101.5212402344</ele>
        <time>2020-07-14T22:11:52.595Z</time>
      </trkpt>
      <trkpt lat="45.07146" lon="2.67505">
        <ele>1099.8175048828</ele>
        <time>2020-07-14T22:11:59.860Z</time>
      </trkpt>
      <trkpt lat="45.07149" lon="2.67495">
        <ele>1099.2846679688</ele>
        <time>2020-07-14T22:12:07.127Z</time>
      </trkpt>
      <trkpt lat="45.07155" lon="2.67476">
        <ele>1099.0567626953</ele>
        <time>2020-07-14T22:12:14.399Z</time>
      </trkpt>
      <trkpt lat="45.0716" lon="2.67461">
        <ele>1098.8167724609</ele>
        <time>2020-07-14T22:12:21.675Z</time>
      </trkpt>
      <trkpt lat="45.07161" lon="2.67455">
        <ele>1098.9487304688</ele>
        <time>2020-07-14T22:12:28.953Z</time>
      </trkpt>
      <trkpt lat="45.07161" lon="2.67441">
        <ele>1097.5472412109</ele>
        <time>2020-07-14T22:12:36.234Z</time>
      </trkpt>
      <trkpt lat="45.07162" lon="2.67433">
        <ele>1096.2874755859</ele>
        <time>2020-07-14T22:12:43.517Z</time>
      </trkpt>
      <trkpt lat="45.07164" lon="2.67419">
        <ele>1094.0803222656</ele>
        <time>2020-07-14T22:12:50.803Z</time>
      </trkpt>
      <trkpt lat="45.07175" lon="2.6738">
        <ele>1091.5850830078</ele>
        <time>2020-07-14T22:12:58.099Z</time>
      </trkpt>
      <trkpt lat="45.0719" lon="2.67326">
        <ele>1081.6491699219</ele>
        <time>2020-07-14T22:13:05.409Z</time>
      </trkpt>
      <trkpt lat="45.07199" lon="2.67296">
        <ele>1077.1882324219</ele>
        <time>2020-07-14T22:13:12.726Z</time>
      </trkpt>
      <trkpt lat="45.07207" lon="2.67271">
        <ele>1074.0207519531</ele>
        <time>2020-07-14T22:13:20.050Z</time>
      </trkpt>
      <trkpt lat="45.07213" lon="2.67253">
        <ele>1072.4807128906</ele>
        <time>2020-07-14T22:13:27.379Z</time>
      </trkpt>
      <trkpt lat="45.07215" lon="2.67239">
        <ele>1070.6555175781</ele>
        <time>2020-07-14T22:13:34.711Z</time>
      </trkpt>
      <trkpt lat="45.07218" lon="2.67198">
        <ele>1065.7603759766</ele>
        <time>2020-07-14T22:13:42.053Z</time>
      </trkpt>
      <trkpt lat="45.07219" lon="2.67181">
        <ele>1063.7686767578</ele>
        <time>2020-07-14T22:13:49.399Z</time>
      </trkpt>
      <trkpt lat="45.07221" lon="2.67162">
        <ele>1061.5391845703</ele>
        <time>2020-07-14T22:13:56.749Z</time>
      </trkpt>
      <trkpt lat="45.07222" lon="2.67153">
        <ele>1060.7232666016</ele>
        <time>2020-07-14T22:14:04.102Z</time>
      </trkpt>
      <trkpt lat="45.0722" lon="2.67147">
        <ele>1060.6273193359</ele>
        <time>2020-07-14T22:14:11.456Z</time>
      </trkpt>
      <trkpt lat="45.07218" lon="2.67142">
        <ele>1060.6032714844</ele>
        <time>2020-07-14T22:14:18.811Z</time>
      </trkpt>
      <trkpt lat="45.07212" lon="2.67138">
        <ele>1061.3232421875</ele>
        <time>2020-07-14T22:14:26.169Z</time>
      </trkpt>
      <trkpt lat="45.07205" lon="2.67135">
        <ele>1062.3380126953</ele>
        <time>2020-07-14T22:14:33.529Z</time>
      </trkpt>
      <trkpt lat="45.07202" lon="2.67134">
        <ele>1062.8059082031</ele>
        <time>2020-07-14T22:14:40.890Z</time>
      </trkpt>
      <trkpt lat="45.07201" lon="2.67129">
        <ele>1062.6259765625</ele>
        <time>2020-07-14T22:14:48.252Z</time>
      </trkpt>
      <trkpt lat="45.07202" lon="2.67125">
        <ele>1062.1579589844</ele>
        <time>2020-07-14T22:14:55.615Z</time>
      </trkpt>
      <trkpt lat="45.07207" lon="2.67119">
        <ele>1060.826171875</ele>
        <time>2020-07-14T22:15:02.981Z</time>
      </trkpt>
      <trkpt lat="45.07214" lon="2.67112">
        <ele>1059.1156005859</ele>
        <time>2020-07-14T22:15:10.349Z</time>
      </trkpt>
      <trkpt lat="45.07224" lon="2.67108">
        <ele>1057.1479492188</ele>
        <time>2020-07-14T22:15:17.721Z</time>
      </trkpt>
      <trkpt lat="45.07237" lon="2.67108">
        <ele>1054.6951904297</ele>
        <time>2020-07-14T22:15:25.097Z</time>
      </trkpt>
      <trkpt lat="45.07253" lon="2.67113">
        <ele>1051.8395996094</ele>
        <time>2020-07-14T22:15:32.479Z</time>
      </trkpt>
      <trkpt lat="45.07261" lon="2.67118">
        <ele>1050.7117919922</ele>
        <time>2020-07-14T22:15:39.864Z</time>
      </trkpt>
      <trkpt lat="45.07267" lon="2.67123">
        <ele>1050.0158691406</ele>
        <time>2020-07-14T22:15:47.251Z</time>
      </trkpt>
      <trkpt lat="45.0727" lon="2.67125">
        <ele>1049.6080322266</ele>
        <time>2020-07-14T22:15:54.639Z</time>
      </trkpt>
      <trkpt lat="45.07274" lon="2.67124">
        <ele>1048.6241455078</ele>
        <time>2020-07-14T22:16:02.028Z</time>
      </trkpt>
      <trkpt lat="45.07277" lon="2.67121">
        <ele>1047.6163330078</ele>
        <time>2020-07-14T22:16:09.419Z</time>
      </trkpt>
      <trkpt lat="45.07278" lon="2.67113">
        <ele>1046.4405517578</ele>
        <time>2020-07-14T22:16:16.811Z</time>
      </trkpt>
      <trkpt lat="45.07279" lon="2.67103">
        <ele>1045.0247802734</ele>
        <time>2020-07-14T22:16:24.206Z</time>
      </trkpt>
      <trkpt lat="45.07281" lon="2.67094">
        <ele>1043.5130615234</ele>
        <time>2020-07-14T22:16:31.603Z</time>
      </trkpt>
      <trkpt lat="45.07283" lon="2.6708">
        <ele>1041.5498046875</ele>
        <time>2020-07-14T22:16:39.003Z</time>
      </trkpt>
      <trkpt lat="45.07288" lon="2.67056">
        <ele>1039.0755615234</ele>
        <time>2020-07-14T22:16:46.409Z</time>
      </trkpt>
      <trkpt lat="45.07292" lon="2.67036">
        <ele>1037.1558837891</ele>
        <time>2020-07-14T22:16:53.820Z</time>
      </trkpt>
      <trkpt lat="45.07301" lon="2.67004">
        <ele>1034.5169677734</ele>
        <time>2020-07-14T22:17:01.239Z</time>
      </trkpt>
      <trkpt lat="45.07311" lon="2.66969">
        <ele>1034.2939453125</ele>
        <time>2020-07-14T22:17:08.667Z</time>
      </trkpt>
      <trkpt lat="45.07322" lon="2.66927">
        <ele>1032.8254394531</ele>
        <time>2020-07-14T22:17:16.106Z</time>
      </trkpt>
      <trkpt lat="45.07321" lon="2.66926">
        <ele>1032.9334716797</ele>
        <time>2020-07-14T22:17:23.545Z</time>
      </trkpt>
      <trkpt lat="45.07322" lon="2.66927">
        <ele>1032.8254394531</ele>
        <time>2020-07-14T22:17:30.985Z</time>
      </trkpt>
      <trkpt lat="45.07325" lon="2.66917">
        <ele>1031.7580566406</ele>
        <time>2020-07-14T22:17:38.427Z</time>
      </trkpt>
      <trkpt lat="45.07325" lon="2.66913">
        <ele>1031.3741455078</ele>
        <time>2020-07-14T22:17:45.870Z</time>
      </trkpt>
      <trkpt lat="45.07325" lon="2.66906">
        <ele>1030.7022705078</ele>
        <time>2020-07-14T22:17:53.315Z</time>
      </trkpt>
      <trkpt lat="45.07324" lon="2.66903">
        <ele>1030.5703125</ele>
        <time>2020-07-14T22:18:00.761Z</time>
      </trkpt>
      <trkpt lat="45.07321" lon="2.66897">
        <ele>1030.4622802734</ele>
        <time>2020-07-14T22:18:08.208Z</time>
      </trkpt>
      <trkpt lat="45.07316" lon="2.6689">
        <ele>1030.5703125</ele>
        <time>2020-07-14T22:18:15.658Z</time>
      </trkpt>
      <trkpt lat="45.07309" lon="2.66884">
        <ele>1031.0861816406</ele>
        <time>2020-07-14T22:18:23.111Z</time>
      </trkpt>
      <trkpt lat="45.07291" lon="2.66874">
        <ele>1032.7259521484</ele>
        <time>2020-07-14T22:18:30.570Z</time>
      </trkpt>
      <trkpt lat="45.07279" lon="2.66867">
        <ele>1032.6300048828</ele>
        <time>2020-07-14T22:18:38.033Z</time>
      </trkpt>
      <trkpt lat="45.07276" lon="2.66863">
        <ele>1032.3900146484</ele>
        <time>2020-07-14T22:18:45.498Z</time>
      </trkpt>
      <trkpt lat="45.07271" lon="2.6685">
        <ele>1031.3822021484</ele>
        <time>2020-07-14T22:18:52.966Z</time>
      </trkpt>
      <trkpt lat="45.07269" lon="2.66841">
        <ele>1030.6143798828</ele>
        <time>2020-07-14T22:19:00.436Z</time>
      </trkpt>
      <trkpt lat="45.07267" lon="2.6683">
        <ele>1029.1385498047</ele>
        <time>2020-07-14T22:19:07.909Z</time>
      </trkpt>
      <trkpt lat="45.07267" lon="2.66823">
        <ele>1027.8787841797</ele>
        <time>2020-07-14T22:19:15.384Z</time>
      </trkpt>
      <trkpt lat="45.07267" lon="2.66817">
        <ele>1026.7989501953</ele>
        <time>2020-07-14T22:19:22.860Z</time>
      </trkpt>
      <trkpt lat="45.07267" lon="2.66809">
        <ele>1025.2275390625</ele>
        <time>2020-07-14T22:19:30.338Z</time>
      </trkpt>
      <trkpt lat="45.07265" lon="2.66796">
        <ele>1021.7961425781</ele>
        <time>2020-07-14T22:19:37.819Z</time>
      </trkpt>
      <trkpt lat="45.07261" lon="2.66788">
        <ele>1020.116394043</ele>
        <time>2020-07-14T22:19:45.302Z</time>
      </trkpt>
      <trkpt lat="45.07254" lon="2.66777">
        <ele>1018.0407714844</ele>
        <time>2020-07-14T22:19:52.789Z</time>
      </trkpt>
      <trkpt lat="45.07244" lon="2.66768">
        <ele>1017.0089111328</ele>
        <time>2020-07-14T22:20:00.280Z</time>
      </trkpt>
      <trkpt lat="45.07235" lon="2.66758">
        <ele>1015.533203125</ele>
        <time>2020-07-14T22:20:07.775Z</time>
      </trkpt>
      <trkpt lat="45.07231" lon="2.66753">
        <ele>1014.7173461914</ele>
        <time>2020-07-14T22:20:15.272Z</time>
      </trkpt>
      <trkpt lat="45.07224" lon="2.66739">
        <ele>1013.267578125</ele>
        <time>2020-07-14T22:20:22.773Z</time>
      </trkpt>
      <trkpt lat="45.07222" lon="2.66733">
        <ele>1012.4996948242</ele>
        <time>2020-07-14T22:20:30.275Z</time>
      </trkpt>
      <trkpt lat="45.0722" lon="2.66724">
        <ele>1011.1919555664</ele>
        <time>2020-07-14T22:20:37.779Z</time>
      </trkpt>
      <trkpt lat="45.07222" lon="2.66712">
        <ele>1008.7203369141</ele>
        <time>2020-07-14T22:20:45.286Z</time>
      </trkpt>
      <trkpt lat="45.07224" lon="2.66694">
        <ele>1005.1689453125</ele>
        <time>2020-07-14T22:20:52.798Z</time>
      </trkpt>
      <trkpt lat="45.07224" lon="2.66683">
        <ele>1003.1265258789</ele>
        <time>2020-07-14T22:21:00.312Z</time>
      </trkpt>
      <trkpt lat="45.07221" lon="2.66671">
        <ele>1000.7869262695</ele>
        <time>2020-07-14T22:21:07.829Z</time>
      </trkpt>
      <trkpt lat="45.07214" lon="2.66658">
        <ele>1000.0687866211</ele>
        <time>2020-07-14T22:21:15.350Z</time>
      </trkpt>
      <trkpt lat="45.07201" lon="2.66642">
        <ele>1000.0360107422</ele>
        <time>2020-07-14T22:21:22.877Z</time>
      </trkpt>
      <trkpt lat="45.07196" lon="2.66632">
        <ele>999.31610107422</ele>
        <time>2020-07-14T22:21:30.407Z</time>
      </trkpt>
      <trkpt lat="45.0719" lon="2.66625">
        <ele>999.29211425781</ele>
        <time>2020-07-14T22:21:37.939Z</time>
      </trkpt>
      <trkpt lat="45.07188" lon="2.66616">
        <ele>998.16430664062</ele>
        <time>2020-07-14T22:21:45.474Z</time>
      </trkpt>
      <trkpt lat="45.07188" lon="2.66606">
        <ele>996.48455810547</ele>
        <time>2020-07-14T22:21:53.011Z</time>
      </trkpt>
      <trkpt lat="45.07191" lon="2.66593">
        <ele>993.72503662109</ele>
        <time>2020-07-14T22:22:00.551Z</time>
      </trkpt>
      <trkpt lat="45.07196" lon="2.66577">
        <ele>989.85925292969</ele>
        <time>2020-07-14T22:22:08.095Z</time>
      </trkpt>
      <trkpt lat="45.07199" lon="2.66566">
        <ele>986.82885742188</ele>
        <time>2020-07-14T22:22:15.642Z</time>
      </trkpt>
      <trkpt lat="45.07198" lon="2.66557">
        <ele>985.00518798828</ele>
        <time>2020-07-14T22:22:23.191Z</time>
      </trkpt>
      <trkpt lat="45.07197" lon="2.66546">
        <ele>982.7255859375</ele>
        <time>2020-07-14T22:22:30.743Z</time>
      </trkpt>
      <trkpt lat="45.07192" lon="2.6653">
        <ele>980.21795654297</ele>
        <time>2020-07-14T22:22:38.299Z</time>
      </trkpt>
      <trkpt lat="45.07186" lon="2.66517">
        <ele>978.62225341797</ele>
        <time>2020-07-14T22:22:45.859Z</time>
      </trkpt>
      <trkpt lat="45.07174" lon="2.66499">
        <ele>976.89404296875</ele>
        <time>2020-07-14T22:22:53.424Z</time>
      </trkpt>
      <trkpt lat="45.07164" lon="2.66481">
        <ele>973.34265136719</ele>
        <time>2020-07-14T22:23:00.995Z</time>
      </trkpt>
      <trkpt lat="45.07152" lon="2.66463">
        <ele>970.24719238281</ele>
        <time>2020-07-14T22:23:08.572Z</time>
      </trkpt>
      <trkpt lat="45.07142" lon="2.66446">
        <ele>967.01971435547</ele>
        <time>2020-07-14T22:23:16.154Z</time>
      </trkpt>
      <trkpt lat="45.07128" lon="2.66429">
        <ele>964.7041015625</ele>
        <time>2020-07-14T22:23:23.742Z</time>
      </trkpt>
      <trkpt lat="45.0711" lon="2.66404">
        <ele>960.93310546875</ele>
        <time>2020-07-14T22:23:31.338Z</time>
      </trkpt>
      <trkpt lat="45.07096" lon="2.66389">
        <ele>959.41650390625</ele>
        <time>2020-07-14T22:23:38.940Z</time>
      </trkpt>
      <trkpt lat="45.0708" lon="2.66368">
        <ele>956.81292724609</ele>
        <time>2020-07-14T22:23:46.550Z</time>
      </trkpt>
      <trkpt lat="45.07075" lon="2.66359">
        <ele>955.38513183594</ele>
        <time>2020-07-14T22:23:54.162Z</time>
      </trkpt>
      <trkpt lat="45.07072" lon="2.6635">
        <ele>953.62145996094</ele>
        <time>2020-07-14T22:24:01.777Z</time>
      </trkpt>
      <trkpt lat="45.07064" lon="2.66323">
        <ele>948.78912353516</ele>
        <time>2020-07-14T22:24:09.399Z</time>
      </trkpt>
      <trkpt lat="45.07057" lon="2.66303">
        <ele>945.88562011719</ele>
        <time>2020-07-14T22:24:17.026Z</time>
      </trkpt>
      <trkpt lat="45.07044" lon="2.66281">
        <ele>943.58203125</ele>
        <time>2020-07-14T22:24:24.660Z</time>
      </trkpt>
      <trkpt lat="45.07033" lon="2.66264">
        <ele>942.55517578125</ele>
        <time>2020-07-14T22:24:32.299Z</time>
      </trkpt>
      <trkpt lat="45.07026" lon="2.66253">
        <ele>941.90728759766</ele>
        <time>2020-07-14T22:24:39.942Z</time>
      </trkpt>
      <trkpt lat="45.07021" lon="2.66239">
        <ele>941.01422119141</ele>
        <time>2020-07-14T22:24:47.588Z</time>
      </trkpt>
      <trkpt lat="45.07016" lon="2.66221">
        <ele>939.96813964844</ele>
        <time>2020-07-14T22:24:55.239Z</time>
      </trkpt>
      <trkpt lat="45.07014" lon="2.66204">
        <ele>939.23620605469</ele>
        <time>2020-07-14T22:25:02.894Z</time>
      </trkpt>
      <trkpt lat="45.07008" lon="2.66182">
        <ele>938.78033447266</ele>
        <time>2020-07-14T22:25:10.554Z</time>
      </trkpt>
      <trkpt lat="45.07003" lon="2.6617">
        <ele>938.78033447266</ele>
        <time>2020-07-14T22:25:18.218Z</time>
      </trkpt>
      <trkpt lat="45.07008" lon="2.66164">
        <ele>937.37860107422</ele>
        <time>2020-07-14T22:25:25.884Z</time>
      </trkpt>
      <trkpt lat="45.07022" lon="2.66146">
        <ele>933.44152832031</ele>
        <time>2020-07-14T22:25:33.556Z</time>
      </trkpt>
      <trkpt lat="45.07033" lon="2.66133">
        <ele>932.60168457031</ele>
        <time>2020-07-14T22:25:41.233Z</time>
      </trkpt>
      <trkpt lat="45.07045" lon="2.66115">
        <ele>931.59387207031</ele>
        <time>2020-07-14T22:25:48.916Z</time>
      </trkpt>
      <trkpt lat="45.07042" lon="2.6611">
        <ele>931.61785888672</ele>
        <time>2020-07-14T22:25:56.600Z</time>
      </trkpt>
      <trkpt lat="45.07037" lon="2.66106">
        <ele>931.76184082031</ele>
        <time>2020-07-14T22:26:04.286Z</time>
      </trkpt>
      <trkpt lat="45.07029" lon="2.661">
        <ele>932.00177001953</ele>
        <time>2020-07-14T22:26:11.975Z</time>
      </trkpt>
      <trkpt lat="45.07022" lon="2.66094">
        <ele>932.19378662109</ele>
        <time>2020-07-14T22:26:19.667Z</time>
      </trkpt>
      <trkpt lat="45.07016" lon="2.66088">
        <ele>932.33770751953</ele>
        <time>2020-07-14T22:26:27.362Z</time>
      </trkpt>
      <trkpt lat="45.07012" lon="2.66083">
        <ele>932.33728027344</ele>
        <time>2020-07-14T22:26:35.058Z</time>
      </trkpt>
      <trkpt lat="45.07009" lon="2.66079">
        <ele>932.28930664062</ele>
        <time>2020-07-14T22:26:42.756Z</time>
      </trkpt>
      <trkpt lat="45.07007" lon="2.66071">
        <ele>932.00134277344</ele>
        <time>2020-07-14T22:26:50.456Z</time>
      </trkpt>
      <trkpt lat="45.07005" lon="2.6606">
        <ele>931.56939697266</ele>
        <time>2020-07-14T22:26:58.158Z</time>
      </trkpt>
      <trkpt lat="45.07004" lon="2.6605">
        <ele>931.13751220703</ele>
        <time>2020-07-14T22:27:05.863Z</time>
      </trkpt>
      <trkpt lat="45.07003" lon="2.66039">
        <ele>930.7431640625</ele>
        <time>2020-07-14T22:27:13.570Z</time>
      </trkpt>
      <trkpt lat="45.07001" lon="2.66032">
        <ele>930.56323242188</ele>
        <time>2020-07-14T22:27:21.279Z</time>
      </trkpt>
      <trkpt lat="45.06996" lon="2.66015">
        <ele>930.13128662109</ele>
        <time>2020-07-14T22:27:28.993Z</time>
      </trkpt>
      <trkpt lat="45.06979" lon="2.65975">
        <ele>928.97143554688</ele>
        <time>2020-07-14T22:27:36.718Z</time>
      </trkpt>
      <trkpt lat="45.06972" lon="2.65952">
        <ele>928.11956787109</ele>
        <time>2020-07-14T22:27:44.448Z</time>
      </trkpt>
      <trkpt lat="45.06967" lon="2.65935">
        <ele>927.48364257812</ele>
        <time>2020-07-14T22:27:52.183Z</time>
      </trkpt>
      <trkpt lat="45.06964" lon="2.65921">
        <ele>926.98663330078</ele>
        <time>2020-07-14T22:27:59.921Z</time>
      </trkpt>
      <trkpt lat="45.06959" lon="2.65901">
        <ele>926.81231689453</ele>
        <time>2020-07-14T22:28:07.664Z</time>
      </trkpt>
      <trkpt lat="45.06958" lon="2.65897">
        <ele>926.82434082031</ele>
        <time>2020-07-14T22:28:15.408Z</time>
      </trkpt>
      <trkpt lat="45.06956" lon="2.65891">
        <ele>926.87231445312</ele>
        <time>2020-07-14T22:28:23.154Z</time>
      </trkpt>
      <trkpt lat="45.06953" lon="2.65878">
        <ele>926.89630126953</ele>
        <time>2020-07-14T22:28:30.903Z</time>
      </trkpt>
      <trkpt lat="45.0695" lon="2.65867">
        <ele>926.94427490234</ele>
        <time>2020-07-14T22:28:38.655Z</time>
      </trkpt>
      <trkpt lat="45.06942" lon="2.6585">
        <ele>927.22027587891</ele>
        <time>2020-07-14T22:28:46.412Z</time>
      </trkpt>
      <trkpt lat="45.06935" lon="2.65836">
        <ele>927.47222900391</ele>
        <time>2020-07-14T22:28:54.173Z</time>
      </trkpt>
      <trkpt lat="45.06927" lon="2.65818">
        <ele>927.08911132812</ele>
        <time>2020-07-14T22:29:01.939Z</time>
      </trkpt>
      <trkpt lat="45.06922" lon="2.65802">
        <ele>926.62115478516</ele>
        <time>2020-07-14T22:29:09.709Z</time>
      </trkpt>
      <trkpt lat="45.06918" lon="2.65788">
        <ele>926.34381103516</ele>
        <time>2020-07-14T22:29:17.482Z</time>
      </trkpt>
      <trkpt lat="45.06913" lon="2.65772">
        <ele>926.13983154297</ele>
        <time>2020-07-14T22:29:25.260Z</time>
      </trkpt>
      <trkpt lat="45.06904" lon="2.65758">
        <ele>926.12780761719</ele>
        <time>2020-07-14T22:29:33.042Z</time>
      </trkpt>
      <trkpt lat="45.06895" lon="2.65742">
        <ele>925.81274414062</ele>
        <time>2020-07-14T22:29:40.829Z</time>
      </trkpt>
      <trkpt lat="45.06908" lon="2.65749">
        <ele>925.68078613281</ele>
        <time>2020-07-14T22:29:48.621Z</time>
      </trkpt>
      <trkpt lat="45.06916" lon="2.65755">
        <ele>925.62390136719</ele>
        <time>2020-07-14T22:29:56.416Z</time>
      </trkpt>
      <trkpt lat="45.06923" lon="2.65762">
        <ele>925.53991699219</ele>
        <time>2020-07-14T22:30:04.213Z</time>
      </trkpt>
      <trkpt lat="45.06935" lon="2.65768">
        <ele>925.251953125</ele>
        <time>2020-07-14T22:30:12.015Z</time>
      </trkpt>
      <trkpt lat="45.06945" lon="2.65769">
        <ele>924.916015625</ele>
        <time>2020-07-14T22:30:19.820Z</time>
      </trkpt>
      <trkpt lat="45.06955" lon="2.65768">
        <ele>924.53210449219</ele>
        <time>2020-07-14T22:30:27.628Z</time>
      </trkpt>
      <trkpt lat="45.0696" lon="2.65762">
        <ele>924.24151611328</ele>
        <time>2020-07-14T22:30:35.439Z</time>
      </trkpt>
      <trkpt lat="45.0697" lon="2.65754">
        <ele>925.50054931641</ele>
        <time>2020-07-14T22:30:43.253Z</time>
      </trkpt>
      <trkpt lat="45.0698" lon="2.65747">
        <ele>927.52954101562</ele>
        <time>2020-07-14T22:30:51.071Z</time>
      </trkpt>
      <trkpt lat="45.0699" lon="2.65735">
        <ele>929.80914306641</ele>
        <time>2020-07-14T22:30:58.893Z</time>
      </trkpt>
      <trkpt lat="45.07" lon="2.65724">
        <ele>932.02880859375</ele>
        <time>2020-07-14T22:31:06.720Z</time>
      </trkpt>
      <trkpt lat="45.06997" lon="2.65713">
        <ele>932.22076416016</ele>
        <time>2020-07-14T22:31:14.549Z</time>
      </trkpt>
      <trkpt lat="45.06997" lon="2.65702">
        <ele>933.10845947266</ele>
        <time>2020-07-14T22:31:22.381Z</time>
      </trkpt>
      <trkpt lat="45.07007" lon="2.65693">
        <ele>936.11993408203</ele>
        <time>2020-07-14T22:31:30.217Z</time>
      </trkpt>
      <trkpt lat="45.07019" lon="2.65679">
        <ele>940.07928466797</ele>
        <time>2020-07-14T22:31:38.058Z</time>
      </trkpt>
      <trkpt lat="45.0703" lon="2.65668">
        <ele>943.572265625</ele>
        <time>2020-07-14T22:31:45.904Z</time>
      </trkpt>
      <trkpt lat="45.07039" lon="2.65658">
        <ele>946.87890625</ele>
        <time>2020-07-14T22:31:53.754Z</time>
      </trkpt>
      <trkpt lat="45.07042" lon="2.65647">
        <ele>949.03857421875</ele>
        <time>2020-07-14T22:32:01.606Z</time>
      </trkpt>
      <trkpt lat="45.0704" lon="2.65632">
        <ele>950.81427001953</ele>
        <time>2020-07-14T22:32:09.462Z</time>
      </trkpt>
      <trkpt lat="45.07034" lon="2.65625">
        <ele>950.67028808594</ele>
        <time>2020-07-14T22:32:17.320Z</time>
      </trkpt>
      <trkpt lat="45.07027" lon="2.6562">
        <ele>950.04638671875</ele>
        <time>2020-07-14T22:32:25.181Z</time>
      </trkpt>
      <trkpt lat="45.07019" lon="2.65615">
        <ele>949.23052978516</ele>
        <time>2020-07-14T22:32:33.045Z</time>
      </trkpt>
      <trkpt lat="45.07011" lon="2.65601">
        <ele>949.71044921875</ele>
        <time>2020-07-14T22:32:40.913Z</time>
      </trkpt>
      <trkpt lat="45.07003" lon="2.65587">
        <ele>950.19036865234</ele>
        <time>2020-07-14T22:32:48.786Z</time>
      </trkpt>
      <trkpt lat="45.07" lon="2.65578">
        <ele>951.00543212891</ele>
        <time>2020-07-14T22:32:56.661Z</time>
      </trkpt>
      <trkpt lat="45.06991" lon="2.65562">
        <ele>951.77331542969</ele>
        <time>2020-07-14T22:33:04.541Z</time>
      </trkpt>
      <trkpt lat="45.06984" lon="2.65549">
        <ele>952.45721435547</ele>
        <time>2020-07-14T22:33:12.425Z</time>
      </trkpt>
      <trkpt lat="45.06972" lon="2.65535">
        <ele>952.33721923828</ele>
        <time>2020-07-14T22:33:20.314Z</time>
      </trkpt>
      <trkpt lat="45.06964" lon="2.65528">
        <ele>951.89331054688</ele>
        <time>2020-07-14T22:33:28.206Z</time>
      </trkpt>
      <trkpt lat="45.06961" lon="2.65527">
        <ele>951.47338867188</ele>
        <time>2020-07-14T22:33:36.099Z</time>
      </trkpt>
      <trkpt lat="45.06952" lon="2.65522">
        <ele>950.43511962891</ele>
        <time>2020-07-14T22:33:43.995Z</time>
      </trkpt>
      <trkpt lat="45.06941" lon="2.65518">
        <ele>948.81536865234</ele>
        <time>2020-07-14T22:33:51.895Z</time>
      </trkpt>
      <trkpt lat="45.06935" lon="2.65515">
        <ele>948.05950927734</ele>
        <time>2020-07-14T22:33:59.797Z</time>
      </trkpt>
      <trkpt lat="45.06929" lon="2.65511">
        <ele>947.45959472656</ele>
        <time>2020-07-14T22:34:07.701Z</time>
      </trkpt>
      <trkpt lat="45.06923" lon="2.65502">
        <ele>947.61840820312</ele>
        <time>2020-07-14T22:34:15.608Z</time>
      </trkpt>
      <trkpt lat="45.06917" lon="2.65491">
        <ele>947.71441650391</ele>
        <time>2020-07-14T22:34:23.518Z</time>
      </trkpt>
      <trkpt lat="45.06909" lon="2.65474">
        <ele>948.12231445312</ele>
        <time>2020-07-14T22:34:31.433Z</time>
      </trkpt>
      <trkpt lat="45.069" lon="2.65457">
        <ele>948.32629394531</ele>
        <time>2020-07-14T22:34:39.353Z</time>
      </trkpt>
      <trkpt lat="45.0689" lon="2.65435">
        <ele>948.92620849609</ele>
        <time>2020-07-14T22:34:47.279Z</time>
      </trkpt>
      <trkpt lat="45.06881" lon="2.65416">
        <ele>949.19451904297</ele>
        <time>2020-07-14T22:34:55.211Z</time>
      </trkpt>
      <trkpt lat="45.06873" lon="2.65397">
        <ele>948.2255859375</ele>
        <time>2020-07-14T22:35:03.148Z</time>
      </trkpt>
      <trkpt lat="45.06863" lon="2.65372">
        <ele>946.78582763672</ele>
        <time>2020-07-14T22:35:11.092Z</time>
      </trkpt>
      <trkpt lat="45.06858" lon="2.65348">
        <ele>946.61785888672</ele>
        <time>2020-07-14T22:35:19.042Z</time>
      </trkpt>
      <trkpt lat="45.06855" lon="2.65329">
        <ele>946.40698242188</ele>
        <time>2020-07-14T22:35:26.996Z</time>
      </trkpt>
      <trkpt lat="45.06853" lon="2.65312">
        <ele>945.88757324219</ele>
        <time>2020-07-14T22:35:34.954Z</time>
      </trkpt>
      <trkpt lat="45.06852" lon="2.65298">
        <ele>945.77954101562</ele>
        <time>2020-07-14T22:35:42.916Z</time>
      </trkpt>
      <trkpt lat="45.06851" lon="2.65293">
        <ele>945.56359863281</ele>
        <time>2020-07-14T22:35:50.879Z</time>
      </trkpt>
      <trkpt lat="45.06851" lon="2.65283">
        <ele>945.68359375</ele>
        <time>2020-07-14T22:35:58.844Z</time>
      </trkpt>
      <trkpt lat="45.06849" lon="2.65267">
        <ele>945.32366943359</ele>
        <time>2020-07-14T22:36:06.813Z</time>
      </trkpt>
      <trkpt lat="45.06849" lon="2.65252">
        <ele>945.4970703125</ele>
        <time>2020-07-14T22:36:14.786Z</time>
      </trkpt>
      <trkpt lat="45.06849" lon="2.65235">
        <ele>945.4970703125</ele>
        <time>2020-07-14T22:36:22.763Z</time>
      </trkpt>
      <trkpt lat="45.0685" lon="2.65223">
        <ele>945.81329345703</ele>
        <time>2020-07-14T22:36:30.743Z</time>
      </trkpt>
      <trkpt lat="45.06849" lon="2.65217">
        <ele>945.59735107422</ele>
        <time>2020-07-14T22:36:38.724Z</time>
      </trkpt>
      <trkpt lat="45.06846" lon="2.65209">
        <ele>944.82946777344</ele>
        <time>2020-07-14T22:36:46.707Z</time>
      </trkpt>
      <trkpt lat="45.06842" lon="2.65191">
        <ele>943.89361572266</ele>
        <time>2020-07-14T22:36:54.695Z</time>
      </trkpt>
      <trkpt lat="45.06841" lon="2.65179">
        <ele>943.74963378906</ele>
        <time>2020-07-14T22:37:02.686Z</time>
      </trkpt>
      <trkpt lat="45.0684" lon="2.65168">
        <ele>943.67999267578</ele>
        <time>2020-07-14T22:37:10.679Z</time>
      </trkpt>
      <trkpt lat="45.06838" lon="2.65144">
        <ele>945.11975097656</ele>
        <time>2020-07-14T22:37:18.678Z</time>
      </trkpt>
      <trkpt lat="45.06838" lon="2.65124">
        <ele>946.46307373047</ele>
        <time>2020-07-14T22:37:26.682Z</time>
      </trkpt>
      <trkpt lat="45.06838" lon="2.65114">
        <ele>946.82299804688</ele>
        <time>2020-07-14T22:37:34.688Z</time>
      </trkpt>
      <trkpt lat="45.06836" lon="2.65107">
        <ele>946.59503173828</ele>
        <time>2020-07-14T22:37:42.696Z</time>
      </trkpt>
      <trkpt lat="45.06832" lon="2.65097">
        <ele>945.9951171875</ele>
        <time>2020-07-14T22:37:50.706Z</time>
      </trkpt>
      <trkpt lat="45.06829" lon="2.65093">
        <ele>945.41925048828</ele>
        <time>2020-07-14T22:37:58.718Z</time>
      </trkpt>
      <trkpt lat="45.06828" lon="2.65091">
        <ele>945.25122070312</ele>
        <time>2020-07-14T22:38:06.730Z</time>
      </trkpt>
      <trkpt lat="45.06819" lon="2.65076">
        <ele>944.10430908203</ele>
        <time>2020-07-14T22:38:14.747Z</time>
      </trkpt>
      <trkpt lat="45.06811" lon="2.65064">
        <ele>943.19250488281</ele>
        <time>2020-07-14T22:38:22.768Z</time>
      </trkpt>
      <trkpt lat="45.06805" lon="2.65053">
        <ele>942.67657470703</ele>
        <time>2020-07-14T22:38:30.792Z</time>
      </trkpt>
      <trkpt lat="45.068" lon="2.65041">
        <ele>942.48461914062</ele>
        <time>2020-07-14T22:38:38.820Z</time>
      </trkpt>
      <trkpt lat="45.06795" lon="2.65028">
        <ele>942.37664794922</ele>
        <time>2020-07-14T22:38:46.851Z</time>
      </trkpt>
      <trkpt lat="45.06788" lon="2.65005">
        <ele>942.33813476562</ele>
        <time>2020-07-14T22:38:54.888Z</time>
      </trkpt>
      <trkpt lat="45.06782" lon="2.64987">
        <ele>940.91583251953</ele>
        <time>2020-07-14T22:39:02.930Z</time>
      </trkpt>
      <trkpt lat="45.06779" lon="2.64977">
        <ele>940.26794433594</ele>
        <time>2020-07-14T22:39:10.974Z</time>
      </trkpt>
      <trkpt lat="45.06776" lon="2.64966">
        <ele>939.65600585938</ele>
        <time>2020-07-14T22:39:19.021Z</time>
      </trkpt>
      <trkpt lat="45.06771" lon="2.64952">
        <ele>938.48022460938</ele>
        <time>2020-07-14T22:39:27.072Z</time>
      </trkpt>
      <trkpt lat="45.06768" lon="2.64945">
        <ele>937.72436523438</ele>
        <time>2020-07-14T22:39:35.125Z</time>
      </trkpt>
      <trkpt lat="45.06766" lon="2.64936">
        <ele>937.37640380859</ele>
        <time>2020-07-14T22:39:43.180Z</time>
      </trkpt>
      <trkpt lat="45.06763" lon="2.64927">
        <ele>936.69250488281</ele>
        <time>2020-07-14T22:39:51.237Z</time>
      </trkpt>
      <trkpt lat="45.06761" lon="2.64916">
        <ele>936.37866210938</ele>
        <time>2020-07-14T22:39:59.297Z</time>
      </trkpt>
      <trkpt lat="45.0676" lon="2.64903">
        <ele>936.35467529297</ele>
        <time>2020-07-14T22:40:07.360Z</time>
      </trkpt>
      <trkpt lat="45.0676" lon="2.64893">
        <ele>936.59466552734</ele>
        <time>2020-07-14T22:40:15.425Z</time>
      </trkpt>
      <trkpt lat="45.06761" lon="2.64879">
        <ele>936.86743164062</ele>
        <time>2020-07-14T22:40:23.494Z</time>
      </trkpt>
      <trkpt lat="45.06763" lon="2.64867">
        <ele>937.15539550781</ele>
        <time>2020-07-14T22:40:31.566Z</time>
      </trkpt>
      <trkpt lat="45.06763" lon="2.6486">
        <ele>936.98742675781</ele>
        <time>2020-07-14T22:40:39.639Z</time>
      </trkpt>
      <trkpt lat="45.06763" lon="2.64845">
        <ele>936.62750244141</ele>
        <time>2020-07-14T22:40:47.716Z</time>
      </trkpt>
      <trkpt lat="45.06762" lon="2.6483">
        <ele>936.53729248047</ele>
        <time>2020-07-14T22:40:55.796Z</time>
      </trkpt>
      <trkpt lat="45.0676" lon="2.6482">
        <ele>936.68127441406</ele>
        <time>2020-07-14T22:41:03.879Z</time>
      </trkpt>
      <trkpt lat="45.06757" lon="2.64803">
        <ele>937.04119873047</ele>
        <time>2020-07-14T22:41:11.966Z</time>
      </trkpt>
      <trkpt lat="45.06752" lon="2.64786">
        <ele>937.04046630859</ele>
        <time>2020-07-14T22:41:20.057Z</time>
      </trkpt>
      <trkpt lat="45.06749" lon="2.6477">
        <ele>937.64038085938</ele>
        <time>2020-07-14T22:41:28.152Z</time>
      </trkpt>
      <trkpt lat="45.06748" lon="2.64755">
        <ele>938.76818847656</ele>
        <time>2020-07-14T22:41:36.251Z</time>
      </trkpt>
      <trkpt lat="45.06745" lon="2.64739">
        <ele>939.85266113281</ele>
        <time>2020-07-14T22:41:44.354Z</time>
      </trkpt>
      <trkpt lat="45.06742" lon="2.64721">
        <ele>941.29241943359</ele>
        <time>2020-07-14T22:41:52.461Z</time>
      </trkpt>
      <trkpt lat="45.06738" lon="2.64703">
        <ele>942.42022705078</ele>
        <time>2020-07-14T22:42:00.572Z</time>
      </trkpt>
      <trkpt lat="45.06732" lon="2.64688">
        <ele>942.65856933594</ele>
        <time>2020-07-14T22:42:08.688Z</time>
      </trkpt>
      <trkpt lat="45.06725" lon="2.64664">
        <ele>944.19293212891</ele>
        <time>2020-07-14T22:42:16.810Z</time>
      </trkpt>
      <trkpt lat="45.06719" lon="2.64647">
        <ele>944.7568359375</ele>
        <time>2020-07-14T22:42:24.936Z</time>
      </trkpt>
      <trkpt lat="45.06714" lon="2.64632">
        <ele>945.35675048828</ele>
        <time>2020-07-14T22:42:33.066Z</time>
      </trkpt>
      <trkpt lat="45.06709" lon="2.64616">
        <ele>946.11853027344</ele>
        <time>2020-07-14T22:42:41.200Z</time>
      </trkpt>
      <trkpt lat="45.06705" lon="2.646">
        <ele>947.27032470703</ele>
        <time>2020-07-14T22:42:49.338Z</time>
      </trkpt>
      <trkpt lat="45.06701" lon="2.6458">
        <ele>948.63073730469</ele>
        <time>2020-07-14T22:42:57.481Z</time>
      </trkpt>
      <trkpt lat="45.06697" lon="2.64559">
        <ele>948.19439697266</ele>
        <time>2020-07-14T22:43:05.629Z</time>
      </trkpt>
      <trkpt lat="45.06694" lon="2.64537">
        <ele>947.89447021484</ele>
        <time>2020-07-14T22:43:13.783Z</time>
      </trkpt>
      <trkpt lat="45.06693" lon="2.64531">
        <ele>947.76245117188</ele>
        <time>2020-07-14T22:43:21.938Z</time>
      </trkpt>
      <trkpt lat="45.06693" lon="2.64525">
        <ele>947.90643310547</ele>
        <time>2020-07-14T22:43:30.094Z</time>
      </trkpt>
      <trkpt lat="45.06689" lon="2.64519">
        <ele>946.94659423828</ele>
        <time>2020-07-14T22:43:38.252Z</time>
      </trkpt>
      <trkpt lat="45.06686" lon="2.64511">
        <ele>946.31072998047</ele>
        <time>2020-07-14T22:43:46.412Z</time>
      </trkpt>
      <trkpt lat="45.06686" lon="2.645">
        <ele>946.57464599609</ele>
        <time>2020-07-14T22:43:54.575Z</time>
      </trkpt>
      <trkpt lat="45.06686" lon="2.64487">
        <ele>946.88659667969</ele>
        <time>2020-07-14T22:44:02.741Z</time>
      </trkpt>
      <trkpt lat="45.06685" lon="2.64477">
        <ele>946.87286376953</ele>
        <time>2020-07-14T22:44:10.910Z</time>
      </trkpt>
      <trkpt lat="45.06682" lon="2.64466">
        <ele>946.50091552734</ele>
        <time>2020-07-14T22:44:19.081Z</time>
      </trkpt>
      <trkpt lat="45.06678" lon="2.64453">
        <ele>945.92498779297</ele>
        <time>2020-07-14T22:44:27.256Z</time>
      </trkpt>
      <trkpt lat="45.06677" lon="2.64451">
        <ele>945.72106933594</ele>
        <time>2020-07-14T22:44:35.431Z</time>
      </trkpt>
      <trkpt lat="45.06674" lon="2.64443">
        <ele>945.20513916016</ele>
        <time>2020-07-14T22:44:43.608Z</time>
      </trkpt>
      <trkpt lat="45.06671" lon="2.64436">
        <ele>944.64123535156</ele>
        <time>2020-07-14T22:44:51.787Z</time>
      </trkpt>
      <trkpt lat="45.06668" lon="2.64428">
        <ele>944.12530517578</ele>
        <time>2020-07-14T22:44:59.968Z</time>
      </trkpt>
      <trkpt lat="45.06663" lon="2.64412">
        <ele>943.47833251953</ele>
        <time>2020-07-14T22:45:08.154Z</time>
      </trkpt>
      <trkpt lat="45.06661" lon="2.64397">
        <ele>943.77825927734</ele>
        <time>2020-07-14T22:45:16.343Z</time>
      </trkpt>
      <trkpt lat="45.06659" lon="2.64388">
        <ele>943.71826171875</ele>
        <time>2020-07-14T22:45:24.534Z</time>
      </trkpt>
      <trkpt lat="45.06656" lon="2.6438">
        <ele>943.29833984375</ele>
        <time>2020-07-14T22:45:32.728Z</time>
      </trkpt>
      <trkpt lat="45.06651" lon="2.64379">
        <ele>941.85858154297</ele>
        <time>2020-07-14T22:45:40.923Z</time>
      </trkpt>
      <trkpt lat="45.06646" lon="2.64377">
        <ele>940.47882080078</ele>
        <time>2020-07-14T22:45:49.120Z</time>
      </trkpt>
      <trkpt lat="45.0664" lon="2.64375">
        <ele>938.79907226562</ele>
        <time>2020-07-14T22:45:57.319Z</time>
      </trkpt>
      <trkpt lat="45.06635" lon="2.64373">
        <ele>937.41931152344</ele>
        <time>2020-07-14T22:46:05.520Z</time>
      </trkpt>
      <trkpt lat="45.06629" lon="2.64369">
        <ele>935.85955810547</ele>
        <time>2020-07-14T22:46:13.723Z</time>
      </trkpt>
      <trkpt lat="45.06622" lon="2.64361">
        <ele>934.68768310547</ele>
        <time>2020-07-14T22:46:21.929Z</time>
      </trkpt>
      <trkpt lat="45.06615" lon="2.6435">
        <ele>934.00384521484</ele>
        <time>2020-07-14T22:46:30.138Z</time>
      </trkpt>
      <trkpt lat="45.0661" lon="2.64339">
        <ele>933.70385742188</ele>
        <time>2020-07-14T22:46:38.351Z</time>
      </trkpt>
      <trkpt lat="45.06605" lon="2.64326">
        <ele>933.29046630859</ele>
        <time>2020-07-14T22:46:46.567Z</time>
      </trkpt>
      <trkpt lat="45.06598" lon="2.64307">
        <ele>932.65148925781</ele>
        <time>2020-07-14T22:46:54.788Z</time>
      </trkpt>
      <trkpt lat="45.06593" lon="2.64288">
        <ele>932.87939453125</ele>
        <time>2020-07-14T22:47:03.014Z</time>
      </trkpt>
      <trkpt lat="45.06589" lon="2.64269">
        <ele>933.33532714844</ele>
        <time>2020-07-14T22:47:11.245Z</time>
      </trkpt>
      <trkpt lat="45.06588" lon="2.64247">
        <ele>934.11016845703</ele>
        <time>2020-07-14T22:47:19.481Z</time>
      </trkpt>
      <trkpt lat="45.06587" lon="2.6423">
        <ele>933.27032470703</ele>
        <time>2020-07-14T22:47:27.721Z</time>
      </trkpt>
      <trkpt lat="45.06587" lon="2.64206">
        <ele>933.01391601562</ele>
        <time>2020-07-14T22:47:35.967Z</time>
      </trkpt>
      <trkpt lat="45.06589" lon="2.64187">
        <ele>934.54962158203</ele>
        <time>2020-07-14T22:47:44.217Z</time>
      </trkpt>
      <trkpt lat="45.0659" lon="2.64171">
        <ele>935.62945556641</ele>
        <time>2020-07-14T22:47:52.471Z</time>
      </trkpt>
      <trkpt lat="45.0659" lon="2.64159">
        <ele>935.48315429688</ele>
        <time>2020-07-14T22:48:00.728Z</time>
      </trkpt>
      <trkpt lat="45.06589" lon="2.64153">
        <ele>935.02722167969</ele>
        <time>2020-07-14T22:48:08.986Z</time>
      </trkpt>
      <trkpt lat="45.06587" lon="2.64148">
        <ele>934.28332519531</ele>
        <time>2020-07-14T22:48:17.245Z</time>
      </trkpt>
      <trkpt lat="45.06583" lon="2.64144">
        <ele>932.93957519531</ele>
        <time>2020-07-14T22:48:25.506Z</time>
      </trkpt>
      <trkpt lat="45.06577" lon="2.64139">
        <ele>930.94787597656</ele>
        <time>2020-07-14T22:48:33.769Z</time>
      </trkpt>
      <trkpt lat="45.06573" lon="2.64137">
        <ele>929.65209960938</ele>
        <time>2020-07-14T22:48:42.034Z</time>
      </trkpt>
      <trkpt lat="45.06573" lon="2.64136">
        <ele>929.62811279297</ele>
        <time>2020-07-14T22:48:50.299Z</time>
      </trkpt>
      <trkpt lat="45.06573" lon="2.64137">
        <ele>929.65209960938</ele>
        <time>2020-07-14T22:48:58.564Z</time>
      </trkpt>
      <trkpt lat="45.06569" lon="2.64134">
        <ele>928.33233642578</ele>
        <time>2020-07-14T22:49:06.831Z</time>
      </trkpt>
      <trkpt lat="45.06563" lon="2.64132">
        <ele>926.41265869141</ele>
        <time>2020-07-14T22:49:15.100Z</time>
      </trkpt>
      <trkpt lat="45.06556" lon="2.6413">
        <ele>924.18103027344</ele>
        <time>2020-07-14T22:49:23.371Z</time>
      </trkpt>
      <trkpt lat="45.06549" lon="2.6413">
        <ele>921.99737548828</ele>
        <time>2020-07-14T22:49:31.645Z</time>
      </trkpt>
      <trkpt lat="45.06537" lon="2.64134">
        <ele>919.67224121094</ele>
        <time>2020-07-14T22:49:39.923Z</time>
      </trkpt>
      <trkpt lat="45.06526" lon="2.64138">
        <ele>918.84436035156</ele>
        <time>2020-07-14T22:49:48.205Z</time>
      </trkpt>
      <trkpt lat="45.06515" lon="2.64143">
        <ele>917.93444824219</ele>
        <time>2020-07-14T22:49:56.490Z</time>
      </trkpt>
      <trkpt lat="45.06511" lon="2.64144">
        <ele>917.32257080078</ele>
        <time>2020-07-14T22:50:04.777Z</time>
      </trkpt>
      <trkpt lat="45.06507" lon="2.64144">
        <ele>916.74664306641</ele>
        <time>2020-07-14T22:50:13.065Z</time>
      </trkpt>
      <trkpt lat="45.06503" lon="2.64144">
        <ele>916.17077636719</ele>
        <time>2020-07-14T22:50:21.354Z</time>
      </trkpt>
      <trkpt lat="45.06497" lon="2.64141">
        <ele>915.41485595703</ele>
        <time>2020-07-14T22:50:29.646Z</time>
      </trkpt>
      <trkpt lat="45.06491" lon="2.64134">
        <ele>914.80297851562</ele>
        <time>2020-07-14T22:50:37.940Z</time>
      </trkpt>
      <trkpt lat="45.06484" lon="2.64117">
        <ele>914.40704345703</ele>
        <time>2020-07-14T22:50:46.239Z</time>
      </trkpt>
      <trkpt lat="45.06477" lon="2.64096">
        <ele>913.72119140625</ele>
        <time>2020-07-14T22:50:54.543Z</time>
      </trkpt>
      <trkpt lat="45.06471" lon="2.64076">
        <ele>912.62115478516</ele>
        <time>2020-07-14T22:51:02.852Z</time>
      </trkpt>
      <trkpt lat="45.06468" lon="2.64056">
        <ele>911.64935302734</ele>
        <time>2020-07-14T22:51:11.166Z</time>
      </trkpt>
      <trkpt lat="45.06465" lon="2.64023">
        <ele>910.20959472656</ele>
        <time>2020-07-14T22:51:19.488Z</time>
      </trkpt>
      <trkpt lat="45.06462" lon="2.64013">
        <ele>909.59765625</ele>
        <time>2020-07-14T22:51:27.813Z</time>
      </trkpt>
      <trkpt lat="45.06459" lon="2.64008">
        <ele>909.14398193359</ele>
        <time>2020-07-14T22:51:36.139Z</time>
      </trkpt>
      <trkpt lat="45.06456" lon="2.64003">
        <ele>908.56811523438</ele>
        <time>2020-07-14T22:51:44.467Z</time>
      </trkpt>
      <trkpt lat="45.06451" lon="2.64">
        <ele>907.82830810547</ele>
        <time>2020-07-14T22:51:52.797Z</time>
      </trkpt>
      <trkpt lat="45.06447" lon="2.63997">
        <ele>907.22839355469</ele>
        <time>2020-07-14T22:52:01.128Z</time>
      </trkpt>
      <trkpt lat="45.06448" lon="2.6399">
        <ele>907.17114257812</ele>
        <time>2020-07-14T22:52:09.461Z</time>
      </trkpt>
      <trkpt lat="45.06451" lon="2.63974">
        <ele>906.72723388672</ele>
        <time>2020-07-14T22:52:17.798Z</time>
      </trkpt>
      <trkpt lat="45.06455" lon="2.63951">
        <ele>906.05535888672</ele>
        <time>2020-07-14T22:52:26.140Z</time>
      </trkpt>
      <trkpt lat="45.0646" lon="2.63918">
        <ele>905.12719726562</ele>
        <time>2020-07-14T22:52:34.490Z</time>
      </trkpt>
      <trkpt lat="45.06462" lon="2.63899">
        <ele>905.22314453125</ele>
        <time>2020-07-14T22:52:42.845Z</time>
      </trkpt>
      <trkpt lat="45.06465" lon="2.63881">
        <ele>905.61907958984</ele>
        <time>2020-07-14T22:52:51.204Z</time>
      </trkpt>
      <trkpt lat="45.06468" lon="2.6385">
        <ele>905.70306396484</ele>
        <time>2020-07-14T22:52:59.571Z</time>
      </trkpt>
      <trkpt lat="45.06469" lon="2.63822">
        <ele>905.78198242188</ele>
        <time>2020-07-14T22:53:07.944Z</time>
      </trkpt>
      <trkpt lat="45.06469" lon="2.63805">
        <ele>906.39392089844</ele>
        <time>2020-07-14T22:53:16.321Z</time>
      </trkpt>
      <trkpt lat="45.06468" lon="2.63795">
        <ele>906.51385498047</ele>
        <time>2020-07-14T22:53:24.701Z</time>
      </trkpt>
      <trkpt lat="45.06464" lon="2.63785">
        <ele>905.91400146484</ele>
        <time>2020-07-14T22:53:33.083Z</time>
      </trkpt>
      <trkpt lat="45.06456" lon="2.63772">
        <ele>904.79364013672</ele>
        <time>2020-07-14T22:53:41.469Z</time>
      </trkpt>
      <trkpt lat="45.06444" lon="2.63758">
        <ele>903.56982421875</ele>
        <time>2020-07-14T22:53:49.861Z</time>
      </trkpt>
      <trkpt lat="45.06435" lon="2.63746">
        <ele>902.55493164062</ele>
        <time>2020-07-14T22:53:58.257Z</time>
      </trkpt>
      <trkpt lat="45.06428" lon="2.63738">
        <ele>901.64306640625</ele>
        <time>2020-07-14T22:54:06.656Z</time>
      </trkpt>
      <trkpt lat="45.06421" lon="2.63729">
        <ele>900.74322509766</ele>
        <time>2020-07-14T22:54:15.058Z</time>
      </trkpt>
      <trkpt lat="45.06414" lon="2.6372">
        <ele>899.84338378906</ele>
        <time>2020-07-14T22:54:23.463Z</time>
      </trkpt>
      <trkpt lat="45.06411" lon="2.63711">
        <ele>899.51940917969</ele>
        <time>2020-07-14T22:54:31.870Z</time>
      </trkpt>
      <trkpt lat="45.06409" lon="2.63702">
        <ele>899.33941650391</ele>
        <time>2020-07-14T22:54:40.280Z</time>
      </trkpt>
      <trkpt lat="45.06408" lon="2.63688">
        <ele>900.13391113281</ele>
        <time>2020-07-14T22:54:48.693Z</time>
      </trkpt>
      <trkpt lat="45.06407" lon="2.6367">
        <ele>901.22570800781</ele>
        <time>2020-07-14T22:54:57.110Z</time>
      </trkpt>
      <trkpt lat="45.06409" lon="2.63647">
        <ele>901.97265625</ele>
        <time>2020-07-14T22:55:05.533Z</time>
      </trkpt>
      <trkpt lat="45.06413" lon="2.63615">
        <ele>903.44226074219</ele>
        <time>2020-07-14T22:55:13.963Z</time>
      </trkpt>
      <trkpt lat="45.06418" lon="2.63586">
        <ele>906.03381347656</ele>
        <time>2020-07-14T22:55:22.400Z</time>
      </trkpt>
      <trkpt lat="45.06421" lon="2.63568">
        <ele>906.98400878906</ele>
        <time>2020-07-14T22:55:30.842Z</time>
      </trkpt>
      <trkpt lat="45.06424" lon="2.63555">
        <ele>907.85986328125</ele>
        <time>2020-07-14T22:55:39.287Z</time>
      </trkpt>
      <trkpt lat="45.06426" lon="2.63539">
        <ele>909.16278076172</ele>
        <time>2020-07-14T22:55:47.736Z</time>
      </trkpt>
      <trkpt lat="45.06428" lon="2.6353">
        <ele>910.27862548828</ele>
        <time>2020-07-14T22:55:56.187Z</time>
      </trkpt>
      <trkpt lat="45.06428" lon="2.63517">
        <ele>911.05847167969</ele>
        <time>2020-07-14T22:56:04.641Z</time>
      </trkpt>
      <trkpt lat="45.06429" lon="2.6351">
        <ele>911.76635742188</ele>
        <time>2020-07-14T22:56:13.097Z</time>
      </trkpt>
      <trkpt lat="45.06427" lon="2.63494">
        <ele>911.85321044922</ele>
        <time>2020-07-14T22:56:21.557Z</time>
      </trkpt>
      <trkpt lat="45.06425" lon="2.63481">
        <ele>911.58923339844</ele>
        <time>2020-07-14T22:56:30.020Z</time>
      </trkpt>
      <trkpt lat="45.06426" lon="2.63476">
        <ele>911.99713134766</ele>
        <time>2020-07-14T22:56:38.484Z</time>
      </trkpt>
      <trkpt lat="45.06427" lon="2.63469">
        <ele>912.43383789062</ele>
        <time>2020-07-14T22:56:46.950Z</time>
      </trkpt>
      <trkpt lat="45.0643" lon="2.63462">
        <ele>913.22570800781</ele>
        <time>2020-07-14T22:56:55.418Z</time>
      </trkpt>
      <trkpt lat="45.06434" lon="2.63443">
        <ele>914.28155517578</ele>
        <time>2020-07-14T22:57:03.890Z</time>
      </trkpt>
      <trkpt lat="45.06437" lon="2.63426">
        <ele>915.07342529297</ele>
        <time>2020-07-14T22:57:12.366Z</time>
      </trkpt>
      <trkpt lat="45.06441" lon="2.634">
        <ele>916.107421875</ele>
        <time>2020-07-14T22:57:20.849Z</time>
      </trkpt>
      <trkpt lat="45.06444" lon="2.63383">
        <ele>915.939453125</ele>
        <time>2020-07-14T22:57:29.336Z</time>
      </trkpt>
      <trkpt lat="45.06448" lon="2.6337">
        <ele>916.17938232422</ele>
        <time>2020-07-14T22:57:37.826Z</time>
      </trkpt>
      <trkpt lat="45.06455" lon="2.63352">
        <ele>916.82727050781</ele>
        <time>2020-07-14T22:57:46.321Z</time>
      </trkpt>
      <trkpt lat="45.06464" lon="2.63336">
        <ele>918.52227783203</ele>
        <time>2020-07-14T22:57:54.821Z</time>
      </trkpt>
      <trkpt lat="45.06468" lon="2.63333">
        <ele>920.23992919922</ele>
        <time>2020-07-14T22:58:03.322Z</time>
      </trkpt>
      <trkpt lat="45.0647" lon="2.63329">
        <ele>921.48773193359</ele>
        <time>2020-07-14T22:58:11.825Z</time>
      </trkpt>
      <trkpt lat="45.06471" lon="2.63326">
        <ele>922.25561523438</ele>
        <time>2020-07-14T22:58:20.328Z</time>
      </trkpt>
      <trkpt lat="45.06472" lon="2.63322">
        <ele>923.16748046875</ele>
        <time>2020-07-14T22:58:28.832Z</time>
      </trkpt>
      <trkpt lat="45.0647" lon="2.63318">
        <ele>923.07147216797</ele>
        <time>2020-07-14T22:58:37.337Z</time>
      </trkpt>
      <trkpt lat="45.06465" lon="2.63309">
        <ele>922.68756103516</ele>
        <time>2020-07-14T22:58:45.845Z</time>
      </trkpt>
      <trkpt lat="45.0646" lon="2.63301">
        <ele>922.15960693359</ele>
        <time>2020-07-14T22:58:54.356Z</time>
      </trkpt>
      <trkpt lat="45.06455" lon="2.63287">
        <ele>922.49560546875</ele>
        <time>2020-07-14T22:59:02.870Z</time>
      </trkpt>
      <trkpt lat="45.06453" lon="2.63279">
        <ele>922.97552490234</ele>
        <time>2020-07-14T22:59:11.386Z</time>
      </trkpt>
      <trkpt lat="45.06453" lon="2.63257">
        <ele>926.14294433594</ele>
        <time>2020-07-14T22:59:19.908Z</time>
      </trkpt>
      <trkpt lat="45.06454" lon="2.63238">
        <ele>927.82446289062</ele>
        <time>2020-07-14T22:59:28.434Z</time>
      </trkpt>
      <trkpt lat="45.06456" lon="2.63228">
        <ele>929.16827392578</ele>
        <time>2020-07-14T22:59:36.963Z</time>
      </trkpt>
      <trkpt lat="45.06457" lon="2.63221">
        <ele>929.96014404297</ele>
        <time>2020-07-14T22:59:45.493Z</time>
      </trkpt>
      <trkpt lat="45.06461" lon="2.63207">
        <ele>932.04644775391</ele>
        <time>2020-07-14T22:59:54.027Z</time>
      </trkpt>
      <trkpt lat="45.06468" lon="2.63187">
        <ele>934.75799560547</ele>
        <time>2020-07-14T23:00:02.566Z</time>
      </trkpt>
      <trkpt lat="45.06473" lon="2.63172">
        <ele>938.11193847656</ele>
        <time>2020-07-14T23:00:11.109Z</time>
      </trkpt>
      <trkpt lat="45.06475" lon="2.63161">
        <ele>939.40948486328</ele>
        <time>2020-07-14T23:00:19.655Z</time>
      </trkpt>
      <trkpt lat="45.06477" lon="2.63144">
        <ele>940.10534667969</ele>
        <time>2020-07-14T23:00:28.205Z</time>
      </trkpt>
      <trkpt lat="45.0648" lon="2.63125">
        <ele>941.14916992188</ele>
        <time>2020-07-14T23:00:36.759Z</time>
      </trkpt>
      <trkpt lat="45.06485" lon="2.63099">
        <ele>943.03363037109</ele>
        <time>2020-07-14T23:00:45.320Z</time>
      </trkpt>
      <trkpt lat="45.06486" lon="2.63091">
        <ele>943.48956298828</ele>
        <time>2020-07-14T23:00:53.883Z</time>
      </trkpt>
      <trkpt lat="45.06487" lon="2.6308">
        <ele>943.84906005859</ele>
        <time>2020-07-14T23:01:02.448Z</time>
      </trkpt>
      <trkpt lat="45.0649" lon="2.63063">
        <ele>944.72491455078</ele>
        <time>2020-07-14T23:01:11.017Z</time>
      </trkpt>
      <trkpt lat="45.06492" lon="2.6305">
        <ele>945.28881835938</ele>
        <time>2020-07-14T23:01:19.590Z</time>
      </trkpt>
      <trkpt lat="45.06492" lon="2.63042">
        <ele>945.19281005859</ele>
        <time>2020-07-14T23:01:28.164Z</time>
      </trkpt>
      <trkpt lat="45.06493" lon="2.63035">
        <ele>945.43432617188</ele>
        <time>2020-07-14T23:01:36.740Z</time>
      </trkpt>
      <trkpt lat="45.06497" lon="2.6303">
        <ele>946.38214111328</ele>
        <time>2020-07-14T23:01:45.318Z</time>
      </trkpt>
      <trkpt lat="45.06499" lon="2.63027">
        <ele>946.82604980469</ele>
        <time>2020-07-14T23:01:53.897Z</time>
      </trkpt>
      <trkpt lat="45.06503" lon="2.63019">
        <ele>947.59393310547</ele>
        <time>2020-07-14T23:02:02.478Z</time>
      </trkpt>
      <trkpt lat="45.06505" lon="2.63013">
        <ele>947.85791015625</ele>
        <time>2020-07-14T23:02:11.061Z</time>
      </trkpt>
      <trkpt lat="45.06507" lon="2.63003">
        <ele>947.88189697266</ele>
        <time>2020-07-14T23:02:19.646Z</time>
      </trkpt>
      <trkpt lat="45.06506" lon="2.62999">
        <ele>947.74853515625</ele>
        <time>2020-07-14T23:02:28.232Z</time>
      </trkpt>
      <trkpt lat="45.06507" lon="2.62981">
        <ele>949.35626220703</ele>
        <time>2020-07-14T23:02:36.822Z</time>
      </trkpt>
      <trkpt lat="45.06506" lon="2.62972">
        <ele>949.69226074219</ele>
        <time>2020-07-14T23:02:45.415Z</time>
      </trkpt>
      <trkpt lat="45.06506" lon="2.62969">
        <ele>949.908203125</ele>
        <time>2020-07-14T23:02:54.008Z</time>
      </trkpt>
      <trkpt lat="45.06507" lon="2.62967">
        <ele>950.36413574219</ele>
        <time>2020-07-14T23:03:02.602Z</time>
      </trkpt>
      <trkpt lat="45.06511" lon="2.62963">
        <ele>951.19232177734</ele>
        <time>2020-07-14T23:03:11.198Z</time>
      </trkpt>
      <trkpt lat="45.0652" lon="2.62959">
        <ele>953.0400390625</ele>
        <time>2020-07-14T23:03:19.797Z</time>
      </trkpt>
      <trkpt lat="45.06529" lon="2.62954">
        <ele>954.86370849609</ele>
        <time>2020-07-14T23:03:28.399Z</time>
      </trkpt>
      <trkpt lat="45.06541" lon="2.6295">
        <ele>957.35931396484</ele>
        <time>2020-07-14T23:03:37.005Z</time>
      </trkpt>
      <trkpt lat="45.06552" lon="2.62945">
        <ele>961.04986572266</ele>
        <time>2020-07-14T23:03:45.615Z</time>
      </trkpt>
      <trkpt lat="45.06555" lon="2.62941">
        <ele>962.06970214844</ele>
        <time>2020-07-14T23:03:54.226Z</time>
      </trkpt>
      <trkpt lat="45.06556" lon="2.62934">
        <ele>962.27368164062</ele>
        <time>2020-07-14T23:04:02.839Z</time>
      </trkpt>
      <trkpt lat="45.06556" lon="2.6293">
        <ele>962.05627441406</ele>
        <time>2020-07-14T23:04:11.453Z</time>
      </trkpt>
      <trkpt lat="45.06554" lon="2.62925">
        <ele>961.01245117188</ele>
        <time>2020-07-14T23:04:20.068Z</time>
      </trkpt>
      <trkpt lat="45.0655" lon="2.62918">
        <ele>959.3349609375</ele>
        <time>2020-07-14T23:04:28.685Z</time>
      </trkpt>
      <trkpt lat="45.06547" lon="2.62912">
        <ele>959.04699707031</ele>
        <time>2020-07-14T23:04:37.304Z</time>
      </trkpt>
      <trkpt lat="45.06546" lon="2.62906">
        <ele>959.38293457031</ele>
        <time>2020-07-14T23:04:45.925Z</time>
      </trkpt>
      <trkpt lat="45.06547" lon="2.62891">
        <ele>961.31463623047</ele>
        <time>2020-07-14T23:04:54.549Z</time>
      </trkpt>
      <trkpt lat="45.06547" lon="2.62881">
        <ele>962.39447021484</ele>
        <time>2020-07-14T23:05:03.175Z</time>
      </trkpt>
      <trkpt lat="45.06547" lon="2.62871">
        <ele>963.47430419922</ele>
        <time>2020-07-14T23:05:11.804Z</time>
      </trkpt>
      <trkpt lat="45.06546" lon="2.62863">
        <ele>964.02618408203</ele>
        <time>2020-07-14T23:05:20.435Z</time>
      </trkpt>
      <trkpt lat="45.06544" lon="2.62857">
        <ele>964.05017089844</ele>
        <time>2020-07-14T23:05:29.067Z</time>
      </trkpt>
      <trkpt lat="45.06541" lon="2.6285">
        <ele>964.19421386719</ele>
        <time>2020-07-14T23:05:37.701Z</time>
      </trkpt>
      <trkpt lat="45.06534" lon="2.6284">
        <ele>964.35015869141</ele>
        <time>2020-07-14T23:05:46.339Z</time>
      </trkpt>
      <trkpt lat="45.06527" lon="2.62832">
        <ele>964.58221435547</ele>
        <time>2020-07-14T23:05:54.980Z</time>
      </trkpt>
      <trkpt lat="45.06522" lon="2.62817">
        <ele>966.80181884766</ele>
        <time>2020-07-14T23:06:03.625Z</time>
      </trkpt>
      <trkpt lat="45.06516" lon="2.62801">
        <ele>968.80511474609</ele>
        <time>2020-07-14T23:06:12.274Z</time>
      </trkpt>
      <trkpt lat="45.06513" lon="2.62786">
        <ele>970.85681152344</ele>
        <time>2020-07-14T23:06:20.926Z</time>
      </trkpt>
      <trkpt lat="45.06508" lon="2.62769">
        <ele>973.02844238281</ele>
        <time>2020-07-14T23:06:29.583Z</time>
      </trkpt>
      <trkpt lat="45.06505" lon="2.62764">
        <ele>973.52032470703</ele>
        <time>2020-07-14T23:06:38.241Z</time>
      </trkpt>
      <trkpt lat="45.06501" lon="2.62761">
        <ele>973.60430908203</ele>
        <time>2020-07-14T23:06:46.901Z</time>
      </trkpt>
      <trkpt lat="45.06492" lon="2.62756">
        <ele>973.52032470703</ele>
        <time>2020-07-14T23:06:55.564Z</time>
      </trkpt>
      <trkpt lat="45.06482" lon="2.62751">
        <ele>973.25903320312</ele>
        <time>2020-07-14T23:07:04.231Z</time>
      </trkpt>
      <trkpt lat="45.06478" lon="2.62747">
        <ele>973.21105957031</ele>
        <time>2020-07-14T23:07:12.899Z</time>
      </trkpt>
      <trkpt lat="45.06474" lon="2.62741">
        <ele>973.3310546875</ele>
        <time>2020-07-14T23:07:21.569Z</time>
      </trkpt>
      <trkpt lat="45.0647" lon="2.62723">
        <ele>974.45886230469</ele>
        <time>2020-07-14T23:07:30.244Z</time>
      </trkpt>
      <trkpt lat="45.06466" lon="2.62712">
        <ele>974.99877929688</ele>
        <time>2020-07-14T23:07:38.922Z</time>
      </trkpt>
      <trkpt lat="45.06462" lon="2.62695">
        <ele>976.04260253906</ele>
        <time>2020-07-14T23:07:47.604Z</time>
      </trkpt>
      <trkpt lat="45.06461" lon="2.62682">
        <ele>977.03839111328</ele>
        <time>2020-07-14T23:07:56.289Z</time>
      </trkpt>
      <trkpt lat="45.06461" lon="2.62665">
        <ele>977.96075439453</ele>
        <time>2020-07-14T23:08:04.978Z</time>
      </trkpt>
      <trkpt lat="45.06463" lon="2.62653">
        <ele>977.31286621094</ele>
        <time>2020-07-14T23:08:13.670Z</time>
      </trkpt>
      <trkpt lat="45.06468" lon="2.62638">
        <ele>976.95288085938</ele>
        <time>2020-07-14T23:08:22.366Z</time>
      </trkpt>
      <trkpt lat="45.06474" lon="2.62626">
        <ele>977.02490234375</ele>
        <time>2020-07-14T23:08:31.065Z</time>
      </trkpt>
      <trkpt lat="45.06482" lon="2.62613">
        <ele>977.37280273438</ele>
        <time>2020-07-14T23:08:39.768Z</time>
      </trkpt>
      <trkpt lat="45.06489" lon="2.62606">
        <ele>978.69134521484</ele>
        <time>2020-07-14T23:08:48.474Z</time>
      </trkpt>
      <trkpt lat="45.065" lon="2.62593">
        <ele>981.30688476562</ele>
        <time>2020-07-14T23:08:57.185Z</time>
      </trkpt>
      <trkpt lat="45.06511" lon="2.62585">
        <ele>983.94586181641</ele>
        <time>2020-07-14T23:09:05.900Z</time>
      </trkpt>
      <trkpt lat="45.06526" lon="2.62581">
        <ele>987.34130859375</ele>
        <time>2020-07-14T23:09:14.620Z</time>
      </trkpt>
      <trkpt lat="45.06543" lon="2.6257">
        <ele>990.03955078125</ele>
        <time>2020-07-14T23:09:23.346Z</time>
      </trkpt>
      <trkpt lat="45.06557" lon="2.62558">
        <ele>993.83093261719</ele>
        <time>2020-07-14T23:09:32.078Z</time>
      </trkpt>
      <trkpt lat="45.06565" lon="2.62547">
        <ele>995.45068359375</ele>
        <time>2020-07-14T23:09:40.814Z</time>
      </trkpt>
      <trkpt lat="45.06577" lon="2.62526">
        <ele>997.78009033203</ele>
        <time>2020-07-14T23:09:49.556Z</time>
      </trkpt>
      <trkpt lat="45.06591" lon="2.62503">
        <ele>1001.8954467773</ele>
        <time>2020-07-14T23:09:58.305Z</time>
      </trkpt>
      <trkpt lat="45.06602" lon="2.62479">
        <ele>1008.5091552734</ele>
        <time>2020-07-14T23:10:07.061Z</time>
      </trkpt>
      <trkpt lat="45.06598" lon="2.62475">
        <ele>1007.1173706055</ele>
        <time>2020-07-14T23:10:15.819Z</time>
      </trkpt>
      <trkpt lat="45.06602" lon="2.62479">
        <ele>1008.5091552734</ele>
        <time>2020-07-14T23:10:24.578Z</time>
      </trkpt>
      <trkpt lat="45.06605" lon="2.62474">
        <ele>1009.7252197266</ele>
        <time>2020-07-14T23:10:33.339Z</time>
      </trkpt>
      <trkpt lat="45.06609" lon="2.62458">
        <ele>1011.3569335938</ele>
        <time>2020-07-14T23:10:42.104Z</time>
      </trkpt>
      <trkpt lat="45.0661" lon="2.62454">
        <ele>1011.764831543</ele>
        <time>2020-07-14T23:10:50.870Z</time>
      </trkpt>
      <trkpt lat="45.06611" lon="2.62443">
        <ele>1012.2567749023</ele>
        <time>2020-07-14T23:10:59.638Z</time>
      </trkpt>
      <trkpt lat="45.06609" lon="2.6243">
        <ele>1011.6928710938</ele>
        <time>2020-07-14T23:11:08.409Z</time>
      </trkpt>
      <trkpt lat="45.06605" lon="2.62424">
        <ele>1010.3250732422</ele>
        <time>2020-07-14T23:11:17.182Z</time>
      </trkpt>
      <trkpt lat="45.06602" lon="2.62421">
        <ele>1009.28125</ele>
        <time>2020-07-14T23:11:25.957Z</time>
      </trkpt>
      <trkpt lat="45.06598" lon="2.62419">
        <ele>1007.8654785156</ele>
        <time>2020-07-14T23:11:34.733Z</time>
      </trkpt>
      <trkpt lat="45.06593" lon="2.62419">
        <ele>1006.0657958984</ele>
        <time>2020-07-14T23:11:43.511Z</time>
      </trkpt>
      <trkpt lat="45.06585" lon="2.62416">
        <ele>1003.7813110352</ele>
        <time>2020-07-14T23:11:52.291Z</time>
      </trkpt>
      <trkpt lat="45.06579" lon="2.62412">
        <ele>1002.485534668</ele>
        <time>2020-07-14T23:12:01.074Z</time>
      </trkpt>
      <trkpt lat="45.06569" lon="2.62406">
        <ele>1000.1819458008</ele>
        <time>2020-07-14T23:12:09.860Z</time>
      </trkpt>
      <trkpt lat="45.06562" lon="2.624">
        <ele>998.95812988281</ele>
        <time>2020-07-14T23:12:18.649Z</time>
      </trkpt>
      <trkpt lat="45.06546" lon="2.62389">
        <ele>995.57470703125</ele>
        <time>2020-07-14T23:12:27.444Z</time>
      </trkpt>
      <trkpt lat="45.06531" lon="2.62379">
        <ele>993.60943603516</ele>
        <time>2020-07-14T23:12:36.245Z</time>
      </trkpt>
      <trkpt lat="45.06511" lon="2.62369">
        <ele>990.72991943359</ele>
        <time>2020-07-14T23:12:45.053Z</time>
      </trkpt>
      <trkpt lat="45.06497" lon="2.62366">
        <ele>987.85040283203</ele>
        <time>2020-07-14T23:12:53.865Z</time>
      </trkpt>
      <trkpt lat="45.06489" lon="2.62362">
        <ele>986.69860839844</ele>
        <time>2020-07-14T23:13:02.680Z</time>
      </trkpt>
      <trkpt lat="45.06482" lon="2.62353">
        <ele>986.87860107422</ele>
        <time>2020-07-14T23:13:11.498Z</time>
      </trkpt>
      <trkpt lat="45.06476" lon="2.62344">
        <ele>987.31048583984</ele>
        <time>2020-07-14T23:13:20.319Z</time>
      </trkpt>
      <trkpt lat="45.06471" lon="2.62334">
        <ele>987.95953369141</ele>
        <time>2020-07-14T23:13:29.143Z</time>
      </trkpt>
      <trkpt lat="45.06468" lon="2.62322">
        <ele>987.63555908203</ele>
        <time>2020-07-14T23:13:37.970Z</time>
      </trkpt>
      <trkpt lat="45.06466" lon="2.62298">
        <ele>987.99554443359</ele>
        <time>2020-07-14T23:13:46.803Z</time>
      </trkpt>
      <trkpt lat="45.06465" lon="2.62268">
        <ele>988.82336425781</ele>
        <time>2020-07-14T23:13:55.643Z</time>
      </trkpt>
      <trkpt lat="45.06462" lon="2.62257">
        <ele>988.46343994141</ele>
        <time>2020-07-14T23:14:04.486Z</time>
      </trkpt>
      <trkpt lat="45.06462" lon="2.62256">
        <ele>988.49945068359</ele>
        <time>2020-07-14T23:14:13.329Z</time>
      </trkpt>
      <trkpt lat="45.06458" lon="2.62249">
        <ele>988.18725585938</ele>
        <time>2020-07-14T23:14:22.174Z</time>
      </trkpt>
      <trkpt lat="45.06446" lon="2.62235">
        <ele>987.32336425781</ele>
        <time>2020-07-14T23:14:31.024Z</time>
      </trkpt>
      <trkpt lat="45.06434" lon="2.62222">
        <ele>986.24359130859</ele>
        <time>2020-07-14T23:14:39.879Z</time>
      </trkpt>
      <trkpt lat="45.06417" lon="2.62209">
        <ele>983.54400634766</ele>
        <time>2020-07-14T23:14:48.741Z</time>
      </trkpt>
      <trkpt lat="45.06409" lon="2.62201">
        <ele>982.68017578125</ele>
        <time>2020-07-14T23:14:57.606Z</time>
      </trkpt>
      <trkpt lat="45.06406" lon="2.62191">
        <ele>983.86798095703</ele>
        <time>2020-07-14T23:15:06.474Z</time>
      </trkpt>
      <trkpt lat="45.06404" lon="2.62184">
        <ele>984.73181152344</ele>
        <time>2020-07-14T23:15:15.343Z</time>
      </trkpt>
      <trkpt lat="45.06401" lon="2.62173">
        <ele>986.13555908203</ele>
        <time>2020-07-14T23:15:24.215Z</time>
      </trkpt>
      <trkpt lat="45.06401" lon="2.62162">
        <ele>987.62701416016</ele>
        <time>2020-07-14T23:15:33.090Z</time>
      </trkpt>
      <trkpt lat="45.06401" lon="2.6215">
        <ele>988.63488769531</ele>
        <time>2020-07-14T23:15:41.968Z</time>
      </trkpt>
      <trkpt lat="45.06401" lon="2.62127">
        <ele>990.56652832031</ele>
        <time>2020-07-14T23:15:50.851Z</time>
      </trkpt>
      <trkpt lat="45.06399" lon="2.62099">
        <ele>993.04681396484</ele>
        <time>2020-07-14T23:15:59.741Z</time>
      </trkpt>
      <trkpt lat="45.064" lon="2.62089">
        <ele>995.13446044922</ele>
        <time>2020-07-14T23:16:08.633Z</time>
      </trkpt>
      <trkpt lat="45.06403" lon="2.62075">
        <ele>997.59204101562</ele>
        <time>2020-07-14T23:16:17.529Z</time>
      </trkpt>
      <trkpt lat="45.06409" lon="2.62059">
        <ele>1000.9994506836</ele>
        <time>2020-07-14T23:16:26.429Z</time>
      </trkpt>
      <trkpt lat="45.06419" lon="2.62035">
        <ele>1006.6373291016</ele>
        <time>2020-07-14T23:16:35.335Z</time>
      </trkpt>
      <trkpt lat="45.06421" lon="2.62026">
        <ele>1008.1250610352</ele>
        <time>2020-07-14T23:16:44.244Z</time>
      </trkpt>
      <trkpt lat="45.0642" lon="2.62019">
        <ele>1008.2090454102</ele>
        <time>2020-07-14T23:16:53.154Z</time>
      </trkpt>
      <trkpt lat="45.06418" lon="2.62012">
        <ele>1007.8731079102</ele>
        <time>2020-07-14T23:17:02.066Z</time>
      </trkpt>
      <trkpt lat="45.06408" lon="2.62003">
        <ele>1004.3217163086</ele>
        <time>2020-07-14T23:17:10.982Z</time>
      </trkpt>
      <trkpt lat="45.0639" lon="2.61986">
        <ele>997.60272216797</ele>
        <time>2020-07-14T23:17:19.905Z</time>
      </trkpt>
      <trkpt lat="45.06383" lon="2.61973">
        <ele>995.287109375</ele>
        <time>2020-07-14T23:17:28.832Z</time>
      </trkpt>
      <trkpt lat="45.06379" lon="2.61962">
        <ele>994.13531494141</ele>
        <time>2020-07-14T23:17:37.762Z</time>
      </trkpt>
      <trkpt lat="45.06378" lon="2.61953">
        <ele>994.14727783203</ele>
        <time>2020-07-14T23:17:46.694Z</time>
      </trkpt>
      <trkpt lat="45.06379" lon="2.61941">
        <ele>995.14312744141</ele>
        <time>2020-07-14T23:17:55.629Z</time>
      </trkpt>
      <trkpt lat="45.06385" lon="2.61929">
        <ele>998.23858642578</ele>
        <time>2020-07-14T23:18:04.567Z</time>
      </trkpt>
      <trkpt lat="45.06393" lon="2.61914">
        <ele>1003.1287231445</ele>
        <time>2020-07-14T23:18:13.510Z</time>
      </trkpt>
      <trkpt lat="45.06402" lon="2.61893">
        <ele>1008.3478393555</ele>
        <time>2020-07-14T23:18:22.459Z</time>
      </trkpt>
      <trkpt lat="45.06404" lon="2.61886">
        <ele>1009.6196289062</ele>
        <time>2020-07-14T23:18:31.410Z</time>
      </trkpt>
      <trkpt lat="45.06405" lon="2.61877">
        <ele>1010.5194702148</ele>
        <time>2020-07-14T23:18:40.363Z</time>
      </trkpt>
      <trkpt lat="45.06404" lon="2.61868">
        <ele>1010.4834594727</ele>
        <time>2020-07-14T23:18:49.318Z</time>
      </trkpt>
      <trkpt lat="45.064" lon="2.61834">
        <ele>1010.0511474609</ele>
        <time>2020-07-14T23:18:58.281Z</time>
      </trkpt>
      <trkpt lat="45.06395" lon="2.61818">
        <ele>1009.6912231445</ele>
        <time>2020-07-14T23:19:07.248Z</time>
      </trkpt>
      <trkpt lat="45.06387" lon="2.61801">
        <ele>1008.0834960938</ele>
        <time>2020-07-14T23:19:16.220Z</time>
      </trkpt>
      <trkpt lat="45.0638" lon="2.61785">
        <ele>1006.811706543</ele>
        <time>2020-07-14T23:19:25.196Z</time>
      </trkpt>
      <trkpt lat="45.06376" lon="2.6177">
        <ele>1006.7978515625</ele>
        <time>2020-07-14T23:19:34.176Z</time>
      </trkpt>
      <trkpt lat="45.06371" lon="2.61754">
        <ele>1006.9178466797</ele>
        <time>2020-07-14T23:19:43.160Z</time>
      </trkpt>
      <trkpt lat="45.06367" lon="2.61732">
        <ele>1008.0125732422</ele>
        <time>2020-07-14T23:19:52.150Z</time>
      </trkpt>
      <trkpt lat="45.06367" lon="2.61713">
        <ele>1009.1524047852</ele>
        <time>2020-07-14T23:20:01.144Z</time>
      </trkpt>
      <trkpt lat="45.06368" lon="2.61705">
        <ele>1009.872253418</ele>
        <time>2020-07-14T23:20:10.140Z</time>
      </trkpt>
      <trkpt lat="45.06368" lon="2.61694">
        <ele>1010.5321655273</ele>
        <time>2020-07-14T23:20:19.139Z</time>
      </trkpt>
      <trkpt lat="45.06367" lon="2.61685">
        <ele>1010.8320922852</ele>
        <time>2020-07-14T23:20:28.140Z</time>
      </trkpt>
      <trkpt lat="45.06367" lon="2.61682">
        <ele>1011.0120849609</ele>
        <time>2020-07-14T23:20:37.142Z</time>
      </trkpt>
      <trkpt lat="45.06364" lon="2.61678">
        <ele>1010.5321655273</ele>
        <time>2020-07-14T23:20:46.145Z</time>
      </trkpt>
      <trkpt lat="45.06358" lon="2.61671">
        <ele>1009.5123291016</ele>
        <time>2020-07-14T23:20:55.150Z</time>
      </trkpt>
      <trkpt lat="45.06349" lon="2.61667">
        <ele>1007.7477416992</ele>
        <time>2020-07-14T23:21:04.159Z</time>
      </trkpt>
      <trkpt lat="45.0633" lon="2.61656">
        <ele>1004.9042358398</ele>
        <time>2020-07-14T23:21:13.174Z</time>
      </trkpt>
      <trkpt lat="45.06321" lon="2.61648">
        <ele>1003.9923706055</ele>
        <time>2020-07-14T23:21:22.193Z</time>
      </trkpt>
      <trkpt lat="45.06311" lon="2.6164">
        <ele>1002.8405761719</ele>
        <time>2020-07-14T23:21:31.216Z</time>
      </trkpt>
      <trkpt lat="45.06298" lon="2.61628">
        <ele>1001.5927734375</ele>
        <time>2020-07-14T23:21:40.244Z</time>
      </trkpt>
      <trkpt lat="45.0629" lon="2.61618">
        <ele>1001.729309082</ele>
        <time>2020-07-14T23:21:49.276Z</time>
      </trkpt>
      <trkpt lat="45.0628" lon="2.61605">
        <ele>1003.157043457</ele>
        <time>2020-07-14T23:21:58.312Z</time>
      </trkpt>
      <trkpt lat="45.06275" lon="2.61593">
        <ele>1004.7287597656</ele>
        <time>2020-07-14T23:22:07.351Z</time>
      </trkpt>
      <trkpt lat="45.06272" lon="2.61568">
        <ele>1004.71875</ele>
        <time>2020-07-14T23:22:16.396Z</time>
      </trkpt>
      <trkpt lat="45.0627" lon="2.61547">
        <ele>1003.7111816406</ele>
        <time>2020-07-14T23:22:25.446Z</time>
      </trkpt>
      <trkpt lat="45.06268" lon="2.61524">
        <ele>1002.7153320312</ele>
        <time>2020-07-14T23:22:34.502Z</time>
      </trkpt>
      <trkpt lat="45.06266" lon="2.61503">
        <ele>1001.7915039062</ele>
        <time>2020-07-14T23:22:43.563Z</time>
      </trkpt>
      <trkpt lat="45.06264" lon="2.61479">
        <ele>999.38458251953</ele>
        <time>2020-07-14T23:22:52.630Z</time>
      </trkpt>
      <trkpt lat="45.06264" lon="2.6147">
        <ele>998.90020751953</ele>
        <time>2020-07-14T23:23:01.699Z</time>
      </trkpt>
      <trkpt lat="45.06266" lon="2.61463">
        <ele>999.47613525391</ele>
        <time>2020-07-14T23:23:10.770Z</time>
      </trkpt>
      <trkpt lat="45.0627" lon="2.61457">
        <ele>1000.4359741211</ele>
        <time>2020-07-14T23:23:19.842Z</time>
      </trkpt>
      <trkpt lat="45.06274" lon="2.61447">
        <ele>1001.4918212891</ele>
        <time>2020-07-14T23:23:28.917Z</time>
      </trkpt>
      <trkpt lat="45.06279" lon="2.61436">
        <ele>1002.7755737305</ele>
        <time>2020-07-14T23:23:37.995Z</time>
      </trkpt>
      <trkpt lat="45.0628" lon="2.61429">
        <ele>1003.1475219727</ele>
        <time>2020-07-14T23:23:47.075Z</time>
      </trkpt>
      <trkpt lat="45.06279" lon="2.61413">
        <ele>1002.5249023438</ele>
        <time>2020-07-14T23:23:56.159Z</time>
      </trkpt>
      <trkpt lat="45.06278" lon="2.61403">
        <ele>1001.1602783203</ele>
        <time>2020-07-14T23:24:05.245Z</time>
      </trkpt>
      <trkpt lat="45.06275" lon="2.61384">
        <ele>999.03668212891</ele>
        <time>2020-07-14T23:24:14.336Z</time>
      </trkpt>
      <trkpt lat="45.06274" lon="2.61371">
        <ele>997.84887695312</ele>
        <time>2020-07-14T23:24:23.430Z</time>
      </trkpt>
      <trkpt lat="45.06276" lon="2.61357">
        <ele>997.34497070312</ele>
        <time>2020-07-14T23:24:32.527Z</time>
      </trkpt>
      <trkpt lat="45.06283" lon="2.61348">
        <ele>998.46075439453</ele>
        <time>2020-07-14T23:24:41.627Z</time>
      </trkpt>
      <trkpt lat="45.06288" lon="2.61337">
        <ele>998.92864990234</ele>
        <time>2020-07-14T23:24:50.730Z</time>
      </trkpt>
      <trkpt lat="45.06293" lon="2.6132">
        <ele>996.57513427734</ele>
        <time>2020-07-14T23:24:59.838Z</time>
      </trkpt>
      <trkpt lat="45.06298" lon="2.61303">
        <ele>993.65966796875</ele>
        <time>2020-07-14T23:25:08.950Z</time>
      </trkpt>
      <trkpt lat="45.06305" lon="2.61287">
        <ele>991.35601806641</ele>
        <time>2020-07-14T23:25:18.067Z</time>
      </trkpt>
      <trkpt lat="45.06313" lon="2.61279">
        <ele>991.06805419922</ele>
        <time>2020-07-14T23:25:27.187Z</time>
      </trkpt>
      <trkpt lat="45.06335" lon="2.61268">
        <ele>991.53015136719</ele>
        <time>2020-07-14T23:25:36.315Z</time>
      </trkpt>
      <trkpt lat="45.06349" lon="2.61263">
        <ele>992.16607666016</ele>
        <time>2020-07-14T23:25:45.447Z</time>
      </trkpt>
      <trkpt lat="45.06363" lon="2.61258">
        <ele>992.80194091797</ele>
        <time>2020-07-14T23:25:54.584Z</time>
      </trkpt>
      <trkpt lat="45.06383" lon="2.61251">
        <ele>994.07183837891</ele>
        <time>2020-07-14T23:26:03.728Z</time>
      </trkpt>
      <trkpt lat="45.06394" lon="2.61247">
        <ele>995.28363037109</ele>
        <time>2020-07-14T23:26:12.876Z</time>
      </trkpt>
      <trkpt lat="45.06407" lon="2.61244">
        <ele>997.04736328125</ele>
        <time>2020-07-14T23:26:22.028Z</time>
      </trkpt>
      <trkpt lat="45.06431" lon="2.61241">
        <ele>1000.7907104492</ele>
        <time>2020-07-14T23:26:31.188Z</time>
      </trkpt>
      <trkpt lat="45.06457" lon="2.61238">
        <ele>1005.4424438477</ele>
        <time>2020-07-14T23:26:40.357Z</time>
      </trkpt>
      <trkpt lat="45.06467" lon="2.61239">
        <ele>1008.4998779297</ele>
        <time>2020-07-14T23:26:49.529Z</time>
      </trkpt>
      <trkpt lat="45.06473" lon="2.61243">
        <ele>1010.9475097656</ele>
        <time>2020-07-14T23:26:58.704Z</time>
      </trkpt>
      <trkpt lat="45.06482" lon="2.61248">
        <ele>1014.4749145508</ele>
        <time>2020-07-14T23:27:07.882Z</time>
      </trkpt>
      <trkpt lat="45.06488" lon="2.61256">
        <ele>1017.2017822266</ele>
        <time>2020-07-14T23:27:17.063Z</time>
      </trkpt>
      <trkpt lat="45.06495" lon="2.61267">
        <ele>1020.1773071289</ele>
        <time>2020-07-14T23:27:26.247Z</time>
      </trkpt>
      <trkpt lat="45.06501" lon="2.61273">
        <ele>1022.4808959961</ele>
        <time>2020-07-14T23:27:35.434Z</time>
      </trkpt>
      <trkpt lat="45.06508" lon="2.61277">
        <ele>1024.9525146484</ele>
        <time>2020-07-14T23:27:44.623Z</time>
      </trkpt>
      <trkpt lat="45.06512" lon="2.61276">
        <ele>1026.1282958984</ele>
        <time>2020-07-14T23:27:53.813Z</time>
      </trkpt>
      <trkpt lat="45.06517" lon="2.61269">
        <ele>1027.1840820312</ele>
        <time>2020-07-14T23:28:03.006Z</time>
      </trkpt>
      <trkpt lat="45.06519" lon="2.61256">
        <ele>1026.8721923828</ele>
        <time>2020-07-14T23:28:12.202Z</time>
      </trkpt>
      <trkpt lat="45.0652" lon="2.61244">
        <ele>1025.7530517578</ele>
        <time>2020-07-14T23:28:21.401Z</time>
      </trkpt>
      <trkpt lat="45.0652" lon="2.61233">
        <ele>1024.1693115234</ele>
        <time>2020-07-14T23:28:30.602Z</time>
      </trkpt>
      <trkpt lat="45.0652" lon="2.6123">
        <ele>1023.7373657227</ele>
        <time>2020-07-14T23:28:39.804Z</time>
      </trkpt>
      <trkpt lat="45.06523" lon="2.61227">
        <ele>1024.1193847656</ele>
        <time>2020-07-14T23:28:49.007Z</time>
      </trkpt>
      <trkpt lat="45.06525" lon="2.61226">
        <ele>1024.52734375</ele>
        <time>2020-07-14T23:28:58.211Z</time>
      </trkpt>
      <trkpt lat="45.06531" lon="2.61223">
        <ele>1025.7510986328</ele>
        <time>2020-07-14T23:29:07.417Z</time>
      </trkpt>
      <trkpt lat="45.06539" lon="2.61215">
        <ele>1026.7109375</ele>
        <time>2020-07-14T23:29:16.626Z</time>
      </trkpt>
      <trkpt lat="45.06544" lon="2.61208">
        <ele>1026.9892578125</ele>
        <time>2020-07-14T23:29:25.838Z</time>
      </trkpt>
      <trkpt lat="45.06549" lon="2.61194">
        <ele>1026.1374511719</ele>
        <time>2020-07-14T23:29:35.053Z</time>
      </trkpt>
      <trkpt lat="45.06556" lon="2.6118">
        <ele>1025.6983642578</ele>
        <time>2020-07-14T23:29:44.272Z</time>
      </trkpt>
      <trkpt lat="45.06567" lon="2.61166">
        <ele>1023.9467163086</ele>
        <time>2020-07-14T23:29:53.496Z</time>
      </trkpt>
      <trkpt lat="45.06574" lon="2.6116">
        <ele>1023.634765625</ele>
        <time>2020-07-14T23:30:02.723Z</time>
      </trkpt>
      <trkpt lat="45.06583" lon="2.61157">
        <ele>1024.5345458984</ele>
        <time>2020-07-14T23:30:11.953Z</time>
      </trkpt>
      <trkpt lat="45.06598" lon="2.61157">
        <ele>1027.4140625</ele>
        <time>2020-07-14T23:30:21.188Z</time>
      </trkpt>
      <trkpt lat="45.06611" lon="2.61159">
        <ele>1030.4616699219</ele>
        <time>2020-07-14T23:30:30.428Z</time>
      </trkpt>
      <trkpt lat="45.06612" lon="2.61159">
        <ele>1030.6535644531</ele>
        <time>2020-07-14T23:30:39.668Z</time>
      </trkpt>
      <trkpt lat="45.06623" lon="2.61156">
        <ele>1031.8247070312</ele>
        <time>2020-07-14T23:30:48.912Z</time>
      </trkpt>
      <trkpt lat="45.06629" lon="2.61154">
        <ele>1031.6099853516</ele>
        <time>2020-07-14T23:30:58.158Z</time>
      </trkpt>
      <trkpt lat="45.06642" lon="2.61145">
        <ele>1028.0825195312</ele>
        <time>2020-07-14T23:31:07.409Z</time>
      </trkpt>
      <trkpt lat="45.06652" lon="2.61141">
        <ele>1026.2108154297</ele>
        <time>2020-07-14T23:31:16.663Z</time>
      </trkpt>
      <trkpt lat="45.06662" lon="2.61139">
        <ele>1024.9150390625</ele>
        <time>2020-07-14T23:31:25.920Z</time>
      </trkpt>
      <trkpt lat="45.0667" lon="2.61145">
        <ele>1026.0668945312</ele>
        <time>2020-07-14T23:31:35.180Z</time>
      </trkpt>
      <trkpt lat="45.06677" lon="2.61156">
        <ele>1028.73046875</ele>
        <time>2020-07-14T23:31:44.444Z</time>
      </trkpt>
      <trkpt lat="45.06689" lon="2.6117">
        <ele>1031.8626708984</ele>
        <time>2020-07-14T23:31:53.713Z</time>
      </trkpt>
      <trkpt lat="45.067" lon="2.61185">
        <ele>1035.0301513672</ele>
        <time>2020-07-14T23:32:02.987Z</time>
      </trkpt>
      <trkpt lat="45.06714" lon="2.61208">
        <ele>1040.1473388672</ele>
        <time>2020-07-14T23:32:12.268Z</time>
      </trkpt>
      <trkpt lat="45.06726" lon="2.61232">
        <ele>1045.7624511719</ele>
        <time>2020-07-14T23:32:21.556Z</time>
      </trkpt>
      <trkpt lat="45.06735" lon="2.61248">
        <ele>1049.4458007812</ele>
        <time>2020-07-14T23:32:30.849Z</time>
      </trkpt>
      <trkpt lat="45.06747" lon="2.61255">
        <ele>1050.1243896484</ele>
        <time>2020-07-14T23:32:40.146Z</time>
      </trkpt>
      <trkpt lat="45.06762" lon="2.6126">
        <ele>1049.8244628906</ele>
        <time>2020-07-14T23:32:49.449Z</time>
      </trkpt>
      <trkpt lat="45.06773" lon="2.6126">
        <ele>1049.1645507812</ele>
        <time>2020-07-14T23:32:58.755Z</time>
      </trkpt>
      <trkpt lat="45.06782" lon="2.61271">
        <ele>1049.9444580078</ele>
        <time>2020-07-14T23:33:08.065Z</time>
      </trkpt>
      <trkpt lat="45.06796" lon="2.61286">
        <ele>1051.9273681641</ele>
        <time>2020-07-14T23:33:17.381Z</time>
      </trkpt>
      <trkpt lat="45.06811" lon="2.61297">
        <ele>1057.2064208984</ele>
        <time>2020-07-14T23:33:26.703Z</time>
      </trkpt>
      <trkpt lat="45.06818" lon="2.61301">
        <ele>1059.5340576172</ele>
        <time>2020-07-14T23:33:36.027Z</time>
      </trkpt>
      <trkpt lat="45.06825" lon="2.61304">
        <ele>1061.7416992188</ele>
        <time>2020-07-14T23:33:45.354Z</time>
      </trkpt>
      <trkpt lat="45.06832" lon="2.61302">
        <ele>1063.3494873047</ele>
        <time>2020-07-14T23:33:54.683Z</time>
      </trkpt>
      <trkpt lat="45.06838" lon="2.61299">
        <ele>1064.5732421875</ele>
        <time>2020-07-14T23:34:04.014Z</time>
      </trkpt>
      <trkpt lat="45.06849" lon="2.61279">
        <ele>1067.5159912109</ele>
        <time>2020-07-14T23:34:13.351Z</time>
      </trkpt>
      <trkpt lat="45.06859" lon="2.61259">
        <ele>1070.2755126953</ele>
        <time>2020-07-14T23:34:22.694Z</time>
      </trkpt>
      <trkpt lat="45.06863" lon="2.61236">
        <ele>1071.4141845703</ele>
        <time>2020-07-14T23:34:32.043Z</time>
      </trkpt>
      <trkpt lat="45.06864" lon="2.61228">
        <ele>1072.3139648438</ele>
        <time>2020-07-14T23:34:41.393Z</time>
      </trkpt>
      <trkpt lat="45.06861" lon="2.61206">
        <ele>1072.3740234375</ele>
        <time>2020-07-14T23:34:50.749Z</time>
      </trkpt>
      <trkpt lat="45.0686" lon="2.61188">
        <ele>1073.0338134766</ele>
        <time>2020-07-14T23:35:00.109Z</time>
      </trkpt>
      <trkpt lat="45.06859" lon="2.61171">
        <ele>1073.6337890625</ele>
        <time>2020-07-14T23:35:09.473Z</time>
      </trkpt>
      <trkpt lat="45.06858" lon="2.61153">
        <ele>1073.5482177734</ele>
        <time>2020-07-14T23:35:18.841Z</time>
      </trkpt>
      <trkpt lat="45.06857" lon="2.61136">
        <ele>1072.0515136719</ele>
        <time>2020-07-14T23:35:28.213Z</time>
      </trkpt>
      <trkpt lat="45.06856" lon="2.61121">
        <ele>1070.4677734375</ele>
        <time>2020-07-14T23:35:37.589Z</time>
      </trkpt>
      <trkpt lat="45.06858" lon="2.6111">
        <ele>1070.1917724609</ele>
        <time>2020-07-14T23:35:46.968Z</time>
      </trkpt>
      <trkpt lat="45.06861" lon="2.61103">
        <ele>1070.5756835938</ele>
        <time>2020-07-14T23:35:56.349Z</time>
      </trkpt>
      <trkpt lat="45.06862" lon="2.61102">
        <ele>1070.8156738281</ele>
        <time>2020-07-14T23:36:05.730Z</time>
      </trkpt>
      <trkpt lat="45.06868" lon="2.61096">
        <ele>1072.2554931641</ele>
        <time>2020-07-14T23:36:15.113Z</time>
      </trkpt>
      <trkpt lat="45.06876" lon="2.61093">
        <ele>1074.5950927734</ele>
        <time>2020-07-14T23:36:24.499Z</time>
      </trkpt>
      <trkpt lat="45.06884" lon="2.61089">
        <ele>1076.0465087891</ele>
        <time>2020-07-14T23:36:33.888Z</time>
      </trkpt>
      <trkpt lat="45.06896" lon="2.61081">
        <ele>1077.1636962891</ele>
        <time>2020-07-14T23:36:43.281Z</time>
      </trkpt>
      <trkpt lat="45.06906" lon="2.61074">
        <ele>1078.2915039062</ele>
        <time>2020-07-14T23:36:52.678Z</time>
      </trkpt>
      <trkpt lat="45.0692" lon="2.61071">
        <ele>1080.5230712891</ele>
        <time>2020-07-14T23:37:02.080Z</time>
      </trkpt>
      <trkpt lat="45.06936" lon="2.61072">
        <ele>1083.4985351562</ele>
        <time>2020-07-14T23:37:11.487Z</time>
      </trkpt>
      <trkpt lat="45.06956" lon="2.61076">
        <ele>1088.6341552734</ele>
        <time>2020-07-14T23:37:20.901Z</time>
      </trkpt>
      <trkpt lat="45.06965" lon="2.61078">
        <ele>1091.611328125</ele>
        <time>2020-07-14T23:37:30.318Z</time>
      </trkpt>
      <trkpt lat="45.06971" lon="2.61078">
        <ele>1093.6270751953</ele>
        <time>2020-07-14T23:37:39.737Z</time>
      </trkpt>
      <trkpt lat="45.06976" lon="2.61074">
        <ele>1095.7386474609</ele>
        <time>2020-07-14T23:37:49.158Z</time>
      </trkpt>
      <trkpt lat="45.06978" lon="2.61066">
        <ele>1097.2744140625</ele>
        <time>2020-07-14T23:37:58.581Z</time>
      </trkpt>
      <trkpt lat="45.06979" lon="2.61065">
        <ele>1097.7183837891</ele>
        <time>2020-07-14T23:38:08.004Z</time>
      </trkpt>
      <trkpt lat="45.06979" lon="2.61057">
        <ele>1098.5822753906</ele>
        <time>2020-07-14T23:38:17.429Z</time>
      </trkpt>
      <trkpt lat="45.06975" lon="2.61042">
        <ele>1098.8581542969</ele>
        <time>2020-07-14T23:38:26.858Z</time>
      </trkpt>
      <trkpt lat="45.06971" lon="2.61031">
        <ele>1098.7021484375</ele>
        <time>2020-07-14T23:38:36.290Z</time>
      </trkpt>
      <trkpt lat="45.06966" lon="2.6102">
        <ele>1098.2103271484</ele>
        <time>2020-07-14T23:38:45.725Z</time>
      </trkpt>
      <trkpt lat="45.06963" lon="2.61013">
        <ele>1097.9583740234</ele>
        <time>2020-07-14T23:38:55.162Z</time>
      </trkpt>
      <trkpt lat="45.06956" lon="2.61002">
        <ele>1096.6247558594</ele>
        <time>2020-07-14T23:39:04.602Z</time>
      </trkpt>
      <trkpt lat="45.06949" lon="2.60994">
        <ele>1094.5190429688</ele>
        <time>2020-07-14T23:39:14.045Z</time>
      </trkpt>
      <trkpt lat="45.06939" lon="2.60979">
        <ele>1092.1185302734</ele>
        <time>2020-07-14T23:39:23.493Z</time>
      </trkpt>
      <trkpt lat="45.06934" lon="2.60966">
        <ele>1092.3824462891</ele>
        <time>2020-07-14T23:39:32.945Z</time>
      </trkpt>
      <trkpt lat="45.06933" lon="2.60951">
        <ele>1095.2619628906</ele>
        <time>2020-07-14T23:39:42.400Z</time>
      </trkpt>
      <trkpt lat="45.06935" lon="2.60941">
        <ele>1098.6213378906</ele>
        <time>2020-07-14T23:39:51.858Z</time>
      </trkpt>
      <trkpt lat="45.06943" lon="2.60928">
        <ele>1105.9041748047</ele>
        <time>2020-07-14T23:40:01.320Z</time>
      </trkpt>
      <trkpt lat="45.0695" lon="2.60915">
        <ele>1112.3538818359</ele>
        <time>2020-07-14T23:40:10.786Z</time>
      </trkpt>
      <trkpt lat="45.06953" lon="2.60904">
        <ele>1115.1755371094</ele>
        <time>2020-07-14T23:40:20.254Z</time>
      </trkpt>
      <trkpt lat="45.06951" lon="2.60891">
        <ele>1115.4395751953</ele>
        <time>2020-07-14T23:40:29.726Z</time>
      </trkpt>
      <trkpt lat="45.06945" lon="2.60881">
        <ele>1113.4478759766</ele>
        <time>2020-07-14T23:40:39.201Z</time>
      </trkpt>
      <trkpt lat="45.06939" lon="2.60876">
        <ele>1110.9763183594</ele>
        <time>2020-07-14T23:40:48.678Z</time>
      </trkpt>
      <trkpt lat="45.06936" lon="2.60869">
        <ele>1110.1723632812</ele>
        <time>2020-07-14T23:40:58.157Z</time>
      </trkpt>
      <trkpt lat="45.06936" lon="2.60858">
        <ele>1111.2282714844</ele>
        <time>2020-07-14T23:41:07.639Z</time>
      </trkpt>
      <trkpt lat="45.06944" lon="2.60828">
        <ele>1119.3287353516</ele>
        <time>2020-07-14T23:41:17.128Z</time>
      </trkpt>
      <trkpt lat="45.06949" lon="2.60798">
        <ele>1124.9592285156</ele>
        <time>2020-07-14T23:41:26.624Z</time>
      </trkpt>
      <trkpt lat="45.06944" lon="2.60781">
        <ele>1124.8872070312</ele>
        <time>2020-07-14T23:41:36.125Z</time>
      </trkpt>
      <trkpt lat="45.06934" lon="2.60772">
        <ele>1122.6435546875</ele>
        <time>2020-07-14T23:41:45.630Z</time>
      </trkpt>
      <trkpt lat="45.06925" lon="2.60775">
        <ele>1119.6920166016</ele>
        <time>2020-07-14T23:41:55.138Z</time>
      </trkpt>
      <trkpt lat="45.0691" lon="2.60783">
        <ele>1114.5208740234</ele>
        <time>2020-07-14T23:42:04.651Z</time>
      </trkpt>
      <trkpt lat="45.06894" lon="2.60791">
        <ele>1104.9431152344</ele>
        <time>2020-07-14T23:42:14.170Z</time>
      </trkpt>
      <trkpt lat="45.06887" lon="2.60788">
        <ele>1102.3276367188</ele>
        <time>2020-07-14T23:42:23.691Z</time>
      </trkpt>
      <trkpt lat="45.06878" lon="2.6078">
        <ele>1100.1079101562</ele>
        <time>2020-07-14T23:42:33.216Z</time>
      </trkpt>
      <trkpt lat="45.0687" lon="2.60766">
        <ele>1101.2983398438</ele>
        <time>2020-07-14T23:42:42.745Z</time>
      </trkpt>
      <trkpt lat="45.06871" lon="2.60746">
        <ele>1107.3325195312</ele>
        <time>2020-07-14T23:42:52.279Z</time>
      </trkpt>
      <trkpt lat="45.06873" lon="2.60731">
        <ele>1111.33984375</ele>
        <time>2020-07-14T23:43:01.816Z</time>
      </trkpt>
      <trkpt lat="45.06874" lon="2.60704">
        <ele>1118.0227050781</ele>
        <time>2020-07-14T23:43:11.360Z</time>
      </trkpt>
      <trkpt lat="45.06859" lon="2.60693">
        <ele>1117.6027832031</ele>
        <time>2020-07-14T23:43:20.909Z</time>
      </trkpt>
      <trkpt lat="45.06846" lon="2.60688">
        <ele>1116.1510009766</ele>
        <time>2020-07-14T23:43:30.463Z</time>
      </trkpt>
      <trkpt lat="45.06833" lon="2.60688">
        <ele>1113.4995117188</ele>
        <time>2020-07-14T23:43:40.021Z</time>
      </trkpt>
      <trkpt lat="45.06819" lon="2.60693">
        <ele>1109.4442138672</ele>
        <time>2020-07-14T23:43:49.584Z</time>
      </trkpt>
      <trkpt lat="45.0681" lon="2.60696">
        <ele>1106.0157470703</ele>
        <time>2020-07-14T23:43:59.150Z</time>
      </trkpt>
      <trkpt lat="45.068" lon="2.60704">
        <ele>1100.5446777344</ele>
        <time>2020-07-14T23:44:08.720Z</time>
      </trkpt>
      <trkpt lat="45.06787" lon="2.60711">
        <ele>1095.7952880859</ele>
        <time>2020-07-14T23:44:18.295Z</time>
      </trkpt>
      <trkpt lat="45.06774" lon="2.60721">
        <ele>1091.6199951172</ele>
        <time>2020-07-14T23:44:27.875Z</time>
      </trkpt>
      <trkpt lat="45.06758" lon="2.60734">
        <ele>1086.0523681641</ele>
        <time>2020-07-14T23:44:37.461Z</time>
      </trkpt>
      <trkpt lat="45.06745" lon="2.6073">
        <ele>1086.3043212891</ele>
        <time>2020-07-14T23:44:47.051Z</time>
      </trkpt>
      <trkpt lat="45.06734" lon="2.60724">
        <ele>1087.3961181641</ele>
        <time>2020-07-14T23:44:56.645Z</time>
      </trkpt>
      <trkpt lat="45.06713" lon="2.60725">
        <ele>1085.2965087891</ele>
        <time>2020-07-14T23:45:06.246Z</time>
      </trkpt>
      <trkpt lat="45.06704" lon="2.60736">
        <ele>1080.0541992188</ele>
        <time>2020-07-14T23:45:15.851Z</time>
      </trkpt>
      <trkpt lat="45.06696" lon="2.60746">
        <ele>1074.7786865234</ele>
        <time>2020-07-14T23:45:25.460Z</time>
      </trkpt>
      <trkpt lat="45.06685" lon="2.60752">
        <ele>1070.0417480469</ele>
        <time>2020-07-14T23:45:35.073Z</time>
      </trkpt>
      <trkpt lat="45.06671" lon="2.60757">
        <ele>1064.7026367188</ele>
        <time>2020-07-14T23:45:44.690Z</time>
      </trkpt>
      <trkpt lat="45.06657" lon="2.60757">
        <ele>1061.3431396484</ele>
        <time>2020-07-14T23:45:54.312Z</time>
      </trkpt>
      <trkpt lat="45.06643" lon="2.60756">
        <ele>1058.3796386719</ele>
        <time>2020-07-14T23:46:03.939Z</time>
      </trkpt>
      <trkpt lat="45.06634" lon="2.60748">
        <ele>1059.2053222656</ele>
        <time>2020-07-14T23:46:13.569Z</time>
      </trkpt>
      <trkpt lat="45.06622" lon="2.60736">
        <ele>1060.1527099609</ele>
        <time>2020-07-14T23:46:23.204Z</time>
      </trkpt>
      <trkpt lat="45.06607" lon="2.60733">
        <ele>1056.3583984375</ele>
        <time>2020-07-14T23:46:32.844Z</time>
      </trkpt>
      <trkpt lat="45.06592" lon="2.60729">
        <ele>1053.5509033203</ele>
        <time>2020-07-14T23:46:42.489Z</time>
      </trkpt>
      <trkpt lat="45.06579" lon="2.6072">
        <ele>1052.7110595703</ele>
        <time>2020-07-14T23:46:52.139Z</time>
      </trkpt>
      <trkpt lat="45.06568" lon="2.60713">
        <ele>1051.8231201172</ele>
        <time>2020-07-14T23:47:01.793Z</time>
      </trkpt>
      <trkpt lat="45.06561" lon="2.60714">
        <ele>1049.6875</ele>
        <time>2020-07-14T23:47:11.449Z</time>
      </trkpt>
      <trkpt lat="45.06547" lon="2.60719">
        <ele>1044.5523681641</ele>
        <time>2020-07-14T23:47:21.110Z</time>
      </trkpt>
      <trkpt lat="45.06532" lon="2.60725">
        <ele>1040.0316162109</ele>
        <time>2020-07-14T23:47:30.776Z</time>
      </trkpt>
      <trkpt lat="45.06513" lon="2.60732">
        <ele>1034.9323730469</ele>
        <time>2020-07-14T23:47:40.449Z</time>
      </trkpt>
      <trkpt lat="45.06498" lon="2.60732">
        <ele>1032.4128417969</ele>
        <time>2020-07-14T23:47:50.127Z</time>
      </trkpt>
      <trkpt lat="45.06484" lon="2.60731">
        <ele>1030.3610839844</ele>
        <time>2020-07-14T23:47:59.810Z</time>
      </trkpt>
      <trkpt lat="45.0647" lon="2.60729">
        <ele>1028.609375</ele>
        <time>2020-07-14T23:48:09.497Z</time>
      </trkpt>
      <trkpt lat="45.06452" lon="2.60726">
        <ele>1027.0223388672</ele>
        <time>2020-07-14T23:48:19.190Z</time>
      </trkpt>
      <trkpt lat="45.06434" lon="2.60724">
        <ele>1025.89453125</ele>
        <time>2020-07-14T23:48:28.889Z</time>
      </trkpt>
      <trkpt lat="45.06422" lon="2.60717">
        <ele>1026.8422851562</ele>
        <time>2020-07-14T23:48:38.593Z</time>
      </trkpt>
      <trkpt lat="45.06418" lon="2.60713">
        <ele>1027.658203125</ele>
        <time>2020-07-14T23:48:48.298Z</time>
      </trkpt>
      <trkpt lat="45.06415" lon="2.60707">
        <ele>1029.169921875</ele>
        <time>2020-07-14T23:48:58.005Z</time>
      </trkpt>
      <trkpt lat="45.06412" lon="2.60694">
        <ele>1032.7813720703</ele>
        <time>2020-07-14T23:49:07.715Z</time>
      </trkpt>
      <trkpt lat="45.0641" lon="2.6069">
        <ele>1033.7891845703</ele>
        <time>2020-07-14T23:49:17.427Z</time>
      </trkpt>
      <trkpt lat="45.06402" lon="2.60685">
        <ele>1034.5209960938</ele>
        <time>2020-07-14T23:49:27.141Z</time>
      </trkpt>
      <trkpt lat="45.06394" lon="2.60682">
        <ele>1034.6530761719</ele>
        <time>2020-07-14T23:49:36.858Z</time>
      </trkpt>
      <trkpt lat="45.06387" lon="2.6068">
        <ele>1034.5810546875</ele>
        <time>2020-07-14T23:49:46.578Z</time>
      </trkpt>
      <trkpt lat="45.0638" lon="2.60678">
        <ele>1034.5090332031</ele>
        <time>2020-07-14T23:49:56.300Z</time>
      </trkpt>
      <trkpt lat="45.06371" lon="2.60673">
        <ele>1034.9611816406</ele>
        <time>2020-07-14T23:50:06.025Z</time>
      </trkpt>
      <trkpt lat="45.06368" lon="2.60672">
        <ele>1034.865234375</ele>
        <time>2020-07-14T23:50:15.751Z</time>
      </trkpt>
      <trkpt lat="45.06367" lon="2.60663">
        <ele>1037.3020019531</ele>
        <time>2020-07-14T23:50:25.479Z</time>
      </trkpt>
      <trkpt lat="45.06367" lon="2.60653">
        <ele>1039.7570800781</ele>
        <time>2020-07-14T23:50:35.210Z</time>
      </trkpt>
      <trkpt lat="45.06365" lon="2.60646">
        <ele>1041.1848144531</ele>
        <time>2020-07-14T23:50:44.943Z</time>
      </trkpt>
      <trkpt lat="45.06357" lon="2.6064">
        <ele>1041.8807373047</ele>
        <time>2020-07-14T23:50:54.679Z</time>
      </trkpt>
      <trkpt lat="45.06351" lon="2.60632">
        <ele>1043.2005615234</ele>
        <time>2020-07-14T23:51:04.417Z</time>
      </trkpt>
      <trkpt lat="45.06344" lon="2.60627">
        <ele>1043.7524414062</ele>
        <time>2020-07-14T23:51:14.158Z</time>
      </trkpt>
      <trkpt lat="45.06321" lon="2.60625">
        <ele>1041.7172851562</ele>
        <time>2020-07-14T23:51:23.907Z</time>
      </trkpt>
      <trkpt lat="45.06306" lon="2.60628">
        <ele>1038.9096679688</ele>
        <time>2020-07-14T23:51:33.661Z</time>
      </trkpt>
      <trkpt lat="45.06294" lon="2.60635">
        <ele>1035.3942871094</ele>
        <time>2020-07-14T23:51:43.419Z</time>
      </trkpt>
      <trkpt lat="45.06279" lon="2.60643">
        <ele>1033.3530273438</ele>
        <time>2020-07-14T23:51:53.182Z</time>
      </trkpt>
      <trkpt lat="45.0626" lon="2.60654">
        <ele>1030.9930419922</ele>
        <time>2020-07-14T23:52:02.952Z</time>
      </trkpt>
      <trkpt lat="45.06249" lon="2.60659">
        <ele>1030.0692138672</ele>
        <time>2020-07-14T23:52:12.726Z</time>
      </trkpt>
      <trkpt lat="45.06238" lon="2.60663">
        <ele>1029.4093017578</ele>
        <time>2020-07-14T23:52:22.504Z</time>
      </trkpt>
      <trkpt lat="45.06228" lon="2.60667">
        <ele>1028.7135009766</ele>
        <time>2020-07-14T23:52:32.285Z</time>
      </trkpt>
      <trkpt lat="45.06218" lon="2.60669">
        <ele>1028.5784912109</ele>
        <time>2020-07-14T23:52:42.070Z</time>
      </trkpt>
      <trkpt lat="45.06213" lon="2.60669">
        <ele>1028.7585449219</ele>
        <time>2020-07-14T23:52:51.856Z</time>
      </trkpt>
      <trkpt lat="45.06202" lon="2.60666">
        <ele>1029.0888671875</ele>
        <time>2020-07-14T23:53:01.646Z</time>
      </trkpt>
      <trkpt lat="45.06194" lon="2.60664">
        <ele>1029.1849365234</ele>
        <time>2020-07-14T23:53:11.439Z</time>
      </trkpt>
      <trkpt lat="45.06185" lon="2.60662">
        <ele>1029.2928466797</ele>
        <time>2020-07-14T23:53:21.235Z</time>
      </trkpt>
      <trkpt lat="45.06176" lon="2.60661">
        <ele>1029.4008789062</ele>
        <time>2020-07-14T23:53:31.034Z</time>
      </trkpt>
      <trkpt lat="45.06167" lon="2.6066">
        <ele>1029.5089111328</ele>
        <time>2020-07-14T23:53:40.836Z</time>
      </trkpt>
      <trkpt lat="45.06157" lon="2.60659">
        <ele>1029.6287841797</ele>
        <time>2020-07-14T23:53:50.641Z</time>
      </trkpt>
      <trkpt lat="45.06149" lon="2.60657">
        <ele>1029.7248535156</ele>
        <time>2020-07-14T23:54:00.449Z</time>
      </trkpt>
      <trkpt lat="45.06152" lon="2.60651">
        <ele>1029.6888427734</ele>
        <time>2020-07-14T23:54:10.259Z</time>
      </trkpt>
      <trkpt lat="45.06167" lon="2.60635">
        <ele>1029.5089111328</ele>
        <time>2020-07-14T23:54:20.075Z</time>
      </trkpt>
      <trkpt lat="45.06179" lon="2.60623">
        <ele>1033.3342285156</ele>
        <time>2020-07-14T23:54:29.896Z</time>
      </trkpt>
      <trkpt lat="45.0619" lon="2.60613">
        <ele>1038.7453613281</ele>
        <time>2020-07-14T23:54:39.721Z</time>
      </trkpt>
      <trkpt lat="45.06202" lon="2.60602">
        <ele>1044.6723632812</ele>
        <time>2020-07-14T23:54:49.551Z</time>
      </trkpt>
      <trkpt lat="45.06212" lon="2.60592">
        <ele>1049.0860595703</ele>
        <time>2020-07-14T23:54:59.385Z</time>
      </trkpt>
      <trkpt lat="45.06218" lon="2.60581">
        <ele>1051.2368164062</ele>
        <time>2020-07-14T23:55:09.222Z</time>
      </trkpt>
      <trkpt lat="45.06225" lon="2.60567">
        <ele>1052.5806884766</ele>
        <time>2020-07-14T23:55:19.063Z</time>
      </trkpt>
      <trkpt lat="45.06232" lon="2.60551">
        <ele>1054.1403808594</ele>
        <time>2020-07-14T23:55:28.909Z</time>
      </trkpt>
      <trkpt lat="45.06241" lon="2.60537">
        <ele>1055.4361572266</ele>
        <time>2020-07-14T23:55:38.759Z</time>
      </trkpt>
      <trkpt lat="45.0625" lon="2.60523">
        <ele>1060.6773681641</ele>
        <time>2020-07-14T23:55:48.614Z</time>
      </trkpt>
      <trkpt lat="45.06255" lon="2.60506">
        <ele>1066.8803710938</ele>
        <time>2020-07-14T23:55:58.473Z</time>
      </trkpt>
      <trkpt lat="45.06259" lon="2.60494">
        <ele>1068.2731933594</ele>
        <time>2020-07-14T23:56:08.335Z</time>
      </trkpt>
      <trkpt lat="45.0627" lon="2.60477">
        <ele>1069.1604003906</ele>
        <time>2020-07-14T23:56:18.203Z</time>
      </trkpt>
      <trkpt lat="45.06276" lon="2.60472">
        <ele>1071.66796875</ele>
        <time>2020-07-14T23:56:28.073Z</time>
      </trkpt>
      <trkpt lat="45.06282" lon="2.60467">
        <ele>1074.1755371094</ele>
        <time>2020-07-14T23:56:37.945Z</time>
      </trkpt>
      <trkpt lat="45.0629" lon="2.6046">
        <ele>1077.5469970703</ele>
        <time>2020-07-14T23:56:47.820Z</time>
      </trkpt>
      <trkpt lat="45.06307" lon="2.60446">
        <ele>1081.2204589844</ele>
        <time>2020-07-14T23:56:57.702Z</time>
      </trkpt>
      <trkpt lat="45.06316" lon="2.60434">
        <ele>1084.8520507812</ele>
        <time>2020-07-14T23:57:07.588Z</time>
      </trkpt>
      <trkpt lat="45.06326" lon="2.6042">
        <ele>1092.2907714844</ele>
        <time>2020-07-14T23:57:17.479Z</time>
      </trkpt>
      <trkpt lat="45.06342" lon="2.60404">
        <ele>1096.9144287109</ele>
        <time>2020-07-14T23:57:27.376Z</time>
      </trkpt>
      <trkpt lat="45.06353" lon="2.60397">
        <ele>1099.9738769531</ele>
        <time>2020-07-14T23:57:37.277Z</time>
      </trkpt>
      <trkpt lat="45.06366" lon="2.60393">
        <ele>1106.2839355469</ele>
        <time>2020-07-14T23:57:47.183Z</time>
      </trkpt>
      <trkpt lat="45.06381" lon="2.60388">
        <ele>1113.8439941406</ele>
        <time>2020-07-14T23:57:57.094Z</time>
      </trkpt>
      <trkpt lat="45.06388" lon="2.60371">
        <ele>1118.5471191406</ele>
        <time>2020-07-14T23:58:07.010Z</time>
      </trkpt>
      <trkpt lat="45.06395" lon="2.60357">
        <ele>1122.9984130859</ele>
        <time>2020-07-14T23:58:16.930Z</time>
      </trkpt>
      <trkpt lat="45.06402" lon="2.60344">
        <ele>1131.0272216797</ele>
        <time>2020-07-14T23:58:26.853Z</time>
      </trkpt>
      <trkpt lat="45.06404" lon="2.60332">
        <ele>1134.9663085938</ele>
        <time>2020-07-14T23:58:36.779Z</time>
      </trkpt>
      <trkpt lat="45.06405" lon="2.60315">
        <ele>1135.0383300781</ele>
        <time>2020-07-14T23:58:46.709Z</time>
      </trkpt>
      <trkpt lat="45.06408" lon="2.60294">
        <ele>1136.3341064453</ele>
        <time>2020-07-14T23:58:56.644Z</time>
      </trkpt>
      <trkpt lat="45.0641" lon="2.60273">
        <ele>1136.4921875</ele>
        <time>2020-07-14T23:59:06.585Z</time>
      </trkpt>
      <trkpt lat="45.06414" lon="2.60255">
        <ele>1137.7879638672</ele>
        <time>2020-07-14T23:59:16.530Z</time>
      </trkpt>
      <trkpt lat="45.06418" lon="2.60238">
        <ele>1137.5104980469</ele>
        <time>2020-07-14T23:59:26.479Z</time>
      </trkpt>
      <trkpt lat="45.06422" lon="2.60229">
        <ele>1138.3742675781</ele>
        <time>2020-07-14T23:59:36.431Z</time>
      </trkpt>
      <trkpt lat="45.06429" lon="2.60218">
        <ele>1140.6414794922</ele>
        <time>2020-07-14T23:59:46.386Z</time>
      </trkpt>
      <trkpt lat="45.06441" lon="2.60204">
        <ele>1144.4808349609</ele>
        <time>2020-07-14T23:59:56.346Z</time>
      </trkpt>
      <trkpt lat="45.06455" lon="2.60195">
        <ele>1150.7197265625</ele>
        <time>2020-07-15T00:00:06.312Z</time>
      </trkpt>
      <trkpt lat="45.06455" lon="2.60194">
        <ele>1150.4798583984</ele>
        <time>2020-07-15T00:00:16.278Z</time>
      </trkpt>
      <trkpt lat="45.06455" lon="2.60195">
        <ele>1150.7197265625</ele>
        <time>2020-07-15T00:00:26.244Z</time>
      </trkpt>
      <trkpt lat="45.06457" lon="2.60193">
        <ele>1151.4396972656</ele>
        <time>2020-07-15T00:00:36.211Z</time>
      </trkpt>
      <trkpt lat="45.06464" lon="2.60188">
        <ele>1154.7664794922</ele>
        <time>2020-07-15T00:00:46.180Z</time>
      </trkpt>
      <trkpt lat="45.06465" lon="2.60181">
        <ele>1153.7586669922</ele>
        <time>2020-07-15T00:00:56.151Z</time>
      </trkpt>
      <trkpt lat="45.06466" lon="2.6017">
        <ele>1152.1446533203</ele>
        <time>2020-07-15T00:01:06.125Z</time>
      </trkpt>
      <trkpt lat="45.06469" lon="2.60156">
        <ele>1151.7279052734</ele>
        <time>2020-07-15T00:01:16.102Z</time>
      </trkpt>
      <trkpt lat="45.06478" lon="2.60139">
        <ele>1155.1593017578</ele>
        <time>2020-07-15T00:01:26.084Z</time>
      </trkpt>
      <trkpt lat="45.06488" lon="2.6012">
        <ele>1158.9506835938</ele>
        <time>2020-07-15T00:01:36.072Z</time>
      </trkpt>
      <trkpt lat="45.06493" lon="2.60108">
        <ele>1159.859375</ele>
        <time>2020-07-15T00:01:46.063Z</time>
      </trkpt>
      <trkpt lat="45.06497" lon="2.60096">
        <ele>1159.7634277344</ele>
        <time>2020-07-15T00:01:56.057Z</time>
      </trkpt>
      <trkpt lat="45.06506" lon="2.60082">
        <ele>1163.6448974609</ele>
        <time>2020-07-15T00:02:06.056Z</time>
      </trkpt>
      <trkpt lat="45.06517" lon="2.60063">
        <ele>1172.8952636719</ele>
        <time>2020-07-15T00:02:16.060Z</time>
      </trkpt>
      <trkpt lat="45.06527" lon="2.60053">
        <ele>1177.9697265625</ele>
        <time>2020-07-15T00:02:26.069Z</time>
      </trkpt>
      <trkpt lat="45.06537" lon="2.60044">
        <ele>1182.4930419922</ele>
        <time>2020-07-15T00:02:36.082Z</time>
      </trkpt>
      <trkpt lat="45.06538" lon="2.60044">
        <ele>1183.0208740234</ele>
        <time>2020-07-15T00:02:46.095Z</time>
      </trkpt>
      <trkpt lat="45.06539" lon="2.60039">
        <ele>1183.12890625</ele>
        <time>2020-07-15T00:02:56.109Z</time>
      </trkpt>
      <trkpt lat="45.06539" lon="2.60035">
        <ele>1182.79296875</ele>
        <time>2020-07-15T00:03:06.124Z</time>
      </trkpt>
      <trkpt lat="45.06537" lon="2.60032">
        <ele>1181.4852294922</ele>
        <time>2020-07-15T00:03:16.140Z</time>
      </trkpt>
      <trkpt lat="45.06535" lon="2.60024">
        <ele>1179.7574462891</ele>
        <time>2020-07-15T00:03:26.158Z</time>
      </trkpt>
      <trkpt lat="45.06531" lon="2.60003">
        <ele>1175.8820800781</ele>
        <time>2020-07-15T00:03:36.181Z</time>
      </trkpt>
      <trkpt lat="45.06527" lon="2.59991">
        <ele>1176.34765625</ele>
        <time>2020-07-15T00:03:46.207Z</time>
      </trkpt>
      <trkpt lat="45.06524" lon="2.59981">
        <ele>1176.8344726562</ele>
        <time>2020-07-15T00:03:56.236Z</time>
      </trkpt>
      <trkpt lat="45.06519" lon="2.59967">
        <ele>1175.5626220703</ele>
        <time>2020-07-15T00:04:06.269Z</time>
      </trkpt>
      <trkpt lat="45.06516" lon="2.59957">
        <ele>1174.8188476562</ele>
        <time>2020-07-15T00:04:16.304Z</time>
      </trkpt>
      <trkpt lat="45.06517" lon="2.59949">
        <ele>1175.2027587891</ele>
        <time>2020-07-15T00:04:26.341Z</time>
      </trkpt>
      <trkpt lat="45.06518" lon="2.59945">
        <ele>1175.5386962891</ele>
        <time>2020-07-15T00:04:36.379Z</time>
      </trkpt>
      <trkpt lat="45.0652" lon="2.59941">
        <ele>1176.1625976562</ele>
        <time>2020-07-15T00:04:46.418Z</time>
      </trkpt>
      <trkpt lat="45.06526" lon="2.59933">
        <ele>1177.986328125</ele>
        <time>2020-07-15T00:04:56.460Z</time>
      </trkpt>
      <trkpt lat="45.06534" lon="2.59927">
        <ele>1180.3618164062</ele>
        <time>2020-07-15T00:05:06.505Z</time>
      </trkpt>
      <trkpt lat="45.06542" lon="2.5992">
        <ele>1182.7495117188</ele>
        <time>2020-07-15T00:05:16.553Z</time>
      </trkpt>
      <trkpt lat="45.06552" lon="2.59911">
        <ele>1189.9249267578</ele>
        <time>2020-07-15T00:05:26.605Z</time>
      </trkpt>
      <trkpt lat="45.06552" lon="2.59905">
        <ele>1191.0767822266</ele>
        <time>2020-07-15T00:05:36.658Z</time>
      </trkpt>
      <trkpt lat="45.06551" lon="2.59902">
        <ele>1191.0528564453</ele>
        <time>2020-07-15T00:05:46.712Z</time>
      </trkpt>
      <trkpt lat="45.0655" lon="2.599">
        <ele>1190.8367919922</ele>
        <time>2020-07-15T00:05:56.767Z</time>
      </trkpt>
      <trkpt lat="45.06545" lon="2.59898">
        <ele>1188.2213134766</ele>
        <time>2020-07-15T00:06:06.824Z</time>
      </trkpt>
      <trkpt lat="45.06536" lon="2.59895">
        <ele>1185.6826171875</ele>
        <time>2020-07-15T00:06:16.884Z</time>
      </trkpt>
      <trkpt lat="45.06529" lon="2.59894">
        <ele>1184.0268554688</ele>
        <time>2020-07-15T00:06:26.946Z</time>
      </trkpt>
      <trkpt lat="45.06516" lon="2.59889">
        <ele>1181.5552978516</ele>
        <time>2020-07-15T00:06:37.012Z</time>
      </trkpt>
      <trkpt lat="45.06513" lon="2.59885">
        <ele>1181.53125</ele>
        <time>2020-07-15T00:06:47.080Z</time>
      </trkpt>
      <trkpt lat="45.06513" lon="2.59881">
        <ele>1182.2990722656</ele>
        <time>2020-07-15T00:06:57.149Z</time>
      </trkpt>
      <trkpt lat="45.06515" lon="2.59867">
        <ele>1185.5146484375</ele>
        <time>2020-07-15T00:07:07.221Z</time>
      </trkpt>
      <trkpt lat="45.06521" lon="2.59853">
        <ele>1189.7858886719</ele>
        <time>2020-07-15T00:07:17.297Z</time>
      </trkpt>
      <trkpt lat="45.06527" lon="2.59832">
        <ele>1195.0794677734</ele>
        <time>2020-07-15T00:07:27.378Z</time>
      </trkpt>
      <trkpt lat="45.06533" lon="2.59815">
        <ele>1199.9224853516</ele>
        <time>2020-07-15T00:07:37.464Z</time>
      </trkpt>
      <trkpt lat="45.0654" lon="2.59803">
        <ele>1206.1975097656</ele>
        <time>2020-07-15T00:07:47.554Z</time>
      </trkpt>
      <trkpt lat="45.06551" lon="2.5979">
        <ele>1213.5281982422</ele>
        <time>2020-07-15T00:07:57.648Z</time>
      </trkpt>
      <trkpt lat="45.0656" lon="2.59777">
        <ele>1219.8752441406</ele>
        <time>2020-07-15T00:08:07.747Z</time>
      </trkpt>
      <trkpt lat="45.06571" lon="2.59762">
        <ele>1225.6866455078</ele>
        <time>2020-07-15T00:08:17.851Z</time>
      </trkpt>
      <trkpt lat="45.06587" lon="2.59759">
        <ele>1229.837890625</ele>
        <time>2020-07-15T00:08:27.960Z</time>
      </trkpt>
      <trkpt lat="45.06603" lon="2.59756">
        <ele>1233.9892578125</ele>
        <time>2020-07-15T00:08:38.074Z</time>
      </trkpt>
      <trkpt lat="45.06618" lon="2.59747">
        <ele>1238.8648681641</ele>
        <time>2020-07-15T00:08:48.194Z</time>
      </trkpt>
      <trkpt lat="45.06622" lon="2.59739">
        <ele>1241.8386230469</ele>
        <time>2020-07-15T00:08:58.316Z</time>
      </trkpt>
      <trkpt lat="45.06631" lon="2.59725">
        <ele>1247.5246582031</ele>
        <time>2020-07-15T00:09:08.443Z</time>
      </trkpt>
      <trkpt lat="45.0664" lon="2.59713">
        <ele>1252.0599365234</ele>
        <time>2020-07-15T00:09:18.574Z</time>
      </trkpt>
      <trkpt lat="45.06646" lon="2.59698">
        <ele>1256.8471679688</ele>
        <time>2020-07-15T00:09:28.709Z</time>
      </trkpt>
      <trkpt lat="45.06652" lon="2.59687">
        <ele>1260.3696289062</ele>
        <time>2020-07-15T00:09:38.847Z</time>
      </trkpt>
      <trkpt lat="45.06661" lon="2.59664">
        <ele>1266.5760498047</ele>
        <time>2020-07-15T00:09:48.991Z</time>
      </trkpt>
      <trkpt lat="45.06671" lon="2.59657">
        <ele>1269.4915771484</ele>
        <time>2020-07-15T00:09:59.139Z</time>
      </trkpt>
      <trkpt lat="45.06691" lon="2.59655">
        <ele>1272.5870361328</ele>
        <time>2020-07-15T00:10:09.294Z</time>
      </trkpt>
      <trkpt lat="45.06705" lon="2.59654">
        <ele>1275.1324462891</ele>
        <time>2020-07-15T00:10:19.453Z</time>
      </trkpt>
      <trkpt lat="45.0672" lon="2.59652">
        <ele>1279.0141601562</ele>
        <time>2020-07-15T00:10:29.617Z</time>
      </trkpt>
      <trkpt lat="45.06731" lon="2.59651">
        <ele>1281.9296875</ele>
        <time>2020-07-15T00:10:39.785Z</time>
      </trkpt>
      <trkpt lat="45.06744" lon="2.59651">
        <ele>1285.0490722656</ele>
        <time>2020-07-15T00:10:49.958Z</time>
      </trkpt>
      <trkpt lat="45.06756" lon="2.59652">
        <ele>1287.6527099609</ele>
        <time>2020-07-15T00:11:00.135Z</time>
      </trkpt>
      <trkpt lat="45.06771" lon="2.59651">
        <ele>1291.5280761719</ele>
        <time>2020-07-15T00:11:10.317Z</time>
      </trkpt>
      <trkpt lat="45.06782" lon="2.59652">
        <ele>1293.9569091797</ele>
        <time>2020-07-15T00:11:20.502Z</time>
      </trkpt>
      <trkpt lat="45.06792" lon="2.59658">
        <ele>1294.7487792969</ele>
        <time>2020-07-15T00:11:30.691Z</time>
      </trkpt>
      <trkpt lat="45.06804" lon="2.59666">
        <ele>1296.6735839844</ele>
        <time>2020-07-15T00:11:40.884Z</time>
      </trkpt>
      <trkpt lat="45.06814" lon="2.59674">
        <ele>1299.478515625</ele>
        <time>2020-07-15T00:11:51.081Z</time>
      </trkpt>
      <trkpt lat="45.06825" lon="2.59685">
        <ele>1303.173828125</ele>
        <time>2020-07-15T00:12:01.283Z</time>
      </trkpt>
      <trkpt lat="45.06832" lon="2.59685">
        <ele>1305.6934814453</ele>
        <time>2020-07-15T00:12:11.487Z</time>
      </trkpt>
      <trkpt lat="45.06844" lon="2.59683">
        <ele>1310.0606689453</ele>
        <time>2020-07-15T00:12:21.695Z</time>
      </trkpt>
      <trkpt lat="45.06858" lon="2.59682">
        <ele>1315.1239013672</ele>
        <time>2020-07-15T00:12:31.908Z</time>
      </trkpt>
      <trkpt lat="45.06878" lon="2.59682">
        <ele>1322.4747314453</ele>
        <time>2020-07-15T00:12:42.127Z</time>
      </trkpt>
      <trkpt lat="45.06889" lon="2.59688">
        <ele>1327.2139892578</ele>
        <time>2020-07-15T00:12:52.350Z</time>
      </trkpt>
      <trkpt lat="45.06904" lon="2.59695">
        <ele>1333.5867919922</ele>
        <time>2020-07-15T00:13:02.578Z</time>
      </trkpt>
      <trkpt lat="45.06907" lon="2.59694">
        <ele>1334.5106201172</ele>
        <time>2020-07-15T00:13:12.808Z</time>
      </trkpt>
      <trkpt lat="45.06907" lon="2.59687">
        <ele>1333.9227294922</ele>
        <time>2020-07-15T00:13:23.039Z</time>
      </trkpt>
      <trkpt lat="45.06904" lon="2.59675">
        <ele>1331.9071044922</ele>
        <time>2020-07-15T00:13:33.273Z</time>
      </trkpt>
      <trkpt lat="45.06899" lon="2.59665">
        <ele>1330.5296630859</ele>
        <time>2020-07-15T00:13:43.510Z</time>
      </trkpt>
      <trkpt lat="45.0689" lon="2.59654">
        <ele>1330.4096679688</ele>
        <time>2020-07-15T00:13:53.751Z</time>
      </trkpt>
      <trkpt lat="45.06878" lon="2.59641">
        <ele>1329.8098144531</ele>
        <time>2020-07-15T00:14:03.997Z</time>
      </trkpt>
      <trkpt lat="45.06868" lon="2.5963">
        <ele>1329.3538818359</ele>
        <time>2020-07-15T00:14:14.247Z</time>
      </trkpt>
      <trkpt lat="45.06858" lon="2.59619">
        <ele>1328.8979492188</ele>
        <time>2020-07-15T00:14:24.502Z</time>
      </trkpt>
      <trkpt lat="45.06853" lon="2.59608">
        <ele>1330.1217041016</ele>
        <time>2020-07-15T00:14:34.760Z</time>
      </trkpt>
      <trkpt lat="45.06851" lon="2.59597">
        <ele>1332.3533935547</ele>
        <time>2020-07-15T00:14:45.020Z</time>
      </trkpt>
      <trkpt lat="45.06845" lon="2.59574">
        <ele>1336.5399169922</ele>
        <time>2020-07-15T00:14:55.286Z</time>
      </trkpt>
      <trkpt lat="45.06839" lon="2.59564">
        <ele>1337.2836914062</ele>
        <time>2020-07-15T00:15:05.555Z</time>
      </trkpt>
      <trkpt lat="45.06826" lon="2.59552">
        <ele>1336.2279052734</ele>
        <time>2020-07-15T00:15:15.829Z</time>
      </trkpt>
      <trkpt lat="45.06814" lon="2.59542">
        <ele>1334.9561767578</ele>
        <time>2020-07-15T00:15:26.108Z</time>
      </trkpt>
      <trkpt lat="45.068" lon="2.59533">
        <ele>1332.7364501953</ele>
        <time>2020-07-15T00:15:36.392Z</time>
      </trkpt>
      <trkpt lat="45.06788" lon="2.59526">
        <ele>1330.9273681641</ele>
        <time>2020-07-15T00:15:46.680Z</time>
      </trkpt>
      <trkpt lat="45.06776" lon="2.59518">
        <ele>1329.8234863281</ele>
        <time>2020-07-15T00:15:56.973Z</time>
      </trkpt>
      <trkpt lat="45.06763" lon="2.5951">
        <ele>1328.4437255859</ele>
        <time>2020-07-15T00:16:07.271Z</time>
      </trkpt>
      <trkpt lat="45.06752" lon="2.59503">
        <ele>1327.3399658203</ele>
        <time>2020-07-15T00:16:17.573Z</time>
      </trkpt>
      <trkpt lat="45.06743" lon="2.59494">
        <ele>1326.6115722656</ele>
        <time>2020-07-15T00:16:27.878Z</time>
      </trkpt>
      <trkpt lat="45.06735" lon="2.59488">
        <ele>1325.4837646484</ele>
        <time>2020-07-15T00:16:38.186Z</time>
      </trkpt>
      <trkpt lat="45.06729" lon="2.59481">
        <ele>1325.087890625</ele>
        <time>2020-07-15T00:16:48.497Z</time>
      </trkpt>
      <trkpt lat="45.06727" lon="2.59475">
        <ele>1325.6157226562</ele>
        <time>2020-07-15T00:16:58.810Z</time>
      </trkpt>
      <trkpt lat="45.06727" lon="2.59463">
        <ele>1327.775390625</ele>
        <time>2020-07-15T00:17:09.125Z</time>
      </trkpt>
      <trkpt lat="45.06729" lon="2.59445">
        <ele>1331.5667724609</ele>
        <time>2020-07-15T00:17:19.445Z</time>
      </trkpt>
      <trkpt lat="45.06729" lon="2.59432">
        <ele>1333.9063720703</ele>
        <time>2020-07-15T00:17:29.768Z</time>
      </trkpt>
      <trkpt lat="45.0673" lon="2.59415">
        <ele>1336.8918457031</ele>
        <time>2020-07-15T00:17:40.095Z</time>
      </trkpt>
      <trkpt lat="45.06731" lon="2.594">
        <ele>1338.2475585938</ele>
        <time>2020-07-15T00:17:50.425Z</time>
      </trkpt>
      <trkpt lat="45.06728" lon="2.59381">
        <ele>1338.7874755859</ele>
        <time>2020-07-15T00:18:00.760Z</time>
      </trkpt>
      <trkpt lat="45.06725" lon="2.59361">
        <ele>1339.3994140625</ele>
        <time>2020-07-15T00:18:11.100Z</time>
      </trkpt>
      <trkpt lat="45.06721" lon="2.59345">
        <ele>1339.2459716797</ele>
        <time>2020-07-15T00:18:21.444Z</time>
      </trkpt>
      <trkpt lat="45.06716" lon="2.59335">
        <ele>1337.8662109375</ele>
        <time>2020-07-15T00:18:31.791Z</time>
      </trkpt>
      <trkpt lat="45.06707" lon="2.59316">
        <ele>1334.8101806641</ele>
        <time>2020-07-15T00:18:42.143Z</time>
      </trkpt>
      <trkpt lat="45.0671" lon="2.59309">
        <ele>1334.2706298828</ele>
        <time>2020-07-15T00:18:52.497Z</time>
      </trkpt>
      <trkpt lat="45.06717" lon="2.59311">
        <ele>1335.4104003906</ele>
        <time>2020-07-15T00:19:02.853Z</time>
      </trkpt>
      <trkpt lat="45.06729" lon="2.59325">
        <ele>1338.5059814453</ele>
        <time>2020-07-15T00:19:13.215Z</time>
      </trkpt>
      <trkpt lat="45.06744" lon="2.59343">
        <ele>1342.1374511719</ele>
        <time>2020-07-15T00:19:23.583Z</time>
      </trkpt>
      <trkpt lat="45.06754" lon="2.59361">
        <ele>1344.7530517578</ele>
        <time>2020-07-15T00:19:33.957Z</time>
      </trkpt>
      <trkpt lat="45.06769" lon="2.59373">
        <ele>1347.5965576172</ele>
        <time>2020-07-15T00:19:44.336Z</time>
      </trkpt>
      <trkpt lat="45.06779" lon="2.5938">
        <ele>1349.4202880859</ele>
        <time>2020-07-15T00:19:54.719Z</time>
      </trkpt>
      <trkpt lat="45.06787" lon="2.59387">
        <ele>1350.9799804688</ele>
        <time>2020-07-15T00:20:05.105Z</time>
      </trkpt>
      <trkpt lat="45.06799" lon="2.59392">
        <ele>1353.0715332031</ele>
        <time>2020-07-15T00:20:15.495Z</time>
      </trkpt>
      <trkpt lat="45.06811" lon="2.59396">
        <ele>1355.2310791016</ele>
        <time>2020-07-15T00:20:25.889Z</time>
      </trkpt>
      <trkpt lat="45.06824" lon="2.59399">
        <ele>1357.4747314453</ele>
        <time>2020-07-15T00:20:36.288Z</time>
      </trkpt>
      <trkpt lat="45.06839" lon="2.59399">
        <ele>1359.8143310547</ele>
        <time>2020-07-15T00:20:46.692Z</time>
      </trkpt>
      <trkpt lat="45.06853" lon="2.59399">
        <ele>1361.998046875</ele>
        <time>2020-07-15T00:20:57.100Z</time>
      </trkpt>
      <trkpt lat="45.0687" lon="2.59398">
        <ele>1364.4089355469</ele>
        <time>2020-07-15T00:21:07.514Z</time>
      </trkpt>
      <trkpt lat="45.06889" lon="2.59394">
        <ele>1367.1159667969</ele>
        <time>2020-07-15T00:21:17.935Z</time>
      </trkpt>
      <trkpt lat="45.06904" lon="2.59392">
        <ele>1369.4675292969</ele>
        <time>2020-07-15T00:21:28.361Z</time>
      </trkpt>
      <trkpt lat="45.06918" lon="2.5939">
        <ele>1371.6512451172</ele>
        <time>2020-07-15T00:21:38.791Z</time>
      </trkpt>
      <trkpt lat="45.06929" lon="2.5939">
        <ele>1373.4989013672</ele>
        <time>2020-07-15T00:21:49.225Z</time>
      </trkpt>
      <trkpt lat="45.06932" lon="2.59389">
        <ele>1373.8984375</ele>
        <time>2020-07-15T00:21:59.660Z</time>
      </trkpt>
      <trkpt lat="45.06935" lon="2.59389">
        <ele>1374.3663330078</ele>
        <time>2020-07-15T00:22:10.096Z</time>
      </trkpt>
      <trkpt lat="45.06945" lon="2.59389">
        <ele>1375.9260253906</ele>
        <time>2020-07-15T00:22:20.535Z</time>
      </trkpt>
      <trkpt lat="45.06954" lon="2.59388">
        <ele>1377.2338867188</ele>
        <time>2020-07-15T00:22:30.977Z</time>
      </trkpt>
      <trkpt lat="45.06965" lon="2.59384">
        <ele>1377.6478271484</ele>
        <time>2020-07-15T00:22:41.423Z</time>
      </trkpt>
      <trkpt lat="45.06969" lon="2.59379">
        <ele>1377.1199951172</ele>
        <time>2020-07-15T00:22:51.871Z</time>
      </trkpt>
      <trkpt lat="45.06994" lon="2.59376">
        <ele>1376.5321044922</ele>
        <time>2020-07-15T00:23:02.327Z</time>
      </trkpt>
      <trkpt lat="45.07016" lon="2.59374">
        <ele>1376.9091796875</ele>
        <time>2020-07-15T00:23:12.791Z</time>
      </trkpt>
      <trkpt lat="45.07028" lon="2.59371">
        <ele>1377.1971435547</ele>
        <time>2020-07-15T00:23:23.259Z</time>
      </trkpt>
      <trkpt lat="45.07043" lon="2.59378">
        <ele>1378.0505371094</ele>
        <time>2020-07-15T00:23:33.732Z</time>
      </trkpt>
      <trkpt lat="45.07058" lon="2.59389">
        <ele>1376.2388916016</ele>
        <time>2020-07-15T00:23:44.211Z</time>
      </trkpt>
      <trkpt lat="45.07077" lon="2.59398">
        <ele>1373.7072753906</ele>
        <time>2020-07-15T00:23:54.696Z</time>
      </trkpt>
      <trkpt lat="45.07098" lon="2.59407">
        <ele>1370.8637695312</ele>
        <time>2020-07-15T00:24:05.189Z</time>
      </trkpt>
      <trkpt lat="45.07118" lon="2.59419">
        <ele>1368.4204101562</ele>
        <time>2020-07-15T00:24:15.689Z</time>
      </trkpt>
      <trkpt lat="45.07135" lon="2.59423">
        <ele>1366.9455566406</ele>
        <time>2020-07-15T00:24:26.195Z</time>
      </trkpt>
      <trkpt lat="45.07115" lon="2.59387">
        <ele>1365.8118896484</ele>
        <time>2020-07-15T00:24:36.711Z</time>
      </trkpt>
      <trkpt lat="45.07106" lon="2.59355">
        <ele>1364.0241699219</ele>
        <time>2020-07-15T00:24:47.235Z</time>
      </trkpt>
      <trkpt lat="45.07095" lon="2.59329">
        <ele>1363.5537109375</ele>
        <time>2020-07-15T00:24:57.767Z</time>
      </trkpt>
      <trkpt lat="45.07087" lon="2.59289">
        <ele>1361.6180419922</ele>
        <time>2020-07-15T00:25:08.308Z</time>
      </trkpt>
      <trkpt lat="45.07082" lon="2.59261">
        <ele>1360.3461914062</ele>
        <time>2020-07-15T00:25:18.856Z</time>
      </trkpt>
      <trkpt lat="45.07077" lon="2.5922">
        <ele>1357.9826660156</ele>
        <time>2020-07-15T00:25:29.414Z</time>
      </trkpt>
      <trkpt lat="45.07074" lon="2.5919">
        <ele>1356.5579833984</ele>
        <time>2020-07-15T00:25:39.979Z</time>
      </trkpt>
      <trkpt lat="45.07074" lon="2.59159">
        <ele>1354.8903808594</ele>
        <time>2020-07-15T00:25:50.552Z</time>
      </trkpt>
      <trkpt lat="45.07072" lon="2.59119">
        <ele>1351.3869628906</ele>
        <time>2020-07-15T00:26:01.134Z</time>
      </trkpt>
      <trkpt lat="45.0707" lon="2.59058">
        <ele>1344.5791015625</ele>
        <time>2020-07-15T00:26:11.730Z</time>
      </trkpt>
      <trkpt lat="45.07064" lon="2.58993">
        <ele>1336.6331787109</ele>
        <time>2020-07-15T00:26:22.342Z</time>
      </trkpt>
      <trkpt lat="45.0706" lon="2.58956">
        <ele>1331.4381103516</ele>
        <time>2020-07-15T00:26:32.963Z</time>
      </trkpt>
      <trkpt lat="45.07055" lon="2.58917">
        <ele>1326.0888671875</ele>
        <time>2020-07-15T00:26:43.593Z</time>
      </trkpt>
      <trkpt lat="45.07049" lon="2.58863">
        <ele>1319.1779785156</ele>
        <time>2020-07-15T00:26:54.236Z</time>
      </trkpt>
      <trkpt lat="45.07049" lon="2.58805">
        <ele>1310.4604492188</ele>
        <time>2020-07-15T00:27:04.893Z</time>
      </trkpt>
      <trkpt lat="45.07047" lon="2.58763">
        <ele>1304.8214111328</ele>
        <time>2020-07-15T00:27:15.560Z</time>
      </trkpt>
      <trkpt lat="45.07045" lon="2.58732">
        <ele>1301.5986328125</ele>
        <time>2020-07-15T00:27:26.234Z</time>
      </trkpt>
      <trkpt lat="45.07042" lon="2.58654">
        <ele>1294.8356933594</ele>
        <time>2020-07-15T00:27:36.927Z</time>
      </trkpt>
      <trkpt lat="45.07047" lon="2.58616">
        <ele>1290.3883056641</ele>
        <time>2020-07-15T00:27:47.629Z</time>
      </trkpt>
      <trkpt lat="45.07049" lon="2.58591">
        <ele>1287.6887207031</ele>
        <time>2020-07-15T00:27:58.337Z</time>
      </trkpt>
      <trkpt lat="45.0705" lon="2.58566">
        <ele>1285.0095214844</ele>
        <time>2020-07-15T00:28:09.051Z</time>
      </trkpt>
      <trkpt lat="45.07049" lon="2.58591">
        <ele>1287.6887207031</ele>
        <time>2020-07-15T00:28:19.770Z</time>
      </trkpt>
      <trkpt lat="45.0705" lon="2.58566">
        <ele>1285.0095214844</ele>
        <time>2020-07-15T00:28:30.495Z</time>
      </trkpt>
      <trkpt lat="45.07049" lon="2.58591">
        <ele>1287.6887207031</ele>
        <time>2020-07-15T00:28:41.226Z</time>
      </trkpt>
      <trkpt lat="45.0705" lon="2.58566">
        <ele>1285.0095214844</ele>
        <time>2020-07-15T00:28:51.963Z</time>
      </trkpt>
      <trkpt lat="45.07049" lon="2.58591">
        <ele>1287.6887207031</ele>
        <time>2020-07-15T00:29:02.706Z</time>
      </trkpt>
      <trkpt lat="45.0705" lon="2.58566">
        <ele>1285.0095214844</ele>
        <time>2020-07-15T00:29:13.455Z</time>
      </trkpt>
      <trkpt lat="45.07049" lon="2.58591">
        <ele>1287.6887207031</ele>
        <time>2020-07-15T00:29:24.210Z</time>
      </trkpt>
      <trkpt lat="45.0705" lon="2.58566">
        <ele>1285.0095214844</ele>
        <time>2020-07-15T00:29:34.971Z</time>
      </trkpt>
      <trkpt lat="45.07049" lon="2.58591">
        <ele>1287.6887207031</ele>
        <time>2020-07-15T00:29:45.738Z</time>
      </trkpt>
      <trkpt lat="45.0705" lon="2.58566">
        <ele>1285.0095214844</ele>
        <time>2020-07-15T00:29:56.511Z</time>
      </trkpt>
      <trkpt lat="45.07049" lon="2.58591">
        <ele>1287.6887207031</ele>
        <time>2020-07-15T00:30:07.290Z</time>
      </trkpt>
      <trkpt lat="45.0705" lon="2.58566">
        <ele>1285.0095214844</ele>
        <time>2020-07-15T00:30:18.075Z</time>
      </trkpt>
      <trkpt lat="45.07049" lon="2.58547">
        <ele>1283.2337646484</ele>
        <time>2020-07-15T00:30:28.864Z</time>
      </trkpt>
      <trkpt lat="45.07051" lon="2.5854">
        <ele>1281.9260253906</ele>
        <time>2020-07-15T00:30:39.655Z</time>
      </trkpt>
      <trkpt lat="45.07054" lon="2.58537">
        <ele>1280.7741699219</ele>
        <time>2020-07-15T00:30:50.447Z</time>
      </trkpt>
      <trkpt lat="45.07051" lon="2.5854">
        <ele>1281.9260253906</ele>
        <time>2020-07-15T00:31:01.240Z</time>
      </trkpt>
      <trkpt lat="45.07054" lon="2.58537">
        <ele>1280.7741699219</ele>
        <time>2020-07-15T00:31:12.034Z</time>
      </trkpt>
      <trkpt lat="45.07051" lon="2.5854">
        <ele>1281.9260253906</ele>
        <time>2020-07-15T00:31:22.830Z</time>
      </trkpt>
      <trkpt lat="45.07054" lon="2.58537">
        <ele>1280.7741699219</ele>
        <time>2020-07-15T00:31:33.627Z</time>
      </trkpt>
      <trkpt lat="45.0707" lon="2.58538">
        <ele>1276.4669189453</ele>
        <time>2020-07-15T00:31:44.429Z</time>
      </trkpt>
      <trkpt lat="45.07079" lon="2.58533">
        <ele>1273.7701416016</ele>
        <time>2020-07-15T00:31:55.234Z</time>
      </trkpt>
      <trkpt lat="45.07076" lon="2.58509">
        <ele>1273.5181884766</ele>
        <time>2020-07-15T00:32:06.045Z</time>
      </trkpt>
      <trkpt lat="45.07078" lon="2.58484">
        <ele>1270.9561767578</ele>
        <time>2020-07-15T00:32:16.862Z</time>
      </trkpt>
      <trkpt lat="45.07077" lon="2.58478">
        <ele>1270.5123291016</ele>
        <time>2020-07-15T00:32:27.681Z</time>
      </trkpt>
      <trkpt lat="45.07081" lon="2.58457">
        <ele>1267.4288330078</ele>
        <time>2020-07-15T00:32:38.505Z</time>
      </trkpt>
      <trkpt lat="45.07082" lon="2.58439">
        <ele>1266.5906982422</ele>
        <time>2020-07-15T00:32:49.333Z</time>
      </trkpt>
      <trkpt lat="45.07083" lon="2.58419">
        <ele>1265.7387695312</ele>
        <time>2020-07-15T00:33:00.166Z</time>
      </trkpt>
      <trkpt lat="45.07083" lon="2.58412">
        <ele>1265.2681884766</ele>
        <time>2020-07-15T00:33:11.000Z</time>
      </trkpt>
      <trkpt lat="45.07084" lon="2.58404">
        <ele>1264.5603027344</ele>
        <time>2020-07-15T00:33:21.836Z</time>
      </trkpt>
      <trkpt lat="45.07083" lon="2.58391">
        <ele>1263.7564697266</ele>
        <time>2020-07-15T00:33:32.675Z</time>
      </trkpt>
      <trkpt lat="45.07083" lon="2.58372">
        <ele>1262.3204345703</ele>
        <time>2020-07-15T00:33:43.519Z</time>
      </trkpt>
      <trkpt lat="45.07083" lon="2.58332">
        <ele>1258.5465087891</ele>
        <time>2020-07-15T00:33:54.372Z</time>
      </trkpt>
      <trkpt lat="45.07082" lon="2.58308">
        <ele>1256.9748535156</ele>
        <time>2020-07-15T00:34:05.231Z</time>
      </trkpt>
      <trkpt lat="45.0708" lon="2.58284">
        <ele>1255.451171875</ele>
        <time>2020-07-15T00:34:16.096Z</time>
      </trkpt>
      <trkpt lat="45.07078" lon="2.58268">
        <ele>1254.275390625</ele>
        <time>2020-07-15T00:34:26.965Z</time>
      </trkpt>
      <trkpt lat="45.07076" lon="2.58248">
        <ele>1252.6345214844</ele>
        <time>2020-07-15T00:34:37.838Z</time>
      </trkpt>
      <trkpt lat="45.07078" lon="2.58221">
        <ele>1249.03515625</ele>
        <time>2020-07-15T00:34:48.718Z</time>
      </trkpt>
      <trkpt lat="45.07079" lon="2.58188">
        <ele>1244.8957519531</ele>
        <time>2020-07-15T00:34:59.606Z</time>
      </trkpt>
      <trkpt lat="45.0708" lon="2.58173">
        <ele>1242.9161376953</ele>
        <time>2020-07-15T00:35:10.497Z</time>
      </trkpt>
      <trkpt lat="45.0708" lon="2.58154">
        <ele>1240.4681396484</ele>
        <time>2020-07-15T00:35:21.393Z</time>
      </trkpt>
      <trkpt lat="45.07073" lon="2.58141">
        <ele>1240.0122070312</ele>
        <time>2020-07-15T00:35:32.293Z</time>
      </trkpt>
      <trkpt lat="45.07058" lon="2.58135">
        <ele>1241.919921875</ele>
        <time>2020-07-15T00:35:43.198Z</time>
      </trkpt>
      <trkpt lat="45.07055" lon="2.58123">
        <ele>1240.8760986328</ele>
        <time>2020-07-15T00:35:54.106Z</time>
      </trkpt>
      <trkpt lat="45.07056" lon="2.58094">
        <ele>1236.8231201172</ele>
        <time>2020-07-15T00:36:05.021Z</time>
      </trkpt>
      <trkpt lat="45.07059" lon="2.58062">
        <ele>1231.9122314453</ele>
        <time>2020-07-15T00:36:15.943Z</time>
      </trkpt>
      <trkpt lat="45.07057" lon="2.58036">
        <ele>1228.8647460938</ele>
        <time>2020-07-15T00:36:26.871Z</time>
      </trkpt>
      <trkpt lat="45.07053" lon="2.5801">
        <ele>1226.1837158203</ele>
        <time>2020-07-15T00:36:37.806Z</time>
      </trkpt>
      <trkpt lat="45.07055" lon="2.57978">
        <ele>1224.2486572266</ele>
        <time>2020-07-15T00:36:48.748Z</time>
      </trkpt>
      <trkpt lat="45.07059" lon="2.57952">
        <ele>1223.1208496094</ele>
        <time>2020-07-15T00:36:59.697Z</time>
      </trkpt>
      <trkpt lat="45.07059" lon="2.57935">
        <ele>1222.9168701172</ele>
        <time>2020-07-15T00:37:10.650Z</time>
      </trkpt>
      <trkpt lat="45.07059" lon="2.57952">
        <ele>1223.1208496094</ele>
        <time>2020-07-15T00:37:21.607Z</time>
      </trkpt>
      <trkpt lat="45.07059" lon="2.57935">
        <ele>1222.9168701172</ele>
        <time>2020-07-15T00:37:32.568Z</time>
      </trkpt>
      <trkpt lat="45.07059" lon="2.57952">
        <ele>1223.1208496094</ele>
        <time>2020-07-15T00:37:43.533Z</time>
      </trkpt>
      <trkpt lat="45.07059" lon="2.57935">
        <ele>1222.9168701172</ele>
        <time>2020-07-15T00:37:54.502Z</time>
      </trkpt>
      <trkpt lat="45.07059" lon="2.57952">
        <ele>1223.1208496094</ele>
        <time>2020-07-15T00:38:05.475Z</time>
      </trkpt>
      <trkpt lat="45.07059" lon="2.57935">
        <ele>1222.9168701172</ele>
        <time>2020-07-15T00:38:16.452Z</time>
      </trkpt>
      <trkpt lat="45.07059" lon="2.57952">
        <ele>1223.1208496094</ele>
        <time>2020-07-15T00:38:27.433Z</time>
      </trkpt>
      <trkpt lat="45.07059" lon="2.57935">
        <ele>1222.9168701172</ele>
        <time>2020-07-15T00:38:38.418Z</time>
      </trkpt>
      <trkpt lat="45.07059" lon="2.57952">
        <ele>1223.1208496094</ele>
        <time>2020-07-15T00:38:49.407Z</time>
      </trkpt>
      <trkpt lat="45.07059" lon="2.57935">
        <ele>1222.9168701172</ele>
        <time>2020-07-15T00:39:00.400Z</time>
      </trkpt>
      <trkpt lat="45.07059" lon="2.57952">
        <ele>1223.1208496094</ele>
        <time>2020-07-15T00:39:11.397Z</time>
      </trkpt>
      <trkpt lat="45.07059" lon="2.57935">
        <ele>1222.9168701172</ele>
        <time>2020-07-15T00:39:22.398Z</time>
      </trkpt>
      <trkpt lat="45.07059" lon="2.57952">
        <ele>1223.1208496094</ele>
        <time>2020-07-15T00:39:33.403Z</time>
      </trkpt>
      <trkpt lat="45.07059" lon="2.57935">
        <ele>1222.9168701172</ele>
        <time>2020-07-15T00:39:44.412Z</time>
      </trkpt>
      <trkpt lat="45.07059" lon="2.57952">
        <ele>1223.1208496094</ele>
        <time>2020-07-15T00:39:55.425Z</time>
      </trkpt>
      <trkpt lat="45.07059" lon="2.57935">
        <ele>1222.9168701172</ele>
        <time>2020-07-15T00:40:06.442Z</time>
      </trkpt>
      <trkpt lat="45.07059" lon="2.57952">
        <ele>1223.1208496094</ele>
        <time>2020-07-15T00:40:17.463Z</time>
      </trkpt>
      <trkpt lat="45.07059" lon="2.57935">
        <ele>1222.9168701172</ele>
        <time>2020-07-15T00:40:28.488Z</time>
      </trkpt>
      <trkpt lat="45.07053" lon="2.57922">
        <ele>1223.6915283203</ele>
        <time>2020-07-15T00:40:39.517Z</time>
      </trkpt>
      <trkpt lat="45.07052" lon="2.57922">
        <ele>1223.9434814453</ele>
        <time>2020-07-15T00:40:50.546Z</time>
      </trkpt>
    </trkseg>
  </trk>
</gpx>